<?xml version="1.0" encoding="UTF-8" standalone="no" ?>
<gpx xmlns="http://www.topografix.com/GPX/1/1" xmlns:xsi="http://www.w3.org/2001/XMLSchema-instance" xsi:schemaLocation="http://www.topografix.com/GPX/1/1 http://www.topografix.com/GPX/1/1/gpx.xsd" version="1.1" creator="VisuGPX - https://www.visugpx.com">
  <metadata>
    <name>Brioude AR</name>
  </metadata>
  <trk>
    <name><![CDATA[2022-09-09 17:41:23]]></name>
    <extensions>
      <line xmlns="http://www.topografix.com/GPX/gpx_style/0/2">
        <color>0000FF</color>
        <width>4</width>
          <extensions>
            <sens>1</sens>
          </extensions>
      </line>
    </extensions>
    <trkseg>
      <trkpt lat="45.32282" lon="3.36828">
        <ele>399.08</ele>
        <time>2022-09-09T06:30:35Z</time>
        <extensions>
          <visugpx:TrkExtension xmlns:visugpx="https://www.visugpx.com/editgpx/">
            <visugpx:node>2</visugpx:node>
            </visugpx:TrkExtension>
        </extensions>
      </trkpt>
      <trkpt lat="45.32271" lon="3.36833">
        <ele>402.45</ele>
        <time>2022-09-09T06:30:39Z</time>
      </trkpt>
      <trkpt lat="45.3226" lon="3.36839">
        <ele>405.33</ele>
        <time>2022-09-09T06:30:43Z</time>
      </trkpt>
      <trkpt lat="45.32246" lon="3.36845">
        <ele>409.18</ele>
        <time>2022-09-09T06:30:48Z</time>
      </trkpt>
      <trkpt lat="45.32232" lon="3.36856">
        <ele>412.06</ele>
        <time>2022-09-09T06:30:53Z</time>
      </trkpt>
      <trkpt lat="45.3222" lon="3.36884">
        <ele>415.91</ele>
        <time>2022-09-09T06:31:00Z</time>
      </trkpt>
      <trkpt lat="45.3222" lon="3.369">
        <ele>417.83</ele>
        <time>2022-09-09T06:31:06Z</time>
      </trkpt>
      <trkpt lat="45.32219" lon="3.36899">
        <ele>424.08</ele>
        <time>2022-09-09T06:31:24Z</time>
      </trkpt>
      <trkpt lat="45.32219" lon="3.36898">
        <ele>430.81</ele>
        <time>2022-09-09T06:32:01Z</time>
      </trkpt>
      <trkpt lat="45.32219" lon="3.36901">
        <ele>432.25</ele>
        <time>2022-09-09T06:32:11Z</time>
      </trkpt>
      <trkpt lat="45.32219" lon="3.36903">
        <ele>431.77</ele>
        <time>2022-09-09T06:32:12Z</time>
      </trkpt>
      <trkpt lat="45.3222" lon="3.36905">
        <ele>432.25</ele>
        <time>2022-09-09T06:32:13Z</time>
      </trkpt>
      <trkpt lat="45.3222" lon="3.36908">
        <ele>432.25</ele>
        <time>2022-09-09T06:32:14Z</time>
      </trkpt>
      <trkpt lat="45.32221" lon="3.36911">
        <ele>432.25</ele>
        <time>2022-09-09T06:32:15Z</time>
      </trkpt>
      <trkpt lat="45.32222" lon="3.36914">
        <ele>432.25</ele>
        <time>2022-09-09T06:32:16Z</time>
      </trkpt>
      <trkpt lat="45.32227" lon="3.36935">
        <ele>432.73</ele>
        <time>2022-09-09T06:32:22Z</time>
      </trkpt>
      <trkpt lat="45.32238" lon="3.36986">
        <ele>432.73</ele>
        <time>2022-09-09T06:32:33Z</time>
      </trkpt>
      <trkpt lat="45.32241" lon="3.37021">
        <ele>433.21</ele>
        <time>2022-09-09T06:32:42Z</time>
      </trkpt>
      <trkpt lat="45.32226" lon="3.37035">
        <ele>433.69</ele>
        <time>2022-09-09T06:32:47Z</time>
      </trkpt>
      <trkpt lat="45.32194" lon="3.37048">
        <ele>434.17</ele>
        <time>2022-09-09T06:32:55Z</time>
      </trkpt>
      <trkpt lat="45.32171" lon="3.37058">
        <ele>434.17</ele>
        <time>2022-09-09T06:33:01Z</time>
      </trkpt>
      <trkpt lat="45.32144" lon="3.37072">
        <ele>434.65</ele>
        <time>2022-09-09T06:33:08Z</time>
      </trkpt>
      <trkpt lat="45.32117" lon="3.37082">
        <ele>435.13</ele>
        <time>2022-09-09T06:33:13Z</time>
      </trkpt>
      <trkpt lat="45.32113" lon="3.37086">
        <ele>435.61</ele>
        <time>2022-09-09T06:33:14Z</time>
      </trkpt>
      <trkpt lat="45.32109" lon="3.37091">
        <ele>435.13</ele>
        <time>2022-09-09T06:33:15Z</time>
      </trkpt>
      <trkpt lat="45.32106" lon="3.37097">
        <ele>435.13</ele>
        <time>2022-09-09T06:33:16Z</time>
      </trkpt>
      <trkpt lat="45.32105" lon="3.37104">
        <ele>434.65</ele>
        <time>2022-09-09T06:33:17Z</time>
      </trkpt>
      <trkpt lat="45.32106" lon="3.37111">
        <ele>435.13</ele>
        <time>2022-09-09T06:33:18Z</time>
      </trkpt>
      <trkpt lat="45.32107" lon="3.37116">
        <ele>435.13</ele>
        <time>2022-09-09T06:33:19Z</time>
      </trkpt>
      <trkpt lat="45.3211" lon="3.37121">
        <ele>434.65</ele>
        <time>2022-09-09T06:33:20Z</time>
      </trkpt>
      <trkpt lat="45.32114" lon="3.37125">
        <ele>434.65</ele>
        <time>2022-09-09T06:33:21Z</time>
      </trkpt>
      <trkpt lat="45.32119" lon="3.37128">
        <ele>434.65</ele>
        <time>2022-09-09T06:33:22Z</time>
      </trkpt>
      <trkpt lat="45.32124" lon="3.37129">
        <ele>434.65</ele>
        <time>2022-09-09T06:33:23Z</time>
      </trkpt>
      <trkpt lat="45.32129" lon="3.37128">
        <ele>434.17</ele>
        <time>2022-09-09T06:33:24Z</time>
      </trkpt>
      <trkpt lat="45.32133" lon="3.37127">
        <ele>434.17</ele>
        <time>2022-09-09T06:33:25Z</time>
      </trkpt>
      <trkpt lat="45.32138" lon="3.37126">
        <ele>434.17</ele>
        <time>2022-09-09T06:33:26Z</time>
      </trkpt>
      <trkpt lat="45.32143" lon="3.37127">
        <ele>434.17</ele>
        <time>2022-09-09T06:33:27Z</time>
      </trkpt>
      <trkpt lat="45.32147" lon="3.37129">
        <ele>434.17</ele>
        <time>2022-09-09T06:33:28Z</time>
      </trkpt>
      <trkpt lat="45.3215" lon="3.37133">
        <ele>433.69</ele>
        <time>2022-09-09T06:33:29Z</time>
      </trkpt>
      <trkpt lat="45.32153" lon="3.37137">
        <ele>433.69</ele>
        <time>2022-09-09T06:33:30Z</time>
      </trkpt>
      <trkpt lat="45.32156" lon="3.37141">
        <ele>433.69</ele>
        <time>2022-09-09T06:33:31Z</time>
      </trkpt>
      <trkpt lat="45.32158" lon="3.37147">
        <ele>433.69</ele>
        <time>2022-09-09T06:33:32Z</time>
      </trkpt>
      <trkpt lat="45.3216" lon="3.37153">
        <ele>433.69</ele>
        <time>2022-09-09T06:33:33Z</time>
      </trkpt>
      <trkpt lat="45.32162" lon="3.37159">
        <ele>434.17</ele>
        <time>2022-09-09T06:33:34Z</time>
      </trkpt>
      <trkpt lat="45.3217" lon="3.37201">
        <ele>434.17</ele>
        <time>2022-09-09T06:33:41Z</time>
      </trkpt>
      <trkpt lat="45.32179" lon="3.37235">
        <ele>433.69</ele>
        <time>2022-09-09T06:33:49Z</time>
      </trkpt>
      <trkpt lat="45.32185" lon="3.37268">
        <ele>433.69</ele>
        <time>2022-09-09T06:33:59Z</time>
      </trkpt>
      <trkpt lat="45.32195" lon="3.37305">
        <ele>433.21</ele>
        <time>2022-09-09T06:34:06Z</time>
      </trkpt>
      <trkpt lat="45.32207" lon="3.37352">
        <ele>433.21</ele>
        <time>2022-09-09T06:34:15Z</time>
      </trkpt>
      <trkpt lat="45.32217" lon="3.37397">
        <ele>433.21</ele>
        <time>2022-09-09T06:34:23Z</time>
      </trkpt>
      <trkpt lat="45.32224" lon="3.37421">
        <ele>433.69</ele>
        <time>2022-09-09T06:34:27Z</time>
      </trkpt>
      <trkpt lat="45.32237" lon="3.37473">
        <ele>433.69</ele>
        <time>2022-09-09T06:34:36Z</time>
      </trkpt>
      <trkpt lat="45.32243" lon="3.37505">
        <ele>433.21</ele>
        <time>2022-09-09T06:34:42Z</time>
      </trkpt>
      <trkpt lat="45.32255" lon="3.3756">
        <ele>432.73</ele>
        <time>2022-09-09T06:34:51Z</time>
      </trkpt>
      <trkpt lat="45.32266" lon="3.37606">
        <ele>428.89</ele>
        <time>2022-09-09T06:34:56Z</time>
      </trkpt>
      <trkpt lat="45.32268" lon="3.37616">
        <ele>427.92</ele>
        <time>2022-09-09T06:34:57Z</time>
      </trkpt>
      <trkpt lat="45.32269" lon="3.37624">
        <ele>426.96</ele>
        <time>2022-09-09T06:34:58Z</time>
      </trkpt>
      <trkpt lat="45.3227" lon="3.3765">
        <ele>425.04</ele>
        <time>2022-09-09T06:35:01Z</time>
      </trkpt>
      <trkpt lat="45.32272" lon="3.37681">
        <ele>424.08</ele>
        <time>2022-09-09T06:35:05Z</time>
      </trkpt>
      <trkpt lat="45.32274" lon="3.37689">
        <ele>423.6</ele>
        <time>2022-09-09T06:35:06Z</time>
      </trkpt>
      <trkpt lat="45.32277" lon="3.37696">
        <ele>423.12</ele>
        <time>2022-09-09T06:35:07Z</time>
      </trkpt>
      <trkpt lat="45.32284" lon="3.3771">
        <ele>422.64</ele>
        <time>2022-09-09T06:35:09Z</time>
      </trkpt>
      <trkpt lat="45.32288" lon="3.37716">
        <ele>422.64</ele>
        <time>2022-09-09T06:35:10Z</time>
      </trkpt>
      <trkpt lat="45.32294" lon="3.37721">
        <ele>422.64</ele>
        <time>2022-09-09T06:35:11Z</time>
      </trkpt>
      <trkpt lat="45.323" lon="3.37724">
        <ele>422.16</ele>
        <time>2022-09-09T06:35:12Z</time>
      </trkpt>
      <trkpt lat="45.32306" lon="3.37726">
        <ele>422.16</ele>
        <time>2022-09-09T06:35:13Z</time>
      </trkpt>
      <trkpt lat="45.32313" lon="3.37727">
        <ele>422.16</ele>
        <time>2022-09-09T06:35:14Z</time>
      </trkpt>
      <trkpt lat="45.32319" lon="3.37727">
        <ele>422.16</ele>
        <time>2022-09-09T06:35:15Z</time>
      </trkpt>
      <trkpt lat="45.32345" lon="3.37727">
        <ele>421.68</ele>
        <time>2022-09-09T06:35:19Z</time>
      </trkpt>
      <trkpt lat="45.32351" lon="3.37729">
        <ele>421.68</ele>
        <time>2022-09-09T06:35:20Z</time>
      </trkpt>
      <trkpt lat="45.32357" lon="3.37731">
        <ele>421.68</ele>
        <time>2022-09-09T06:35:21Z</time>
      </trkpt>
      <trkpt lat="45.32362" lon="3.37733">
        <ele>421.68</ele>
        <time>2022-09-09T06:35:22Z</time>
      </trkpt>
      <trkpt lat="45.32367" lon="3.37737">
        <ele>421.19</ele>
        <time>2022-09-09T06:35:23Z</time>
      </trkpt>
      <trkpt lat="45.32371" lon="3.37741">
        <ele>421.19</ele>
        <time>2022-09-09T06:35:24Z</time>
      </trkpt>
      <trkpt lat="45.32375" lon="3.37745">
        <ele>421.19</ele>
        <time>2022-09-09T06:35:25Z</time>
      </trkpt>
      <trkpt lat="45.32378" lon="3.3775">
        <ele>421.19</ele>
        <time>2022-09-09T06:35:26Z</time>
      </trkpt>
      <trkpt lat="45.32381" lon="3.37756">
        <ele>421.19</ele>
        <time>2022-09-09T06:35:27Z</time>
      </trkpt>
      <trkpt lat="45.32383" lon="3.37762">
        <ele>421.19</ele>
        <time>2022-09-09T06:35:28Z</time>
      </trkpt>
      <trkpt lat="45.32384" lon="3.37769">
        <ele>421.68</ele>
        <time>2022-09-09T06:35:29Z</time>
      </trkpt>
      <trkpt lat="45.3239" lon="3.37799">
        <ele>422.16</ele>
        <time>2022-09-09T06:35:33Z</time>
      </trkpt>
      <trkpt lat="45.32391" lon="3.37806">
        <ele>421.68</ele>
        <time>2022-09-09T06:35:34Z</time>
      </trkpt>
      <trkpt lat="45.32402" lon="3.37879">
        <ele>421.68</ele>
        <time>2022-09-09T06:35:43Z</time>
      </trkpt>
      <trkpt lat="45.32405" lon="3.37886">
        <ele>421.68</ele>
        <time>2022-09-09T06:35:44Z</time>
      </trkpt>
      <trkpt lat="45.32408" lon="3.37892">
        <ele>421.68</ele>
        <time>2022-09-09T06:35:45Z</time>
      </trkpt>
      <trkpt lat="45.32412" lon="3.37896">
        <ele>421.68</ele>
        <time>2022-09-09T06:35:46Z</time>
      </trkpt>
      <trkpt lat="45.32418" lon="3.37899">
        <ele>421.68</ele>
        <time>2022-09-09T06:35:47Z</time>
      </trkpt>
      <trkpt lat="45.32423" lon="3.379">
        <ele>421.19</ele>
        <time>2022-09-09T06:35:48Z</time>
      </trkpt>
      <trkpt lat="45.3243" lon="3.379">
        <ele>421.19</ele>
        <time>2022-09-09T06:35:49Z</time>
      </trkpt>
      <trkpt lat="45.32435" lon="3.379">
        <ele>421.19</ele>
        <time>2022-09-09T06:35:50Z</time>
      </trkpt>
      <trkpt lat="45.32447" lon="3.37901">
        <ele>422.16</ele>
        <time>2022-09-09T06:35:52Z</time>
      </trkpt>
      <trkpt lat="45.32453" lon="3.37903">
        <ele>421.19</ele>
        <time>2022-09-09T06:35:53Z</time>
      </trkpt>
      <trkpt lat="45.32459" lon="3.37906">
        <ele>420.71</ele>
        <time>2022-09-09T06:35:54Z</time>
      </trkpt>
      <trkpt lat="45.3248" lon="3.37918">
        <ele>421.19</ele>
        <time>2022-09-09T06:35:58Z</time>
      </trkpt>
      <trkpt lat="45.32486" lon="3.3792">
        <ele>421.19</ele>
        <time>2022-09-09T06:35:59Z</time>
      </trkpt>
      <trkpt lat="45.32514" lon="3.37926">
        <ele>421.19</ele>
        <time>2022-09-09T06:36:04Z</time>
      </trkpt>
      <trkpt lat="45.3252" lon="3.37929">
        <ele>421.19</ele>
        <time>2022-09-09T06:36:05Z</time>
      </trkpt>
      <trkpt lat="45.32525" lon="3.37933">
        <ele>421.19</ele>
        <time>2022-09-09T06:36:06Z</time>
      </trkpt>
      <trkpt lat="45.3253" lon="3.37937">
        <ele>421.19</ele>
        <time>2022-09-09T06:36:07Z</time>
      </trkpt>
      <trkpt lat="45.32535" lon="3.37943">
        <ele>420.71</ele>
        <time>2022-09-09T06:36:08Z</time>
      </trkpt>
      <trkpt lat="45.32552" lon="3.37965">
        <ele>421.19</ele>
        <time>2022-09-09T06:36:12Z</time>
      </trkpt>
      <trkpt lat="45.32601" lon="3.38009">
        <ele>421.19</ele>
        <time>2022-09-09T06:36:22Z</time>
      </trkpt>
      <trkpt lat="45.32611" lon="3.38017">
        <ele>421.19</ele>
        <time>2022-09-09T06:36:24Z</time>
      </trkpt>
      <trkpt lat="45.3265" lon="3.38039">
        <ele>420.71</ele>
        <time>2022-09-09T06:36:32Z</time>
      </trkpt>
      <trkpt lat="45.32667" lon="3.38046">
        <ele>420.71</ele>
        <time>2022-09-09T06:36:36Z</time>
      </trkpt>
      <trkpt lat="45.32671" lon="3.38046">
        <ele>420.71</ele>
        <time>2022-09-09T06:36:37Z</time>
      </trkpt>
      <trkpt lat="45.32675" lon="3.38046">
        <ele>420.23</ele>
        <time>2022-09-09T06:36:38Z</time>
      </trkpt>
      <trkpt lat="45.32697" lon="3.38046">
        <ele>420.71</ele>
        <time>2022-09-09T06:36:43Z</time>
      </trkpt>
      <trkpt lat="45.32701" lon="3.38049">
        <ele>420.71</ele>
        <time>2022-09-09T06:36:44Z</time>
      </trkpt>
      <trkpt lat="45.32705" lon="3.38052">
        <ele>420.71</ele>
        <time>2022-09-09T06:36:45Z</time>
      </trkpt>
      <trkpt lat="45.32709" lon="3.38055">
        <ele>420.71</ele>
        <time>2022-09-09T06:36:46Z</time>
      </trkpt>
      <trkpt lat="45.32712" lon="3.38059">
        <ele>421.19</ele>
        <time>2022-09-09T06:36:47Z</time>
      </trkpt>
      <trkpt lat="45.32714" lon="3.38064">
        <ele>420.71</ele>
        <time>2022-09-09T06:36:48Z</time>
      </trkpt>
      <trkpt lat="45.32716" lon="3.3807">
        <ele>421.19</ele>
        <time>2022-09-09T06:36:49Z</time>
      </trkpt>
      <trkpt lat="45.32718" lon="3.38076">
        <ele>420.71</ele>
        <time>2022-09-09T06:36:50Z</time>
      </trkpt>
      <trkpt lat="45.32723" lon="3.38101">
        <ele>421.19</ele>
        <time>2022-09-09T06:36:54Z</time>
      </trkpt>
      <trkpt lat="45.32724" lon="3.38107">
        <ele>420.71</ele>
        <time>2022-09-09T06:36:55Z</time>
      </trkpt>
      <trkpt lat="45.32724" lon="3.38114">
        <ele>421.19</ele>
        <time>2022-09-09T06:36:56Z</time>
      </trkpt>
      <trkpt lat="45.32723" lon="3.3812">
        <ele>421.19</ele>
        <time>2022-09-09T06:36:57Z</time>
      </trkpt>
      <trkpt lat="45.32722" lon="3.38127">
        <ele>421.19</ele>
        <time>2022-09-09T06:36:58Z</time>
      </trkpt>
      <trkpt lat="45.32721" lon="3.38133">
        <ele>421.19</ele>
        <time>2022-09-09T06:36:59Z</time>
      </trkpt>
      <trkpt lat="45.3272" lon="3.3814">
        <ele>421.19</ele>
        <time>2022-09-09T06:37:00Z</time>
      </trkpt>
      <trkpt lat="45.32719" lon="3.38147">
        <ele>421.19</ele>
        <time>2022-09-09T06:37:01Z</time>
      </trkpt>
      <trkpt lat="45.32718" lon="3.38153">
        <ele>421.19</ele>
        <time>2022-09-09T06:37:02Z</time>
      </trkpt>
      <trkpt lat="45.32717" lon="3.38166">
        <ele>421.19</ele>
        <time>2022-09-09T06:37:04Z</time>
      </trkpt>
      <trkpt lat="45.32718" lon="3.38173">
        <ele>421.19</ele>
        <time>2022-09-09T06:37:05Z</time>
      </trkpt>
      <trkpt lat="45.32719" lon="3.38192">
        <ele>421.68</ele>
        <time>2022-09-09T06:37:08Z</time>
      </trkpt>
      <trkpt lat="45.32721" lon="3.38204">
        <ele>421.68</ele>
        <time>2022-09-09T06:37:10Z</time>
      </trkpt>
      <trkpt lat="45.32723" lon="3.3821">
        <ele>421.68</ele>
        <time>2022-09-09T06:37:11Z</time>
      </trkpt>
      <trkpt lat="45.32725" lon="3.38216">
        <ele>421.68</ele>
        <time>2022-09-09T06:37:12Z</time>
      </trkpt>
      <trkpt lat="45.32729" lon="3.3822">
        <ele>421.68</ele>
        <time>2022-09-09T06:37:13Z</time>
      </trkpt>
      <trkpt lat="45.32733" lon="3.38223">
        <ele>421.68</ele>
        <time>2022-09-09T06:37:14Z</time>
      </trkpt>
      <trkpt lat="45.32738" lon="3.38225">
        <ele>421.19</ele>
        <time>2022-09-09T06:37:15Z</time>
      </trkpt>
      <trkpt lat="45.32742" lon="3.38226">
        <ele>421.19</ele>
        <time>2022-09-09T06:37:16Z</time>
      </trkpt>
      <trkpt lat="45.32747" lon="3.38225">
        <ele>421.19</ele>
        <time>2022-09-09T06:37:17Z</time>
      </trkpt>
      <trkpt lat="45.32751" lon="3.38225">
        <ele>421.19</ele>
        <time>2022-09-09T06:37:18Z</time>
      </trkpt>
      <trkpt lat="45.3276" lon="3.38225">
        <ele>421.19</ele>
        <time>2022-09-09T06:37:20Z</time>
      </trkpt>
      <trkpt lat="45.32769" lon="3.38224">
        <ele>421.19</ele>
        <time>2022-09-09T06:37:22Z</time>
      </trkpt>
      <trkpt lat="45.32773" lon="3.38224">
        <ele>421.19</ele>
        <time>2022-09-09T06:37:23Z</time>
      </trkpt>
      <trkpt lat="45.32777" lon="3.38225">
        <ele>421.19</ele>
        <time>2022-09-09T06:37:24Z</time>
      </trkpt>
      <trkpt lat="45.3278" lon="3.38227">
        <ele>421.19</ele>
        <time>2022-09-09T06:37:25Z</time>
      </trkpt>
      <trkpt lat="45.32784" lon="3.38229">
        <ele>420.71</ele>
        <time>2022-09-09T06:37:26Z</time>
      </trkpt>
      <trkpt lat="45.32788" lon="3.38233">
        <ele>421.19</ele>
        <time>2022-09-09T06:37:27Z</time>
      </trkpt>
      <trkpt lat="45.32792" lon="3.38236">
        <ele>421.19</ele>
        <time>2022-09-09T06:37:28Z</time>
      </trkpt>
      <trkpt lat="45.32795" lon="3.3824">
        <ele>421.19</ele>
        <time>2022-09-09T06:37:29Z</time>
      </trkpt>
      <trkpt lat="45.32809" lon="3.38255">
        <ele>421.19</ele>
        <time>2022-09-09T06:37:33Z</time>
      </trkpt>
      <trkpt lat="45.32812" lon="3.38259">
        <ele>421.19</ele>
        <time>2022-09-09T06:37:34Z</time>
      </trkpt>
      <trkpt lat="45.3282" lon="3.38273">
        <ele>421.19</ele>
        <time>2022-09-09T06:37:37Z</time>
      </trkpt>
      <trkpt lat="45.32833" lon="3.38318">
        <ele>421.19</ele>
        <time>2022-09-09T06:37:45Z</time>
      </trkpt>
      <trkpt lat="45.32843" lon="3.38356">
        <ele>421.68</ele>
        <time>2022-09-09T06:37:52Z</time>
      </trkpt>
      <trkpt lat="45.32851" lon="3.38389">
        <ele>421.19</ele>
        <time>2022-09-09T06:37:58Z</time>
      </trkpt>
      <trkpt lat="45.32866" lon="3.38436">
        <ele>420.23</ele>
        <time>2022-09-09T06:38:06Z</time>
      </trkpt>
      <trkpt lat="45.32867" lon="3.38442">
        <ele>419.75</ele>
        <time>2022-09-09T06:38:10Z</time>
      </trkpt>
      <trkpt lat="45.32867" lon="3.38441">
        <ele>420.23</ele>
        <time>2022-09-09T06:38:30Z</time>
      </trkpt>
      <trkpt lat="45.32867" lon="3.38442">
        <ele>419.75</ele>
        <time>2022-09-09T06:38:41Z</time>
      </trkpt>
      <trkpt lat="45.32866" lon="3.38442">
        <ele>420.23</ele>
        <time>2022-09-09T06:39:12Z</time>
      </trkpt>
      <trkpt lat="45.32867" lon="3.38444">
        <ele>419.75</ele>
        <time>2022-09-09T06:39:20Z</time>
      </trkpt>
      <trkpt lat="45.32866" lon="3.38443">
        <ele>419.75</ele>
        <time>2022-09-09T06:39:37Z</time>
      </trkpt>
      <trkpt lat="45.32867" lon="3.38443">
        <ele>420.23</ele>
        <time>2022-09-09T06:39:51Z</time>
      </trkpt>
      <trkpt lat="45.32867" lon="3.38445">
        <ele>420.71</ele>
        <time>2022-09-09T06:39:52Z</time>
      </trkpt>
      <trkpt lat="45.32868" lon="3.38448">
        <ele>420.71</ele>
        <time>2022-09-09T06:39:53Z</time>
      </trkpt>
      <trkpt lat="45.32875" lon="3.38472">
        <ele>421.19</ele>
        <time>2022-09-09T06:39:57Z</time>
      </trkpt>
      <trkpt lat="45.32893" lon="3.38542">
        <ele>420.71</ele>
        <time>2022-09-09T06:40:07Z</time>
      </trkpt>
      <trkpt lat="45.32903" lon="3.38567">
        <ele>420.71</ele>
        <time>2022-09-09T06:40:11Z</time>
      </trkpt>
      <trkpt lat="45.32927" lon="3.3863">
        <ele>421.19</ele>
        <time>2022-09-09T06:40:21Z</time>
      </trkpt>
      <trkpt lat="45.32949" lon="3.38688">
        <ele>421.19</ele>
        <time>2022-09-09T06:40:30Z</time>
      </trkpt>
      <trkpt lat="45.32977" lon="3.38757">
        <ele>420.23</ele>
        <time>2022-09-09T06:40:41Z</time>
      </trkpt>
      <trkpt lat="45.32983" lon="3.38774">
        <ele>420.23</ele>
        <time>2022-09-09T06:40:45Z</time>
      </trkpt>
      <trkpt lat="45.32982" lon="3.38777">
        <ele>420.23</ele>
        <time>2022-09-09T06:40:46Z</time>
      </trkpt>
      <trkpt lat="45.3298" lon="3.3878">
        <ele>420.23</ele>
        <time>2022-09-09T06:40:47Z</time>
      </trkpt>
      <trkpt lat="45.32977" lon="3.3878">
        <ele>420.23</ele>
        <time>2022-09-09T06:40:48Z</time>
      </trkpt>
      <trkpt lat="45.32973" lon="3.38779">
        <ele>420.23</ele>
        <time>2022-09-09T06:40:49Z</time>
      </trkpt>
      <trkpt lat="45.32969" lon="3.38778">
        <ele>420.23</ele>
        <time>2022-09-09T06:40:50Z</time>
      </trkpt>
      <trkpt lat="45.32965" lon="3.38778">
        <ele>420.71</ele>
        <time>2022-09-09T06:40:51Z</time>
      </trkpt>
      <trkpt lat="45.32952" lon="3.38776">
        <ele>420.71</ele>
        <time>2022-09-09T06:40:54Z</time>
      </trkpt>
      <trkpt lat="45.32908" lon="3.38774">
        <ele>421.19</ele>
        <time>2022-09-09T06:41:04Z</time>
      </trkpt>
      <trkpt lat="45.32871" lon="3.38772">
        <ele>421.19</ele>
        <time>2022-09-09T06:41:12Z</time>
      </trkpt>
      <trkpt lat="45.32843" lon="3.38771">
        <ele>421.19</ele>
        <time>2022-09-09T06:41:18Z</time>
      </trkpt>
      <trkpt lat="45.32803" lon="3.38769">
        <ele>421.19</ele>
        <time>2022-09-09T06:41:26Z</time>
      </trkpt>
      <trkpt lat="45.32751" lon="3.38766">
        <ele>421.19</ele>
        <time>2022-09-09T06:41:36Z</time>
      </trkpt>
      <trkpt lat="45.32746" lon="3.38767">
        <ele>421.19</ele>
        <time>2022-09-09T06:41:37Z</time>
      </trkpt>
      <trkpt lat="45.32741" lon="3.38769">
        <ele>421.19</ele>
        <time>2022-09-09T06:41:38Z</time>
      </trkpt>
      <trkpt lat="45.32736" lon="3.38771">
        <ele>421.19</ele>
        <time>2022-09-09T06:41:39Z</time>
      </trkpt>
      <trkpt lat="45.32731" lon="3.38775">
        <ele>421.19</ele>
        <time>2022-09-09T06:41:40Z</time>
      </trkpt>
      <trkpt lat="45.32727" lon="3.38779">
        <ele>421.19</ele>
        <time>2022-09-09T06:41:41Z</time>
      </trkpt>
      <trkpt lat="45.32723" lon="3.38784">
        <ele>421.19</ele>
        <time>2022-09-09T06:41:42Z</time>
      </trkpt>
      <trkpt lat="45.3272" lon="3.38789">
        <ele>421.19</ele>
        <time>2022-09-09T06:41:43Z</time>
      </trkpt>
      <trkpt lat="45.32717" lon="3.38795">
        <ele>421.19</ele>
        <time>2022-09-09T06:41:44Z</time>
      </trkpt>
      <trkpt lat="45.32696" lon="3.3885">
        <ele>421.19</ele>
        <time>2022-09-09T06:41:53Z</time>
      </trkpt>
      <trkpt lat="45.32691" lon="3.38863">
        <ele>420.71</ele>
        <time>2022-09-09T06:41:55Z</time>
      </trkpt>
      <trkpt lat="45.32688" lon="3.38868">
        <ele>420.71</ele>
        <time>2022-09-09T06:41:56Z</time>
      </trkpt>
      <trkpt lat="45.32685" lon="3.38873">
        <ele>421.19</ele>
        <time>2022-09-09T06:41:57Z</time>
      </trkpt>
      <trkpt lat="45.32682" lon="3.38878">
        <ele>420.71</ele>
        <time>2022-09-09T06:41:58Z</time>
      </trkpt>
      <trkpt lat="45.32678" lon="3.38882">
        <ele>420.71</ele>
        <time>2022-09-09T06:41:59Z</time>
      </trkpt>
      <trkpt lat="45.32652" lon="3.38915">
        <ele>420.71</ele>
        <time>2022-09-09T06:42:06Z</time>
      </trkpt>
      <trkpt lat="45.32631" lon="3.38943">
        <ele>421.19</ele>
        <time>2022-09-09T06:42:12Z</time>
      </trkpt>
      <trkpt lat="45.32607" lon="3.38972">
        <ele>421.19</ele>
        <time>2022-09-09T06:42:19Z</time>
      </trkpt>
      <trkpt lat="45.32596" lon="3.38982">
        <ele>421.68</ele>
        <time>2022-09-09T06:42:22Z</time>
      </trkpt>
      <trkpt lat="45.32587" lon="3.38987">
        <ele>421.68</ele>
        <time>2022-09-09T06:42:24Z</time>
      </trkpt>
      <trkpt lat="45.32583" lon="3.38989">
        <ele>421.68</ele>
        <time>2022-09-09T06:42:25Z</time>
      </trkpt>
      <trkpt lat="45.32564" lon="3.38995">
        <ele>421.68</ele>
        <time>2022-09-09T06:42:31Z</time>
      </trkpt>
      <trkpt lat="45.3256" lon="3.38995">
        <ele>421.68</ele>
        <time>2022-09-09T06:42:32Z</time>
      </trkpt>
      <trkpt lat="45.32555" lon="3.38996">
        <ele>421.68</ele>
        <time>2022-09-09T06:42:33Z</time>
      </trkpt>
      <trkpt lat="45.32543" lon="3.39">
        <ele>421.19</ele>
        <time>2022-09-09T06:42:37Z</time>
      </trkpt>
      <trkpt lat="45.32531" lon="3.39006">
        <ele>421.68</ele>
        <time>2022-09-09T06:42:41Z</time>
      </trkpt>
      <trkpt lat="45.32513" lon="3.39016">
        <ele>422.16</ele>
        <time>2022-09-09T06:42:46Z</time>
      </trkpt>
      <trkpt lat="45.32496" lon="3.39043">
        <ele>422.16</ele>
        <time>2022-09-09T06:42:52Z</time>
      </trkpt>
      <trkpt lat="45.32477" lon="3.39086">
        <ele>422.64</ele>
        <time>2022-09-09T06:43:00Z</time>
      </trkpt>
      <trkpt lat="45.32475" lon="3.39092">
        <ele>422.64</ele>
        <time>2022-09-09T06:43:01Z</time>
      </trkpt>
      <trkpt lat="45.32473" lon="3.39098">
        <ele>422.64</ele>
        <time>2022-09-09T06:43:02Z</time>
      </trkpt>
      <trkpt lat="45.32471" lon="3.39103">
        <ele>423.12</ele>
        <time>2022-09-09T06:43:03Z</time>
      </trkpt>
      <trkpt lat="45.32469" lon="3.39109">
        <ele>422.64</ele>
        <time>2022-09-09T06:43:04Z</time>
      </trkpt>
      <trkpt lat="45.32449" lon="3.39165">
        <ele>423.12</ele>
        <time>2022-09-09T06:43:14Z</time>
      </trkpt>
      <trkpt lat="45.32426" lon="3.39216">
        <ele>423.12</ele>
        <time>2022-09-09T06:43:23Z</time>
      </trkpt>
      <trkpt lat="45.32397" lon="3.39269">
        <ele>423.6</ele>
        <time>2022-09-09T06:43:33Z</time>
      </trkpt>
      <trkpt lat="45.32369" lon="3.39318">
        <ele>424.08</ele>
        <time>2022-09-09T06:43:42Z</time>
      </trkpt>
      <trkpt lat="45.32344" lon="3.39363">
        <ele>424.56</ele>
        <time>2022-09-09T06:43:50Z</time>
      </trkpt>
      <trkpt lat="45.32319" lon="3.39407">
        <ele>424.08</ele>
        <time>2022-09-09T06:43:58Z</time>
      </trkpt>
      <trkpt lat="45.32293" lon="3.39457">
        <ele>424.08</ele>
        <time>2022-09-09T06:44:07Z</time>
      </trkpt>
      <trkpt lat="45.32271" lon="3.39511">
        <ele>424.08</ele>
        <time>2022-09-09T06:44:16Z</time>
      </trkpt>
      <trkpt lat="45.32266" lon="3.39522">
        <ele>424.08</ele>
        <time>2022-09-09T06:44:18Z</time>
      </trkpt>
      <trkpt lat="45.32263" lon="3.39527">
        <ele>424.08</ele>
        <time>2022-09-09T06:44:19Z</time>
      </trkpt>
      <trkpt lat="45.32259" lon="3.39532">
        <ele>424.08</ele>
        <time>2022-09-09T06:44:20Z</time>
      </trkpt>
      <trkpt lat="45.32256" lon="3.39537">
        <ele>424.08</ele>
        <time>2022-09-09T06:44:21Z</time>
      </trkpt>
      <trkpt lat="45.32252" lon="3.39541">
        <ele>424.08</ele>
        <time>2022-09-09T06:44:22Z</time>
      </trkpt>
      <trkpt lat="45.32236" lon="3.39555">
        <ele>424.08</ele>
        <time>2022-09-09T06:44:26Z</time>
      </trkpt>
      <trkpt lat="45.32232" lon="3.39559">
        <ele>424.08</ele>
        <time>2022-09-09T06:44:27Z</time>
      </trkpt>
      <trkpt lat="45.32199" lon="3.39588">
        <ele>424.08</ele>
        <time>2022-09-09T06:44:35Z</time>
      </trkpt>
      <trkpt lat="45.32195" lon="3.39592">
        <ele>424.08</ele>
        <time>2022-09-09T06:44:36Z</time>
      </trkpt>
      <trkpt lat="45.32191" lon="3.39595">
        <ele>424.08</ele>
        <time>2022-09-09T06:44:37Z</time>
      </trkpt>
      <trkpt lat="45.32153" lon="3.39629">
        <ele>424.08</ele>
        <time>2022-09-09T06:44:48Z</time>
      </trkpt>
      <trkpt lat="45.32137" lon="3.39638">
        <ele>424.56</ele>
        <time>2022-09-09T06:44:52Z</time>
      </trkpt>
      <trkpt lat="45.32133" lon="3.3964">
        <ele>424.56</ele>
        <time>2022-09-09T06:44:53Z</time>
      </trkpt>
      <trkpt lat="45.32129" lon="3.3964">
        <ele>424.56</ele>
        <time>2022-09-09T06:44:54Z</time>
      </trkpt>
      <trkpt lat="45.32124" lon="3.3964">
        <ele>425.04</ele>
        <time>2022-09-09T06:44:55Z</time>
      </trkpt>
      <trkpt lat="45.32119" lon="3.39639">
        <ele>425.04</ele>
        <time>2022-09-09T06:44:56Z</time>
      </trkpt>
      <trkpt lat="45.32114" lon="3.39638">
        <ele>424.56</ele>
        <time>2022-09-09T06:44:57Z</time>
      </trkpt>
      <trkpt lat="45.32082" lon="3.39629">
        <ele>424.56</ele>
        <time>2022-09-09T06:45:04Z</time>
      </trkpt>
      <trkpt lat="45.32077" lon="3.39629">
        <ele>425.04</ele>
        <time>2022-09-09T06:45:05Z</time>
      </trkpt>
      <trkpt lat="45.32059" lon="3.39626">
        <ele>425.04</ele>
        <time>2022-09-09T06:45:09Z</time>
      </trkpt>
      <trkpt lat="45.32054" lon="3.39626">
        <ele>424.56</ele>
        <time>2022-09-09T06:45:10Z</time>
      </trkpt>
      <trkpt lat="45.32035" lon="3.39625">
        <ele>424.56</ele>
        <time>2022-09-09T06:45:14Z</time>
      </trkpt>
      <trkpt lat="45.3203" lon="3.39623">
        <ele>424.56</ele>
        <time>2022-09-09T06:45:15Z</time>
      </trkpt>
      <trkpt lat="45.31996" lon="3.39615">
        <ele>425.04</ele>
        <time>2022-09-09T06:45:22Z</time>
      </trkpt>
      <trkpt lat="45.31993" lon="3.39614">
        <ele>425.04</ele>
        <time>2022-09-09T06:45:23Z</time>
      </trkpt>
      <trkpt lat="45.3199" lon="3.39613">
        <ele>424.56</ele>
        <time>2022-09-09T06:45:24Z</time>
      </trkpt>
      <trkpt lat="45.31988" lon="3.39612">
        <ele>424.08</ele>
        <time>2022-09-09T06:45:25Z</time>
      </trkpt>
      <trkpt lat="45.31985" lon="3.39612">
        <ele>424.56</ele>
        <time>2022-09-09T06:45:26Z</time>
      </trkpt>
      <trkpt lat="45.31982" lon="3.39614">
        <ele>424.56</ele>
        <time>2022-09-09T06:45:27Z</time>
      </trkpt>
      <trkpt lat="45.31979" lon="3.39616">
        <ele>424.56</ele>
        <time>2022-09-09T06:45:28Z</time>
      </trkpt>
      <trkpt lat="45.31975" lon="3.39617">
        <ele>425.04</ele>
        <time>2022-09-09T06:45:29Z</time>
      </trkpt>
      <trkpt lat="45.31971" lon="3.39618">
        <ele>425.04</ele>
        <time>2022-09-09T06:45:30Z</time>
      </trkpt>
      <trkpt lat="45.31966" lon="3.39619">
        <ele>425.04</ele>
        <time>2022-09-09T06:45:31Z</time>
      </trkpt>
      <trkpt lat="45.31962" lon="3.39618">
        <ele>425.04</ele>
        <time>2022-09-09T06:45:32Z</time>
      </trkpt>
      <trkpt lat="45.31957" lon="3.39617">
        <ele>425.04</ele>
        <time>2022-09-09T06:45:33Z</time>
      </trkpt>
      <trkpt lat="45.31952" lon="3.39615">
        <ele>425.52</ele>
        <time>2022-09-09T06:45:34Z</time>
      </trkpt>
      <trkpt lat="45.31935" lon="3.39607">
        <ele>425.52</ele>
        <time>2022-09-09T06:45:38Z</time>
      </trkpt>
      <trkpt lat="45.31926" lon="3.39602">
        <ele>425.52</ele>
        <time>2022-09-09T06:45:40Z</time>
      </trkpt>
      <trkpt lat="45.31921" lon="3.396">
        <ele>425.52</ele>
        <time>2022-09-09T06:45:41Z</time>
      </trkpt>
      <trkpt lat="45.31916" lon="3.39599">
        <ele>425.52</ele>
        <time>2022-09-09T06:45:42Z</time>
      </trkpt>
      <trkpt lat="45.31889" lon="3.39591">
        <ele>425.04</ele>
        <time>2022-09-09T06:45:48Z</time>
      </trkpt>
      <trkpt lat="45.31859" lon="3.39586">
        <ele>425.52</ele>
        <time>2022-09-09T06:45:55Z</time>
      </trkpt>
      <trkpt lat="45.31846" lon="3.39586">
        <ele>425.52</ele>
        <time>2022-09-09T06:45:58Z</time>
      </trkpt>
      <trkpt lat="45.31822" lon="3.39588">
        <ele>425.52</ele>
        <time>2022-09-09T06:46:03Z</time>
      </trkpt>
      <trkpt lat="45.31818" lon="3.39589">
        <ele>425.52</ele>
        <time>2022-09-09T06:46:04Z</time>
      </trkpt>
      <trkpt lat="45.31814" lon="3.3959">
        <ele>425.52</ele>
        <time>2022-09-09T06:46:05Z</time>
      </trkpt>
      <trkpt lat="45.3181" lon="3.39591">
        <ele>425.52</ele>
        <time>2022-09-09T06:46:06Z</time>
      </trkpt>
      <trkpt lat="45.31806" lon="3.39593">
        <ele>425.52</ele>
        <time>2022-09-09T06:46:07Z</time>
      </trkpt>
      <trkpt lat="45.31802" lon="3.39595">
        <ele>425.52</ele>
        <time>2022-09-09T06:46:08Z</time>
      </trkpt>
      <trkpt lat="45.31797" lon="3.39597">
        <ele>425.52</ele>
        <time>2022-09-09T06:46:09Z</time>
      </trkpt>
      <trkpt lat="45.31764" lon="3.39618">
        <ele>425.52</ele>
        <time>2022-09-09T06:46:17Z</time>
      </trkpt>
      <trkpt lat="45.31759" lon="3.39621">
        <ele>425.52</ele>
        <time>2022-09-09T06:46:18Z</time>
      </trkpt>
      <trkpt lat="45.31755" lon="3.39623">
        <ele>425.52</ele>
        <time>2022-09-09T06:46:19Z</time>
      </trkpt>
      <trkpt lat="45.31751" lon="3.39626">
        <ele>425.52</ele>
        <time>2022-09-09T06:46:20Z</time>
      </trkpt>
      <trkpt lat="45.31746" lon="3.3963">
        <ele>425.52</ele>
        <time>2022-09-09T06:46:21Z</time>
      </trkpt>
      <trkpt lat="45.31742" lon="3.39634">
        <ele>425.52</ele>
        <time>2022-09-09T06:46:22Z</time>
      </trkpt>
      <trkpt lat="45.31738" lon="3.39638">
        <ele>425.52</ele>
        <time>2022-09-09T06:46:23Z</time>
      </trkpt>
      <trkpt lat="45.31735" lon="3.39642">
        <ele>425.52</ele>
        <time>2022-09-09T06:46:24Z</time>
      </trkpt>
      <trkpt lat="45.31728" lon="3.39652">
        <ele>425.52</ele>
        <time>2022-09-09T06:46:26Z</time>
      </trkpt>
      <trkpt lat="45.31722" lon="3.39661">
        <ele>426</ele>
        <time>2022-09-09T06:46:28Z</time>
      </trkpt>
      <trkpt lat="45.31709" lon="3.39677">
        <ele>426</ele>
        <time>2022-09-09T06:46:32Z</time>
      </trkpt>
      <trkpt lat="45.31701" lon="3.39683">
        <ele>426</ele>
        <time>2022-09-09T06:46:34Z</time>
      </trkpt>
      <trkpt lat="45.31697" lon="3.39687">
        <ele>426</ele>
        <time>2022-09-09T06:46:35Z</time>
      </trkpt>
      <trkpt lat="45.31693" lon="3.3969">
        <ele>426.48</ele>
        <time>2022-09-09T06:46:36Z</time>
      </trkpt>
      <trkpt lat="45.31666" lon="3.3972">
        <ele>426</ele>
        <time>2022-09-09T06:46:44Z</time>
      </trkpt>
      <trkpt lat="45.31655" lon="3.39731">
        <ele>426</ele>
        <time>2022-09-09T06:46:50Z</time>
      </trkpt>
      <trkpt lat="45.31656" lon="3.39732">
        <ele>426</ele>
        <time>2022-09-09T06:47:03Z</time>
      </trkpt>
      <trkpt lat="45.31655" lon="3.39733">
        <ele>426</ele>
        <time>2022-09-09T06:47:20Z</time>
      </trkpt>
      <trkpt lat="45.31654" lon="3.39733">
        <ele>426.48</ele>
        <time>2022-09-09T06:47:21Z</time>
      </trkpt>
      <trkpt lat="45.31652" lon="3.39734">
        <ele>426.48</ele>
        <time>2022-09-09T06:47:22Z</time>
      </trkpt>
      <trkpt lat="45.3165" lon="3.39735">
        <ele>426</ele>
        <time>2022-09-09T06:47:23Z</time>
      </trkpt>
      <trkpt lat="45.31648" lon="3.39735">
        <ele>426.48</ele>
        <time>2022-09-09T06:47:24Z</time>
      </trkpt>
      <trkpt lat="45.31646" lon="3.39736">
        <ele>426.48</ele>
        <time>2022-09-09T06:47:25Z</time>
      </trkpt>
      <trkpt lat="45.31644" lon="3.39735">
        <ele>426.48</ele>
        <time>2022-09-09T06:47:26Z</time>
      </trkpt>
      <trkpt lat="45.31642" lon="3.39734">
        <ele>426.96</ele>
        <time>2022-09-09T06:47:27Z</time>
      </trkpt>
      <trkpt lat="45.31627" lon="3.3973">
        <ele>426.48</ele>
        <time>2022-09-09T06:47:32Z</time>
      </trkpt>
      <trkpt lat="45.31608" lon="3.39728">
        <ele>426.96</ele>
        <time>2022-09-09T06:47:40Z</time>
      </trkpt>
      <trkpt lat="45.31588" lon="3.39728">
        <ele>426.96</ele>
        <time>2022-09-09T06:47:46Z</time>
      </trkpt>
      <trkpt lat="45.31567" lon="3.39727">
        <ele>427.44</ele>
        <time>2022-09-09T06:47:53Z</time>
      </trkpt>
      <trkpt lat="45.31553" lon="3.39722">
        <ele>427.44</ele>
        <time>2022-09-09T06:47:59Z</time>
      </trkpt>
      <trkpt lat="45.3154" lon="3.39717">
        <ele>426.96</ele>
        <time>2022-09-09T06:48:05Z</time>
      </trkpt>
      <trkpt lat="45.31532" lon="3.39714">
        <ele>427.44</ele>
        <time>2022-09-09T06:48:13Z</time>
      </trkpt>
      <trkpt lat="45.31512" lon="3.39708">
        <ele>427.92</ele>
        <time>2022-09-09T06:48:19Z</time>
      </trkpt>
      <trkpt lat="45.31493" lon="3.39709">
        <ele>427.92</ele>
        <time>2022-09-09T06:48:24Z</time>
      </trkpt>
      <trkpt lat="45.31488" lon="3.3971">
        <ele>427.92</ele>
        <time>2022-09-09T06:48:25Z</time>
      </trkpt>
      <trkpt lat="45.31451" lon="3.39736">
        <ele>428.4</ele>
        <time>2022-09-09T06:48:33Z</time>
      </trkpt>
      <trkpt lat="45.31419" lon="3.39773">
        <ele>428.4</ele>
        <time>2022-09-09T06:48:41Z</time>
      </trkpt>
      <trkpt lat="45.31407" lon="3.39788">
        <ele>428.4</ele>
        <time>2022-09-09T06:48:44Z</time>
      </trkpt>
      <trkpt lat="45.31369" lon="3.39836">
        <ele>428.4</ele>
        <time>2022-09-09T06:48:54Z</time>
      </trkpt>
      <trkpt lat="45.31348" lon="3.39866">
        <ele>428.4</ele>
        <time>2022-09-09T06:49:00Z</time>
      </trkpt>
      <trkpt lat="45.31323" lon="3.39892">
        <ele>428.4</ele>
        <time>2022-09-09T06:49:06Z</time>
      </trkpt>
      <trkpt lat="45.31293" lon="3.39919">
        <ele>428.4</ele>
        <time>2022-09-09T06:49:13Z</time>
      </trkpt>
      <trkpt lat="45.31289" lon="3.39923">
        <ele>428.4</ele>
        <time>2022-09-09T06:49:14Z</time>
      </trkpt>
      <trkpt lat="45.31274" lon="3.39941">
        <ele>428.4</ele>
        <time>2022-09-09T06:49:18Z</time>
      </trkpt>
      <trkpt lat="45.31239" lon="3.39971">
        <ele>428.4</ele>
        <time>2022-09-09T06:49:26Z</time>
      </trkpt>
      <trkpt lat="45.3122" lon="3.39994">
        <ele>428.89</ele>
        <time>2022-09-09T06:49:31Z</time>
      </trkpt>
      <trkpt lat="45.31206" lon="3.40016">
        <ele>428.89</ele>
        <time>2022-09-09T06:49:35Z</time>
      </trkpt>
      <trkpt lat="45.31203" lon="3.40022">
        <ele>428.89</ele>
        <time>2022-09-09T06:49:36Z</time>
      </trkpt>
      <trkpt lat="45.31197" lon="3.40034">
        <ele>428.89</ele>
        <time>2022-09-09T06:49:38Z</time>
      </trkpt>
      <trkpt lat="45.31195" lon="3.40041">
        <ele>428.89</ele>
        <time>2022-09-09T06:49:39Z</time>
      </trkpt>
      <trkpt lat="45.31178" lon="3.40094">
        <ele>428.89</ele>
        <time>2022-09-09T06:49:47Z</time>
      </trkpt>
      <trkpt lat="45.31156" lon="3.40154">
        <ele>428.4</ele>
        <time>2022-09-09T06:49:57Z</time>
      </trkpt>
      <trkpt lat="45.31154" lon="3.4016">
        <ele>428.89</ele>
        <time>2022-09-09T06:49:58Z</time>
      </trkpt>
      <trkpt lat="45.31153" lon="3.40167">
        <ele>428.89</ele>
        <time>2022-09-09T06:49:59Z</time>
      </trkpt>
      <trkpt lat="45.31152" lon="3.40174">
        <ele>428.89</ele>
        <time>2022-09-09T06:50:00Z</time>
      </trkpt>
      <trkpt lat="45.31151" lon="3.40181">
        <ele>428.4</ele>
        <time>2022-09-09T06:50:01Z</time>
      </trkpt>
      <trkpt lat="45.3115" lon="3.40188">
        <ele>428.89</ele>
        <time>2022-09-09T06:50:02Z</time>
      </trkpt>
      <trkpt lat="45.31149" lon="3.40195">
        <ele>428.89</ele>
        <time>2022-09-09T06:50:03Z</time>
      </trkpt>
      <trkpt lat="45.3114" lon="3.40227">
        <ele>428.89</ele>
        <time>2022-09-09T06:50:08Z</time>
      </trkpt>
      <trkpt lat="45.31132" lon="3.40245">
        <ele>428.89</ele>
        <time>2022-09-09T06:50:11Z</time>
      </trkpt>
      <trkpt lat="45.31129" lon="3.4025">
        <ele>428.89</ele>
        <time>2022-09-09T06:50:12Z</time>
      </trkpt>
      <trkpt lat="45.31125" lon="3.40255">
        <ele>428.89</ele>
        <time>2022-09-09T06:50:13Z</time>
      </trkpt>
      <trkpt lat="45.31113" lon="3.40269">
        <ele>428.89</ele>
        <time>2022-09-09T06:50:16Z</time>
      </trkpt>
      <trkpt lat="45.31109" lon="3.40272">
        <ele>428.89</ele>
        <time>2022-09-09T06:50:17Z</time>
      </trkpt>
      <trkpt lat="45.31074" lon="3.40295">
        <ele>429.37</ele>
        <time>2022-09-09T06:50:25Z</time>
      </trkpt>
      <trkpt lat="45.31069" lon="3.40297">
        <ele>429.37</ele>
        <time>2022-09-09T06:50:26Z</time>
      </trkpt>
      <trkpt lat="45.31065" lon="3.40298">
        <ele>429.85</ele>
        <time>2022-09-09T06:50:27Z</time>
      </trkpt>
      <trkpt lat="45.31026" lon="3.40306">
        <ele>429.37</ele>
        <time>2022-09-09T06:50:35Z</time>
      </trkpt>
      <trkpt lat="45.31021" lon="3.40306">
        <ele>429.37</ele>
        <time>2022-09-09T06:50:36Z</time>
      </trkpt>
      <trkpt lat="45.31016" lon="3.40306">
        <ele>429.37</ele>
        <time>2022-09-09T06:50:37Z</time>
      </trkpt>
      <trkpt lat="45.31012" lon="3.40308">
        <ele>429.37</ele>
        <time>2022-09-09T06:50:38Z</time>
      </trkpt>
      <trkpt lat="45.31007" lon="3.4031">
        <ele>429.37</ele>
        <time>2022-09-09T06:50:39Z</time>
      </trkpt>
      <trkpt lat="45.31002" lon="3.40311">
        <ele>429.37</ele>
        <time>2022-09-09T06:50:40Z</time>
      </trkpt>
      <trkpt lat="45.30998" lon="3.40312">
        <ele>429.37</ele>
        <time>2022-09-09T06:50:41Z</time>
      </trkpt>
      <trkpt lat="45.30993" lon="3.40313">
        <ele>429.37</ele>
        <time>2022-09-09T06:50:42Z</time>
      </trkpt>
      <trkpt lat="45.30948" lon="3.40322">
        <ele>429.37</ele>
        <time>2022-09-09T06:50:51Z</time>
      </trkpt>
      <trkpt lat="45.30901" lon="3.40325">
        <ele>429.37</ele>
        <time>2022-09-09T06:51:00Z</time>
      </trkpt>
      <trkpt lat="45.30872" lon="3.40324">
        <ele>429.37</ele>
        <time>2022-09-09T06:51:06Z</time>
      </trkpt>
      <trkpt lat="45.30828" lon="3.40322">
        <ele>429.85</ele>
        <time>2022-09-09T06:51:15Z</time>
      </trkpt>
      <trkpt lat="45.30788" lon="3.40321">
        <ele>429.85</ele>
        <time>2022-09-09T06:51:23Z</time>
      </trkpt>
      <trkpt lat="45.30784" lon="3.40322">
        <ele>429.85</ele>
        <time>2022-09-09T06:51:24Z</time>
      </trkpt>
      <trkpt lat="45.30779" lon="3.40323">
        <ele>429.85</ele>
        <time>2022-09-09T06:51:25Z</time>
      </trkpt>
      <trkpt lat="45.30775" lon="3.40325">
        <ele>429.85</ele>
        <time>2022-09-09T06:51:26Z</time>
      </trkpt>
      <trkpt lat="45.30771" lon="3.40327">
        <ele>429.85</ele>
        <time>2022-09-09T06:51:27Z</time>
      </trkpt>
      <trkpt lat="45.30767" lon="3.40331">
        <ele>429.85</ele>
        <time>2022-09-09T06:51:28Z</time>
      </trkpt>
      <trkpt lat="45.30764" lon="3.40335">
        <ele>429.85</ele>
        <time>2022-09-09T06:51:29Z</time>
      </trkpt>
      <trkpt lat="45.30761" lon="3.4034">
        <ele>429.85</ele>
        <time>2022-09-09T06:51:30Z</time>
      </trkpt>
      <trkpt lat="45.30758" lon="3.40345">
        <ele>429.85</ele>
        <time>2022-09-09T06:51:31Z</time>
      </trkpt>
      <trkpt lat="45.30756" lon="3.4035">
        <ele>429.85</ele>
        <time>2022-09-09T06:51:32Z</time>
      </trkpt>
      <trkpt lat="45.30742" lon="3.40369">
        <ele>429.85</ele>
        <time>2022-09-09T06:51:37Z</time>
      </trkpt>
      <trkpt lat="45.30738" lon="3.40371">
        <ele>430.33</ele>
        <time>2022-09-09T06:51:38Z</time>
      </trkpt>
      <trkpt lat="45.30734" lon="3.40373">
        <ele>430.33</ele>
        <time>2022-09-09T06:51:39Z</time>
      </trkpt>
      <trkpt lat="45.30729" lon="3.40374">
        <ele>430.33</ele>
        <time>2022-09-09T06:51:40Z</time>
      </trkpt>
      <trkpt lat="45.30725" lon="3.40376">
        <ele>430.33</ele>
        <time>2022-09-09T06:51:41Z</time>
      </trkpt>
      <trkpt lat="45.30707" lon="3.40382">
        <ele>430.33</ele>
        <time>2022-09-09T06:51:45Z</time>
      </trkpt>
      <trkpt lat="45.30703" lon="3.40385">
        <ele>430.33</ele>
        <time>2022-09-09T06:51:46Z</time>
      </trkpt>
      <trkpt lat="45.30698" lon="3.40387">
        <ele>430.33</ele>
        <time>2022-09-09T06:51:47Z</time>
      </trkpt>
      <trkpt lat="45.30694" lon="3.40388">
        <ele>430.33</ele>
        <time>2022-09-09T06:51:48Z</time>
      </trkpt>
      <trkpt lat="45.30689" lon="3.40389">
        <ele>430.33</ele>
        <time>2022-09-09T06:51:49Z</time>
      </trkpt>
      <trkpt lat="45.30672" lon="3.40391">
        <ele>430.81</ele>
        <time>2022-09-09T06:51:53Z</time>
      </trkpt>
      <trkpt lat="45.30644" lon="3.40394">
        <ele>430.81</ele>
        <time>2022-09-09T06:52:01Z</time>
      </trkpt>
      <trkpt lat="45.30613" lon="3.40398">
        <ele>431.29</ele>
        <time>2022-09-09T06:52:09Z</time>
      </trkpt>
      <trkpt lat="45.30578" lon="3.40403">
        <ele>430.81</ele>
        <time>2022-09-09T06:52:17Z</time>
      </trkpt>
      <trkpt lat="45.30538" lon="3.40404">
        <ele>430.81</ele>
        <time>2022-09-09T06:52:26Z</time>
      </trkpt>
      <trkpt lat="45.30504" lon="3.40399">
        <ele>431.29</ele>
        <time>2022-09-09T06:52:33Z</time>
      </trkpt>
      <trkpt lat="45.30473" lon="3.40388">
        <ele>431.29</ele>
        <time>2022-09-09T06:52:40Z</time>
      </trkpt>
      <trkpt lat="45.3044" lon="3.40373">
        <ele>431.29</ele>
        <time>2022-09-09T06:52:48Z</time>
      </trkpt>
      <trkpt lat="45.304" lon="3.40356">
        <ele>431.77</ele>
        <time>2022-09-09T06:52:57Z</time>
      </trkpt>
      <trkpt lat="45.30358" lon="3.40336">
        <ele>431.29</ele>
        <time>2022-09-09T06:53:06Z</time>
      </trkpt>
      <trkpt lat="45.3035" lon="3.4033">
        <ele>431.77</ele>
        <time>2022-09-09T06:53:08Z</time>
      </trkpt>
      <trkpt lat="45.30322" lon="3.40294">
        <ele>431.77</ele>
        <time>2022-09-09T06:53:16Z</time>
      </trkpt>
      <trkpt lat="45.30319" lon="3.40289">
        <ele>431.77</ele>
        <time>2022-09-09T06:53:17Z</time>
      </trkpt>
      <trkpt lat="45.30314" lon="3.40279">
        <ele>431.77</ele>
        <time>2022-09-09T06:53:19Z</time>
      </trkpt>
      <trkpt lat="45.30311" lon="3.40273">
        <ele>431.77</ele>
        <time>2022-09-09T06:53:20Z</time>
      </trkpt>
      <trkpt lat="45.30308" lon="3.40269">
        <ele>432.25</ele>
        <time>2022-09-09T06:53:21Z</time>
      </trkpt>
      <trkpt lat="45.30304" lon="3.40265">
        <ele>432.73</ele>
        <time>2022-09-09T06:53:22Z</time>
      </trkpt>
      <trkpt lat="45.303" lon="3.40262">
        <ele>432.73</ele>
        <time>2022-09-09T06:53:23Z</time>
      </trkpt>
      <trkpt lat="45.30297" lon="3.4026">
        <ele>432.73</ele>
        <time>2022-09-09T06:53:24Z</time>
      </trkpt>
      <trkpt lat="45.30288" lon="3.40256">
        <ele>433.21</ele>
        <time>2022-09-09T06:53:28Z</time>
      </trkpt>
      <trkpt lat="45.30286" lon="3.40257">
        <ele>433.21</ele>
        <time>2022-09-09T06:53:29Z</time>
      </trkpt>
      <trkpt lat="45.30285" lon="3.40259">
        <ele>433.21</ele>
        <time>2022-09-09T06:53:30Z</time>
      </trkpt>
      <trkpt lat="45.30285" lon="3.40263">
        <ele>433.21</ele>
        <time>2022-09-09T06:53:31Z</time>
      </trkpt>
      <trkpt lat="45.30287" lon="3.40266">
        <ele>432.73</ele>
        <time>2022-09-09T06:53:32Z</time>
      </trkpt>
      <trkpt lat="45.30288" lon="3.40269">
        <ele>432.73</ele>
        <time>2022-09-09T06:53:33Z</time>
      </trkpt>
      <trkpt lat="45.30289" lon="3.40273">
        <ele>432.73</ele>
        <time>2022-09-09T06:53:34Z</time>
      </trkpt>
      <trkpt lat="45.30298" lon="3.40296">
        <ele>433.21</ele>
        <time>2022-09-09T06:53:41Z</time>
      </trkpt>
      <trkpt lat="45.30296" lon="3.40316">
        <ele>433.69</ele>
        <time>2022-09-09T06:53:47Z</time>
      </trkpt>
      <trkpt lat="45.30295" lon="3.40325">
        <ele>434.17</ele>
        <time>2022-09-09T06:53:54Z</time>
      </trkpt>
      <trkpt lat="45.30295" lon="3.40324">
        <ele>433.69</ele>
        <time>2022-09-09T06:54:01Z</time>
      </trkpt>
      <trkpt lat="45.30296" lon="3.40323">
        <ele>433.69</ele>
        <time>2022-09-09T06:54:02Z</time>
      </trkpt>
      <trkpt lat="45.30297" lon="3.40323">
        <ele>433.69</ele>
        <time>2022-09-09T06:54:03Z</time>
      </trkpt>
      <trkpt lat="45.30297" lon="3.40321">
        <ele>433.69</ele>
        <time>2022-09-09T06:54:04Z</time>
      </trkpt>
      <trkpt lat="45.30297" lon="3.4032">
        <ele>433.69</ele>
        <time>2022-09-09T06:54:05Z</time>
      </trkpt>
      <trkpt lat="45.30297" lon="3.40318">
        <ele>433.69</ele>
        <time>2022-09-09T06:54:06Z</time>
      </trkpt>
      <trkpt lat="45.30297" lon="3.40316">
        <ele>433.69</ele>
        <time>2022-09-09T06:54:07Z</time>
      </trkpt>
      <trkpt lat="45.30297" lon="3.40314">
        <ele>433.69</ele>
        <time>2022-09-09T06:54:08Z</time>
      </trkpt>
      <trkpt lat="45.30296" lon="3.4029">
        <ele>433.69</ele>
        <time>2022-09-09T06:54:14Z</time>
      </trkpt>
      <trkpt lat="45.30284" lon="3.40263">
        <ele>433.21</ele>
        <time>2022-09-09T06:54:20Z</time>
      </trkpt>
      <trkpt lat="45.30261" lon="3.40244">
        <ele>433.69</ele>
        <time>2022-09-09T06:54:27Z</time>
      </trkpt>
      <trkpt lat="45.30235" lon="3.40233">
        <ele>433.69</ele>
        <time>2022-09-09T06:54:34Z</time>
      </trkpt>
      <trkpt lat="45.30211" lon="3.40222">
        <ele>433.21</ele>
        <time>2022-09-09T06:54:40Z</time>
      </trkpt>
      <trkpt lat="45.30206" lon="3.40222">
        <ele>433.21</ele>
        <time>2022-09-09T06:54:41Z</time>
      </trkpt>
      <trkpt lat="45.30202" lon="3.40223">
        <ele>432.73</ele>
        <time>2022-09-09T06:54:42Z</time>
      </trkpt>
      <trkpt lat="45.30199" lon="3.40224">
        <ele>432.73</ele>
        <time>2022-09-09T06:54:43Z</time>
      </trkpt>
      <trkpt lat="45.30197" lon="3.40225">
        <ele>432.73</ele>
        <time>2022-09-09T06:54:44Z</time>
      </trkpt>
      <trkpt lat="45.30195" lon="3.40226">
        <ele>432.25</ele>
        <time>2022-09-09T06:54:45Z</time>
      </trkpt>
      <trkpt lat="45.30193" lon="3.40228">
        <ele>432.25</ele>
        <time>2022-09-09T06:54:46Z</time>
      </trkpt>
      <trkpt lat="45.30192" lon="3.40232">
        <ele>432.73</ele>
        <time>2022-09-09T06:54:47Z</time>
      </trkpt>
      <trkpt lat="45.30192" lon="3.40237">
        <ele>432.73</ele>
        <time>2022-09-09T06:54:48Z</time>
      </trkpt>
      <trkpt lat="45.30193" lon="3.40244">
        <ele>433.21</ele>
        <time>2022-09-09T06:54:49Z</time>
      </trkpt>
      <trkpt lat="45.30195" lon="3.4025">
        <ele>432.73</ele>
        <time>2022-09-09T06:54:50Z</time>
      </trkpt>
      <trkpt lat="45.30198" lon="3.40257">
        <ele>433.21</ele>
        <time>2022-09-09T06:54:51Z</time>
      </trkpt>
      <trkpt lat="45.30221" lon="3.40313">
        <ele>433.69</ele>
        <time>2022-09-09T06:54:59Z</time>
      </trkpt>
      <trkpt lat="45.30253" lon="3.40386">
        <ele>433.69</ele>
        <time>2022-09-09T06:55:09Z</time>
      </trkpt>
      <trkpt lat="45.3028" lon="3.4045">
        <ele>434.17</ele>
        <time>2022-09-09T06:55:18Z</time>
      </trkpt>
      <trkpt lat="45.30296" lon="3.40505">
        <ele>436.1</ele>
        <time>2022-09-09T06:55:26Z</time>
      </trkpt>
      <trkpt lat="45.30318" lon="3.40595">
        <ele>437.06</ele>
        <time>2022-09-09T06:55:39Z</time>
      </trkpt>
      <trkpt lat="45.30333" lon="3.40661">
        <ele>437.06</ele>
        <time>2022-09-09T06:55:48Z</time>
      </trkpt>
      <trkpt lat="45.30338" lon="3.40684">
        <ele>437.06</ele>
        <time>2022-09-09T06:55:51Z</time>
      </trkpt>
      <trkpt lat="45.30339" lon="3.40693">
        <ele>437.06</ele>
        <time>2022-09-09T06:55:52Z</time>
      </trkpt>
      <trkpt lat="45.30339" lon="3.40701">
        <ele>437.06</ele>
        <time>2022-09-09T06:55:53Z</time>
      </trkpt>
      <trkpt lat="45.30337" lon="3.40709">
        <ele>437.54</ele>
        <time>2022-09-09T06:55:54Z</time>
      </trkpt>
      <trkpt lat="45.30334" lon="3.40718">
        <ele>436.58</ele>
        <time>2022-09-09T06:55:55Z</time>
      </trkpt>
      <trkpt lat="45.30332" lon="3.40727">
        <ele>436.58</ele>
        <time>2022-09-09T06:55:56Z</time>
      </trkpt>
      <trkpt lat="45.30332" lon="3.40735">
        <ele>436.1</ele>
        <time>2022-09-09T06:55:57Z</time>
      </trkpt>
      <trkpt lat="45.30333" lon="3.40744">
        <ele>436.1</ele>
        <time>2022-09-09T06:55:58Z</time>
      </trkpt>
      <trkpt lat="45.30336" lon="3.40752">
        <ele>435.61</ele>
        <time>2022-09-09T06:55:59Z</time>
      </trkpt>
      <trkpt lat="45.30342" lon="3.40758">
        <ele>434.65</ele>
        <time>2022-09-09T06:56:00Z</time>
      </trkpt>
      <trkpt lat="45.30348" lon="3.40761">
        <ele>435.13</ele>
        <time>2022-09-09T06:56:01Z</time>
      </trkpt>
      <trkpt lat="45.30354" lon="3.4076">
        <ele>434.65</ele>
        <time>2022-09-09T06:56:02Z</time>
      </trkpt>
      <trkpt lat="45.3036" lon="3.40757">
        <ele>434.65</ele>
        <time>2022-09-09T06:56:03Z</time>
      </trkpt>
      <trkpt lat="45.30365" lon="3.40753">
        <ele>434.65</ele>
        <time>2022-09-09T06:56:04Z</time>
      </trkpt>
      <trkpt lat="45.30369" lon="3.40748">
        <ele>434.17</ele>
        <time>2022-09-09T06:56:05Z</time>
      </trkpt>
      <trkpt lat="45.30374" lon="3.40743">
        <ele>434.17</ele>
        <time>2022-09-09T06:56:06Z</time>
      </trkpt>
      <trkpt lat="45.30377" lon="3.40738">
        <ele>434.17</ele>
        <time>2022-09-09T06:56:07Z</time>
      </trkpt>
      <trkpt lat="45.30382" lon="3.40735">
        <ele>434.17</ele>
        <time>2022-09-09T06:56:08Z</time>
      </trkpt>
      <trkpt lat="45.30386" lon="3.40732">
        <ele>434.17</ele>
        <time>2022-09-09T06:56:09Z</time>
      </trkpt>
      <trkpt lat="45.30391" lon="3.40731">
        <ele>434.17</ele>
        <time>2022-09-09T06:56:10Z</time>
      </trkpt>
      <trkpt lat="45.30395" lon="3.40731">
        <ele>433.69</ele>
        <time>2022-09-09T06:56:11Z</time>
      </trkpt>
      <trkpt lat="45.30399" lon="3.40731">
        <ele>433.69</ele>
        <time>2022-09-09T06:56:12Z</time>
      </trkpt>
      <trkpt lat="45.30419" lon="3.40728">
        <ele>432.73</ele>
        <time>2022-09-09T06:56:18Z</time>
      </trkpt>
      <trkpt lat="45.30422" lon="3.40726">
        <ele>432.25</ele>
        <time>2022-09-09T06:56:19Z</time>
      </trkpt>
      <trkpt lat="45.30421" lon="3.40718">
        <ele>432.25</ele>
        <time>2022-09-09T06:56:21Z</time>
      </trkpt>
      <trkpt lat="45.30419" lon="3.40713">
        <ele>432.25</ele>
        <time>2022-09-09T06:56:22Z</time>
      </trkpt>
      <trkpt lat="45.30416" lon="3.40708">
        <ele>431.77</ele>
        <time>2022-09-09T06:56:23Z</time>
      </trkpt>
      <trkpt lat="45.30413" lon="3.40703">
        <ele>431.77</ele>
        <time>2022-09-09T06:56:24Z</time>
      </trkpt>
      <trkpt lat="45.30411" lon="3.40699">
        <ele>431.77</ele>
        <time>2022-09-09T06:56:25Z</time>
      </trkpt>
      <trkpt lat="45.30409" lon="3.40688">
        <ele>431.77</ele>
        <time>2022-09-09T06:56:27Z</time>
      </trkpt>
      <trkpt lat="45.3041" lon="3.40684">
        <ele>431.77</ele>
        <time>2022-09-09T06:56:28Z</time>
      </trkpt>
      <trkpt lat="45.30413" lon="3.40681">
        <ele>431.77</ele>
        <time>2022-09-09T06:56:29Z</time>
      </trkpt>
      <trkpt lat="45.30418" lon="3.40679">
        <ele>432.25</ele>
        <time>2022-09-09T06:56:30Z</time>
      </trkpt>
      <trkpt lat="45.30422" lon="3.40678">
        <ele>432.25</ele>
        <time>2022-09-09T06:56:31Z</time>
      </trkpt>
      <trkpt lat="45.30426" lon="3.40677">
        <ele>432.25</ele>
        <time>2022-09-09T06:56:32Z</time>
      </trkpt>
      <trkpt lat="45.30474" lon="3.40668">
        <ele>432.25</ele>
        <time>2022-09-09T06:56:42Z</time>
      </trkpt>
      <trkpt lat="45.30523" lon="3.40659">
        <ele>431.77</ele>
        <time>2022-09-09T06:56:51Z</time>
      </trkpt>
      <trkpt lat="45.30567" lon="3.40651">
        <ele>431.77</ele>
        <time>2022-09-09T06:56:59Z</time>
      </trkpt>
      <trkpt lat="45.30624" lon="3.40643">
        <ele>432.25</ele>
        <time>2022-09-09T06:57:09Z</time>
      </trkpt>
      <trkpt lat="45.30692" lon="3.40636">
        <ele>431.77</ele>
        <time>2022-09-09T06:57:20Z</time>
      </trkpt>
      <trkpt lat="45.30765" lon="3.40647">
        <ele>431.77</ele>
        <time>2022-09-09T06:57:32Z</time>
      </trkpt>
      <trkpt lat="45.30822" lon="3.40657">
        <ele>431.77</ele>
        <time>2022-09-09T06:57:42Z</time>
      </trkpt>
      <trkpt lat="45.30889" lon="3.4067">
        <ele>432.25</ele>
        <time>2022-09-09T06:57:53Z</time>
      </trkpt>
      <trkpt lat="45.30949" lon="3.40677">
        <ele>432.25</ele>
        <time>2022-09-09T06:58:03Z</time>
      </trkpt>
      <trkpt lat="45.31003" lon="3.40691">
        <ele>431.77</ele>
        <time>2022-09-09T06:58:12Z</time>
      </trkpt>
      <trkpt lat="45.3106" lon="3.40714">
        <ele>430.81</ele>
        <time>2022-09-09T06:58:22Z</time>
      </trkpt>
      <trkpt lat="45.3112" lon="3.4072">
        <ele>430.81</ele>
        <time>2022-09-09T06:58:32Z</time>
      </trkpt>
      <trkpt lat="45.31173" lon="3.40723">
        <ele>430.33</ele>
        <time>2022-09-09T06:58:41Z</time>
      </trkpt>
      <trkpt lat="45.31219" lon="3.40727">
        <ele>430.33</ele>
        <time>2022-09-09T06:58:49Z</time>
      </trkpt>
      <trkpt lat="45.31232" lon="3.40729">
        <ele>429.85</ele>
        <time>2022-09-09T06:58:53Z</time>
      </trkpt>
      <trkpt lat="45.31233" lon="3.4073">
        <ele>429.37</ele>
        <time>2022-09-09T06:58:58Z</time>
      </trkpt>
      <trkpt lat="45.31234" lon="3.4073">
        <ele>429.37</ele>
        <time>2022-09-09T06:59:11Z</time>
      </trkpt>
      <trkpt lat="45.31236" lon="3.4073">
        <ele>429.37</ele>
        <time>2022-09-09T06:59:12Z</time>
      </trkpt>
      <trkpt lat="45.31238" lon="3.4073">
        <ele>429.85</ele>
        <time>2022-09-09T06:59:13Z</time>
      </trkpt>
      <trkpt lat="45.3124" lon="3.4073">
        <ele>429.85</ele>
        <time>2022-09-09T06:59:14Z</time>
      </trkpt>
      <trkpt lat="45.31242" lon="3.4073">
        <ele>429.37</ele>
        <time>2022-09-09T06:59:15Z</time>
      </trkpt>
      <trkpt lat="45.31245" lon="3.4073">
        <ele>429.85</ele>
        <time>2022-09-09T06:59:16Z</time>
      </trkpt>
      <trkpt lat="45.31248" lon="3.4073">
        <ele>429.85</ele>
        <time>2022-09-09T06:59:17Z</time>
      </trkpt>
      <trkpt lat="45.31278" lon="3.40728">
        <ele>429.85</ele>
        <time>2022-09-09T06:59:24Z</time>
      </trkpt>
      <trkpt lat="45.3131" lon="3.40716">
        <ele>430.33</ele>
        <time>2022-09-09T06:59:31Z</time>
      </trkpt>
      <trkpt lat="45.31349" lon="3.40685">
        <ele>429.85</ele>
        <time>2022-09-09T06:59:39Z</time>
      </trkpt>
      <trkpt lat="45.31397" lon="3.40644">
        <ele>429.85</ele>
        <time>2022-09-09T06:59:49Z</time>
      </trkpt>
      <trkpt lat="45.31402" lon="3.40641">
        <ele>429.85</ele>
        <time>2022-09-09T06:59:50Z</time>
      </trkpt>
      <trkpt lat="45.31434" lon="3.40609">
        <ele>429.85</ele>
        <time>2022-09-09T06:59:57Z</time>
      </trkpt>
      <trkpt lat="45.31471" lon="3.40572">
        <ele>429.85</ele>
        <time>2022-09-09T07:00:05Z</time>
      </trkpt>
      <trkpt lat="45.3152" lon="3.40528">
        <ele>429.37</ele>
        <time>2022-09-09T07:00:15Z</time>
      </trkpt>
      <trkpt lat="45.31566" lon="3.40484">
        <ele>429.37</ele>
        <time>2022-09-09T07:00:25Z</time>
      </trkpt>
      <trkpt lat="45.31602" lon="3.40447">
        <ele>429.37</ele>
        <time>2022-09-09T07:00:33Z</time>
      </trkpt>
      <trkpt lat="45.31647" lon="3.40409">
        <ele>428.89</ele>
        <time>2022-09-09T07:00:42Z</time>
      </trkpt>
      <trkpt lat="45.31674" lon="3.40395">
        <ele>428.89</ele>
        <time>2022-09-09T07:00:47Z</time>
      </trkpt>
      <trkpt lat="45.31708" lon="3.40365">
        <ele>428.89</ele>
        <time>2022-09-09T07:00:54Z</time>
      </trkpt>
      <trkpt lat="45.31721" lon="3.40348">
        <ele>428.89</ele>
        <time>2022-09-09T07:00:57Z</time>
      </trkpt>
      <trkpt lat="45.31724" lon="3.40342">
        <ele>429.37</ele>
        <time>2022-09-09T07:00:58Z</time>
      </trkpt>
      <trkpt lat="45.31727" lon="3.40335">
        <ele>428.89</ele>
        <time>2022-09-09T07:00:59Z</time>
      </trkpt>
      <trkpt lat="45.3173" lon="3.40328">
        <ele>429.37</ele>
        <time>2022-09-09T07:01:00Z</time>
      </trkpt>
      <trkpt lat="45.31733" lon="3.40321">
        <ele>429.37</ele>
        <time>2022-09-09T07:01:01Z</time>
      </trkpt>
      <trkpt lat="45.31735" lon="3.40314">
        <ele>429.37</ele>
        <time>2022-09-09T07:01:02Z</time>
      </trkpt>
      <trkpt lat="45.31742" lon="3.40295">
        <ele>428.89</ele>
        <time>2022-09-09T07:01:05Z</time>
      </trkpt>
      <trkpt lat="45.31746" lon="3.40291">
        <ele>428.89</ele>
        <time>2022-09-09T07:01:06Z</time>
      </trkpt>
      <trkpt lat="45.3175" lon="3.40289">
        <ele>428.4</ele>
        <time>2022-09-09T07:01:07Z</time>
      </trkpt>
      <trkpt lat="45.31754" lon="3.40289">
        <ele>428.4</ele>
        <time>2022-09-09T07:01:08Z</time>
      </trkpt>
      <trkpt lat="45.31758" lon="3.40292">
        <ele>428.4</ele>
        <time>2022-09-09T07:01:09Z</time>
      </trkpt>
      <trkpt lat="45.31762" lon="3.40295">
        <ele>428.4</ele>
        <time>2022-09-09T07:01:10Z</time>
      </trkpt>
      <trkpt lat="45.31766" lon="3.40299">
        <ele>428.89</ele>
        <time>2022-09-09T07:01:11Z</time>
      </trkpt>
      <trkpt lat="45.31773" lon="3.40307">
        <ele>428.89</ele>
        <time>2022-09-09T07:01:13Z</time>
      </trkpt>
      <trkpt lat="45.31778" lon="3.4031">
        <ele>428.89</ele>
        <time>2022-09-09T07:01:14Z</time>
      </trkpt>
      <trkpt lat="45.31787" lon="3.40316">
        <ele>428.89</ele>
        <time>2022-09-09T07:01:16Z</time>
      </trkpt>
      <trkpt lat="45.31793" lon="3.40317">
        <ele>428.89</ele>
        <time>2022-09-09T07:01:17Z</time>
      </trkpt>
      <trkpt lat="45.31798" lon="3.40319">
        <ele>428.89</ele>
        <time>2022-09-09T07:01:18Z</time>
      </trkpt>
      <trkpt lat="45.31843" lon="3.40326">
        <ele>428.89</ele>
        <time>2022-09-09T07:01:26Z</time>
      </trkpt>
      <trkpt lat="45.31882" lon="3.40325">
        <ele>428.89</ele>
        <time>2022-09-09T07:01:33Z</time>
      </trkpt>
      <trkpt lat="45.31887" lon="3.40323">
        <ele>428.89</ele>
        <time>2022-09-09T07:01:34Z</time>
      </trkpt>
      <trkpt lat="45.31898" lon="3.4032">
        <ele>428.89</ele>
        <time>2022-09-09T07:01:36Z</time>
      </trkpt>
      <trkpt lat="45.31904" lon="3.40319">
        <ele>428.89</ele>
        <time>2022-09-09T07:01:37Z</time>
      </trkpt>
      <trkpt lat="45.31909" lon="3.4032">
        <ele>428.89</ele>
        <time>2022-09-09T07:01:38Z</time>
      </trkpt>
      <trkpt lat="45.31915" lon="3.40322">
        <ele>428.4</ele>
        <time>2022-09-09T07:01:39Z</time>
      </trkpt>
      <trkpt lat="45.3192" lon="3.40326">
        <ele>428.89</ele>
        <time>2022-09-09T07:01:40Z</time>
      </trkpt>
      <trkpt lat="45.31925" lon="3.4033">
        <ele>428.89</ele>
        <time>2022-09-09T07:01:41Z</time>
      </trkpt>
      <trkpt lat="45.31929" lon="3.40335">
        <ele>428.89</ele>
        <time>2022-09-09T07:01:42Z</time>
      </trkpt>
      <trkpt lat="45.31964" lon="3.40367">
        <ele>428.4</ele>
        <time>2022-09-09T07:01:49Z</time>
      </trkpt>
      <trkpt lat="45.32004" lon="3.40402">
        <ele>428.4</ele>
        <time>2022-09-09T07:01:57Z</time>
      </trkpt>
      <trkpt lat="45.32018" lon="3.40415">
        <ele>428.4</ele>
        <time>2022-09-09T07:02:00Z</time>
      </trkpt>
      <trkpt lat="45.32024" lon="3.40418">
        <ele>428.4</ele>
        <time>2022-09-09T07:02:01Z</time>
      </trkpt>
      <trkpt lat="45.3203" lon="3.4042">
        <ele>428.4</ele>
        <time>2022-09-09T07:02:02Z</time>
      </trkpt>
      <trkpt lat="45.32035" lon="3.40422">
        <ele>428.4</ele>
        <time>2022-09-09T07:02:03Z</time>
      </trkpt>
      <trkpt lat="45.32041" lon="3.40422">
        <ele>428.4</ele>
        <time>2022-09-09T07:02:04Z</time>
      </trkpt>
      <trkpt lat="45.32048" lon="3.40422">
        <ele>428.4</ele>
        <time>2022-09-09T07:02:05Z</time>
      </trkpt>
      <trkpt lat="45.32071" lon="3.40426">
        <ele>428.4</ele>
        <time>2022-09-09T07:02:09Z</time>
      </trkpt>
      <trkpt lat="45.32077" lon="3.40429">
        <ele>428.4</ele>
        <time>2022-09-09T07:02:10Z</time>
      </trkpt>
      <trkpt lat="45.32082" lon="3.40432">
        <ele>428.4</ele>
        <time>2022-09-09T07:02:11Z</time>
      </trkpt>
      <trkpt lat="45.32088" lon="3.40437">
        <ele>428.89</ele>
        <time>2022-09-09T07:02:12Z</time>
      </trkpt>
      <trkpt lat="45.32092" lon="3.40441">
        <ele>428.4</ele>
        <time>2022-09-09T07:02:13Z</time>
      </trkpt>
      <trkpt lat="45.32097" lon="3.40447">
        <ele>428.4</ele>
        <time>2022-09-09T07:02:14Z</time>
      </trkpt>
      <trkpt lat="45.32134" lon="3.40487">
        <ele>427.92</ele>
        <time>2022-09-09T07:02:22Z</time>
      </trkpt>
      <trkpt lat="45.32167" lon="3.4052">
        <ele>427.92</ele>
        <time>2022-09-09T07:02:29Z</time>
      </trkpt>
      <trkpt lat="45.32188" lon="3.40535">
        <ele>427.92</ele>
        <time>2022-09-09T07:02:33Z</time>
      </trkpt>
      <trkpt lat="45.32194" lon="3.40538">
        <ele>427.92</ele>
        <time>2022-09-09T07:02:34Z</time>
      </trkpt>
      <trkpt lat="45.322" lon="3.40539">
        <ele>427.92</ele>
        <time>2022-09-09T07:02:35Z</time>
      </trkpt>
      <trkpt lat="45.32231" lon="3.40544">
        <ele>427.92</ele>
        <time>2022-09-09T07:02:40Z</time>
      </trkpt>
      <trkpt lat="45.32289" lon="3.40563">
        <ele>427.92</ele>
        <time>2022-09-09T07:02:50Z</time>
      </trkpt>
      <trkpt lat="45.32313" lon="3.40567">
        <ele>427.92</ele>
        <time>2022-09-09T07:02:54Z</time>
      </trkpt>
      <trkpt lat="45.32319" lon="3.40571">
        <ele>427.92</ele>
        <time>2022-09-09T07:02:55Z</time>
      </trkpt>
      <trkpt lat="45.32324" lon="3.40575">
        <ele>427.92</ele>
        <time>2022-09-09T07:02:56Z</time>
      </trkpt>
      <trkpt lat="45.32362" lon="3.40603">
        <ele>427.92</ele>
        <time>2022-09-09T07:03:03Z</time>
      </trkpt>
      <trkpt lat="45.32378" lon="3.40612">
        <ele>427.92</ele>
        <time>2022-09-09T07:03:06Z</time>
      </trkpt>
      <trkpt lat="45.32383" lon="3.40614">
        <ele>428.4</ele>
        <time>2022-09-09T07:03:07Z</time>
      </trkpt>
      <trkpt lat="45.32389" lon="3.40615">
        <ele>428.4</ele>
        <time>2022-09-09T07:03:08Z</time>
      </trkpt>
      <trkpt lat="45.32394" lon="3.40615">
        <ele>428.4</ele>
        <time>2022-09-09T07:03:09Z</time>
      </trkpt>
      <trkpt lat="45.324" lon="3.40614">
        <ele>428.4</ele>
        <time>2022-09-09T07:03:10Z</time>
      </trkpt>
      <trkpt lat="45.32405" lon="3.40613">
        <ele>428.4</ele>
        <time>2022-09-09T07:03:11Z</time>
      </trkpt>
      <trkpt lat="45.32411" lon="3.40611">
        <ele>428.4</ele>
        <time>2022-09-09T07:03:12Z</time>
      </trkpt>
      <trkpt lat="45.32416" lon="3.40608">
        <ele>428.4</ele>
        <time>2022-09-09T07:03:13Z</time>
      </trkpt>
      <trkpt lat="45.3242" lon="3.40605">
        <ele>428.4</ele>
        <time>2022-09-09T07:03:14Z</time>
      </trkpt>
      <trkpt lat="45.32425" lon="3.406">
        <ele>428.4</ele>
        <time>2022-09-09T07:03:15Z</time>
      </trkpt>
      <trkpt lat="45.32429" lon="3.40596">
        <ele>428.4</ele>
        <time>2022-09-09T07:03:16Z</time>
      </trkpt>
      <trkpt lat="45.32433" lon="3.40592">
        <ele>428.4</ele>
        <time>2022-09-09T07:03:17Z</time>
      </trkpt>
      <trkpt lat="45.32437" lon="3.40587">
        <ele>428.4</ele>
        <time>2022-09-09T07:03:18Z</time>
      </trkpt>
      <trkpt lat="45.32441" lon="3.40581">
        <ele>428.89</ele>
        <time>2022-09-09T07:03:19Z</time>
      </trkpt>
      <trkpt lat="45.32445" lon="3.40576">
        <ele>428.4</ele>
        <time>2022-09-09T07:03:20Z</time>
      </trkpt>
      <trkpt lat="45.32449" lon="3.40571">
        <ele>428.4</ele>
        <time>2022-09-09T07:03:21Z</time>
      </trkpt>
      <trkpt lat="45.32459" lon="3.40558">
        <ele>428.4</ele>
        <time>2022-09-09T07:03:24Z</time>
      </trkpt>
      <trkpt lat="45.32467" lon="3.40543">
        <ele>428.89</ele>
        <time>2022-09-09T07:03:27Z</time>
      </trkpt>
      <trkpt lat="45.32469" lon="3.40537">
        <ele>428.89</ele>
        <time>2022-09-09T07:03:28Z</time>
      </trkpt>
      <trkpt lat="45.3247" lon="3.4053">
        <ele>428.89</ele>
        <time>2022-09-09T07:03:29Z</time>
      </trkpt>
      <trkpt lat="45.32472" lon="3.40509">
        <ele>429.37</ele>
        <time>2022-09-09T07:03:32Z</time>
      </trkpt>
      <trkpt lat="45.32475" lon="3.40456">
        <ele>428.89</ele>
        <time>2022-09-09T07:03:40Z</time>
      </trkpt>
      <trkpt lat="45.32474" lon="3.40449">
        <ele>428.89</ele>
        <time>2022-09-09T07:03:41Z</time>
      </trkpt>
      <trkpt lat="45.32471" lon="3.40436">
        <ele>428.89</ele>
        <time>2022-09-09T07:03:43Z</time>
      </trkpt>
      <trkpt lat="45.3247" lon="3.40429">
        <ele>428.89</ele>
        <time>2022-09-09T07:03:44Z</time>
      </trkpt>
      <trkpt lat="45.32458" lon="3.40361">
        <ele>427.92</ele>
        <time>2022-09-09T07:03:53Z</time>
      </trkpt>
      <trkpt lat="45.32453" lon="3.40325">
        <ele>427.92</ele>
        <time>2022-09-09T07:03:58Z</time>
      </trkpt>
      <trkpt lat="45.32453" lon="3.40319">
        <ele>427.92</ele>
        <time>2022-09-09T07:03:59Z</time>
      </trkpt>
      <trkpt lat="45.32454" lon="3.40314">
        <ele>427.92</ele>
        <time>2022-09-09T07:04:00Z</time>
      </trkpt>
      <trkpt lat="45.32455" lon="3.40308">
        <ele>427.92</ele>
        <time>2022-09-09T07:04:01Z</time>
      </trkpt>
      <trkpt lat="45.32457" lon="3.40303">
        <ele>427.44</ele>
        <time>2022-09-09T07:04:02Z</time>
      </trkpt>
      <trkpt lat="45.3246" lon="3.40297">
        <ele>427.92</ele>
        <time>2022-09-09T07:04:03Z</time>
      </trkpt>
      <trkpt lat="45.32463" lon="3.40293">
        <ele>427.92</ele>
        <time>2022-09-09T07:04:04Z</time>
      </trkpt>
      <trkpt lat="45.32466" lon="3.40289">
        <ele>427.92</ele>
        <time>2022-09-09T07:04:05Z</time>
      </trkpt>
      <trkpt lat="45.32498" lon="3.40261">
        <ele>427.92</ele>
        <time>2022-09-09T07:04:13Z</time>
      </trkpt>
      <trkpt lat="45.32524" lon="3.40245">
        <ele>428.4</ele>
        <time>2022-09-09T07:04:19Z</time>
      </trkpt>
      <trkpt lat="45.32568" lon="3.40222">
        <ele>428.89</ele>
        <time>2022-09-09T07:04:28Z</time>
      </trkpt>
      <trkpt lat="45.32577" lon="3.40218">
        <ele>428.4</ele>
        <time>2022-09-09T07:04:30Z</time>
      </trkpt>
      <trkpt lat="45.32624" lon="3.40191">
        <ele>428.89</ele>
        <time>2022-09-09T07:04:40Z</time>
      </trkpt>
      <trkpt lat="45.32663" lon="3.40173">
        <ele>429.37</ele>
        <time>2022-09-09T07:04:48Z</time>
      </trkpt>
      <trkpt lat="45.32678" lon="3.40169">
        <ele>428.4</ele>
        <time>2022-09-09T07:04:53Z</time>
      </trkpt>
      <trkpt lat="45.32686" lon="3.40168">
        <ele>428.4</ele>
        <time>2022-09-09T07:04:57Z</time>
      </trkpt>
      <trkpt lat="45.32686" lon="3.40167">
        <ele>428.4</ele>
        <time>2022-09-09T07:04:58Z</time>
      </trkpt>
      <trkpt lat="45.32685" lon="3.40165">
        <ele>428.4</ele>
        <time>2022-09-09T07:04:59Z</time>
      </trkpt>
      <trkpt lat="45.32682" lon="3.40166">
        <ele>428.4</ele>
        <time>2022-09-09T07:05:00Z</time>
      </trkpt>
      <trkpt lat="45.3268" lon="3.40166">
        <ele>428.89</ele>
        <time>2022-09-09T07:05:01Z</time>
      </trkpt>
      <trkpt lat="45.32669" lon="3.40166">
        <ele>428.89</ele>
        <time>2022-09-09T07:05:04Z</time>
      </trkpt>
      <trkpt lat="45.32666" lon="3.40162">
        <ele>428.89</ele>
        <time>2022-09-09T07:05:05Z</time>
      </trkpt>
      <trkpt lat="45.32664" lon="3.40157">
        <ele>428.89</ele>
        <time>2022-09-09T07:05:06Z</time>
      </trkpt>
      <trkpt lat="45.32663" lon="3.40151">
        <ele>428.89</ele>
        <time>2022-09-09T07:05:07Z</time>
      </trkpt>
      <trkpt lat="45.32662" lon="3.40144">
        <ele>428.89</ele>
        <time>2022-09-09T07:05:08Z</time>
      </trkpt>
      <trkpt lat="45.3266" lon="3.40083">
        <ele>428.4</ele>
        <time>2022-09-09T07:05:16Z</time>
      </trkpt>
      <trkpt lat="45.32657" lon="3.40034">
        <ele>427.92</ele>
        <time>2022-09-09T07:05:22Z</time>
      </trkpt>
      <trkpt lat="45.32657" lon="3.40018">
        <ele>427.92</ele>
        <time>2022-09-09T07:05:24Z</time>
      </trkpt>
      <trkpt lat="45.3266" lon="3.40011">
        <ele>427.44</ele>
        <time>2022-09-09T07:05:25Z</time>
      </trkpt>
      <trkpt lat="45.32663" lon="3.40006">
        <ele>427.44</ele>
        <time>2022-09-09T07:05:26Z</time>
      </trkpt>
      <trkpt lat="45.32668" lon="3.40001">
        <ele>427.44</ele>
        <time>2022-09-09T07:05:27Z</time>
      </trkpt>
      <trkpt lat="45.32673" lon="3.39997">
        <ele>427.44</ele>
        <time>2022-09-09T07:05:28Z</time>
      </trkpt>
      <trkpt lat="45.32678" lon="3.39993">
        <ele>427.44</ele>
        <time>2022-09-09T07:05:29Z</time>
      </trkpt>
      <trkpt lat="45.32684" lon="3.39989">
        <ele>427.44</ele>
        <time>2022-09-09T07:05:30Z</time>
      </trkpt>
      <trkpt lat="45.32689" lon="3.39985">
        <ele>427.44</ele>
        <time>2022-09-09T07:05:31Z</time>
      </trkpt>
      <trkpt lat="45.32746" lon="3.39934">
        <ele>426.96</ele>
        <time>2022-09-09T07:05:42Z</time>
      </trkpt>
      <trkpt lat="45.32795" lon="3.3989">
        <ele>426.48</ele>
        <time>2022-09-09T07:05:52Z</time>
      </trkpt>
      <trkpt lat="45.32819" lon="3.39866">
        <ele>426.48</ele>
        <time>2022-09-09T07:05:57Z</time>
      </trkpt>
      <trkpt lat="45.32823" lon="3.39861">
        <ele>426.48</ele>
        <time>2022-09-09T07:05:58Z</time>
      </trkpt>
      <trkpt lat="45.32828" lon="3.39856">
        <ele>426.48</ele>
        <time>2022-09-09T07:05:59Z</time>
      </trkpt>
      <trkpt lat="45.3287" lon="3.39816">
        <ele>426</ele>
        <time>2022-09-09T07:06:08Z</time>
      </trkpt>
      <trkpt lat="45.32875" lon="3.39813">
        <ele>426.48</ele>
        <time>2022-09-09T07:06:09Z</time>
      </trkpt>
      <trkpt lat="45.3288" lon="3.39811">
        <ele>426.48</ele>
        <time>2022-09-09T07:06:10Z</time>
      </trkpt>
      <trkpt lat="45.32885" lon="3.39811">
        <ele>426</ele>
        <time>2022-09-09T07:06:11Z</time>
      </trkpt>
      <trkpt lat="45.32891" lon="3.39812">
        <ele>426.48</ele>
        <time>2022-09-09T07:06:12Z</time>
      </trkpt>
      <trkpt lat="45.32896" lon="3.39814">
        <ele>426.48</ele>
        <time>2022-09-09T07:06:13Z</time>
      </trkpt>
      <trkpt lat="45.32901" lon="3.39814">
        <ele>426.48</ele>
        <time>2022-09-09T07:06:14Z</time>
      </trkpt>
      <trkpt lat="45.32906" lon="3.39814">
        <ele>426.48</ele>
        <time>2022-09-09T07:06:15Z</time>
      </trkpt>
      <trkpt lat="45.32912" lon="3.39814">
        <ele>426.48</ele>
        <time>2022-09-09T07:06:16Z</time>
      </trkpt>
      <trkpt lat="45.32917" lon="3.39814">
        <ele>426.48</ele>
        <time>2022-09-09T07:06:17Z</time>
      </trkpt>
      <trkpt lat="45.32946" lon="3.39817">
        <ele>426</ele>
        <time>2022-09-09T07:06:23Z</time>
      </trkpt>
      <trkpt lat="45.32963" lon="3.39808">
        <ele>426</ele>
        <time>2022-09-09T07:06:28Z</time>
      </trkpt>
      <trkpt lat="45.32967" lon="3.39806">
        <ele>426</ele>
        <time>2022-09-09T07:06:29Z</time>
      </trkpt>
      <trkpt lat="45.32975" lon="3.39803">
        <ele>426</ele>
        <time>2022-09-09T07:06:31Z</time>
      </trkpt>
      <trkpt lat="45.32979" lon="3.39804">
        <ele>426</ele>
        <time>2022-09-09T07:06:32Z</time>
      </trkpt>
      <trkpt lat="45.32983" lon="3.39806">
        <ele>426</ele>
        <time>2022-09-09T07:06:33Z</time>
      </trkpt>
      <trkpt lat="45.32987" lon="3.3981">
        <ele>426</ele>
        <time>2022-09-09T07:06:34Z</time>
      </trkpt>
      <trkpt lat="45.32989" lon="3.39814">
        <ele>426.48</ele>
        <time>2022-09-09T07:06:35Z</time>
      </trkpt>
      <trkpt lat="45.32992" lon="3.39819">
        <ele>426.48</ele>
        <time>2022-09-09T07:06:36Z</time>
      </trkpt>
      <trkpt lat="45.32993" lon="3.39824">
        <ele>426</ele>
        <time>2022-09-09T07:06:37Z</time>
      </trkpt>
      <trkpt lat="45.32995" lon="3.3983">
        <ele>426.48</ele>
        <time>2022-09-09T07:06:38Z</time>
      </trkpt>
      <trkpt lat="45.33011" lon="3.39875">
        <ele>426.96</ele>
        <time>2022-09-09T07:06:46Z</time>
      </trkpt>
      <trkpt lat="45.33037" lon="3.3994">
        <ele>427.44</ele>
        <time>2022-09-09T07:06:57Z</time>
      </trkpt>
      <trkpt lat="45.33055" lon="3.39972">
        <ele>428.4</ele>
        <time>2022-09-09T07:07:04Z</time>
      </trkpt>
      <trkpt lat="45.33064" lon="3.39969">
        <ele>428.89</ele>
        <time>2022-09-09T07:07:07Z</time>
      </trkpt>
      <trkpt lat="45.33067" lon="3.39965">
        <ele>428.89</ele>
        <time>2022-09-09T07:07:08Z</time>
      </trkpt>
      <trkpt lat="45.3307" lon="3.39961">
        <ele>428.89</ele>
        <time>2022-09-09T07:07:09Z</time>
      </trkpt>
      <trkpt lat="45.33073" lon="3.39956">
        <ele>428.89</ele>
        <time>2022-09-09T07:07:10Z</time>
      </trkpt>
      <trkpt lat="45.33075" lon="3.3995">
        <ele>428.89</ele>
        <time>2022-09-09T07:07:11Z</time>
      </trkpt>
      <trkpt lat="45.33099" lon="3.39895">
        <ele>428.89</ele>
        <time>2022-09-09T07:07:20Z</time>
      </trkpt>
      <trkpt lat="45.33127" lon="3.39835">
        <ele>430.33</ele>
        <time>2022-09-09T07:07:30Z</time>
      </trkpt>
      <trkpt lat="45.33129" lon="3.39828">
        <ele>430.33</ele>
        <time>2022-09-09T07:07:31Z</time>
      </trkpt>
      <trkpt lat="45.33154" lon="3.39775">
        <ele>431.77</ele>
        <time>2022-09-09T07:07:40Z</time>
      </trkpt>
      <trkpt lat="45.33171" lon="3.39747">
        <ele>432.25</ele>
        <time>2022-09-09T07:07:45Z</time>
      </trkpt>
      <trkpt lat="45.33175" lon="3.39742">
        <ele>432.25</ele>
        <time>2022-09-09T07:07:46Z</time>
      </trkpt>
      <trkpt lat="45.3321" lon="3.39711">
        <ele>432.25</ele>
        <time>2022-09-09T07:07:54Z</time>
      </trkpt>
      <trkpt lat="45.33233" lon="3.39683">
        <ele>432.73</ele>
        <time>2022-09-09T07:08:00Z</time>
      </trkpt>
      <trkpt lat="45.33237" lon="3.39679">
        <ele>432.73</ele>
        <time>2022-09-09T07:08:01Z</time>
      </trkpt>
      <trkpt lat="45.33241" lon="3.39678">
        <ele>432.73</ele>
        <time>2022-09-09T07:08:02Z</time>
      </trkpt>
      <trkpt lat="45.33246" lon="3.39678">
        <ele>433.21</ele>
        <time>2022-09-09T07:08:03Z</time>
      </trkpt>
      <trkpt lat="45.33251" lon="3.39679">
        <ele>433.21</ele>
        <time>2022-09-09T07:08:04Z</time>
      </trkpt>
      <trkpt lat="45.33255" lon="3.3968">
        <ele>433.69</ele>
        <time>2022-09-09T07:08:05Z</time>
      </trkpt>
      <trkpt lat="45.33259" lon="3.39682">
        <ele>434.17</ele>
        <time>2022-09-09T07:08:06Z</time>
      </trkpt>
      <trkpt lat="45.33263" lon="3.39685">
        <ele>434.65</ele>
        <time>2022-09-09T07:08:07Z</time>
      </trkpt>
      <trkpt lat="45.33266" lon="3.39687">
        <ele>435.61</ele>
        <time>2022-09-09T07:08:08Z</time>
      </trkpt>
      <trkpt lat="45.3327" lon="3.3969">
        <ele>436.1</ele>
        <time>2022-09-09T07:08:09Z</time>
      </trkpt>
      <trkpt lat="45.33296" lon="3.39719">
        <ele>438.98</ele>
        <time>2022-09-09T07:08:17Z</time>
      </trkpt>
      <trkpt lat="45.33318" lon="3.39755">
        <ele>442.34</ele>
        <time>2022-09-09T07:08:25Z</time>
      </trkpt>
      <trkpt lat="45.3334" lon="3.39799">
        <ele>445.23</ele>
        <time>2022-09-09T07:08:34Z</time>
      </trkpt>
      <trkpt lat="45.3337" lon="3.39841">
        <ele>448.11</ele>
        <time>2022-09-09T07:08:44Z</time>
      </trkpt>
      <trkpt lat="45.33374" lon="3.39844">
        <ele>448.11</ele>
        <time>2022-09-09T07:08:45Z</time>
      </trkpt>
      <trkpt lat="45.33409" lon="3.39868">
        <ele>451.48</ele>
        <time>2022-09-09T07:08:54Z</time>
      </trkpt>
      <trkpt lat="45.33413" lon="3.39871">
        <ele>451.96</ele>
        <time>2022-09-09T07:08:55Z</time>
      </trkpt>
      <trkpt lat="45.33417" lon="3.39874">
        <ele>451.96</ele>
        <time>2022-09-09T07:08:56Z</time>
      </trkpt>
      <trkpt lat="45.33452" lon="3.39897">
        <ele>455.32</ele>
        <time>2022-09-09T07:09:05Z</time>
      </trkpt>
      <trkpt lat="45.33459" lon="3.399">
        <ele>455.8</ele>
        <time>2022-09-09T07:09:07Z</time>
      </trkpt>
      <trkpt lat="45.33463" lon="3.39901">
        <ele>456.28</ele>
        <time>2022-09-09T07:09:08Z</time>
      </trkpt>
      <trkpt lat="45.33466" lon="3.39901">
        <ele>456.76</ele>
        <time>2022-09-09T07:09:09Z</time>
      </trkpt>
      <trkpt lat="45.33469" lon="3.399">
        <ele>457.24</ele>
        <time>2022-09-09T07:09:10Z</time>
      </trkpt>
      <trkpt lat="45.33473" lon="3.39899">
        <ele>457.72</ele>
        <time>2022-09-09T07:09:11Z</time>
      </trkpt>
      <trkpt lat="45.33476" lon="3.39897">
        <ele>458.21</ele>
        <time>2022-09-09T07:09:12Z</time>
      </trkpt>
      <trkpt lat="45.33478" lon="3.39895">
        <ele>458.69</ele>
        <time>2022-09-09T07:09:13Z</time>
      </trkpt>
      <trkpt lat="45.3348" lon="3.39892">
        <ele>459.17</ele>
        <time>2022-09-09T07:09:14Z</time>
      </trkpt>
      <trkpt lat="45.33483" lon="3.39891">
        <ele>459.17</ele>
        <time>2022-09-09T07:09:15Z</time>
      </trkpt>
      <trkpt lat="45.33486" lon="3.39891">
        <ele>459.65</ele>
        <time>2022-09-09T07:09:16Z</time>
      </trkpt>
      <trkpt lat="45.33489" lon="3.39892">
        <ele>459.17</ele>
        <time>2022-09-09T07:09:17Z</time>
      </trkpt>
      <trkpt lat="45.33492" lon="3.39894">
        <ele>459.65</ele>
        <time>2022-09-09T07:09:18Z</time>
      </trkpt>
      <trkpt lat="45.33495" lon="3.39897">
        <ele>459.65</ele>
        <time>2022-09-09T07:09:19Z</time>
      </trkpt>
      <trkpt lat="45.33498" lon="3.399">
        <ele>459.65</ele>
        <time>2022-09-09T07:09:20Z</time>
      </trkpt>
      <trkpt lat="45.33524" lon="3.39926">
        <ele>457.72</ele>
        <time>2022-09-09T07:09:26Z</time>
      </trkpt>
      <trkpt lat="45.33541" lon="3.39951">
        <ele>456.76</ele>
        <time>2022-09-09T07:09:30Z</time>
      </trkpt>
      <trkpt lat="45.33566" lon="3.4001">
        <ele>459.17</ele>
        <time>2022-09-09T07:09:39Z</time>
      </trkpt>
      <trkpt lat="45.3357" lon="3.40016">
        <ele>459.65</ele>
        <time>2022-09-09T07:09:40Z</time>
      </trkpt>
      <trkpt lat="45.33582" lon="3.40035">
        <ele>460.61</ele>
        <time>2022-09-09T07:09:44Z</time>
      </trkpt>
      <trkpt lat="45.33584" lon="3.4004">
        <ele>460.61</ele>
        <time>2022-09-09T07:09:45Z</time>
      </trkpt>
      <trkpt lat="45.33586" lon="3.40046">
        <ele>460.61</ele>
        <time>2022-09-09T07:09:46Z</time>
      </trkpt>
      <trkpt lat="45.33588" lon="3.40052">
        <ele>461.09</ele>
        <time>2022-09-09T07:09:47Z</time>
      </trkpt>
      <trkpt lat="45.33589" lon="3.40058">
        <ele>461.09</ele>
        <time>2022-09-09T07:09:48Z</time>
      </trkpt>
      <trkpt lat="45.33603" lon="3.401">
        <ele>462.53</ele>
        <time>2022-09-09T07:09:55Z</time>
      </trkpt>
      <trkpt lat="45.33606" lon="3.40105">
        <ele>462.53</ele>
        <time>2022-09-09T07:09:56Z</time>
      </trkpt>
      <trkpt lat="45.33641" lon="3.40153">
        <ele>463.49</ele>
        <time>2022-09-09T07:10:06Z</time>
      </trkpt>
      <trkpt lat="45.33678" lon="3.40191">
        <ele>464.93</ele>
        <time>2022-09-09T07:10:15Z</time>
      </trkpt>
      <trkpt lat="45.33711" lon="3.40236">
        <ele>467.82</ele>
        <time>2022-09-09T07:10:24Z</time>
      </trkpt>
      <trkpt lat="45.33751" lon="3.40293">
        <ele>470.7</ele>
        <time>2022-09-09T07:10:35Z</time>
      </trkpt>
      <trkpt lat="45.33779" lon="3.40336">
        <ele>472.63</ele>
        <time>2022-09-09T07:10:43Z</time>
      </trkpt>
      <trkpt lat="45.33791" lon="3.40359">
        <ele>474.07</ele>
        <time>2022-09-09T07:10:47Z</time>
      </trkpt>
      <trkpt lat="45.33812" lon="3.40418">
        <ele>477.43</ele>
        <time>2022-09-09T07:10:56Z</time>
      </trkpt>
      <trkpt lat="45.33829" lon="3.40467">
        <ele>480.8</ele>
        <time>2022-09-09T07:11:04Z</time>
      </trkpt>
      <trkpt lat="45.33834" lon="3.40479">
        <ele>481.28</ele>
        <time>2022-09-09T07:11:06Z</time>
      </trkpt>
      <trkpt lat="45.33837" lon="3.40484">
        <ele>481.76</ele>
        <time>2022-09-09T07:11:07Z</time>
      </trkpt>
      <trkpt lat="45.33841" lon="3.40489">
        <ele>481.76</ele>
        <time>2022-09-09T07:11:08Z</time>
      </trkpt>
      <trkpt lat="45.33845" lon="3.40493">
        <ele>482.24</ele>
        <time>2022-09-09T07:11:09Z</time>
      </trkpt>
      <trkpt lat="45.33849" lon="3.40496">
        <ele>482.72</ele>
        <time>2022-09-09T07:11:10Z</time>
      </trkpt>
      <trkpt lat="45.33854" lon="3.40499">
        <ele>482.72</ele>
        <time>2022-09-09T07:11:11Z</time>
      </trkpt>
      <trkpt lat="45.33858" lon="3.40501">
        <ele>483.2</ele>
        <time>2022-09-09T07:11:12Z</time>
      </trkpt>
      <trkpt lat="45.33897" lon="3.40518">
        <ele>485.6</ele>
        <time>2022-09-09T07:11:20Z</time>
      </trkpt>
      <trkpt lat="45.33932" lon="3.40542">
        <ele>488.49</ele>
        <time>2022-09-09T07:11:28Z</time>
      </trkpt>
      <trkpt lat="45.33957" lon="3.4058">
        <ele>491.37</ele>
        <time>2022-09-09T07:11:36Z</time>
      </trkpt>
      <trkpt lat="45.3398" lon="3.40615">
        <ele>494.74</ele>
        <time>2022-09-09T07:11:44Z</time>
      </trkpt>
      <trkpt lat="45.33986" lon="3.40622">
        <ele>495.22</ele>
        <time>2022-09-09T07:11:46Z</time>
      </trkpt>
      <trkpt lat="45.34005" lon="3.40645">
        <ele>498.58</ele>
        <time>2022-09-09T07:11:52Z</time>
      </trkpt>
      <trkpt lat="45.34009" lon="3.40649">
        <ele>499.06</ele>
        <time>2022-09-09T07:11:53Z</time>
      </trkpt>
      <trkpt lat="45.34016" lon="3.40655">
        <ele>500.02</ele>
        <time>2022-09-09T07:11:55Z</time>
      </trkpt>
      <trkpt lat="45.34019" lon="3.40659">
        <ele>501.46</ele>
        <time>2022-09-09T07:11:56Z</time>
      </trkpt>
      <trkpt lat="45.34023" lon="3.40662">
        <ele>501.46</ele>
        <time>2022-09-09T07:11:57Z</time>
      </trkpt>
      <trkpt lat="45.34043" lon="3.40682">
        <ele>504.83</ele>
        <time>2022-09-09T07:12:03Z</time>
      </trkpt>
      <trkpt lat="45.34052" lon="3.40691">
        <ele>506.27</ele>
        <time>2022-09-09T07:12:06Z</time>
      </trkpt>
      <trkpt lat="45.34063" lon="3.40703">
        <ele>508.19</ele>
        <time>2022-09-09T07:12:10Z</time>
      </trkpt>
      <trkpt lat="45.34068" lon="3.40717">
        <ele>509.16</ele>
        <time>2022-09-09T07:12:15Z</time>
      </trkpt>
      <trkpt lat="45.34069" lon="3.40725">
        <ele>509.64</ele>
        <time>2022-09-09T07:12:17Z</time>
      </trkpt>
      <trkpt lat="45.34068" lon="3.4073">
        <ele>510.12</ele>
        <time>2022-09-09T07:12:18Z</time>
      </trkpt>
      <trkpt lat="45.34066" lon="3.40734">
        <ele>510.12</ele>
        <time>2022-09-09T07:12:19Z</time>
      </trkpt>
      <trkpt lat="45.34053" lon="3.40775">
        <ele>512.52</ele>
        <time>2022-09-09T07:12:27Z</time>
      </trkpt>
      <trkpt lat="45.3404" lon="3.40824">
        <ele>514.92</ele>
        <time>2022-09-09T07:12:36Z</time>
      </trkpt>
      <trkpt lat="45.34028" lon="3.40861">
        <ele>517.33</ele>
        <time>2022-09-09T07:12:43Z</time>
      </trkpt>
      <trkpt lat="45.34021" lon="3.40883">
        <ele>518.77</ele>
        <time>2022-09-09T07:12:47Z</time>
      </trkpt>
      <trkpt lat="45.3402" lon="3.40889">
        <ele>519.25</ele>
        <time>2022-09-09T07:12:48Z</time>
      </trkpt>
      <trkpt lat="45.34019" lon="3.40912">
        <ele>520.69</ele>
        <time>2022-09-09T07:12:52Z</time>
      </trkpt>
      <trkpt lat="45.34019" lon="3.40918">
        <ele>520.69</ele>
        <time>2022-09-09T07:12:53Z</time>
      </trkpt>
      <trkpt lat="45.34025" lon="3.40957">
        <ele>523.58</ele>
        <time>2022-09-09T07:13:00Z</time>
      </trkpt>
      <trkpt lat="45.34034" lon="3.40984">
        <ele>525.5</ele>
        <time>2022-09-09T07:13:05Z</time>
      </trkpt>
      <trkpt lat="45.34057" lon="3.41019">
        <ele>527.9</ele>
        <time>2022-09-09T07:13:13Z</time>
      </trkpt>
      <trkpt lat="45.34076" lon="3.41058">
        <ele>530.79</ele>
        <time>2022-09-09T07:13:21Z</time>
      </trkpt>
      <trkpt lat="45.34093" lon="3.411">
        <ele>533.19</ele>
        <time>2022-09-09T07:13:29Z</time>
      </trkpt>
      <trkpt lat="45.34105" lon="3.41132">
        <ele>535.11</ele>
        <time>2022-09-09T07:13:36Z</time>
      </trkpt>
      <trkpt lat="45.3412" lon="3.41167">
        <ele>536.55</ele>
        <time>2022-09-09T07:13:43Z</time>
      </trkpt>
      <trkpt lat="45.34122" lon="3.41173">
        <ele>536.55</ele>
        <time>2022-09-09T07:13:44Z</time>
      </trkpt>
      <trkpt lat="45.34125" lon="3.41178">
        <ele>536.55</ele>
        <time>2022-09-09T07:13:45Z</time>
      </trkpt>
      <trkpt lat="45.34137" lon="3.41211">
        <ele>537.51</ele>
        <time>2022-09-09T07:13:51Z</time>
      </trkpt>
      <trkpt lat="45.34145" lon="3.41233">
        <ele>538.48</ele>
        <time>2022-09-09T07:13:55Z</time>
      </trkpt>
      <trkpt lat="45.34147" lon="3.41239">
        <ele>538.96</ele>
        <time>2022-09-09T07:13:56Z</time>
      </trkpt>
      <trkpt lat="45.34153" lon="3.41262">
        <ele>539.44</ele>
        <time>2022-09-09T07:14:00Z</time>
      </trkpt>
      <trkpt lat="45.34155" lon="3.41267">
        <ele>539.44</ele>
        <time>2022-09-09T07:14:01Z</time>
      </trkpt>
      <trkpt lat="45.34157" lon="3.41273">
        <ele>539.92</ele>
        <time>2022-09-09T07:14:02Z</time>
      </trkpt>
      <trkpt lat="45.34158" lon="3.41279">
        <ele>540.4</ele>
        <time>2022-09-09T07:14:03Z</time>
      </trkpt>
      <trkpt lat="45.34159" lon="3.41284">
        <ele>540.88</ele>
        <time>2022-09-09T07:14:04Z</time>
      </trkpt>
      <trkpt lat="45.34161" lon="3.4129">
        <ele>540.88</ele>
        <time>2022-09-09T07:14:05Z</time>
      </trkpt>
      <trkpt lat="45.34162" lon="3.41296">
        <ele>541.84</ele>
        <time>2022-09-09T07:14:06Z</time>
      </trkpt>
      <trkpt lat="45.34166" lon="3.41326">
        <ele>542.32</ele>
        <time>2022-09-09T07:14:12Z</time>
      </trkpt>
      <trkpt lat="45.34162" lon="3.41347">
        <ele>542.32</ele>
        <time>2022-09-09T07:14:19Z</time>
      </trkpt>
      <trkpt lat="45.34155" lon="3.41375">
        <ele>542.32</ele>
        <time>2022-09-09T07:14:27Z</time>
      </trkpt>
      <trkpt lat="45.34143" lon="3.41407">
        <ele>543.28</ele>
        <time>2022-09-09T07:14:34Z</time>
      </trkpt>
      <trkpt lat="45.34139" lon="3.41417">
        <ele>543.28</ele>
        <time>2022-09-09T07:14:36Z</time>
      </trkpt>
      <trkpt lat="45.34117" lon="3.4145">
        <ele>542.32</ele>
        <time>2022-09-09T07:14:42Z</time>
      </trkpt>
      <trkpt lat="45.34107" lon="3.41459">
        <ele>541.36</ele>
        <time>2022-09-09T07:14:44Z</time>
      </trkpt>
      <trkpt lat="45.34101" lon="3.41463">
        <ele>540.88</ele>
        <time>2022-09-09T07:14:45Z</time>
      </trkpt>
      <trkpt lat="45.34095" lon="3.41467">
        <ele>540.4</ele>
        <time>2022-09-09T07:14:46Z</time>
      </trkpt>
      <trkpt lat="45.34089" lon="3.41472">
        <ele>539.92</ele>
        <time>2022-09-09T07:14:47Z</time>
      </trkpt>
      <trkpt lat="45.34082" lon="3.41478">
        <ele>539.44</ele>
        <time>2022-09-09T07:14:48Z</time>
      </trkpt>
      <trkpt lat="45.34076" lon="3.41486">
        <ele>538.48</ele>
        <time>2022-09-09T07:14:49Z</time>
      </trkpt>
      <trkpt lat="45.3407" lon="3.41494">
        <ele>537.03</ele>
        <time>2022-09-09T07:14:50Z</time>
      </trkpt>
      <trkpt lat="45.34066" lon="3.41503">
        <ele>535.59</ele>
        <time>2022-09-09T07:14:51Z</time>
      </trkpt>
      <trkpt lat="45.34061" lon="3.41512">
        <ele>534.63</ele>
        <time>2022-09-09T07:14:52Z</time>
      </trkpt>
      <trkpt lat="45.34057" lon="3.41521">
        <ele>534.63</ele>
        <time>2022-09-09T07:14:53Z</time>
      </trkpt>
      <trkpt lat="45.34039" lon="3.41556">
        <ele>531.75</ele>
        <time>2022-09-09T07:14:58Z</time>
      </trkpt>
      <trkpt lat="45.34028" lon="3.41573">
        <ele>531.75</ele>
        <time>2022-09-09T07:15:05Z</time>
      </trkpt>
      <trkpt lat="45.34021" lon="3.41581">
        <ele>531.75</ele>
        <time>2022-09-09T07:15:09Z</time>
      </trkpt>
      <trkpt lat="45.34019" lon="3.41582">
        <ele>531.75</ele>
        <time>2022-09-09T07:15:10Z</time>
      </trkpt>
      <trkpt lat="45.33998" lon="3.41593">
        <ele>531.27</ele>
        <time>2022-09-09T07:15:16Z</time>
      </trkpt>
      <trkpt lat="45.33974" lon="3.41603">
        <ele>530.79</ele>
        <time>2022-09-09T07:15:21Z</time>
      </trkpt>
      <trkpt lat="45.33971" lon="3.41607">
        <ele>530.79</ele>
        <time>2022-09-09T07:15:22Z</time>
      </trkpt>
      <trkpt lat="45.33954" lon="3.41622">
        <ele>530.3</ele>
        <time>2022-09-09T07:15:26Z</time>
      </trkpt>
      <trkpt lat="45.33935" lon="3.41637">
        <ele>529.82</ele>
        <time>2022-09-09T07:15:30Z</time>
      </trkpt>
      <trkpt lat="45.33931" lon="3.41641">
        <ele>529.82</ele>
        <time>2022-09-09T07:15:31Z</time>
      </trkpt>
      <trkpt lat="45.33915" lon="3.41659">
        <ele>529.34</ele>
        <time>2022-09-09T07:15:35Z</time>
      </trkpt>
      <trkpt lat="45.33912" lon="3.41663">
        <ele>528.86</ele>
        <time>2022-09-09T07:15:36Z</time>
      </trkpt>
      <trkpt lat="45.33909" lon="3.41667">
        <ele>528.86</ele>
        <time>2022-09-09T07:15:37Z</time>
      </trkpt>
      <trkpt lat="45.33904" lon="3.41675">
        <ele>527.9</ele>
        <time>2022-09-09T07:15:41Z</time>
      </trkpt>
      <trkpt lat="45.33903" lon="3.41676">
        <ele>528.38</ele>
        <time>2022-09-09T07:15:52Z</time>
      </trkpt>
      <trkpt lat="45.33902" lon="3.41678">
        <ele>528.38</ele>
        <time>2022-09-09T07:15:53Z</time>
      </trkpt>
      <trkpt lat="45.33901" lon="3.41682">
        <ele>528.38</ele>
        <time>2022-09-09T07:15:54Z</time>
      </trkpt>
      <trkpt lat="45.339" lon="3.41686">
        <ele>528.38</ele>
        <time>2022-09-09T07:15:55Z</time>
      </trkpt>
      <trkpt lat="45.33899" lon="3.4169">
        <ele>528.86</ele>
        <time>2022-09-09T07:15:56Z</time>
      </trkpt>
      <trkpt lat="45.33897" lon="3.41694">
        <ele>528.38</ele>
        <time>2022-09-09T07:15:57Z</time>
      </trkpt>
      <trkpt lat="45.33896" lon="3.41698">
        <ele>528.86</ele>
        <time>2022-09-09T07:15:58Z</time>
      </trkpt>
      <trkpt lat="45.33894" lon="3.41703">
        <ele>528.86</ele>
        <time>2022-09-09T07:15:59Z</time>
      </trkpt>
      <trkpt lat="45.33893" lon="3.41708">
        <ele>528.38</ele>
        <time>2022-09-09T07:16:00Z</time>
      </trkpt>
      <trkpt lat="45.33893" lon="3.41713">
        <ele>528.86</ele>
        <time>2022-09-09T07:16:01Z</time>
      </trkpt>
      <trkpt lat="45.33887" lon="3.41735">
        <ele>528.86</ele>
        <time>2022-09-09T07:16:05Z</time>
      </trkpt>
      <trkpt lat="45.33881" lon="3.41747">
        <ele>528.86</ele>
        <time>2022-09-09T07:16:07Z</time>
      </trkpt>
      <trkpt lat="45.33862" lon="3.41794">
        <ele>527.42</ele>
        <time>2022-09-09T07:16:14Z</time>
      </trkpt>
      <trkpt lat="45.3386" lon="3.41801">
        <ele>527.42</ele>
        <time>2022-09-09T07:16:15Z</time>
      </trkpt>
      <trkpt lat="45.33858" lon="3.41808">
        <ele>526.94</ele>
        <time>2022-09-09T07:16:16Z</time>
      </trkpt>
      <trkpt lat="45.33857" lon="3.41817">
        <ele>526.46</ele>
        <time>2022-09-09T07:16:17Z</time>
      </trkpt>
      <trkpt lat="45.33857" lon="3.41825">
        <ele>526.46</ele>
        <time>2022-09-09T07:16:18Z</time>
      </trkpt>
      <trkpt lat="45.33857" lon="3.41833">
        <ele>526.46</ele>
        <time>2022-09-09T07:16:19Z</time>
      </trkpt>
      <trkpt lat="45.33858" lon="3.41841">
        <ele>525.5</ele>
        <time>2022-09-09T07:16:20Z</time>
      </trkpt>
      <trkpt lat="45.33862" lon="3.41856">
        <ele>525.5</ele>
        <time>2022-09-09T07:16:22Z</time>
      </trkpt>
      <trkpt lat="45.33867" lon="3.41879">
        <ele>525.02</ele>
        <time>2022-09-09T07:16:25Z</time>
      </trkpt>
      <trkpt lat="45.33868" lon="3.41888">
        <ele>525.02</ele>
        <time>2022-09-09T07:16:26Z</time>
      </trkpt>
      <trkpt lat="45.33868" lon="3.41896">
        <ele>525.02</ele>
        <time>2022-09-09T07:16:27Z</time>
      </trkpt>
      <trkpt lat="45.33868" lon="3.41904">
        <ele>525.02</ele>
        <time>2022-09-09T07:16:28Z</time>
      </trkpt>
      <trkpt lat="45.33868" lon="3.41913">
        <ele>525.02</ele>
        <time>2022-09-09T07:16:29Z</time>
      </trkpt>
      <trkpt lat="45.33864" lon="3.41965">
        <ele>524.06</ele>
        <time>2022-09-09T07:16:35Z</time>
      </trkpt>
      <trkpt lat="45.33865" lon="3.41974">
        <ele>524.06</ele>
        <time>2022-09-09T07:16:36Z</time>
      </trkpt>
      <trkpt lat="45.33867" lon="3.41981">
        <ele>523.58</ele>
        <time>2022-09-09T07:16:37Z</time>
      </trkpt>
      <trkpt lat="45.33869" lon="3.41989">
        <ele>524.06</ele>
        <time>2022-09-09T07:16:38Z</time>
      </trkpt>
      <trkpt lat="45.33872" lon="3.41997">
        <ele>523.58</ele>
        <time>2022-09-09T07:16:39Z</time>
      </trkpt>
      <trkpt lat="45.33875" lon="3.42004">
        <ele>523.58</ele>
        <time>2022-09-09T07:16:40Z</time>
      </trkpt>
      <trkpt lat="45.33897" lon="3.42054">
        <ele>523.58</ele>
        <time>2022-09-09T07:16:47Z</time>
      </trkpt>
      <trkpt lat="45.3391" lon="3.421">
        <ele>524.06</ele>
        <time>2022-09-09T07:16:54Z</time>
      </trkpt>
      <trkpt lat="45.33915" lon="3.42113">
        <ele>524.06</ele>
        <time>2022-09-09T07:16:56Z</time>
      </trkpt>
      <trkpt lat="45.33917" lon="3.42119">
        <ele>524.06</ele>
        <time>2022-09-09T07:16:57Z</time>
      </trkpt>
      <trkpt lat="45.3392" lon="3.42125">
        <ele>524.06</ele>
        <time>2022-09-09T07:16:58Z</time>
      </trkpt>
      <trkpt lat="45.33922" lon="3.42131">
        <ele>524.54</ele>
        <time>2022-09-09T07:16:59Z</time>
      </trkpt>
      <trkpt lat="45.33924" lon="3.42137">
        <ele>524.54</ele>
        <time>2022-09-09T07:17:00Z</time>
      </trkpt>
      <trkpt lat="45.33927" lon="3.42143">
        <ele>524.54</ele>
        <time>2022-09-09T07:17:01Z</time>
      </trkpt>
      <trkpt lat="45.33941" lon="3.42173">
        <ele>525.02</ele>
        <time>2022-09-09T07:17:07Z</time>
      </trkpt>
      <trkpt lat="45.33944" lon="3.42178">
        <ele>525.5</ele>
        <time>2022-09-09T07:17:08Z</time>
      </trkpt>
      <trkpt lat="45.3396" lon="3.42201">
        <ele>526.46</ele>
        <time>2022-09-09T07:17:13Z</time>
      </trkpt>
      <trkpt lat="45.33966" lon="3.42212">
        <ele>526.46</ele>
        <time>2022-09-09T07:17:15Z</time>
      </trkpt>
      <trkpt lat="45.33972" lon="3.4223">
        <ele>526.46</ele>
        <time>2022-09-09T07:17:18Z</time>
      </trkpt>
      <trkpt lat="45.33975" lon="3.42244">
        <ele>526.46</ele>
        <time>2022-09-09T07:17:20Z</time>
      </trkpt>
      <trkpt lat="45.33975" lon="3.42251">
        <ele>526.46</ele>
        <time>2022-09-09T07:17:21Z</time>
      </trkpt>
      <trkpt lat="45.33979" lon="3.42275">
        <ele>525.5</ele>
        <time>2022-09-09T07:17:24Z</time>
      </trkpt>
      <trkpt lat="45.33982" lon="3.423">
        <ele>524.06</ele>
        <time>2022-09-09T07:17:27Z</time>
      </trkpt>
      <trkpt lat="45.33984" lon="3.42308">
        <ele>524.06</ele>
        <time>2022-09-09T07:17:28Z</time>
      </trkpt>
      <trkpt lat="45.33988" lon="3.42324">
        <ele>524.06</ele>
        <time>2022-09-09T07:17:30Z</time>
      </trkpt>
      <trkpt lat="45.33991" lon="3.42332">
        <ele>523.58</ele>
        <time>2022-09-09T07:17:31Z</time>
      </trkpt>
      <trkpt lat="45.33995" lon="3.4234">
        <ele>523.58</ele>
        <time>2022-09-09T07:17:32Z</time>
      </trkpt>
      <trkpt lat="45.33998" lon="3.42347">
        <ele>523.58</ele>
        <time>2022-09-09T07:17:33Z</time>
      </trkpt>
      <trkpt lat="45.34002" lon="3.42353">
        <ele>523.58</ele>
        <time>2022-09-09T07:17:34Z</time>
      </trkpt>
      <trkpt lat="45.34006" lon="3.42358">
        <ele>523.09</ele>
        <time>2022-09-09T07:17:35Z</time>
      </trkpt>
      <trkpt lat="45.34011" lon="3.42363">
        <ele>523.58</ele>
        <time>2022-09-09T07:17:36Z</time>
      </trkpt>
      <trkpt lat="45.34015" lon="3.42367">
        <ele>523.09</ele>
        <time>2022-09-09T07:17:37Z</time>
      </trkpt>
      <trkpt lat="45.34029" lon="3.42381">
        <ele>523.09</ele>
        <time>2022-09-09T07:17:40Z</time>
      </trkpt>
      <trkpt lat="45.34033" lon="3.42387">
        <ele>523.09</ele>
        <time>2022-09-09T07:17:41Z</time>
      </trkpt>
      <trkpt lat="45.34036" lon="3.42395">
        <ele>523.09</ele>
        <time>2022-09-09T07:17:42Z</time>
      </trkpt>
      <trkpt lat="45.34039" lon="3.42402">
        <ele>523.09</ele>
        <time>2022-09-09T07:17:43Z</time>
      </trkpt>
      <trkpt lat="45.3404" lon="3.4241">
        <ele>522.61</ele>
        <time>2022-09-09T07:17:44Z</time>
      </trkpt>
      <trkpt lat="45.34041" lon="3.42418">
        <ele>523.09</ele>
        <time>2022-09-09T07:17:45Z</time>
      </trkpt>
      <trkpt lat="45.34042" lon="3.42426">
        <ele>523.09</ele>
        <time>2022-09-09T07:17:46Z</time>
      </trkpt>
      <trkpt lat="45.34042" lon="3.42433">
        <ele>522.61</ele>
        <time>2022-09-09T07:17:47Z</time>
      </trkpt>
      <trkpt lat="45.34042" lon="3.42441">
        <ele>522.61</ele>
        <time>2022-09-09T07:17:48Z</time>
      </trkpt>
      <trkpt lat="45.34043" lon="3.42448">
        <ele>522.61</ele>
        <time>2022-09-09T07:17:49Z</time>
      </trkpt>
      <trkpt lat="45.34044" lon="3.42456">
        <ele>522.61</ele>
        <time>2022-09-09T07:17:50Z</time>
      </trkpt>
      <trkpt lat="45.34046" lon="3.42463">
        <ele>523.09</ele>
        <time>2022-09-09T07:17:51Z</time>
      </trkpt>
      <trkpt lat="45.34048" lon="3.42469">
        <ele>523.09</ele>
        <time>2022-09-09T07:17:52Z</time>
      </trkpt>
      <trkpt lat="45.34051" lon="3.42475">
        <ele>522.61</ele>
        <time>2022-09-09T07:17:53Z</time>
      </trkpt>
      <trkpt lat="45.34054" lon="3.42481">
        <ele>522.61</ele>
        <time>2022-09-09T07:17:54Z</time>
      </trkpt>
      <trkpt lat="45.34057" lon="3.42487">
        <ele>522.61</ele>
        <time>2022-09-09T07:17:55Z</time>
      </trkpt>
      <trkpt lat="45.34061" lon="3.42493">
        <ele>523.09</ele>
        <time>2022-09-09T07:17:56Z</time>
      </trkpt>
      <trkpt lat="45.34065" lon="3.42497">
        <ele>522.61</ele>
        <time>2022-09-09T07:17:57Z</time>
      </trkpt>
      <trkpt lat="45.34069" lon="3.42501">
        <ele>522.61</ele>
        <time>2022-09-09T07:17:58Z</time>
      </trkpt>
      <trkpt lat="45.34099" lon="3.42533">
        <ele>521.65</ele>
        <time>2022-09-09T07:18:05Z</time>
      </trkpt>
      <trkpt lat="45.34131" lon="3.42558">
        <ele>520.69</ele>
        <time>2022-09-09T07:18:11Z</time>
      </trkpt>
      <trkpt lat="45.34146" lon="3.42572">
        <ele>520.21</ele>
        <time>2022-09-09T07:18:14Z</time>
      </trkpt>
      <trkpt lat="45.34151" lon="3.42577">
        <ele>520.21</ele>
        <time>2022-09-09T07:18:15Z</time>
      </trkpt>
      <trkpt lat="45.34163" lon="3.42594">
        <ele>520.21</ele>
        <time>2022-09-09T07:18:18Z</time>
      </trkpt>
      <trkpt lat="45.34165" lon="3.426">
        <ele>520.21</ele>
        <time>2022-09-09T07:18:19Z</time>
      </trkpt>
      <trkpt lat="45.34167" lon="3.42606">
        <ele>520.21</ele>
        <time>2022-09-09T07:18:20Z</time>
      </trkpt>
      <trkpt lat="45.34168" lon="3.42613">
        <ele>520.21</ele>
        <time>2022-09-09T07:18:21Z</time>
      </trkpt>
      <trkpt lat="45.34168" lon="3.4262">
        <ele>520.69</ele>
        <time>2022-09-09T07:18:22Z</time>
      </trkpt>
      <trkpt lat="45.34168" lon="3.42627">
        <ele>520.69</ele>
        <time>2022-09-09T07:18:23Z</time>
      </trkpt>
      <trkpt lat="45.34166" lon="3.42641">
        <ele>520.69</ele>
        <time>2022-09-09T07:18:25Z</time>
      </trkpt>
      <trkpt lat="45.34165" lon="3.42647">
        <ele>521.17</ele>
        <time>2022-09-09T07:18:26Z</time>
      </trkpt>
      <trkpt lat="45.34163" lon="3.42653">
        <ele>520.69</ele>
        <time>2022-09-09T07:18:27Z</time>
      </trkpt>
      <trkpt lat="45.34161" lon="3.4266">
        <ele>520.69</ele>
        <time>2022-09-09T07:18:28Z</time>
      </trkpt>
      <trkpt lat="45.34158" lon="3.42667">
        <ele>520.69</ele>
        <time>2022-09-09T07:18:29Z</time>
      </trkpt>
      <trkpt lat="45.34153" lon="3.42682">
        <ele>520.69</ele>
        <time>2022-09-09T07:18:31Z</time>
      </trkpt>
      <trkpt lat="45.34151" lon="3.427">
        <ele>519.73</ele>
        <time>2022-09-09T07:18:33Z</time>
      </trkpt>
      <trkpt lat="45.34151" lon="3.4271">
        <ele>519.73</ele>
        <time>2022-09-09T07:18:34Z</time>
      </trkpt>
      <trkpt lat="45.34151" lon="3.42727">
        <ele>519.25</ele>
        <time>2022-09-09T07:18:36Z</time>
      </trkpt>
      <trkpt lat="45.34152" lon="3.42734">
        <ele>518.77</ele>
        <time>2022-09-09T07:18:37Z</time>
      </trkpt>
      <trkpt lat="45.34163" lon="3.42781">
        <ele>517.81</ele>
        <time>2022-09-09T07:18:43Z</time>
      </trkpt>
      <trkpt lat="45.34164" lon="3.42789">
        <ele>517.81</ele>
        <time>2022-09-09T07:18:44Z</time>
      </trkpt>
      <trkpt lat="45.34166" lon="3.42814">
        <ele>517.81</ele>
        <time>2022-09-09T07:18:47Z</time>
      </trkpt>
      <trkpt lat="45.34167" lon="3.42821">
        <ele>517.33</ele>
        <time>2022-09-09T07:18:48Z</time>
      </trkpt>
      <trkpt lat="45.3417" lon="3.42829">
        <ele>517.33</ele>
        <time>2022-09-09T07:18:49Z</time>
      </trkpt>
      <trkpt lat="45.34179" lon="3.42865">
        <ele>517.81</ele>
        <time>2022-09-09T07:18:54Z</time>
      </trkpt>
      <trkpt lat="45.3418" lon="3.42872">
        <ele>517.33</ele>
        <time>2022-09-09T07:18:55Z</time>
      </trkpt>
      <trkpt lat="45.34182" lon="3.42898">
        <ele>517.81</ele>
        <time>2022-09-09T07:18:59Z</time>
      </trkpt>
      <trkpt lat="45.34184" lon="3.42912">
        <ele>518.29</ele>
        <time>2022-09-09T07:19:01Z</time>
      </trkpt>
      <trkpt lat="45.34187" lon="3.42939">
        <ele>518.77</ele>
        <time>2022-09-09T07:19:05Z</time>
      </trkpt>
      <trkpt lat="45.34191" lon="3.42946">
        <ele>519.25</ele>
        <time>2022-09-09T07:19:06Z</time>
      </trkpt>
      <trkpt lat="45.34207" lon="3.4297">
        <ele>518.29</ele>
        <time>2022-09-09T07:19:10Z</time>
      </trkpt>
      <trkpt lat="45.34209" lon="3.42978">
        <ele>518.29</ele>
        <time>2022-09-09T07:19:11Z</time>
      </trkpt>
      <trkpt lat="45.34209" lon="3.42985">
        <ele>518.29</ele>
        <time>2022-09-09T07:19:12Z</time>
      </trkpt>
      <trkpt lat="45.34208" lon="3.42993">
        <ele>518.29</ele>
        <time>2022-09-09T07:19:13Z</time>
      </trkpt>
      <trkpt lat="45.34206" lon="3.43">
        <ele>518.29</ele>
        <time>2022-09-09T07:19:14Z</time>
      </trkpt>
      <trkpt lat="45.34203" lon="3.43006">
        <ele>518.29</ele>
        <time>2022-09-09T07:19:15Z</time>
      </trkpt>
      <trkpt lat="45.342" lon="3.43013">
        <ele>518.29</ele>
        <time>2022-09-09T07:19:16Z</time>
      </trkpt>
      <trkpt lat="45.34196" lon="3.43018">
        <ele>518.77</ele>
        <time>2022-09-09T07:19:17Z</time>
      </trkpt>
      <trkpt lat="45.34192" lon="3.43023">
        <ele>518.77</ele>
        <time>2022-09-09T07:19:18Z</time>
      </trkpt>
      <trkpt lat="45.34188" lon="3.43029">
        <ele>518.77</ele>
        <time>2022-09-09T07:19:19Z</time>
      </trkpt>
      <trkpt lat="45.34185" lon="3.43035">
        <ele>519.25</ele>
        <time>2022-09-09T07:19:20Z</time>
      </trkpt>
      <trkpt lat="45.34182" lon="3.43041">
        <ele>519.25</ele>
        <time>2022-09-09T07:19:21Z</time>
      </trkpt>
      <trkpt lat="45.34181" lon="3.43048">
        <ele>519.25</ele>
        <time>2022-09-09T07:19:22Z</time>
      </trkpt>
      <trkpt lat="45.3418" lon="3.43055">
        <ele>519.25</ele>
        <time>2022-09-09T07:19:23Z</time>
      </trkpt>
      <trkpt lat="45.34181" lon="3.43061">
        <ele>519.25</ele>
        <time>2022-09-09T07:19:24Z</time>
      </trkpt>
      <trkpt lat="45.34183" lon="3.43067">
        <ele>519.25</ele>
        <time>2022-09-09T07:19:25Z</time>
      </trkpt>
      <trkpt lat="45.34187" lon="3.43073">
        <ele>518.77</ele>
        <time>2022-09-09T07:19:26Z</time>
      </trkpt>
      <trkpt lat="45.34191" lon="3.43078">
        <ele>518.77</ele>
        <time>2022-09-09T07:19:27Z</time>
      </trkpt>
      <trkpt lat="45.34195" lon="3.43082">
        <ele>518.77</ele>
        <time>2022-09-09T07:19:28Z</time>
      </trkpt>
      <trkpt lat="45.34199" lon="3.43086">
        <ele>518.77</ele>
        <time>2022-09-09T07:19:29Z</time>
      </trkpt>
      <trkpt lat="45.34203" lon="3.43091">
        <ele>517.81</ele>
        <time>2022-09-09T07:19:30Z</time>
      </trkpt>
      <trkpt lat="45.34207" lon="3.43096">
        <ele>517.81</ele>
        <time>2022-09-09T07:19:31Z</time>
      </trkpt>
      <trkpt lat="45.3421" lon="3.43102">
        <ele>517.33</ele>
        <time>2022-09-09T07:19:32Z</time>
      </trkpt>
      <trkpt lat="45.34216" lon="3.43115">
        <ele>517.33</ele>
        <time>2022-09-09T07:19:34Z</time>
      </trkpt>
      <trkpt lat="45.34217" lon="3.43122">
        <ele>517.81</ele>
        <time>2022-09-09T07:19:35Z</time>
      </trkpt>
      <trkpt lat="45.34219" lon="3.43129">
        <ele>517.81</ele>
        <time>2022-09-09T07:19:36Z</time>
      </trkpt>
      <trkpt lat="45.34222" lon="3.43136">
        <ele>517.81</ele>
        <time>2022-09-09T07:19:37Z</time>
      </trkpt>
      <trkpt lat="45.34226" lon="3.43143">
        <ele>517.33</ele>
        <time>2022-09-09T07:19:38Z</time>
      </trkpt>
      <trkpt lat="45.34229" lon="3.43149">
        <ele>517.33</ele>
        <time>2022-09-09T07:19:39Z</time>
      </trkpt>
      <trkpt lat="45.34234" lon="3.43163">
        <ele>516.85</ele>
        <time>2022-09-09T07:19:41Z</time>
      </trkpt>
      <trkpt lat="45.34236" lon="3.43171">
        <ele>516.85</ele>
        <time>2022-09-09T07:19:42Z</time>
      </trkpt>
      <trkpt lat="45.34237" lon="3.43177">
        <ele>516.37</ele>
        <time>2022-09-09T07:19:43Z</time>
      </trkpt>
      <trkpt lat="45.34238" lon="3.43184">
        <ele>516.37</ele>
        <time>2022-09-09T07:19:44Z</time>
      </trkpt>
      <trkpt lat="45.34239" lon="3.43191">
        <ele>515.88</ele>
        <time>2022-09-09T07:19:45Z</time>
      </trkpt>
      <trkpt lat="45.34243" lon="3.43228">
        <ele>515.4</ele>
        <time>2022-09-09T07:19:50Z</time>
      </trkpt>
      <trkpt lat="45.34244" lon="3.43234">
        <ele>515.4</ele>
        <time>2022-09-09T07:19:51Z</time>
      </trkpt>
      <trkpt lat="45.34247" lon="3.4324">
        <ele>515.4</ele>
        <time>2022-09-09T07:19:52Z</time>
      </trkpt>
      <trkpt lat="45.3425" lon="3.43245">
        <ele>514.92</ele>
        <time>2022-09-09T07:19:53Z</time>
      </trkpt>
      <trkpt lat="45.34254" lon="3.43251">
        <ele>514.92</ele>
        <time>2022-09-09T07:19:54Z</time>
      </trkpt>
      <trkpt lat="45.34275" lon="3.43288">
        <ele>514.92</ele>
        <time>2022-09-09T07:20:00Z</time>
      </trkpt>
      <trkpt lat="45.34298" lon="3.43339">
        <ele>514.92</ele>
        <time>2022-09-09T07:20:07Z</time>
      </trkpt>
      <trkpt lat="45.34324" lon="3.43396">
        <ele>515.88</ele>
        <time>2022-09-09T07:20:15Z</time>
      </trkpt>
      <trkpt lat="45.34326" lon="3.43411">
        <ele>515.88</ele>
        <time>2022-09-09T07:20:17Z</time>
      </trkpt>
      <trkpt lat="45.34331" lon="3.43441">
        <ele>516.37</ele>
        <time>2022-09-09T07:20:21Z</time>
      </trkpt>
      <trkpt lat="45.34332" lon="3.43448">
        <ele>516.85</ele>
        <time>2022-09-09T07:20:22Z</time>
      </trkpt>
      <trkpt lat="45.34337" lon="3.43468">
        <ele>516.85</ele>
        <time>2022-09-09T07:20:25Z</time>
      </trkpt>
      <trkpt lat="45.34338" lon="3.43475">
        <ele>516.85</ele>
        <time>2022-09-09T07:20:26Z</time>
      </trkpt>
      <trkpt lat="45.34338" lon="3.43482">
        <ele>516.85</ele>
        <time>2022-09-09T07:20:27Z</time>
      </trkpt>
      <trkpt lat="45.34338" lon="3.43505">
        <ele>517.33</ele>
        <time>2022-09-09T07:20:30Z</time>
      </trkpt>
      <trkpt lat="45.34339" lon="3.43512">
        <ele>517.81</ele>
        <time>2022-09-09T07:20:31Z</time>
      </trkpt>
      <trkpt lat="45.34341" lon="3.43518">
        <ele>517.81</ele>
        <time>2022-09-09T07:20:32Z</time>
      </trkpt>
      <trkpt lat="45.34345" lon="3.43523">
        <ele>518.29</ele>
        <time>2022-09-09T07:20:33Z</time>
      </trkpt>
      <trkpt lat="45.34349" lon="3.43526">
        <ele>518.77</ele>
        <time>2022-09-09T07:20:34Z</time>
      </trkpt>
      <trkpt lat="45.34354" lon="3.43529">
        <ele>518.77</ele>
        <time>2022-09-09T07:20:35Z</time>
      </trkpt>
      <trkpt lat="45.34369" lon="3.43537">
        <ele>518.77</ele>
        <time>2022-09-09T07:20:38Z</time>
      </trkpt>
      <trkpt lat="45.34377" lon="3.43545">
        <ele>519.25</ele>
        <time>2022-09-09T07:20:40Z</time>
      </trkpt>
      <trkpt lat="45.34381" lon="3.4355">
        <ele>519.25</ele>
        <time>2022-09-09T07:20:41Z</time>
      </trkpt>
      <trkpt lat="45.34389" lon="3.4356">
        <ele>519.73</ele>
        <time>2022-09-09T07:20:43Z</time>
      </trkpt>
      <trkpt lat="45.34423" lon="3.43603">
        <ele>521.17</ele>
        <time>2022-09-09T07:20:52Z</time>
      </trkpt>
      <trkpt lat="45.34434" lon="3.43618">
        <ele>521.65</ele>
        <time>2022-09-09T07:20:55Z</time>
      </trkpt>
      <trkpt lat="45.3444" lon="3.4363">
        <ele>522.13</ele>
        <time>2022-09-09T07:20:57Z</time>
      </trkpt>
      <trkpt lat="45.34443" lon="3.43636">
        <ele>522.13</ele>
        <time>2022-09-09T07:20:58Z</time>
      </trkpt>
      <trkpt lat="45.34447" lon="3.4365">
        <ele>522.61</ele>
        <time>2022-09-09T07:21:00Z</time>
      </trkpt>
      <trkpt lat="45.34455" lon="3.43706">
        <ele>523.09</ele>
        <time>2022-09-09T07:21:08Z</time>
      </trkpt>
      <trkpt lat="45.34458" lon="3.43718">
        <ele>523.09</ele>
        <time>2022-09-09T07:21:10Z</time>
      </trkpt>
      <trkpt lat="45.34466" lon="3.43738">
        <ele>523.09</ele>
        <time>2022-09-09T07:21:15Z</time>
      </trkpt>
      <trkpt lat="45.34467" lon="3.43746">
        <ele>523.09</ele>
        <time>2022-09-09T07:21:18Z</time>
      </trkpt>
      <trkpt lat="45.34466" lon="3.43748">
        <ele>523.09</ele>
        <time>2022-09-09T07:21:19Z</time>
      </trkpt>
      <trkpt lat="45.34464" lon="3.4375">
        <ele>523.09</ele>
        <time>2022-09-09T07:21:20Z</time>
      </trkpt>
      <trkpt lat="45.34462" lon="3.43752">
        <ele>523.58</ele>
        <time>2022-09-09T07:21:21Z</time>
      </trkpt>
      <trkpt lat="45.3446" lon="3.43752">
        <ele>523.09</ele>
        <time>2022-09-09T07:21:22Z</time>
      </trkpt>
      <trkpt lat="45.34457" lon="3.43753">
        <ele>523.09</ele>
        <time>2022-09-09T07:21:23Z</time>
      </trkpt>
      <trkpt lat="45.34455" lon="3.43753">
        <ele>523.09</ele>
        <time>2022-09-09T07:21:24Z</time>
      </trkpt>
      <trkpt lat="45.34453" lon="3.43751">
        <ele>523.09</ele>
        <time>2022-09-09T07:21:31Z</time>
      </trkpt>
      <trkpt lat="45.34453" lon="3.43753">
        <ele>523.09</ele>
        <time>2022-09-09T07:21:39Z</time>
      </trkpt>
      <trkpt lat="45.34455" lon="3.43753">
        <ele>523.09</ele>
        <time>2022-09-09T07:21:42Z</time>
      </trkpt>
      <trkpt lat="45.34456" lon="3.43753">
        <ele>523.09</ele>
        <time>2022-09-09T07:21:43Z</time>
      </trkpt>
      <trkpt lat="45.34457" lon="3.43753">
        <ele>523.09</ele>
        <time>2022-09-09T07:21:44Z</time>
      </trkpt>
      <trkpt lat="45.34458" lon="3.43752">
        <ele>523.09</ele>
        <time>2022-09-09T07:21:45Z</time>
      </trkpt>
      <trkpt lat="45.3446" lon="3.43752">
        <ele>523.09</ele>
        <time>2022-09-09T07:21:46Z</time>
      </trkpt>
      <trkpt lat="45.34461" lon="3.43753">
        <ele>523.09</ele>
        <time>2022-09-09T07:21:47Z</time>
      </trkpt>
      <trkpt lat="45.34462" lon="3.43753">
        <ele>523.58</ele>
        <time>2022-09-09T07:21:48Z</time>
      </trkpt>
      <trkpt lat="45.34463" lon="3.43753">
        <ele>523.58</ele>
        <time>2022-09-09T07:21:49Z</time>
      </trkpt>
      <trkpt lat="45.34465" lon="3.43752">
        <ele>523.58</ele>
        <time>2022-09-09T07:21:50Z</time>
      </trkpt>
      <trkpt lat="45.34466" lon="3.43751">
        <ele>523.58</ele>
        <time>2022-09-09T07:21:51Z</time>
      </trkpt>
      <trkpt lat="45.34467" lon="3.4375">
        <ele>523.58</ele>
        <time>2022-09-09T07:21:52Z</time>
      </trkpt>
      <trkpt lat="45.34468" lon="3.43747">
        <ele>523.58</ele>
        <time>2022-09-09T07:21:53Z</time>
      </trkpt>
      <trkpt lat="45.34467" lon="3.43744">
        <ele>523.58</ele>
        <time>2022-09-09T07:21:54Z</time>
      </trkpt>
      <trkpt lat="45.34466" lon="3.43741">
        <ele>523.09</ele>
        <time>2022-09-09T07:21:55Z</time>
      </trkpt>
      <trkpt lat="45.34465" lon="3.43738">
        <ele>523.58</ele>
        <time>2022-09-09T07:21:56Z</time>
      </trkpt>
      <trkpt lat="45.34465" lon="3.43735">
        <ele>523.58</ele>
        <time>2022-09-09T07:21:57Z</time>
      </trkpt>
      <trkpt lat="45.34464" lon="3.43732">
        <ele>523.09</ele>
        <time>2022-09-09T07:21:58Z</time>
      </trkpt>
      <trkpt lat="45.34465" lon="3.4373">
        <ele>523.09</ele>
        <time>2022-09-09T07:21:59Z</time>
      </trkpt>
      <trkpt lat="45.34466" lon="3.4373">
        <ele>523.09</ele>
        <time>2022-09-09T07:22:05Z</time>
      </trkpt>
      <trkpt lat="45.34466" lon="3.43732">
        <ele>523.09</ele>
        <time>2022-09-09T07:22:13Z</time>
      </trkpt>
      <trkpt lat="45.34466" lon="3.43734">
        <ele>523.09</ele>
        <time>2022-09-09T07:22:19Z</time>
      </trkpt>
      <trkpt lat="45.34466" lon="3.43737">
        <ele>523.09</ele>
        <time>2022-09-09T07:22:20Z</time>
      </trkpt>
      <trkpt lat="45.34469" lon="3.43761">
        <ele>524.06</ele>
        <time>2022-09-09T07:22:28Z</time>
      </trkpt>
      <trkpt lat="45.34477" lon="3.4378">
        <ele>525.5</ele>
        <time>2022-09-09T07:22:35Z</time>
      </trkpt>
      <trkpt lat="45.34491" lon="3.43809">
        <ele>527.9</ele>
        <time>2022-09-09T07:22:43Z</time>
      </trkpt>
      <trkpt lat="45.345" lon="3.43836">
        <ele>529.82</ele>
        <time>2022-09-09T07:22:50Z</time>
      </trkpt>
      <trkpt lat="45.34513" lon="3.43866">
        <ele>532.23</ele>
        <time>2022-09-09T07:22:59Z</time>
      </trkpt>
      <trkpt lat="45.3452" lon="3.4389">
        <ele>534.15</ele>
        <time>2022-09-09T07:23:05Z</time>
      </trkpt>
      <trkpt lat="45.34515" lon="3.43914">
        <ele>537.03</ele>
        <time>2022-09-09T07:23:11Z</time>
      </trkpt>
      <trkpt lat="45.34515" lon="3.43942">
        <ele>538.96</ele>
        <time>2022-09-09T07:23:18Z</time>
      </trkpt>
      <trkpt lat="45.34519" lon="3.43973">
        <ele>540.88</ele>
        <time>2022-09-09T07:23:26Z</time>
      </trkpt>
      <trkpt lat="45.34529" lon="3.44008">
        <ele>542.8</ele>
        <time>2022-09-09T07:23:34Z</time>
      </trkpt>
      <trkpt lat="45.34534" lon="3.44056">
        <ele>542.8</ele>
        <time>2022-09-09T07:23:44Z</time>
      </trkpt>
      <trkpt lat="45.34532" lon="3.44101">
        <ele>542.32</ele>
        <time>2022-09-09T07:23:51Z</time>
      </trkpt>
      <trkpt lat="45.34533" lon="3.44109">
        <ele>542.32</ele>
        <time>2022-09-09T07:23:52Z</time>
      </trkpt>
      <trkpt lat="45.34535" lon="3.44161">
        <ele>539.92</ele>
        <time>2022-09-09T07:23:59Z</time>
      </trkpt>
      <trkpt lat="45.34534" lon="3.44162">
        <ele>539.92</ele>
        <time>2022-09-09T07:24:00Z</time>
      </trkpt>
      <trkpt lat="45.34531" lon="3.44164">
        <ele>539.44</ele>
        <time>2022-09-09T07:24:01Z</time>
      </trkpt>
      <trkpt lat="45.34528" lon="3.44166">
        <ele>538.96</ele>
        <time>2022-09-09T07:24:02Z</time>
      </trkpt>
      <trkpt lat="45.34525" lon="3.44167">
        <ele>538.96</ele>
        <time>2022-09-09T07:24:03Z</time>
      </trkpt>
      <trkpt lat="45.3452" lon="3.44166">
        <ele>538.48</ele>
        <time>2022-09-09T07:24:04Z</time>
      </trkpt>
      <trkpt lat="45.34515" lon="3.44165">
        <ele>537.99</ele>
        <time>2022-09-09T07:24:05Z</time>
      </trkpt>
      <trkpt lat="45.34508" lon="3.44165">
        <ele>537.03</ele>
        <time>2022-09-09T07:24:06Z</time>
      </trkpt>
      <trkpt lat="45.34502" lon="3.44166">
        <ele>536.55</ele>
        <time>2022-09-09T07:24:07Z</time>
      </trkpt>
      <trkpt lat="45.34495" lon="3.44168">
        <ele>535.11</ele>
        <time>2022-09-09T07:24:08Z</time>
      </trkpt>
      <trkpt lat="45.34488" lon="3.4417">
        <ele>534.63</ele>
        <time>2022-09-09T07:24:09Z</time>
      </trkpt>
      <trkpt lat="45.34481" lon="3.44174">
        <ele>534.15</ele>
        <time>2022-09-09T07:24:10Z</time>
      </trkpt>
      <trkpt lat="45.34474" lon="3.44178">
        <ele>534.15</ele>
        <time>2022-09-09T07:24:11Z</time>
      </trkpt>
      <trkpt lat="45.34468" lon="3.44184">
        <ele>533.67</ele>
        <time>2022-09-09T07:24:12Z</time>
      </trkpt>
      <trkpt lat="45.34462" lon="3.4419">
        <ele>533.19</ele>
        <time>2022-09-09T07:24:13Z</time>
      </trkpt>
      <trkpt lat="45.34458" lon="3.44195">
        <ele>533.67</ele>
        <time>2022-09-09T07:24:14Z</time>
      </trkpt>
      <trkpt lat="45.34454" lon="3.44201">
        <ele>533.67</ele>
        <time>2022-09-09T07:24:15Z</time>
      </trkpt>
      <trkpt lat="45.34445" lon="3.44219">
        <ele>536.07</ele>
        <time>2022-09-09T07:24:20Z</time>
      </trkpt>
      <trkpt lat="45.3444" lon="3.44231">
        <ele>539.44</ele>
        <time>2022-09-09T07:24:25Z</time>
      </trkpt>
      <trkpt lat="45.34439" lon="3.44233">
        <ele>539.44</ele>
        <time>2022-09-09T07:24:26Z</time>
      </trkpt>
      <trkpt lat="45.34438" lon="3.44234">
        <ele>539.92</ele>
        <time>2022-09-09T07:24:27Z</time>
      </trkpt>
      <trkpt lat="45.34437" lon="3.44236">
        <ele>540.4</ele>
        <time>2022-09-09T07:24:28Z</time>
      </trkpt>
      <trkpt lat="45.34437" lon="3.44238">
        <ele>540.88</ele>
        <time>2022-09-09T07:24:29Z</time>
      </trkpt>
      <trkpt lat="45.34436" lon="3.44241">
        <ele>541.36</ele>
        <time>2022-09-09T07:24:30Z</time>
      </trkpt>
      <trkpt lat="45.34437" lon="3.44244">
        <ele>541.84</ele>
        <time>2022-09-09T07:24:31Z</time>
      </trkpt>
      <trkpt lat="45.34436" lon="3.44246">
        <ele>542.8</ele>
        <time>2022-09-09T07:24:32Z</time>
      </trkpt>
      <trkpt lat="45.34436" lon="3.44249">
        <ele>543.28</ele>
        <time>2022-09-09T07:24:33Z</time>
      </trkpt>
      <trkpt lat="45.34435" lon="3.44253">
        <ele>543.76</ele>
        <time>2022-09-09T07:24:34Z</time>
      </trkpt>
      <trkpt lat="45.34435" lon="3.44256">
        <ele>544.72</ele>
        <time>2022-09-09T07:24:35Z</time>
      </trkpt>
      <trkpt lat="45.3443" lon="3.44274">
        <ele>548.09</ele>
        <time>2022-09-09T07:24:41Z</time>
      </trkpt>
      <trkpt lat="45.34422" lon="3.44291">
        <ele>551.45</ele>
        <time>2022-09-09T07:24:47Z</time>
      </trkpt>
      <trkpt lat="45.34415" lon="3.44307">
        <ele>554.82</ele>
        <time>2022-09-09T07:24:53Z</time>
      </trkpt>
      <trkpt lat="45.34405" lon="3.44316">
        <ele>557.7</ele>
        <time>2022-09-09T07:25:00Z</time>
      </trkpt>
      <trkpt lat="45.34397" lon="3.44319">
        <ele>558.66</ele>
        <time>2022-09-09T07:25:03Z</time>
      </trkpt>
      <trkpt lat="45.34379" lon="3.4433">
        <ele>561.07</ele>
        <time>2022-09-09T07:25:09Z</time>
      </trkpt>
      <trkpt lat="45.34361" lon="3.44349">
        <ele>564.43</ele>
        <time>2022-09-09T07:25:18Z</time>
      </trkpt>
      <trkpt lat="45.34345" lon="3.44366">
        <ele>567.32</ele>
        <time>2022-09-09T07:25:26Z</time>
      </trkpt>
      <trkpt lat="45.34342" lon="3.44371">
        <ele>568.28</ele>
        <time>2022-09-09T07:25:28Z</time>
      </trkpt>
      <trkpt lat="45.3434" lon="3.4439">
        <ele>571.16</ele>
        <time>2022-09-09T07:25:34Z</time>
      </trkpt>
      <trkpt lat="45.34343" lon="3.44408">
        <ele>574.53</ele>
        <time>2022-09-09T07:25:39Z</time>
      </trkpt>
      <trkpt lat="45.3435" lon="3.44433">
        <ele>576.93</ele>
        <time>2022-09-09T07:25:47Z</time>
      </trkpt>
      <trkpt lat="45.34355" lon="3.44455">
        <ele>578.85</ele>
        <time>2022-09-09T07:25:54Z</time>
      </trkpt>
      <trkpt lat="45.34348" lon="3.44484">
        <ele>580.77</ele>
        <time>2022-09-09T07:26:01Z</time>
      </trkpt>
      <trkpt lat="45.3435" lon="3.44512">
        <ele>582.7</ele>
        <time>2022-09-09T07:26:07Z</time>
      </trkpt>
      <trkpt lat="45.34355" lon="3.44528">
        <ele>584.14</ele>
        <time>2022-09-09T07:26:11Z</time>
      </trkpt>
      <trkpt lat="45.34364" lon="3.44544">
        <ele>587.5</ele>
        <time>2022-09-09T07:26:16Z</time>
      </trkpt>
      <trkpt lat="45.34372" lon="3.4456">
        <ele>590.39</ele>
        <time>2022-09-09T07:26:21Z</time>
      </trkpt>
      <trkpt lat="45.3438" lon="3.44578">
        <ele>593.27</ele>
        <time>2022-09-09T07:26:26Z</time>
      </trkpt>
      <trkpt lat="45.34378" lon="3.44599">
        <ele>596.64</ele>
        <time>2022-09-09T07:26:32Z</time>
      </trkpt>
      <trkpt lat="45.34372" lon="3.44618">
        <ele>600</ele>
        <time>2022-09-09T07:26:38Z</time>
      </trkpt>
      <trkpt lat="45.34371" lon="3.44637">
        <ele>603.36</ele>
        <time>2022-09-09T07:26:44Z</time>
      </trkpt>
      <trkpt lat="45.34366" lon="3.44653">
        <ele>605.77</ele>
        <time>2022-09-09T07:26:49Z</time>
      </trkpt>
      <trkpt lat="45.34357" lon="3.44677">
        <ele>608.65</ele>
        <time>2022-09-09T07:26:57Z</time>
      </trkpt>
      <trkpt lat="45.34349" lon="3.44695">
        <ele>611.54</ele>
        <time>2022-09-09T07:27:03Z</time>
      </trkpt>
      <trkpt lat="45.3434" lon="3.44714">
        <ele>614.9</ele>
        <time>2022-09-09T07:27:10Z</time>
      </trkpt>
      <trkpt lat="45.34339" lon="3.44716">
        <ele>615.38</ele>
        <time>2022-09-09T07:27:11Z</time>
      </trkpt>
      <trkpt lat="45.34328" lon="3.4473">
        <ele>617.78</ele>
        <time>2022-09-09T07:27:17Z</time>
      </trkpt>
      <trkpt lat="45.34307" lon="3.4474">
        <ele>619.71</ele>
        <time>2022-09-09T07:27:27Z</time>
      </trkpt>
      <trkpt lat="45.34289" lon="3.44754">
        <ele>620.67</ele>
        <time>2022-09-09T07:27:36Z</time>
      </trkpt>
      <trkpt lat="45.34277" lon="3.44769">
        <ele>619.23</ele>
        <time>2022-09-09T07:27:41Z</time>
      </trkpt>
      <trkpt lat="45.34274" lon="3.44775">
        <ele>617.78</ele>
        <time>2022-09-09T07:27:43Z</time>
      </trkpt>
      <trkpt lat="45.34274" lon="3.44777">
        <ele>617.78</ele>
        <time>2022-09-09T07:27:44Z</time>
      </trkpt>
      <trkpt lat="45.34275" lon="3.44792">
        <ele>616.82</ele>
        <time>2022-09-09T07:27:48Z</time>
      </trkpt>
      <trkpt lat="45.34278" lon="3.44795">
        <ele>616.82</ele>
        <time>2022-09-09T07:27:49Z</time>
      </trkpt>
      <trkpt lat="45.3428" lon="3.44799">
        <ele>617.3</ele>
        <time>2022-09-09T07:27:50Z</time>
      </trkpt>
      <trkpt lat="45.34307" lon="3.44829">
        <ele>618.75</ele>
        <time>2022-09-09T07:28:00Z</time>
      </trkpt>
      <trkpt lat="45.34321" lon="3.44854">
        <ele>619.23</ele>
        <time>2022-09-09T07:28:08Z</time>
      </trkpt>
      <trkpt lat="45.34323" lon="3.44855">
        <ele>619.23</ele>
        <time>2022-09-09T07:28:09Z</time>
      </trkpt>
      <trkpt lat="45.34325" lon="3.44856">
        <ele>619.23</ele>
        <time>2022-09-09T07:28:10Z</time>
      </trkpt>
      <trkpt lat="45.34328" lon="3.44856">
        <ele>619.71</ele>
        <time>2022-09-09T07:28:11Z</time>
      </trkpt>
      <trkpt lat="45.34331" lon="3.44857">
        <ele>619.71</ele>
        <time>2022-09-09T07:28:12Z</time>
      </trkpt>
      <trkpt lat="45.34333" lon="3.44858">
        <ele>619.23</ele>
        <time>2022-09-09T07:28:13Z</time>
      </trkpt>
      <trkpt lat="45.34345" lon="3.44873">
        <ele>620.19</ele>
        <time>2022-09-09T07:28:20Z</time>
      </trkpt>
      <trkpt lat="45.34359" lon="3.44882">
        <ele>621.63</ele>
        <time>2022-09-09T07:28:26Z</time>
      </trkpt>
      <trkpt lat="45.34379" lon="3.44891">
        <ele>624.03</ele>
        <time>2022-09-09T07:28:33Z</time>
      </trkpt>
      <trkpt lat="45.34399" lon="3.44906">
        <ele>626.92</ele>
        <time>2022-09-09T07:28:41Z</time>
      </trkpt>
      <trkpt lat="45.34408" lon="3.44932">
        <ele>629.8</ele>
        <time>2022-09-09T07:28:48Z</time>
      </trkpt>
      <trkpt lat="45.34418" lon="3.44965">
        <ele>633.17</ele>
        <time>2022-09-09T07:28:57Z</time>
      </trkpt>
      <trkpt lat="45.34421" lon="3.44974">
        <ele>633.65</ele>
        <time>2022-09-09T07:29:01Z</time>
      </trkpt>
      <trkpt lat="45.34423" lon="3.44973">
        <ele>634.13</ele>
        <time>2022-09-09T07:29:02Z</time>
      </trkpt>
      <trkpt lat="45.34423" lon="3.44971">
        <ele>634.13</ele>
        <time>2022-09-09T07:29:03Z</time>
      </trkpt>
      <trkpt lat="45.34425" lon="3.4497">
        <ele>634.13</ele>
        <time>2022-09-09T07:29:04Z</time>
      </trkpt>
      <trkpt lat="45.34427" lon="3.44968">
        <ele>634.13</ele>
        <time>2022-09-09T07:29:05Z</time>
      </trkpt>
      <trkpt lat="45.34429" lon="3.44968">
        <ele>634.13</ele>
        <time>2022-09-09T07:29:06Z</time>
      </trkpt>
      <trkpt lat="45.34431" lon="3.44968">
        <ele>634.13</ele>
        <time>2022-09-09T07:29:07Z</time>
      </trkpt>
      <trkpt lat="45.34433" lon="3.4497">
        <ele>634.61</ele>
        <time>2022-09-09T07:29:08Z</time>
      </trkpt>
      <trkpt lat="45.34434" lon="3.44971">
        <ele>634.61</ele>
        <time>2022-09-09T07:29:09Z</time>
      </trkpt>
      <trkpt lat="45.34434" lon="3.44974">
        <ele>634.61</ele>
        <time>2022-09-09T07:29:10Z</time>
      </trkpt>
      <trkpt lat="45.34433" lon="3.44975">
        <ele>634.61</ele>
        <time>2022-09-09T07:29:11Z</time>
      </trkpt>
      <trkpt lat="45.34432" lon="3.44977">
        <ele>634.61</ele>
        <time>2022-09-09T07:29:16Z</time>
      </trkpt>
      <trkpt lat="45.34432" lon="3.44978">
        <ele>634.61</ele>
        <time>2022-09-09T07:29:24Z</time>
      </trkpt>
      <trkpt lat="45.34432" lon="3.44976">
        <ele>634.13</ele>
        <time>2022-09-09T07:29:36Z</time>
      </trkpt>
      <trkpt lat="45.34433" lon="3.44977">
        <ele>634.61</ele>
        <time>2022-09-09T07:29:48Z</time>
      </trkpt>
      <trkpt lat="45.34433" lon="3.44975">
        <ele>634.61</ele>
        <time>2022-09-09T07:30:14Z</time>
      </trkpt>
      <trkpt lat="45.34432" lon="3.44974">
        <ele>634.61</ele>
        <time>2022-09-09T07:30:21Z</time>
      </trkpt>
      <trkpt lat="45.3443" lon="3.44974">
        <ele>634.61</ele>
        <time>2022-09-09T07:30:29Z</time>
      </trkpt>
      <trkpt lat="45.34428" lon="3.44976">
        <ele>634.13</ele>
        <time>2022-09-09T07:30:42Z</time>
      </trkpt>
      <trkpt lat="45.34428" lon="3.44978">
        <ele>634.13</ele>
        <time>2022-09-09T07:30:43Z</time>
      </trkpt>
      <trkpt lat="45.34427" lon="3.44979">
        <ele>634.61</ele>
        <time>2022-09-09T07:30:44Z</time>
      </trkpt>
      <trkpt lat="45.34427" lon="3.4498">
        <ele>634.13</ele>
        <time>2022-09-09T07:30:45Z</time>
      </trkpt>
      <trkpt lat="45.34425" lon="3.44985">
        <ele>634.61</ele>
        <time>2022-09-09T07:30:52Z</time>
      </trkpt>
      <trkpt lat="45.34425" lon="3.44989">
        <ele>635.09</ele>
        <time>2022-09-09T07:31:17Z</time>
      </trkpt>
      <trkpt lat="45.34426" lon="3.44991">
        <ele>635.09</ele>
        <time>2022-09-09T07:31:24Z</time>
      </trkpt>
      <trkpt lat="45.34424" lon="3.44989">
        <ele>634.61</ele>
        <time>2022-09-09T07:31:32Z</time>
      </trkpt>
      <trkpt lat="45.34426" lon="3.44988">
        <ele>634.61</ele>
        <time>2022-09-09T07:31:46Z</time>
      </trkpt>
      <trkpt lat="45.34427" lon="3.44987">
        <ele>634.61</ele>
        <time>2022-09-09T07:31:48Z</time>
      </trkpt>
      <trkpt lat="45.34433" lon="3.44985">
        <ele>635.09</ele>
        <time>2022-09-09T07:31:56Z</time>
      </trkpt>
      <trkpt lat="45.34434" lon="3.44984">
        <ele>635.57</ele>
        <time>2022-09-09T07:32:02Z</time>
      </trkpt>
      <trkpt lat="45.34434" lon="3.44982">
        <ele>634.61</ele>
        <time>2022-09-09T07:32:16Z</time>
      </trkpt>
      <trkpt lat="45.34433" lon="3.44978">
        <ele>634.61</ele>
        <time>2022-09-09T07:32:31Z</time>
      </trkpt>
      <trkpt lat="45.34432" lon="3.44975">
        <ele>634.61</ele>
        <time>2022-09-09T07:32:37Z</time>
      </trkpt>
      <trkpt lat="45.3443" lon="3.44973">
        <ele>634.61</ele>
        <time>2022-09-09T07:32:57Z</time>
      </trkpt>
      <trkpt lat="45.34431" lon="3.44975">
        <ele>634.61</ele>
        <time>2022-09-09T07:33:08Z</time>
      </trkpt>
      <trkpt lat="45.34428" lon="3.44972">
        <ele>634.61</ele>
        <time>2022-09-09T07:33:37Z</time>
      </trkpt>
      <trkpt lat="45.3443" lon="3.44975">
        <ele>634.61</ele>
        <time>2022-09-09T07:34:07Z</time>
      </trkpt>
      <trkpt lat="45.34432" lon="3.44976">
        <ele>634.61</ele>
        <time>2022-09-09T07:34:18Z</time>
      </trkpt>
      <trkpt lat="45.34431" lon="3.44975">
        <ele>634.61</ele>
        <time>2022-09-09T07:34:26Z</time>
      </trkpt>
      <trkpt lat="45.3443" lon="3.44975">
        <ele>634.61</ele>
        <time>2022-09-09T07:34:38Z</time>
      </trkpt>
      <trkpt lat="45.34429" lon="3.44976">
        <ele>634.61</ele>
        <time>2022-09-09T07:34:44Z</time>
      </trkpt>
      <trkpt lat="45.34429" lon="3.44975">
        <ele>634.61</ele>
        <time>2022-09-09T07:34:52Z</time>
      </trkpt>
      <trkpt lat="45.3443" lon="3.44976">
        <ele>634.61</ele>
        <time>2022-09-09T07:35:08Z</time>
      </trkpt>
      <trkpt lat="45.34429" lon="3.44976">
        <ele>634.61</ele>
        <time>2022-09-09T07:35:12Z</time>
      </trkpt>
      <trkpt lat="45.34428" lon="3.44977">
        <ele>634.61</ele>
        <time>2022-09-09T07:35:13Z</time>
      </trkpt>
      <trkpt lat="45.34427" lon="3.44979">
        <ele>634.13</ele>
        <time>2022-09-09T07:35:14Z</time>
      </trkpt>
      <trkpt lat="45.34424" lon="3.44992">
        <ele>635.09</ele>
        <time>2022-09-09T07:35:19Z</time>
      </trkpt>
      <trkpt lat="45.34424" lon="3.45015">
        <ele>637.01</ele>
        <time>2022-09-09T07:35:27Z</time>
      </trkpt>
      <trkpt lat="45.3442" lon="3.45041">
        <ele>638.45</ele>
        <time>2022-09-09T07:35:35Z</time>
      </trkpt>
      <trkpt lat="45.34415" lon="3.45064">
        <ele>639.89</ele>
        <time>2022-09-09T07:35:43Z</time>
      </trkpt>
      <trkpt lat="45.34414" lon="3.4507">
        <ele>640.38</ele>
        <time>2022-09-09T07:35:45Z</time>
      </trkpt>
      <trkpt lat="45.34414" lon="3.45073">
        <ele>640.38</ele>
        <time>2022-09-09T07:35:46Z</time>
      </trkpt>
      <trkpt lat="45.34415" lon="3.45076">
        <ele>640.38</ele>
        <time>2022-09-09T07:35:47Z</time>
      </trkpt>
      <trkpt lat="45.34416" lon="3.45079">
        <ele>640.38</ele>
        <time>2022-09-09T07:35:48Z</time>
      </trkpt>
      <trkpt lat="45.34416" lon="3.45083">
        <ele>640.38</ele>
        <time>2022-09-09T07:35:49Z</time>
      </trkpt>
      <trkpt lat="45.34416" lon="3.45088">
        <ele>640.38</ele>
        <time>2022-09-09T07:35:50Z</time>
      </trkpt>
      <trkpt lat="45.34416" lon="3.45093">
        <ele>640.86</ele>
        <time>2022-09-09T07:35:51Z</time>
      </trkpt>
      <trkpt lat="45.34415" lon="3.45098">
        <ele>641.34</ele>
        <time>2022-09-09T07:35:52Z</time>
      </trkpt>
      <trkpt lat="45.34405" lon="3.45123">
        <ele>643.26</ele>
        <time>2022-09-09T07:35:59Z</time>
      </trkpt>
      <trkpt lat="45.34393" lon="3.45116">
        <ele>645.66</ele>
        <time>2022-09-09T07:36:04Z</time>
      </trkpt>
      <trkpt lat="45.34377" lon="3.45098">
        <ele>648.55</ele>
        <time>2022-09-09T07:36:12Z</time>
      </trkpt>
      <trkpt lat="45.34369" lon="3.45098">
        <ele>648.55</ele>
        <time>2022-09-09T07:36:15Z</time>
      </trkpt>
      <trkpt lat="45.34367" lon="3.451">
        <ele>649.03</ele>
        <time>2022-09-09T07:36:16Z</time>
      </trkpt>
      <trkpt lat="45.34364" lon="3.45102">
        <ele>649.03</ele>
        <time>2022-09-09T07:36:17Z</time>
      </trkpt>
      <trkpt lat="45.34361" lon="3.45103">
        <ele>649.51</ele>
        <time>2022-09-09T07:36:18Z</time>
      </trkpt>
      <trkpt lat="45.34358" lon="3.45102">
        <ele>649.99</ele>
        <time>2022-09-09T07:36:19Z</time>
      </trkpt>
      <trkpt lat="45.34355" lon="3.451">
        <ele>650.47</ele>
        <time>2022-09-09T07:36:20Z</time>
      </trkpt>
      <trkpt lat="45.34353" lon="3.45098">
        <ele>650.95</ele>
        <time>2022-09-09T07:36:21Z</time>
      </trkpt>
      <trkpt lat="45.3435" lon="3.45096">
        <ele>650.95</ele>
        <time>2022-09-09T07:36:22Z</time>
      </trkpt>
      <trkpt lat="45.3433" lon="3.45093">
        <ele>652.87</ele>
        <time>2022-09-09T07:36:29Z</time>
      </trkpt>
      <trkpt lat="45.34312" lon="3.45107">
        <ele>653.35</ele>
        <time>2022-09-09T07:36:37Z</time>
      </trkpt>
      <trkpt lat="45.34305" lon="3.45117">
        <ele>653.83</ele>
        <time>2022-09-09T07:36:41Z</time>
      </trkpt>
      <trkpt lat="45.34305" lon="3.4512">
        <ele>653.83</ele>
        <time>2022-09-09T07:36:42Z</time>
      </trkpt>
      <trkpt lat="45.34306" lon="3.45122">
        <ele>654.31</ele>
        <time>2022-09-09T07:36:43Z</time>
      </trkpt>
      <trkpt lat="45.34309" lon="3.45123">
        <ele>654.31</ele>
        <time>2022-09-09T07:36:44Z</time>
      </trkpt>
      <trkpt lat="45.34311" lon="3.45122">
        <ele>654.8</ele>
        <time>2022-09-09T07:36:45Z</time>
      </trkpt>
      <trkpt lat="45.34314" lon="3.45122">
        <ele>654.8</ele>
        <time>2022-09-09T07:36:46Z</time>
      </trkpt>
      <trkpt lat="45.34328" lon="3.45119">
        <ele>656.24</ele>
        <time>2022-09-09T07:36:52Z</time>
      </trkpt>
      <trkpt lat="45.3433" lon="3.45119">
        <ele>655.76</ele>
        <time>2022-09-09T07:36:57Z</time>
      </trkpt>
      <trkpt lat="45.3433" lon="3.45117">
        <ele>655.76</ele>
        <time>2022-09-09T07:37:16Z</time>
      </trkpt>
      <trkpt lat="45.34329" lon="3.45119">
        <ele>655.76</ele>
        <time>2022-09-09T07:37:28Z</time>
      </trkpt>
      <trkpt lat="45.34328" lon="3.4512">
        <ele>655.76</ele>
        <time>2022-09-09T07:37:40Z</time>
      </trkpt>
      <trkpt lat="45.34328" lon="3.45122">
        <ele>655.76</ele>
        <time>2022-09-09T07:37:47Z</time>
      </trkpt>
      <trkpt lat="45.34329" lon="3.4512">
        <ele>655.76</ele>
        <time>2022-09-09T07:37:57Z</time>
      </trkpt>
      <trkpt lat="45.3433" lon="3.4512">
        <ele>655.76</ele>
        <time>2022-09-09T07:37:58Z</time>
      </trkpt>
      <trkpt lat="45.34331" lon="3.45121">
        <ele>655.28</ele>
        <time>2022-09-09T07:37:59Z</time>
      </trkpt>
      <trkpt lat="45.34332" lon="3.45124">
        <ele>655.28</ele>
        <time>2022-09-09T07:38:05Z</time>
      </trkpt>
      <trkpt lat="45.34333" lon="3.45125">
        <ele>655.28</ele>
        <time>2022-09-09T07:38:13Z</time>
      </trkpt>
      <trkpt lat="45.34334" lon="3.45124">
        <ele>655.28</ele>
        <time>2022-09-09T07:38:17Z</time>
      </trkpt>
      <trkpt lat="45.34339" lon="3.4512">
        <ele>654.8</ele>
        <time>2022-09-09T07:38:24Z</time>
      </trkpt>
      <trkpt lat="45.34339" lon="3.45119">
        <ele>654.8</ele>
        <time>2022-09-09T07:38:33Z</time>
      </trkpt>
      <trkpt lat="45.34337" lon="3.45117">
        <ele>655.28</ele>
        <time>2022-09-09T07:38:42Z</time>
      </trkpt>
      <trkpt lat="45.34332" lon="3.45118">
        <ele>655.76</ele>
        <time>2022-09-09T07:38:51Z</time>
      </trkpt>
      <trkpt lat="45.34331" lon="3.45118">
        <ele>655.76</ele>
        <time>2022-09-09T07:38:59Z</time>
      </trkpt>
      <trkpt lat="45.3433" lon="3.45119">
        <ele>655.76</ele>
        <time>2022-09-09T07:39:15Z</time>
      </trkpt>
      <trkpt lat="45.34329" lon="3.45121">
        <ele>655.76</ele>
        <time>2022-09-09T07:39:38Z</time>
      </trkpt>
      <trkpt lat="45.3433" lon="3.45119">
        <ele>655.76</ele>
        <time>2022-09-09T07:39:49Z</time>
      </trkpt>
      <trkpt lat="45.34331" lon="3.45117">
        <ele>655.76</ele>
        <time>2022-09-09T07:39:53Z</time>
      </trkpt>
      <trkpt lat="45.34332" lon="3.45116">
        <ele>656.24</ele>
        <time>2022-09-09T07:40:01Z</time>
      </trkpt>
      <trkpt lat="45.34334" lon="3.45115">
        <ele>655.76</ele>
        <time>2022-09-09T07:40:02Z</time>
      </trkpt>
      <trkpt lat="45.34335" lon="3.45113">
        <ele>655.76</ele>
        <time>2022-09-09T07:40:03Z</time>
      </trkpt>
      <trkpt lat="45.34331" lon="3.45105">
        <ele>655.28</ele>
        <time>2022-09-09T07:40:06Z</time>
      </trkpt>
      <trkpt lat="45.34329" lon="3.45104">
        <ele>655.28</ele>
        <time>2022-09-09T07:40:07Z</time>
      </trkpt>
      <trkpt lat="45.34316" lon="3.45103">
        <ele>653.35</ele>
        <time>2022-09-09T07:40:11Z</time>
      </trkpt>
      <trkpt lat="45.34313" lon="3.45105">
        <ele>653.35</ele>
        <time>2022-09-09T07:40:12Z</time>
      </trkpt>
      <trkpt lat="45.34304" lon="3.45116">
        <ele>653.83</ele>
        <time>2022-09-09T07:40:19Z</time>
      </trkpt>
      <trkpt lat="45.34299" lon="3.45119">
        <ele>653.83</ele>
        <time>2022-09-09T07:40:23Z</time>
      </trkpt>
      <trkpt lat="45.34299" lon="3.45121">
        <ele>653.83</ele>
        <time>2022-09-09T07:40:24Z</time>
      </trkpt>
      <trkpt lat="45.34299" lon="3.45124">
        <ele>653.35</ele>
        <time>2022-09-09T07:40:25Z</time>
      </trkpt>
      <trkpt lat="45.343" lon="3.45126">
        <ele>653.83</ele>
        <time>2022-09-09T07:40:26Z</time>
      </trkpt>
      <trkpt lat="45.34301" lon="3.45127">
        <ele>653.83</ele>
        <time>2022-09-09T07:40:27Z</time>
      </trkpt>
      <trkpt lat="45.34303" lon="3.45128">
        <ele>653.83</ele>
        <time>2022-09-09T07:40:28Z</time>
      </trkpt>
      <trkpt lat="45.34305" lon="3.45129">
        <ele>653.83</ele>
        <time>2022-09-09T07:40:29Z</time>
      </trkpt>
      <trkpt lat="45.34307" lon="3.45129">
        <ele>653.83</ele>
        <time>2022-09-09T07:40:30Z</time>
      </trkpt>
      <trkpt lat="45.34309" lon="3.45129">
        <ele>654.31</ele>
        <time>2022-09-09T07:40:31Z</time>
      </trkpt>
      <trkpt lat="45.34329" lon="3.45135">
        <ele>652.87</ele>
        <time>2022-09-09T07:40:39Z</time>
      </trkpt>
      <trkpt lat="45.34334" lon="3.45137">
        <ele>651.91</ele>
        <time>2022-09-09T07:40:44Z</time>
      </trkpt>
      <trkpt lat="45.34335" lon="3.4514">
        <ele>651.91</ele>
        <time>2022-09-09T07:40:45Z</time>
      </trkpt>
      <trkpt lat="45.34335" lon="3.45144">
        <ele>650.95</ele>
        <time>2022-09-09T07:40:46Z</time>
      </trkpt>
      <trkpt lat="45.34334" lon="3.45148">
        <ele>651.43</ele>
        <time>2022-09-09T07:40:47Z</time>
      </trkpt>
      <trkpt lat="45.34333" lon="3.45152">
        <ele>651.43</ele>
        <time>2022-09-09T07:40:48Z</time>
      </trkpt>
      <trkpt lat="45.34332" lon="3.45156">
        <ele>651.43</ele>
        <time>2022-09-09T07:40:49Z</time>
      </trkpt>
      <trkpt lat="45.34325" lon="3.4519">
        <ele>651.91</ele>
        <time>2022-09-09T07:40:57Z</time>
      </trkpt>
      <trkpt lat="45.34319" lon="3.45239">
        <ele>654.31</ele>
        <time>2022-09-09T07:41:07Z</time>
      </trkpt>
      <trkpt lat="45.34316" lon="3.45291">
        <ele>656.72</ele>
        <time>2022-09-09T07:41:17Z</time>
      </trkpt>
      <trkpt lat="45.34314" lon="3.4533">
        <ele>659.12</ele>
        <time>2022-09-09T07:41:25Z</time>
      </trkpt>
      <trkpt lat="45.34312" lon="3.45371">
        <ele>661.52</ele>
        <time>2022-09-09T07:41:32Z</time>
      </trkpt>
      <trkpt lat="45.34311" lon="3.45384">
        <ele>662.01</ele>
        <time>2022-09-09T07:41:34Z</time>
      </trkpt>
      <trkpt lat="45.34307" lon="3.45426">
        <ele>665.37</ele>
        <time>2022-09-09T07:41:41Z</time>
      </trkpt>
      <trkpt lat="45.34303" lon="3.45462">
        <ele>667.77</ele>
        <time>2022-09-09T07:41:48Z</time>
      </trkpt>
      <trkpt lat="45.34302" lon="3.45487">
        <ele>667.77</ele>
        <time>2022-09-09T07:41:54Z</time>
      </trkpt>
      <trkpt lat="45.34302" lon="3.45493">
        <ele>667.77</ele>
        <time>2022-09-09T07:42:01Z</time>
      </trkpt>
      <trkpt lat="45.34305" lon="3.45497">
        <ele>667.77</ele>
        <time>2022-09-09T07:42:10Z</time>
      </trkpt>
      <trkpt lat="45.34305" lon="3.45499">
        <ele>667.77</ele>
        <time>2022-09-09T07:42:11Z</time>
      </trkpt>
      <trkpt lat="45.34313" lon="3.45522">
        <ele>668.25</ele>
        <time>2022-09-09T07:42:17Z</time>
      </trkpt>
      <trkpt lat="45.34326" lon="3.45552">
        <ele>669.22</ele>
        <time>2022-09-09T07:42:25Z</time>
      </trkpt>
      <trkpt lat="45.34346" lon="3.45571">
        <ele>672.1</ele>
        <time>2022-09-09T07:42:32Z</time>
      </trkpt>
      <trkpt lat="45.3437" lon="3.45591">
        <ele>673.54</ele>
        <time>2022-09-09T07:42:40Z</time>
      </trkpt>
      <trkpt lat="45.34375" lon="3.45599">
        <ele>674.5</ele>
        <time>2022-09-09T07:42:42Z</time>
      </trkpt>
      <trkpt lat="45.34378" lon="3.45603">
        <ele>675.46</ele>
        <time>2022-09-09T07:42:43Z</time>
      </trkpt>
      <trkpt lat="45.34381" lon="3.45606">
        <ele>675.94</ele>
        <time>2022-09-09T07:42:44Z</time>
      </trkpt>
      <trkpt lat="45.34384" lon="3.45608">
        <ele>675.94</ele>
        <time>2022-09-09T07:42:45Z</time>
      </trkpt>
      <trkpt lat="45.34387" lon="3.45611">
        <ele>675.94</ele>
        <time>2022-09-09T07:42:46Z</time>
      </trkpt>
      <trkpt lat="45.3439" lon="3.45614">
        <ele>675.94</ele>
        <time>2022-09-09T07:42:47Z</time>
      </trkpt>
      <trkpt lat="45.34402" lon="3.45633">
        <ele>676.42</ele>
        <time>2022-09-09T07:42:52Z</time>
      </trkpt>
      <trkpt lat="45.34404" lon="3.45638">
        <ele>676.91</ele>
        <time>2022-09-09T07:42:53Z</time>
      </trkpt>
      <trkpt lat="45.34409" lon="3.4566">
        <ele>676.91</ele>
        <time>2022-09-09T07:42:57Z</time>
      </trkpt>
      <trkpt lat="45.34417" lon="3.45701">
        <ele>677.87</ele>
        <time>2022-09-09T07:43:04Z</time>
      </trkpt>
      <trkpt lat="45.34448" lon="3.45759">
        <ele>680.27</ele>
        <time>2022-09-09T07:43:12Z</time>
      </trkpt>
      <trkpt lat="45.34452" lon="3.45765">
        <ele>680.27</ele>
        <time>2022-09-09T07:43:13Z</time>
      </trkpt>
      <trkpt lat="45.34455" lon="3.4577">
        <ele>680.75</ele>
        <time>2022-09-09T07:43:14Z</time>
      </trkpt>
      <trkpt lat="45.34458" lon="3.45774">
        <ele>681.23</ele>
        <time>2022-09-09T07:43:15Z</time>
      </trkpt>
      <trkpt lat="45.34462" lon="3.45779">
        <ele>681.23</ele>
        <time>2022-09-09T07:43:16Z</time>
      </trkpt>
      <trkpt lat="45.34465" lon="3.45785">
        <ele>682.19</ele>
        <time>2022-09-09T07:43:17Z</time>
      </trkpt>
      <trkpt lat="45.34475" lon="3.458">
        <ele>683.63</ele>
        <time>2022-09-09T07:43:20Z</time>
      </trkpt>
      <trkpt lat="45.34505" lon="3.45839">
        <ele>685.56</ele>
        <time>2022-09-09T07:43:29Z</time>
      </trkpt>
      <trkpt lat="45.34516" lon="3.45855">
        <ele>687.48</ele>
        <time>2022-09-09T07:43:33Z</time>
      </trkpt>
      <trkpt lat="45.34532" lon="3.45888">
        <ele>688.92</ele>
        <time>2022-09-09T07:43:40Z</time>
      </trkpt>
      <trkpt lat="45.34535" lon="3.459">
        <ele>688.92</ele>
        <time>2022-09-09T07:43:42Z</time>
      </trkpt>
      <trkpt lat="45.34536" lon="3.45906">
        <ele>689.4</ele>
        <time>2022-09-09T07:43:43Z</time>
      </trkpt>
      <trkpt lat="45.34548" lon="3.45956">
        <ele>690.36</ele>
        <time>2022-09-09T07:43:51Z</time>
      </trkpt>
      <trkpt lat="45.34551" lon="3.45983">
        <ele>690.84</ele>
        <time>2022-09-09T07:43:55Z</time>
      </trkpt>
      <trkpt lat="45.34549" lon="3.46049">
        <ele>692.29</ele>
        <time>2022-09-09T07:44:05Z</time>
      </trkpt>
      <trkpt lat="45.34548" lon="3.46106">
        <ele>693.25</ele>
        <time>2022-09-09T07:44:14Z</time>
      </trkpt>
      <trkpt lat="45.34546" lon="3.46126">
        <ele>694.69</ele>
        <time>2022-09-09T07:44:17Z</time>
      </trkpt>
      <trkpt lat="45.34546" lon="3.46146">
        <ele>696.13</ele>
        <time>2022-09-09T07:44:20Z</time>
      </trkpt>
      <trkpt lat="45.34547" lon="3.46153">
        <ele>697.09</ele>
        <time>2022-09-09T07:44:21Z</time>
      </trkpt>
      <trkpt lat="45.34549" lon="3.46172">
        <ele>699.02</ele>
        <time>2022-09-09T07:44:24Z</time>
      </trkpt>
      <trkpt lat="45.3455" lon="3.46184">
        <ele>699.5</ele>
        <time>2022-09-09T07:44:26Z</time>
      </trkpt>
      <trkpt lat="45.34549" lon="3.46209">
        <ele>702.86</ele>
        <time>2022-09-09T07:44:31Z</time>
      </trkpt>
      <trkpt lat="45.34549" lon="3.4623">
        <ele>704.78</ele>
        <time>2022-09-09T07:44:35Z</time>
      </trkpt>
      <trkpt lat="45.34551" lon="3.46266">
        <ele>708.15</ele>
        <time>2022-09-09T07:44:42Z</time>
      </trkpt>
      <trkpt lat="45.34556" lon="3.46318">
        <ele>711.51</ele>
        <time>2022-09-09T07:44:53Z</time>
      </trkpt>
      <trkpt lat="45.34566" lon="3.46359">
        <ele>713.44</ele>
        <time>2022-09-09T07:45:02Z</time>
      </trkpt>
      <trkpt lat="45.34578" lon="3.46404">
        <ele>715.84</ele>
        <time>2022-09-09T07:45:12Z</time>
      </trkpt>
      <trkpt lat="45.34578" lon="3.46449">
        <ele>718.24</ele>
        <time>2022-09-09T07:45:20Z</time>
      </trkpt>
      <trkpt lat="45.34575" lon="3.46477">
        <ele>721.13</ele>
        <time>2022-09-09T07:45:25Z</time>
      </trkpt>
      <trkpt lat="45.34573" lon="3.46504">
        <ele>723.53</ele>
        <time>2022-09-09T07:45:30Z</time>
      </trkpt>
      <trkpt lat="45.34567" lon="3.46547">
        <ele>725.93</ele>
        <time>2022-09-09T07:45:39Z</time>
      </trkpt>
      <trkpt lat="45.34566" lon="3.46586">
        <ele>727.37</ele>
        <time>2022-09-09T07:45:47Z</time>
      </trkpt>
      <trkpt lat="45.34577" lon="3.46644">
        <ele>727.86</ele>
        <time>2022-09-09T07:45:58Z</time>
      </trkpt>
      <trkpt lat="45.34591" lon="3.4669">
        <ele>728.82</ele>
        <time>2022-09-09T07:46:06Z</time>
      </trkpt>
      <trkpt lat="45.34603" lon="3.46749">
        <ele>729.78</ele>
        <time>2022-09-09T07:46:16Z</time>
      </trkpt>
      <trkpt lat="45.34608" lon="3.46779">
        <ele>730.26</ele>
        <time>2022-09-09T07:46:21Z</time>
      </trkpt>
      <trkpt lat="45.3461" lon="3.46815">
        <ele>731.7</ele>
        <time>2022-09-09T07:46:27Z</time>
      </trkpt>
      <trkpt lat="45.34612" lon="3.4682">
        <ele>732.66</ele>
        <time>2022-09-09T07:46:28Z</time>
      </trkpt>
      <trkpt lat="45.34619" lon="3.46833">
        <ele>734.1</ele>
        <time>2022-09-09T07:46:31Z</time>
      </trkpt>
      <trkpt lat="45.34624" lon="3.46856">
        <ele>736.51</ele>
        <time>2022-09-09T07:46:36Z</time>
      </trkpt>
      <trkpt lat="45.34625" lon="3.46861">
        <ele>736.51</ele>
        <time>2022-09-09T07:46:37Z</time>
      </trkpt>
      <trkpt lat="45.34633" lon="3.46892">
        <ele>740.35</ele>
        <time>2022-09-09T07:46:43Z</time>
      </trkpt>
      <trkpt lat="45.3464" lon="3.46919">
        <ele>743.72</ele>
        <time>2022-09-09T07:46:49Z</time>
      </trkpt>
      <trkpt lat="45.34648" lon="3.46946">
        <ele>746.6</ele>
        <time>2022-09-09T07:46:55Z</time>
      </trkpt>
      <trkpt lat="45.3466" lon="3.46979">
        <ele>749.49</ele>
        <time>2022-09-09T07:47:03Z</time>
      </trkpt>
      <trkpt lat="45.34674" lon="3.47025">
        <ele>751.41</ele>
        <time>2022-09-09T07:47:13Z</time>
      </trkpt>
      <trkpt lat="45.34677" lon="3.47069">
        <ele>754.77</ele>
        <time>2022-09-09T07:47:22Z</time>
      </trkpt>
      <trkpt lat="45.34679" lon="3.47099">
        <ele>758.14</ele>
        <time>2022-09-09T07:47:29Z</time>
      </trkpt>
      <trkpt lat="45.34681" lon="3.47128">
        <ele>761.5</ele>
        <time>2022-09-09T07:47:36Z</time>
      </trkpt>
      <trkpt lat="45.34685" lon="3.47158">
        <ele>764.39</ele>
        <time>2022-09-09T07:47:43Z</time>
      </trkpt>
      <trkpt lat="45.34686" lon="3.4718">
        <ele>766.31</ele>
        <time>2022-09-09T07:47:48Z</time>
      </trkpt>
      <trkpt lat="45.34694" lon="3.47211">
        <ele>768.71</ele>
        <time>2022-09-09T07:47:55Z</time>
      </trkpt>
      <trkpt lat="45.34708" lon="3.4725">
        <ele>771.6</ele>
        <time>2022-09-09T07:48:05Z</time>
      </trkpt>
      <trkpt lat="45.34722" lon="3.47281">
        <ele>773.52</ele>
        <time>2022-09-09T07:48:12Z</time>
      </trkpt>
      <trkpt lat="45.3473" lon="3.47296">
        <ele>774</ele>
        <time>2022-09-09T07:48:18Z</time>
      </trkpt>
      <trkpt lat="45.34741" lon="3.47316">
        <ele>774</ele>
        <time>2022-09-09T07:48:26Z</time>
      </trkpt>
      <trkpt lat="45.34749" lon="3.47328">
        <ele>774.48</ele>
        <time>2022-09-09T07:48:33Z</time>
      </trkpt>
      <trkpt lat="45.34751" lon="3.47331">
        <ele>774.48</ele>
        <time>2022-09-09T07:48:40Z</time>
      </trkpt>
      <trkpt lat="45.3476" lon="3.47338">
        <ele>774.48</ele>
        <time>2022-09-09T07:48:55Z</time>
      </trkpt>
      <trkpt lat="45.34761" lon="3.47341">
        <ele>774.96</ele>
        <time>2022-09-09T07:48:58Z</time>
      </trkpt>
      <trkpt lat="45.34762" lon="3.47343">
        <ele>774.96</ele>
        <time>2022-09-09T07:48:59Z</time>
      </trkpt>
      <trkpt lat="45.34763" lon="3.47345">
        <ele>774.96</ele>
        <time>2022-09-09T07:49:00Z</time>
      </trkpt>
      <trkpt lat="45.34775" lon="3.47364">
        <ele>775.44</ele>
        <time>2022-09-09T07:49:09Z</time>
      </trkpt>
      <trkpt lat="45.34784" lon="3.47387">
        <ele>774.48</ele>
        <time>2022-09-09T07:49:18Z</time>
      </trkpt>
      <trkpt lat="45.34788" lon="3.47396">
        <ele>774</ele>
        <time>2022-09-09T07:49:25Z</time>
      </trkpt>
      <trkpt lat="45.34795" lon="3.47411">
        <ele>774</ele>
        <time>2022-09-09T07:49:31Z</time>
      </trkpt>
      <trkpt lat="45.34807" lon="3.47432">
        <ele>773.52</ele>
        <time>2022-09-09T07:49:37Z</time>
      </trkpt>
      <trkpt lat="45.34826" lon="3.47459">
        <ele>772.56</ele>
        <time>2022-09-09T07:49:43Z</time>
      </trkpt>
      <trkpt lat="45.34848" lon="3.47494">
        <ele>771.11</ele>
        <time>2022-09-09T07:49:49Z</time>
      </trkpt>
      <trkpt lat="45.34871" lon="3.47525">
        <ele>770.63</ele>
        <time>2022-09-09T07:49:55Z</time>
      </trkpt>
      <trkpt lat="45.34895" lon="3.47551">
        <ele>770.15</ele>
        <time>2022-09-09T07:50:03Z</time>
      </trkpt>
      <trkpt lat="45.34901" lon="3.47556">
        <ele>770.63</ele>
        <time>2022-09-09T07:50:05Z</time>
      </trkpt>
      <trkpt lat="45.34929" lon="3.47575">
        <ele>770.63</ele>
        <time>2022-09-09T07:50:12Z</time>
      </trkpt>
      <trkpt lat="45.34937" lon="3.4758">
        <ele>770.63</ele>
        <time>2022-09-09T07:50:14Z</time>
      </trkpt>
      <trkpt lat="45.34941" lon="3.47584">
        <ele>770.63</ele>
        <time>2022-09-09T07:50:15Z</time>
      </trkpt>
      <trkpt lat="45.34946" lon="3.47587">
        <ele>770.63</ele>
        <time>2022-09-09T07:50:16Z</time>
      </trkpt>
      <trkpt lat="45.3495" lon="3.47591">
        <ele>770.63</ele>
        <time>2022-09-09T07:50:17Z</time>
      </trkpt>
      <trkpt lat="45.34954" lon="3.47594">
        <ele>770.63</ele>
        <time>2022-09-09T07:50:18Z</time>
      </trkpt>
      <trkpt lat="45.34957" lon="3.47598">
        <ele>770.63</ele>
        <time>2022-09-09T07:50:19Z</time>
      </trkpt>
      <trkpt lat="45.3496" lon="3.47601">
        <ele>770.63</ele>
        <time>2022-09-09T07:50:20Z</time>
      </trkpt>
      <trkpt lat="45.34964" lon="3.47605">
        <ele>771.11</ele>
        <time>2022-09-09T07:50:21Z</time>
      </trkpt>
      <trkpt lat="45.34967" lon="3.47608">
        <ele>771.11</ele>
        <time>2022-09-09T07:50:22Z</time>
      </trkpt>
      <trkpt lat="45.3497" lon="3.47611">
        <ele>771.11</ele>
        <time>2022-09-09T07:50:23Z</time>
      </trkpt>
      <trkpt lat="45.34974" lon="3.47615">
        <ele>771.6</ele>
        <time>2022-09-09T07:50:24Z</time>
      </trkpt>
      <trkpt lat="45.34978" lon="3.47619">
        <ele>771.6</ele>
        <time>2022-09-09T07:50:25Z</time>
      </trkpt>
      <trkpt lat="45.34982" lon="3.47624">
        <ele>771.6</ele>
        <time>2022-09-09T07:50:26Z</time>
      </trkpt>
      <trkpt lat="45.34985" lon="3.4763">
        <ele>772.08</ele>
        <time>2022-09-09T07:50:27Z</time>
      </trkpt>
      <trkpt lat="45.35007" lon="3.47671">
        <ele>773.04</ele>
        <time>2022-09-09T07:50:34Z</time>
      </trkpt>
      <trkpt lat="45.35019" lon="3.47704">
        <ele>774.96</ele>
        <time>2022-09-09T07:50:40Z</time>
      </trkpt>
      <trkpt lat="45.35021" lon="3.4771">
        <ele>775.44</ele>
        <time>2022-09-09T07:50:41Z</time>
      </trkpt>
      <trkpt lat="45.35022" lon="3.47715">
        <ele>775.92</ele>
        <time>2022-09-09T07:50:42Z</time>
      </trkpt>
      <trkpt lat="45.35029" lon="3.47743">
        <ele>777.84</ele>
        <time>2022-09-09T07:50:47Z</time>
      </trkpt>
      <trkpt lat="45.35032" lon="3.4775">
        <ele>778.32</ele>
        <time>2022-09-09T07:50:48Z</time>
      </trkpt>
      <trkpt lat="45.35034" lon="3.47757">
        <ele>778.32</ele>
        <time>2022-09-09T07:50:49Z</time>
      </trkpt>
      <trkpt lat="45.35042" lon="3.47784">
        <ele>779.29</ele>
        <time>2022-09-09T07:50:54Z</time>
      </trkpt>
      <trkpt lat="45.35058" lon="3.47815">
        <ele>779.29</ele>
        <time>2022-09-09T07:51:00Z</time>
      </trkpt>
      <trkpt lat="45.35064" lon="3.47827">
        <ele>779.29</ele>
        <time>2022-09-09T07:51:02Z</time>
      </trkpt>
      <trkpt lat="45.35069" lon="3.47833">
        <ele>779.29</ele>
        <time>2022-09-09T07:51:03Z</time>
      </trkpt>
      <trkpt lat="45.35074" lon="3.47839">
        <ele>779.29</ele>
        <time>2022-09-09T07:51:04Z</time>
      </trkpt>
      <trkpt lat="45.35079" lon="3.47846">
        <ele>779.29</ele>
        <time>2022-09-09T07:51:05Z</time>
      </trkpt>
      <trkpt lat="45.35084" lon="3.47852">
        <ele>779.29</ele>
        <time>2022-09-09T07:51:06Z</time>
      </trkpt>
      <trkpt lat="45.35089" lon="3.47858">
        <ele>779.29</ele>
        <time>2022-09-09T07:51:07Z</time>
      </trkpt>
      <trkpt lat="45.35116" lon="3.47906">
        <ele>780.25</ele>
        <time>2022-09-09T07:51:15Z</time>
      </trkpt>
      <trkpt lat="45.3514" lon="3.4796">
        <ele>781.69</ele>
        <time>2022-09-09T07:51:23Z</time>
      </trkpt>
      <trkpt lat="45.35166" lon="3.48033">
        <ele>782.65</ele>
        <time>2022-09-09T07:51:33Z</time>
      </trkpt>
      <trkpt lat="45.35181" lon="3.48091">
        <ele>781.69</ele>
        <time>2022-09-09T07:51:41Z</time>
      </trkpt>
      <trkpt lat="45.35183" lon="3.48097">
        <ele>782.17</ele>
        <time>2022-09-09T07:51:42Z</time>
      </trkpt>
      <trkpt lat="45.35208" lon="3.48147">
        <ele>782.17</ele>
        <time>2022-09-09T07:51:50Z</time>
      </trkpt>
      <trkpt lat="45.35215" lon="3.48159">
        <ele>782.17</ele>
        <time>2022-09-09T07:51:52Z</time>
      </trkpt>
      <trkpt lat="45.35217" lon="3.48166">
        <ele>782.65</ele>
        <time>2022-09-09T07:51:53Z</time>
      </trkpt>
      <trkpt lat="45.3522" lon="3.48172">
        <ele>782.17</ele>
        <time>2022-09-09T07:51:54Z</time>
      </trkpt>
      <trkpt lat="45.35222" lon="3.48178">
        <ele>782.17</ele>
        <time>2022-09-09T07:51:55Z</time>
      </trkpt>
      <trkpt lat="45.35225" lon="3.48185">
        <ele>782.65</ele>
        <time>2022-09-09T07:51:56Z</time>
      </trkpt>
      <trkpt lat="45.35226" lon="3.48192">
        <ele>782.17</ele>
        <time>2022-09-09T07:51:57Z</time>
      </trkpt>
      <trkpt lat="45.35228" lon="3.482">
        <ele>782.65</ele>
        <time>2022-09-09T07:51:58Z</time>
      </trkpt>
      <trkpt lat="45.35237" lon="3.48253">
        <ele>782.65</ele>
        <time>2022-09-09T07:52:05Z</time>
      </trkpt>
      <trkpt lat="45.35242" lon="3.48305">
        <ele>783.13</ele>
        <time>2022-09-09T07:52:12Z</time>
      </trkpt>
      <trkpt lat="45.35245" lon="3.48365">
        <ele>784.57</ele>
        <time>2022-09-09T07:52:21Z</time>
      </trkpt>
      <trkpt lat="45.35246" lon="3.48385">
        <ele>785.53</ele>
        <time>2022-09-09T07:52:24Z</time>
      </trkpt>
      <trkpt lat="45.35247" lon="3.48397">
        <ele>786.02</ele>
        <time>2022-09-09T07:52:26Z</time>
      </trkpt>
      <trkpt lat="45.35247" lon="3.4841">
        <ele>786.98</ele>
        <time>2022-09-09T07:52:28Z</time>
      </trkpt>
      <trkpt lat="45.35246" lon="3.48415">
        <ele>787.46</ele>
        <time>2022-09-09T07:52:29Z</time>
      </trkpt>
      <trkpt lat="45.35234" lon="3.48461">
        <ele>790.82</ele>
        <time>2022-09-09T07:52:38Z</time>
      </trkpt>
      <trkpt lat="45.35233" lon="3.48466">
        <ele>790.82</ele>
        <time>2022-09-09T07:52:39Z</time>
      </trkpt>
      <trkpt lat="45.35229" lon="3.4849">
        <ele>794.19</ele>
        <time>2022-09-09T07:52:44Z</time>
      </trkpt>
      <trkpt lat="45.35227" lon="3.48511">
        <ele>797.55</ele>
        <time>2022-09-09T07:52:49Z</time>
      </trkpt>
      <trkpt lat="45.35223" lon="3.4853">
        <ele>800.92</ele>
        <time>2022-09-09T07:52:55Z</time>
      </trkpt>
      <trkpt lat="45.35222" lon="3.48533">
        <ele>801.4</ele>
        <time>2022-09-09T07:52:56Z</time>
      </trkpt>
      <trkpt lat="45.35219" lon="3.4855">
        <ele>804.76</ele>
        <time>2022-09-09T07:53:01Z</time>
      </trkpt>
      <trkpt lat="45.35213" lon="3.48572">
        <ele>807.64</ele>
        <time>2022-09-09T07:53:07Z</time>
      </trkpt>
      <trkpt lat="45.35206" lon="3.48594">
        <ele>811.49</ele>
        <time>2022-09-09T07:53:13Z</time>
      </trkpt>
      <trkpt lat="45.35204" lon="3.48601">
        <ele>812.45</ele>
        <time>2022-09-09T07:53:15Z</time>
      </trkpt>
      <trkpt lat="45.35199" lon="3.48623">
        <ele>815.82</ele>
        <time>2022-09-09T07:53:20Z</time>
      </trkpt>
      <trkpt lat="45.35192" lon="3.48645">
        <ele>819.18</ele>
        <time>2022-09-09T07:53:26Z</time>
      </trkpt>
      <trkpt lat="45.35186" lon="3.48662">
        <ele>822.55</ele>
        <time>2022-09-09T07:53:31Z</time>
      </trkpt>
      <trkpt lat="45.35184" lon="3.48669">
        <ele>823.03</ele>
        <time>2022-09-09T07:53:33Z</time>
      </trkpt>
      <trkpt lat="45.35176" lon="3.48686">
        <ele>826.39</ele>
        <time>2022-09-09T07:53:39Z</time>
      </trkpt>
      <trkpt lat="45.35166" lon="3.48704">
        <ele>829.76</ele>
        <time>2022-09-09T07:53:45Z</time>
      </trkpt>
      <trkpt lat="45.35159" lon="3.48723">
        <ele>831.68</ele>
        <time>2022-09-09T07:53:51Z</time>
      </trkpt>
      <trkpt lat="45.35147" lon="3.48745">
        <ele>834.56</ele>
        <time>2022-09-09T07:53:58Z</time>
      </trkpt>
      <trkpt lat="45.35135" lon="3.48765">
        <ele>837.45</ele>
        <time>2022-09-09T07:54:05Z</time>
      </trkpt>
      <trkpt lat="45.35127" lon="3.48783">
        <ele>840.33</ele>
        <time>2022-09-09T07:54:11Z</time>
      </trkpt>
      <trkpt lat="45.35119" lon="3.48804">
        <ele>843.69</ele>
        <time>2022-09-09T07:54:18Z</time>
      </trkpt>
      <trkpt lat="45.35114" lon="3.48824">
        <ele>846.1</ele>
        <time>2022-09-09T07:54:24Z</time>
      </trkpt>
      <trkpt lat="45.35112" lon="3.48831">
        <ele>847.06</ele>
        <time>2022-09-09T07:54:26Z</time>
      </trkpt>
      <trkpt lat="45.35106" lon="3.48855">
        <ele>849.46</ele>
        <time>2022-09-09T07:54:32Z</time>
      </trkpt>
      <trkpt lat="45.35104" lon="3.48877">
        <ele>851.87</ele>
        <time>2022-09-09T07:54:37Z</time>
      </trkpt>
      <trkpt lat="45.35102" lon="3.48883">
        <ele>853.31</ele>
        <time>2022-09-09T07:54:39Z</time>
      </trkpt>
      <trkpt lat="45.35101" lon="3.48894">
        <ele>854.27</ele>
        <time>2022-09-09T07:54:42Z</time>
      </trkpt>
      <trkpt lat="45.35106" lon="3.48908">
        <ele>856.67</ele>
        <time>2022-09-09T07:54:46Z</time>
      </trkpt>
      <trkpt lat="45.35109" lon="3.4891">
        <ele>857.15</ele>
        <time>2022-09-09T07:54:47Z</time>
      </trkpt>
      <trkpt lat="45.35111" lon="3.48911">
        <ele>857.63</ele>
        <time>2022-09-09T07:54:48Z</time>
      </trkpt>
      <trkpt lat="45.35113" lon="3.48911">
        <ele>858.59</ele>
        <time>2022-09-09T07:54:49Z</time>
      </trkpt>
      <trkpt lat="45.35115" lon="3.4891">
        <ele>858.59</ele>
        <time>2022-09-09T07:54:50Z</time>
      </trkpt>
      <trkpt lat="45.35118" lon="3.48909">
        <ele>859.08</ele>
        <time>2022-09-09T07:54:51Z</time>
      </trkpt>
      <trkpt lat="45.35125" lon="3.48907">
        <ele>861.48</ele>
        <time>2022-09-09T07:54:55Z</time>
      </trkpt>
      <trkpt lat="45.35127" lon="3.48908">
        <ele>862.44</ele>
        <time>2022-09-09T07:54:56Z</time>
      </trkpt>
      <trkpt lat="45.35128" lon="3.4891">
        <ele>862.92</ele>
        <time>2022-09-09T07:54:57Z</time>
      </trkpt>
      <trkpt lat="45.35128" lon="3.48912">
        <ele>863.4</ele>
        <time>2022-09-09T07:54:58Z</time>
      </trkpt>
      <trkpt lat="45.35128" lon="3.48915">
        <ele>863.88</ele>
        <time>2022-09-09T07:54:59Z</time>
      </trkpt>
      <trkpt lat="45.35128" lon="3.48917">
        <ele>864.36</ele>
        <time>2022-09-09T07:55:00Z</time>
      </trkpt>
      <trkpt lat="45.35127" lon="3.48921">
        <ele>864.84</ele>
        <time>2022-09-09T07:55:02Z</time>
      </trkpt>
      <trkpt lat="45.35127" lon="3.48922">
        <ele>865.32</ele>
        <time>2022-09-09T07:55:03Z</time>
      </trkpt>
      <trkpt lat="45.35126" lon="3.48924">
        <ele>865.32</ele>
        <time>2022-09-09T07:55:04Z</time>
      </trkpt>
      <trkpt lat="45.35126" lon="3.48926">
        <ele>865.32</ele>
        <time>2022-09-09T07:55:05Z</time>
      </trkpt>
      <trkpt lat="45.35126" lon="3.48928">
        <ele>865.8</ele>
        <time>2022-09-09T07:55:06Z</time>
      </trkpt>
      <trkpt lat="45.35125" lon="3.48933">
        <ele>866.29</ele>
        <time>2022-09-09T07:55:08Z</time>
      </trkpt>
      <trkpt lat="45.35126" lon="3.48935">
        <ele>866.29</ele>
        <time>2022-09-09T07:55:09Z</time>
      </trkpt>
      <trkpt lat="45.35126" lon="3.48936">
        <ele>866.77</ele>
        <time>2022-09-09T07:55:10Z</time>
      </trkpt>
      <trkpt lat="45.35127" lon="3.48938">
        <ele>866.77</ele>
        <time>2022-09-09T07:55:11Z</time>
      </trkpt>
      <trkpt lat="45.35128" lon="3.48939">
        <ele>867.25</ele>
        <time>2022-09-09T07:55:12Z</time>
      </trkpt>
      <trkpt lat="45.35131" lon="3.48946">
        <ele>868.69</ele>
        <time>2022-09-09T07:55:16Z</time>
      </trkpt>
      <trkpt lat="45.35131" lon="3.48948">
        <ele>869.65</ele>
        <time>2022-09-09T07:55:17Z</time>
      </trkpt>
      <trkpt lat="45.35133" lon="3.48951">
        <ele>869.65</ele>
        <time>2022-09-09T07:55:19Z</time>
      </trkpt>
      <trkpt lat="45.35134" lon="3.48953">
        <ele>870.13</ele>
        <time>2022-09-09T07:55:20Z</time>
      </trkpt>
      <trkpt lat="45.35135" lon="3.48954">
        <ele>870.61</ele>
        <time>2022-09-09T07:55:21Z</time>
      </trkpt>
      <trkpt lat="45.35135" lon="3.48956">
        <ele>870.61</ele>
        <time>2022-09-09T07:55:22Z</time>
      </trkpt>
      <trkpt lat="45.35136" lon="3.48958">
        <ele>871.09</ele>
        <time>2022-09-09T07:55:23Z</time>
      </trkpt>
      <trkpt lat="45.35138" lon="3.48961">
        <ele>871.57</ele>
        <time>2022-09-09T07:55:25Z</time>
      </trkpt>
      <trkpt lat="45.35139" lon="3.48962">
        <ele>872.05</ele>
        <time>2022-09-09T07:55:26Z</time>
      </trkpt>
      <trkpt lat="45.35139" lon="3.48964">
        <ele>872.53</ele>
        <time>2022-09-09T07:55:27Z</time>
      </trkpt>
      <trkpt lat="45.35143" lon="3.48984">
        <ele>874.94</ele>
        <time>2022-09-09T07:55:35Z</time>
      </trkpt>
      <trkpt lat="45.35141" lon="3.49004">
        <ele>877.34</ele>
        <time>2022-09-09T07:55:40Z</time>
      </trkpt>
      <trkpt lat="45.35142" lon="3.49009">
        <ele>877.34</ele>
        <time>2022-09-09T07:55:41Z</time>
      </trkpt>
      <trkpt lat="45.35146" lon="3.49043">
        <ele>880.71</ele>
        <time>2022-09-09T07:55:48Z</time>
      </trkpt>
      <trkpt lat="45.35156" lon="3.49069">
        <ele>881.67</ele>
        <time>2022-09-09T07:55:54Z</time>
      </trkpt>
      <trkpt lat="45.35174" lon="3.49111">
        <ele>882.15</ele>
        <time>2022-09-09T07:56:02Z</time>
      </trkpt>
      <trkpt lat="45.35189" lon="3.4915">
        <ele>882.63</ele>
        <time>2022-09-09T07:56:10Z</time>
      </trkpt>
      <trkpt lat="45.35211" lon="3.49197">
        <ele>883.59</ele>
        <time>2022-09-09T07:56:20Z</time>
      </trkpt>
      <trkpt lat="45.35228" lon="3.49234">
        <ele>885.03</ele>
        <time>2022-09-09T07:56:28Z</time>
      </trkpt>
      <trkpt lat="45.35239" lon="3.49273">
        <ele>887.91</ele>
        <time>2022-09-09T07:56:36Z</time>
      </trkpt>
      <trkpt lat="45.35255" lon="3.49315">
        <ele>889.84</ele>
        <time>2022-09-09T07:56:44Z</time>
      </trkpt>
      <trkpt lat="45.35265" lon="3.49342">
        <ele>891.76</ele>
        <time>2022-09-09T07:56:50Z</time>
      </trkpt>
      <trkpt lat="45.3528" lon="3.49363">
        <ele>892.72</ele>
        <time>2022-09-09T07:56:56Z</time>
      </trkpt>
      <trkpt lat="45.35292" lon="3.49398">
        <ele>895.12</ele>
        <time>2022-09-09T07:57:04Z</time>
      </trkpt>
      <trkpt lat="45.35303" lon="3.49428">
        <ele>896.09</ele>
        <time>2022-09-09T07:57:10Z</time>
      </trkpt>
      <trkpt lat="45.35305" lon="3.49433">
        <ele>896.57</ele>
        <time>2022-09-09T07:57:11Z</time>
      </trkpt>
      <trkpt lat="45.35319" lon="3.49488">
        <ele>898.01</ele>
        <time>2022-09-09T07:57:21Z</time>
      </trkpt>
      <trkpt lat="45.35331" lon="3.49528">
        <ele>898.97</ele>
        <time>2022-09-09T07:57:29Z</time>
      </trkpt>
      <trkpt lat="45.35339" lon="3.49559">
        <ele>899.93</ele>
        <time>2022-09-09T07:57:35Z</time>
      </trkpt>
      <trkpt lat="45.35345" lon="3.49579">
        <ele>899.93</ele>
        <time>2022-09-09T07:57:39Z</time>
      </trkpt>
      <trkpt lat="45.35346" lon="3.49585">
        <ele>900.41</ele>
        <time>2022-09-09T07:57:40Z</time>
      </trkpt>
      <trkpt lat="45.35358" lon="3.49636">
        <ele>901.37</ele>
        <time>2022-09-09T07:57:50Z</time>
      </trkpt>
      <trkpt lat="45.35368" lon="3.49681">
        <ele>902.33</ele>
        <time>2022-09-09T07:57:59Z</time>
      </trkpt>
      <trkpt lat="45.35377" lon="3.49716">
        <ele>902.82</ele>
        <time>2022-09-09T07:58:06Z</time>
      </trkpt>
      <trkpt lat="45.3539" lon="3.49763">
        <ele>904.74</ele>
        <time>2022-09-09T07:58:15Z</time>
      </trkpt>
      <trkpt lat="45.35401" lon="3.49808">
        <ele>906.18</ele>
        <time>2022-09-09T07:58:23Z</time>
      </trkpt>
      <trkpt lat="45.35407" lon="3.4983">
        <ele>907.62</ele>
        <time>2022-09-09T07:58:26Z</time>
      </trkpt>
      <trkpt lat="45.35421" lon="3.49866">
        <ele>909.06</ele>
        <time>2022-09-09T07:58:31Z</time>
      </trkpt>
      <trkpt lat="45.35425" lon="3.49871">
        <ele>909.06</ele>
        <time>2022-09-09T07:58:32Z</time>
      </trkpt>
      <trkpt lat="45.3545" lon="3.49904">
        <ele>909.06</ele>
        <time>2022-09-09T07:58:39Z</time>
      </trkpt>
      <trkpt lat="45.35452" lon="3.49911">
        <ele>909.06</ele>
        <time>2022-09-09T07:58:40Z</time>
      </trkpt>
      <trkpt lat="45.35455" lon="3.49917">
        <ele>908.58</ele>
        <time>2022-09-09T07:58:41Z</time>
      </trkpt>
      <trkpt lat="45.35471" lon="3.49961">
        <ele>908.58</ele>
        <time>2022-09-09T07:58:48Z</time>
      </trkpt>
      <trkpt lat="45.35473" lon="3.49967">
        <ele>908.58</ele>
        <time>2022-09-09T07:58:49Z</time>
      </trkpt>
      <trkpt lat="45.35478" lon="3.50014">
        <ele>908.1</ele>
        <time>2022-09-09T07:58:55Z</time>
      </trkpt>
      <trkpt lat="45.3548" lon="3.50021">
        <ele>908.1</ele>
        <time>2022-09-09T07:58:56Z</time>
      </trkpt>
      <trkpt lat="45.35482" lon="3.50028">
        <ele>907.62</ele>
        <time>2022-09-09T07:58:57Z</time>
      </trkpt>
      <trkpt lat="45.35485" lon="3.50034">
        <ele>907.62</ele>
        <time>2022-09-09T07:58:58Z</time>
      </trkpt>
      <trkpt lat="45.35488" lon="3.5004">
        <ele>907.62</ele>
        <time>2022-09-09T07:58:59Z</time>
      </trkpt>
      <trkpt lat="45.35507" lon="3.50068">
        <ele>906.66</ele>
        <time>2022-09-09T07:59:04Z</time>
      </trkpt>
      <trkpt lat="45.35529" lon="3.50117">
        <ele>905.22</ele>
        <time>2022-09-09T07:59:12Z</time>
      </trkpt>
      <trkpt lat="45.35544" lon="3.50148">
        <ele>904.26</ele>
        <time>2022-09-09T07:59:17Z</time>
      </trkpt>
      <trkpt lat="45.35547" lon="3.50156">
        <ele>904.26</ele>
        <time>2022-09-09T07:59:18Z</time>
      </trkpt>
      <trkpt lat="45.35553" lon="3.50174">
        <ele>903.78</ele>
        <time>2022-09-09T07:59:20Z</time>
      </trkpt>
      <trkpt lat="45.35557" lon="3.50181">
        <ele>902.82</ele>
        <time>2022-09-09T07:59:21Z</time>
      </trkpt>
      <trkpt lat="45.35563" lon="3.50188">
        <ele>902.33</ele>
        <time>2022-09-09T07:59:22Z</time>
      </trkpt>
      <trkpt lat="45.35594" lon="3.50225">
        <ele>898.97</ele>
        <time>2022-09-09T07:59:27Z</time>
      </trkpt>
      <trkpt lat="45.35617" lon="3.50252">
        <ele>895.61</ele>
        <time>2022-09-09T07:59:31Z</time>
      </trkpt>
      <trkpt lat="45.35637" lon="3.50276">
        <ele>892.72</ele>
        <time>2022-09-09T07:59:35Z</time>
      </trkpt>
      <trkpt lat="45.3564" lon="3.50282">
        <ele>891.76</ele>
        <time>2022-09-09T07:59:36Z</time>
      </trkpt>
      <trkpt lat="45.35642" lon="3.50286">
        <ele>891.28</ele>
        <time>2022-09-09T07:59:37Z</time>
      </trkpt>
      <trkpt lat="45.35644" lon="3.5029">
        <ele>890.8</ele>
        <time>2022-09-09T07:59:38Z</time>
      </trkpt>
      <trkpt lat="45.35644" lon="3.50293">
        <ele>890.8</ele>
        <time>2022-09-09T07:59:39Z</time>
      </trkpt>
      <trkpt lat="45.35645" lon="3.50295">
        <ele>890.32</ele>
        <time>2022-09-09T07:59:40Z</time>
      </trkpt>
      <trkpt lat="45.35645" lon="3.50297">
        <ele>890.32</ele>
        <time>2022-09-09T07:59:41Z</time>
      </trkpt>
      <trkpt lat="45.35645" lon="3.50299">
        <ele>890.8</ele>
        <time>2022-09-09T07:59:42Z</time>
      </trkpt>
      <trkpt lat="45.35645" lon="3.50301">
        <ele>890.32</ele>
        <time>2022-09-09T07:59:43Z</time>
      </trkpt>
      <trkpt lat="45.35645" lon="3.50303">
        <ele>890.32</ele>
        <time>2022-09-09T07:59:44Z</time>
      </trkpt>
      <trkpt lat="45.35645" lon="3.50305">
        <ele>890.32</ele>
        <time>2022-09-09T07:59:45Z</time>
      </trkpt>
      <trkpt lat="45.35644" lon="3.50307">
        <ele>890.32</ele>
        <time>2022-09-09T07:59:46Z</time>
      </trkpt>
      <trkpt lat="45.35642" lon="3.50309">
        <ele>890.32</ele>
        <time>2022-09-09T07:59:47Z</time>
      </trkpt>
      <trkpt lat="45.35642" lon="3.5031">
        <ele>890.32</ele>
        <time>2022-09-09T07:59:48Z</time>
      </trkpt>
      <trkpt lat="45.35641" lon="3.50312">
        <ele>890.32</ele>
        <time>2022-09-09T07:59:49Z</time>
      </trkpt>
      <trkpt lat="45.3564" lon="3.50314">
        <ele>890.32</ele>
        <time>2022-09-09T07:59:50Z</time>
      </trkpt>
      <trkpt lat="45.35638" lon="3.50316">
        <ele>890.8</ele>
        <time>2022-09-09T07:59:51Z</time>
      </trkpt>
      <trkpt lat="45.35636" lon="3.50317">
        <ele>890.8</ele>
        <time>2022-09-09T07:59:52Z</time>
      </trkpt>
      <trkpt lat="45.35633" lon="3.50316">
        <ele>890.8</ele>
        <time>2022-09-09T07:59:53Z</time>
      </trkpt>
      <trkpt lat="45.35631" lon="3.50316">
        <ele>890.8</ele>
        <time>2022-09-09T07:59:54Z</time>
      </trkpt>
      <trkpt lat="45.3563" lon="3.50317">
        <ele>890.8</ele>
        <time>2022-09-09T07:59:55Z</time>
      </trkpt>
      <trkpt lat="45.35629" lon="3.50319">
        <ele>890.8</ele>
        <time>2022-09-09T07:59:56Z</time>
      </trkpt>
      <trkpt lat="45.35631" lon="3.50321">
        <ele>890.32</ele>
        <time>2022-09-09T07:59:57Z</time>
      </trkpt>
      <trkpt lat="45.35633" lon="3.50321">
        <ele>890.8</ele>
        <time>2022-09-09T07:59:58Z</time>
      </trkpt>
      <trkpt lat="45.35636" lon="3.50319">
        <ele>890.8</ele>
        <time>2022-09-09T07:59:59Z</time>
      </trkpt>
      <trkpt lat="45.3564" lon="3.50317">
        <ele>890.8</ele>
        <time>2022-09-09T08:00:00Z</time>
      </trkpt>
      <trkpt lat="45.35643" lon="3.50314">
        <ele>891.28</ele>
        <time>2022-09-09T08:00:01Z</time>
      </trkpt>
      <trkpt lat="45.35667" lon="3.50297">
        <ele>890.32</ele>
        <time>2022-09-09T08:00:08Z</time>
      </trkpt>
      <trkpt lat="45.35671" lon="3.50296">
        <ele>889.84</ele>
        <time>2022-09-09T08:00:09Z</time>
      </trkpt>
      <trkpt lat="45.35675" lon="3.50297">
        <ele>889.84</ele>
        <time>2022-09-09T08:00:10Z</time>
      </trkpt>
      <trkpt lat="45.35706" lon="3.50306">
        <ele>888.88</ele>
        <time>2022-09-09T08:00:17Z</time>
      </trkpt>
      <trkpt lat="45.3571" lon="3.50307">
        <ele>888.88</ele>
        <time>2022-09-09T08:00:18Z</time>
      </trkpt>
      <trkpt lat="45.35745" lon="3.50316">
        <ele>888.4</ele>
        <time>2022-09-09T08:00:26Z</time>
      </trkpt>
      <trkpt lat="45.35771" lon="3.50321">
        <ele>887.91</ele>
        <time>2022-09-09T08:00:33Z</time>
      </trkpt>
      <trkpt lat="45.35805" lon="3.50324">
        <ele>888.88</ele>
        <time>2022-09-09T08:00:42Z</time>
      </trkpt>
      <trkpt lat="45.35824" lon="3.50323">
        <ele>889.36</ele>
        <time>2022-09-09T08:00:47Z</time>
      </trkpt>
      <trkpt lat="45.35828" lon="3.50325">
        <ele>888.88</ele>
        <time>2022-09-09T08:00:48Z</time>
      </trkpt>
      <trkpt lat="45.35831" lon="3.50327">
        <ele>889.36</ele>
        <time>2022-09-09T08:00:49Z</time>
      </trkpt>
      <trkpt lat="45.35834" lon="3.50329">
        <ele>889.36</ele>
        <time>2022-09-09T08:00:50Z</time>
      </trkpt>
      <trkpt lat="45.35836" lon="3.50332">
        <ele>889.36</ele>
        <time>2022-09-09T08:00:51Z</time>
      </trkpt>
      <trkpt lat="45.35839" lon="3.50335">
        <ele>889.36</ele>
        <time>2022-09-09T08:00:52Z</time>
      </trkpt>
      <trkpt lat="45.35863" lon="3.50357">
        <ele>889.36</ele>
        <time>2022-09-09T08:01:00Z</time>
      </trkpt>
      <trkpt lat="45.35865" lon="3.50363">
        <ele>889.36</ele>
        <time>2022-09-09T08:01:02Z</time>
      </trkpt>
      <trkpt lat="45.35865" lon="3.50366">
        <ele>889.36</ele>
        <time>2022-09-09T08:01:03Z</time>
      </trkpt>
      <trkpt lat="45.35864" lon="3.5037">
        <ele>889.84</ele>
        <time>2022-09-09T08:01:04Z</time>
      </trkpt>
      <trkpt lat="45.35866" lon="3.50378">
        <ele>889.84</ele>
        <time>2022-09-09T08:01:05Z</time>
      </trkpt>
      <trkpt lat="45.35865" lon="3.50381">
        <ele>889.84</ele>
        <time>2022-09-09T08:01:06Z</time>
      </trkpt>
      <trkpt lat="45.35864" lon="3.50384">
        <ele>889.36</ele>
        <time>2022-09-09T08:01:07Z</time>
      </trkpt>
      <trkpt lat="45.35862" lon="3.50387">
        <ele>889.36</ele>
        <time>2022-09-09T08:01:08Z</time>
      </trkpt>
      <trkpt lat="45.35861" lon="3.50389">
        <ele>889.36</ele>
        <time>2022-09-09T08:01:09Z</time>
      </trkpt>
      <trkpt lat="45.35859" lon="3.50391">
        <ele>889.36</ele>
        <time>2022-09-09T08:01:10Z</time>
      </trkpt>
      <trkpt lat="45.35856" lon="3.50393">
        <ele>889.36</ele>
        <time>2022-09-09T08:01:11Z</time>
      </trkpt>
      <trkpt lat="45.35846" lon="3.50399">
        <ele>888.4</ele>
        <time>2022-09-09T08:01:15Z</time>
      </trkpt>
      <trkpt lat="45.35842" lon="3.50398">
        <ele>887.91</ele>
        <time>2022-09-09T08:01:16Z</time>
      </trkpt>
      <trkpt lat="45.35802" lon="3.50389">
        <ele>886.95</ele>
        <time>2022-09-09T08:01:25Z</time>
      </trkpt>
      <trkpt lat="45.35766" lon="3.50384">
        <ele>884.55</ele>
        <time>2022-09-09T08:01:32Z</time>
      </trkpt>
      <trkpt lat="45.35762" lon="3.50387">
        <ele>884.55</ele>
        <time>2022-09-09T08:01:33Z</time>
      </trkpt>
      <trkpt lat="45.3576" lon="3.5039">
        <ele>884.07</ele>
        <time>2022-09-09T08:01:34Z</time>
      </trkpt>
      <trkpt lat="45.3576" lon="3.50392">
        <ele>883.59</ele>
        <time>2022-09-09T08:01:35Z</time>
      </trkpt>
      <trkpt lat="45.35759" lon="3.50395">
        <ele>883.11</ele>
        <time>2022-09-09T08:01:38Z</time>
      </trkpt>
      <trkpt lat="45.35759" lon="3.50397">
        <ele>883.11</ele>
        <time>2022-09-09T08:01:39Z</time>
      </trkpt>
      <trkpt lat="45.35758" lon="3.50398">
        <ele>883.11</ele>
        <time>2022-09-09T08:01:40Z</time>
      </trkpt>
      <trkpt lat="45.35758" lon="3.504">
        <ele>883.11</ele>
        <time>2022-09-09T08:01:41Z</time>
      </trkpt>
      <trkpt lat="45.35752" lon="3.50418">
        <ele>881.19</ele>
        <time>2022-09-09T08:01:47Z</time>
      </trkpt>
      <trkpt lat="45.35751" lon="3.50424">
        <ele>880.22</ele>
        <time>2022-09-09T08:01:48Z</time>
      </trkpt>
      <trkpt lat="45.3575" lon="3.50431">
        <ele>879.74</ele>
        <time>2022-09-09T08:01:49Z</time>
      </trkpt>
      <trkpt lat="45.3575" lon="3.50439">
        <ele>879.26</ele>
        <time>2022-09-09T08:01:50Z</time>
      </trkpt>
      <trkpt lat="45.35751" lon="3.50447">
        <ele>878.3</ele>
        <time>2022-09-09T08:01:51Z</time>
      </trkpt>
      <trkpt lat="45.35751" lon="3.50455">
        <ele>876.38</ele>
        <time>2022-09-09T08:01:52Z</time>
      </trkpt>
      <trkpt lat="45.35752" lon="3.50466">
        <ele>874.46</ele>
        <time>2022-09-09T08:01:55Z</time>
      </trkpt>
      <trkpt lat="45.35751" lon="3.50478">
        <ele>873.98</ele>
        <time>2022-09-09T08:02:00Z</time>
      </trkpt>
      <trkpt lat="45.35749" lon="3.50484">
        <ele>874.46</ele>
        <time>2022-09-09T08:02:01Z</time>
      </trkpt>
      <trkpt lat="45.35746" lon="3.5049">
        <ele>872.53</ele>
        <time>2022-09-09T08:02:02Z</time>
      </trkpt>
      <trkpt lat="45.35734" lon="3.50512">
        <ele>870.61</ele>
        <time>2022-09-09T08:02:05Z</time>
      </trkpt>
      <trkpt lat="45.35715" lon="3.50551">
        <ele>867.25</ele>
        <time>2022-09-09T08:02:09Z</time>
      </trkpt>
      <trkpt lat="45.35697" lon="3.50584">
        <ele>864.36</ele>
        <time>2022-09-09T08:02:13Z</time>
      </trkpt>
      <trkpt lat="45.35692" lon="3.5059">
        <ele>863.88</ele>
        <time>2022-09-09T08:02:14Z</time>
      </trkpt>
      <trkpt lat="45.35687" lon="3.50594">
        <ele>863.4</ele>
        <time>2022-09-09T08:02:15Z</time>
      </trkpt>
      <trkpt lat="45.35677" lon="3.506">
        <ele>862.44</ele>
        <time>2022-09-09T08:02:17Z</time>
      </trkpt>
      <trkpt lat="45.35643" lon="3.50629">
        <ele>861</ele>
        <time>2022-09-09T08:02:25Z</time>
      </trkpt>
      <trkpt lat="45.3564" lon="3.50634">
        <ele>860.52</ele>
        <time>2022-09-09T08:02:26Z</time>
      </trkpt>
      <trkpt lat="45.35615" lon="3.50679">
        <ele>858.59</ele>
        <time>2022-09-09T08:02:34Z</time>
      </trkpt>
      <trkpt lat="45.35612" lon="3.50686">
        <ele>858.59</ele>
        <time>2022-09-09T08:02:35Z</time>
      </trkpt>
      <trkpt lat="45.35609" lon="3.50693">
        <ele>858.59</ele>
        <time>2022-09-09T08:02:36Z</time>
      </trkpt>
      <trkpt lat="45.35606" lon="3.50699">
        <ele>858.59</ele>
        <time>2022-09-09T08:02:37Z</time>
      </trkpt>
      <trkpt lat="45.35596" lon="3.50716">
        <ele>858.11</ele>
        <time>2022-09-09T08:02:40Z</time>
      </trkpt>
      <trkpt lat="45.35566" lon="3.50753">
        <ele>857.15</ele>
        <time>2022-09-09T08:02:47Z</time>
      </trkpt>
      <trkpt lat="45.35534" lon="3.50807">
        <ele>855.23</ele>
        <time>2022-09-09T08:02:55Z</time>
      </trkpt>
      <trkpt lat="45.35527" lon="3.50821">
        <ele>854.75</ele>
        <time>2022-09-09T08:02:57Z</time>
      </trkpt>
      <trkpt lat="45.35521" lon="3.50836">
        <ele>853.79</ele>
        <time>2022-09-09T08:02:59Z</time>
      </trkpt>
      <trkpt lat="45.35507" lon="3.50873">
        <ele>852.35</ele>
        <time>2022-09-09T08:03:04Z</time>
      </trkpt>
      <trkpt lat="45.35504" lon="3.5088">
        <ele>852.35</ele>
        <time>2022-09-09T08:03:05Z</time>
      </trkpt>
      <trkpt lat="45.35482" lon="3.50917">
        <ele>850.9</ele>
        <time>2022-09-09T08:03:11Z</time>
      </trkpt>
      <trkpt lat="45.35473" lon="3.50928">
        <ele>849.94</ele>
        <time>2022-09-09T08:03:13Z</time>
      </trkpt>
      <trkpt lat="45.35445" lon="3.50951">
        <ele>848.5</ele>
        <time>2022-09-09T08:03:19Z</time>
      </trkpt>
      <trkpt lat="45.35397" lon="3.50996">
        <ele>845.14</ele>
        <time>2022-09-09T08:03:28Z</time>
      </trkpt>
      <trkpt lat="45.35392" lon="3.51">
        <ele>844.18</ele>
        <time>2022-09-09T08:03:30Z</time>
      </trkpt>
      <trkpt lat="45.35376" lon="3.51011">
        <ele>844.18</ele>
        <time>2022-09-09T08:03:37Z</time>
      </trkpt>
      <trkpt lat="45.35353" lon="3.51028">
        <ele>841.77</ele>
        <time>2022-09-09T08:03:42Z</time>
      </trkpt>
      <trkpt lat="45.35321" lon="3.51051">
        <ele>838.89</ele>
        <time>2022-09-09T08:03:48Z</time>
      </trkpt>
      <trkpt lat="45.35317" lon="3.51053">
        <ele>838.41</ele>
        <time>2022-09-09T08:03:49Z</time>
      </trkpt>
      <trkpt lat="45.35308" lon="3.51056">
        <ele>837.45</ele>
        <time>2022-09-09T08:03:51Z</time>
      </trkpt>
      <trkpt lat="45.35303" lon="3.5106">
        <ele>836.96</ele>
        <time>2022-09-09T08:03:52Z</time>
      </trkpt>
      <trkpt lat="45.35294" lon="3.51068">
        <ele>835.52</ele>
        <time>2022-09-09T08:03:54Z</time>
      </trkpt>
      <trkpt lat="45.35278" lon="3.51077">
        <ele>833.12</ele>
        <time>2022-09-09T08:03:57Z</time>
      </trkpt>
      <trkpt lat="45.35273" lon="3.51078">
        <ele>832.16</ele>
        <time>2022-09-09T08:03:58Z</time>
      </trkpt>
      <trkpt lat="45.35257" lon="3.51079">
        <ele>829.27</ele>
        <time>2022-09-09T08:04:03Z</time>
      </trkpt>
      <trkpt lat="45.35253" lon="3.5108">
        <ele>828.79</ele>
        <time>2022-09-09T08:04:08Z</time>
      </trkpt>
      <trkpt lat="45.35239" lon="3.51088">
        <ele>825.43</ele>
        <time>2022-09-09T08:04:14Z</time>
      </trkpt>
      <trkpt lat="45.35226" lon="3.51096">
        <ele>822.06</ele>
        <time>2022-09-09T08:04:19Z</time>
      </trkpt>
      <trkpt lat="45.35222" lon="3.51098">
        <ele>821.1</ele>
        <time>2022-09-09T08:04:20Z</time>
      </trkpt>
      <trkpt lat="45.35219" lon="3.51099">
        <ele>820.62</ele>
        <time>2022-09-09T08:04:21Z</time>
      </trkpt>
      <trkpt lat="45.35215" lon="3.51102">
        <ele>820.14</ele>
        <time>2022-09-09T08:04:22Z</time>
      </trkpt>
      <trkpt lat="45.35212" lon="3.51105">
        <ele>819.66</ele>
        <time>2022-09-09T08:04:23Z</time>
      </trkpt>
      <trkpt lat="45.35208" lon="3.51106">
        <ele>819.66</ele>
        <time>2022-09-09T08:04:24Z</time>
      </trkpt>
      <trkpt lat="45.35205" lon="3.51105">
        <ele>819.18</ele>
        <time>2022-09-09T08:04:25Z</time>
      </trkpt>
      <trkpt lat="45.35202" lon="3.51104">
        <ele>819.18</ele>
        <time>2022-09-09T08:04:26Z</time>
      </trkpt>
      <trkpt lat="45.35184" lon="3.51091">
        <ele>820.14</ele>
        <time>2022-09-09T08:04:32Z</time>
      </trkpt>
      <trkpt lat="45.35165" lon="3.51077">
        <ele>822.55</ele>
        <time>2022-09-09T08:04:38Z</time>
      </trkpt>
      <trkpt lat="45.35146" lon="3.51061">
        <ele>824.47</ele>
        <time>2022-09-09T08:04:44Z</time>
      </trkpt>
      <trkpt lat="45.3512" lon="3.51053">
        <ele>824.47</ele>
        <time>2022-09-09T08:04:50Z</time>
      </trkpt>
      <trkpt lat="45.35102" lon="3.51047">
        <ele>825.43</ele>
        <time>2022-09-09T08:04:55Z</time>
      </trkpt>
      <trkpt lat="45.35076" lon="3.51047">
        <ele>827.35</ele>
        <time>2022-09-09T08:05:02Z</time>
      </trkpt>
      <trkpt lat="45.35057" lon="3.51052">
        <ele>827.83</ele>
        <time>2022-09-09T08:05:08Z</time>
      </trkpt>
      <trkpt lat="45.35039" lon="3.51065">
        <ele>827.83</ele>
        <time>2022-09-09T08:05:14Z</time>
      </trkpt>
      <trkpt lat="45.35036" lon="3.51069">
        <ele>827.83</ele>
        <time>2022-09-09T08:05:15Z</time>
      </trkpt>
      <trkpt lat="45.35033" lon="3.51074">
        <ele>827.83</ele>
        <time>2022-09-09T08:05:16Z</time>
      </trkpt>
      <trkpt lat="45.35022" lon="3.51109">
        <ele>827.35</ele>
        <time>2022-09-09T08:05:23Z</time>
      </trkpt>
      <trkpt lat="45.35021" lon="3.51113">
        <ele>827.35</ele>
        <time>2022-09-09T08:05:24Z</time>
      </trkpt>
      <trkpt lat="45.35009" lon="3.51122">
        <ele>827.83</ele>
        <time>2022-09-09T08:05:29Z</time>
      </trkpt>
      <trkpt lat="45.34999" lon="3.51115">
        <ele>829.76</ele>
        <time>2022-09-09T08:05:34Z</time>
      </trkpt>
      <trkpt lat="45.34988" lon="3.51098">
        <ele>832.64</ele>
        <time>2022-09-09T08:05:41Z</time>
      </trkpt>
      <trkpt lat="45.34977" lon="3.51082">
        <ele>835.52</ele>
        <time>2022-09-09T08:05:47Z</time>
      </trkpt>
      <trkpt lat="45.34977" lon="3.51083">
        <ele>836</ele>
        <time>2022-09-09T08:05:51Z</time>
      </trkpt>
      <trkpt lat="45.34976" lon="3.51084">
        <ele>835.52</ele>
        <time>2022-09-09T08:05:58Z</time>
      </trkpt>
      <trkpt lat="45.34974" lon="3.51086">
        <ele>835.52</ele>
        <time>2022-09-09T08:06:06Z</time>
      </trkpt>
      <trkpt lat="45.34978" lon="3.51086">
        <ele>835.04</ele>
        <time>2022-09-09T08:06:10Z</time>
      </trkpt>
      <trkpt lat="45.34978" lon="3.51085">
        <ele>835.04</ele>
        <time>2022-09-09T08:06:15Z</time>
      </trkpt>
      <trkpt lat="45.34977" lon="3.51083">
        <ele>835.52</ele>
        <time>2022-09-09T08:06:17Z</time>
      </trkpt>
      <trkpt lat="45.34975" lon="3.51082">
        <ele>836</ele>
        <time>2022-09-09T08:06:24Z</time>
      </trkpt>
      <trkpt lat="45.34974" lon="3.51082">
        <ele>836</ele>
        <time>2022-09-09T08:06:25Z</time>
      </trkpt>
      <trkpt lat="45.34972" lon="3.51082">
        <ele>836.48</ele>
        <time>2022-09-09T08:06:26Z</time>
      </trkpt>
      <trkpt lat="45.3497" lon="3.51081">
        <ele>836.48</ele>
        <time>2022-09-09T08:06:27Z</time>
      </trkpt>
      <trkpt lat="45.34954" lon="3.51067">
        <ele>838.89</ele>
        <time>2022-09-09T08:06:35Z</time>
      </trkpt>
      <trkpt lat="45.34945" lon="3.51058">
        <ele>840.81</ele>
        <time>2022-09-09T08:06:39Z</time>
      </trkpt>
      <trkpt lat="45.34926" lon="3.51037">
        <ele>844.18</ele>
        <time>2022-09-09T08:06:47Z</time>
      </trkpt>
      <trkpt lat="45.34922" lon="3.5103">
        <ele>845.14</ele>
        <time>2022-09-09T08:06:49Z</time>
      </trkpt>
      <trkpt lat="45.34912" lon="3.51015">
        <ele>847.54</ele>
        <time>2022-09-09T08:06:55Z</time>
      </trkpt>
      <trkpt lat="45.349" lon="3.50994">
        <ele>849.94</ele>
        <time>2022-09-09T08:07:02Z</time>
      </trkpt>
      <trkpt lat="45.34886" lon="3.50977">
        <ele>852.35</ele>
        <time>2022-09-09T08:07:09Z</time>
      </trkpt>
      <trkpt lat="45.34875" lon="3.50969">
        <ele>853.79</ele>
        <time>2022-09-09T08:07:13Z</time>
      </trkpt>
      <trkpt lat="45.34853" lon="3.50955">
        <ele>856.67</ele>
        <time>2022-09-09T08:07:21Z</time>
      </trkpt>
      <trkpt lat="45.34833" lon="3.50953">
        <ele>858.59</ele>
        <time>2022-09-09T08:07:28Z</time>
      </trkpt>
      <trkpt lat="45.34808" lon="3.50955">
        <ele>860.04</ele>
        <time>2022-09-09T08:07:35Z</time>
      </trkpt>
      <trkpt lat="45.34792" lon="3.50958">
        <ele>860.04</ele>
        <time>2022-09-09T08:07:39Z</time>
      </trkpt>
      <trkpt lat="45.34788" lon="3.5096">
        <ele>859.56</ele>
        <time>2022-09-09T08:07:40Z</time>
      </trkpt>
      <trkpt lat="45.34783" lon="3.50963">
        <ele>858.59</ele>
        <time>2022-09-09T08:07:41Z</time>
      </trkpt>
      <trkpt lat="45.34761" lon="3.50976">
        <ele>855.23</ele>
        <time>2022-09-09T08:07:46Z</time>
      </trkpt>
      <trkpt lat="45.34743" lon="3.50983">
        <ele>851.38</ele>
        <time>2022-09-09T08:07:49Z</time>
      </trkpt>
      <trkpt lat="45.34736" lon="3.50985">
        <ele>851.38</ele>
        <time>2022-09-09T08:07:50Z</time>
      </trkpt>
      <trkpt lat="45.34729" lon="3.50984">
        <ele>849.94</ele>
        <time>2022-09-09T08:07:51Z</time>
      </trkpt>
      <trkpt lat="45.34721" lon="3.50981">
        <ele>849.46</ele>
        <time>2022-09-09T08:07:52Z</time>
      </trkpt>
      <trkpt lat="45.34714" lon="3.50976">
        <ele>848.98</ele>
        <time>2022-09-09T08:07:53Z</time>
      </trkpt>
      <trkpt lat="45.34708" lon="3.5097">
        <ele>849.46</ele>
        <time>2022-09-09T08:07:54Z</time>
      </trkpt>
      <trkpt lat="45.34703" lon="3.50965">
        <ele>849.46</ele>
        <time>2022-09-09T08:07:55Z</time>
      </trkpt>
      <trkpt lat="45.347" lon="3.5096">
        <ele>849.46</ele>
        <time>2022-09-09T08:07:56Z</time>
      </trkpt>
      <trkpt lat="45.34697" lon="3.50957">
        <ele>849.94</ele>
        <time>2022-09-09T08:07:57Z</time>
      </trkpt>
      <trkpt lat="45.34693" lon="3.5095">
        <ele>850.9</ele>
        <time>2022-09-09T08:07:59Z</time>
      </trkpt>
      <trkpt lat="45.34686" lon="3.50936">
        <ele>853.31</ele>
        <time>2022-09-09T08:08:03Z</time>
      </trkpt>
      <trkpt lat="45.34671" lon="3.50923">
        <ele>856.19</ele>
        <time>2022-09-09T08:08:10Z</time>
      </trkpt>
      <trkpt lat="45.34655" lon="3.50912">
        <ele>857.15</ele>
        <time>2022-09-09T08:08:17Z</time>
      </trkpt>
      <trkpt lat="45.34638" lon="3.50906">
        <ele>859.08</ele>
        <time>2022-09-09T08:08:24Z</time>
      </trkpt>
      <trkpt lat="45.34617" lon="3.50901">
        <ele>861</ele>
        <time>2022-09-09T08:08:32Z</time>
      </trkpt>
      <trkpt lat="45.34594" lon="3.50904">
        <ele>861.96</ele>
        <time>2022-09-09T08:08:39Z</time>
      </trkpt>
      <trkpt lat="45.34565" lon="3.50912">
        <ele>861</ele>
        <time>2022-09-09T08:08:46Z</time>
      </trkpt>
      <trkpt lat="45.3455" lon="3.50902">
        <ele>860.52</ele>
        <time>2022-09-09T08:08:50Z</time>
      </trkpt>
      <trkpt lat="45.34534" lon="3.50877">
        <ele>861.48</ele>
        <time>2022-09-09T08:08:56Z</time>
      </trkpt>
      <trkpt lat="45.34518" lon="3.50849">
        <ele>862.92</ele>
        <time>2022-09-09T08:09:04Z</time>
      </trkpt>
      <trkpt lat="45.34499" lon="3.50826">
        <ele>864.84</ele>
        <time>2022-09-09T08:09:11Z</time>
      </trkpt>
      <trkpt lat="45.34479" lon="3.508">
        <ele>868.21</ele>
        <time>2022-09-09T08:09:18Z</time>
      </trkpt>
      <trkpt lat="45.34467" lon="3.50788">
        <ele>870.13</ele>
        <time>2022-09-09T08:09:22Z</time>
      </trkpt>
      <trkpt lat="45.34444" lon="3.50779">
        <ele>872.53</ele>
        <time>2022-09-09T08:09:30Z</time>
      </trkpt>
      <trkpt lat="45.34416" lon="3.50773">
        <ele>875.9</ele>
        <time>2022-09-09T08:09:39Z</time>
      </trkpt>
      <trkpt lat="45.3439" lon="3.50769">
        <ele>879.26</ele>
        <time>2022-09-09T08:09:47Z</time>
      </trkpt>
      <trkpt lat="45.34364" lon="3.50766">
        <ele>880.71</ele>
        <time>2022-09-09T08:09:55Z</time>
      </trkpt>
      <trkpt lat="45.34343" lon="3.50767">
        <ele>881.67</ele>
        <time>2022-09-09T08:10:02Z</time>
      </trkpt>
      <trkpt lat="45.3433" lon="3.50782">
        <ele>883.11</ele>
        <time>2022-09-09T08:10:09Z</time>
      </trkpt>
      <trkpt lat="45.34328" lon="3.50782">
        <ele>883.59</ele>
        <time>2022-09-09T08:10:10Z</time>
      </trkpt>
      <trkpt lat="45.34325" lon="3.50782">
        <ele>883.59</ele>
        <time>2022-09-09T08:10:11Z</time>
      </trkpt>
      <trkpt lat="45.34317" lon="3.5078">
        <ele>882.63</ele>
        <time>2022-09-09T08:10:13Z</time>
      </trkpt>
      <trkpt lat="45.34313" lon="3.5078">
        <ele>882.63</ele>
        <time>2022-09-09T08:10:14Z</time>
      </trkpt>
      <trkpt lat="45.34263" lon="3.5079">
        <ele>880.22</ele>
        <time>2022-09-09T08:10:25Z</time>
      </trkpt>
      <trkpt lat="45.34225" lon="3.50797">
        <ele>879.74</ele>
        <time>2022-09-09T08:10:34Z</time>
      </trkpt>
      <trkpt lat="45.34184" lon="3.508">
        <ele>879.26</ele>
        <time>2022-09-09T08:10:43Z</time>
      </trkpt>
      <trkpt lat="45.34174" lon="3.508">
        <ele>879.26</ele>
        <time>2022-09-09T08:10:45Z</time>
      </trkpt>
      <trkpt lat="45.34169" lon="3.508">
        <ele>878.78</ele>
        <time>2022-09-09T08:10:46Z</time>
      </trkpt>
      <trkpt lat="45.34164" lon="3.50799">
        <ele>878.3</ele>
        <time>2022-09-09T08:10:47Z</time>
      </trkpt>
      <trkpt lat="45.34114" lon="3.50801">
        <ele>875.9</ele>
        <time>2022-09-09T08:10:56Z</time>
      </trkpt>
      <trkpt lat="45.34091" lon="3.50807">
        <ele>874.94</ele>
        <time>2022-09-09T08:11:00Z</time>
      </trkpt>
      <trkpt lat="45.34086" lon="3.50807">
        <ele>873.98</ele>
        <time>2022-09-09T08:11:01Z</time>
      </trkpt>
      <trkpt lat="45.34083" lon="3.50806">
        <ele>873.5</ele>
        <time>2022-09-09T08:11:02Z</time>
      </trkpt>
      <trkpt lat="45.34081" lon="3.50805">
        <ele>873.5</ele>
        <time>2022-09-09T08:11:03Z</time>
      </trkpt>
      <trkpt lat="45.34079" lon="3.50804">
        <ele>873.5</ele>
        <time>2022-09-09T08:11:04Z</time>
      </trkpt>
      <trkpt lat="45.34074" lon="3.50799">
        <ele>873.01</ele>
        <time>2022-09-09T08:11:11Z</time>
      </trkpt>
      <trkpt lat="45.34074" lon="3.50798">
        <ele>872.53</ele>
        <time>2022-09-09T08:11:22Z</time>
      </trkpt>
      <trkpt lat="45.34073" lon="3.50798">
        <ele>872.53</ele>
        <time>2022-09-09T08:11:38Z</time>
      </trkpt>
      <trkpt lat="45.34072" lon="3.50797">
        <ele>872.05</ele>
        <time>2022-09-09T08:11:45Z</time>
      </trkpt>
      <trkpt lat="45.34072" lon="3.508">
        <ele>872.53</ele>
        <time>2022-09-09T08:11:56Z</time>
      </trkpt>
      <trkpt lat="45.34072" lon="3.50801">
        <ele>871.57</ele>
        <time>2022-09-09T08:12:08Z</time>
      </trkpt>
      <trkpt lat="45.34072" lon="3.50799">
        <ele>871.57</ele>
        <time>2022-09-09T08:12:23Z</time>
      </trkpt>
      <trkpt lat="45.34071" lon="3.50798">
        <ele>871.09</ele>
        <time>2022-09-09T08:13:47Z</time>
      </trkpt>
      <trkpt lat="45.3407" lon="3.50797">
        <ele>871.09</ele>
        <time>2022-09-09T08:14:08Z</time>
      </trkpt>
      <trkpt lat="45.3407" lon="3.50796">
        <ele>871.09</ele>
        <time>2022-09-09T08:14:21Z</time>
      </trkpt>
      <trkpt lat="45.34071" lon="3.50797">
        <ele>870.61</ele>
        <time>2022-09-09T08:15:08Z</time>
      </trkpt>
      <trkpt lat="45.34071" lon="3.50798">
        <ele>871.09</ele>
        <time>2022-09-09T08:15:36Z</time>
      </trkpt>
      <trkpt lat="45.34072" lon="3.50798">
        <ele>870.61</ele>
        <time>2022-09-09T08:15:52Z</time>
      </trkpt>
      <trkpt lat="45.34072" lon="3.50799">
        <ele>870.61</ele>
        <time>2022-09-09T08:16:09Z</time>
      </trkpt>
      <trkpt lat="45.34072" lon="3.50798">
        <ele>870.61</ele>
        <time>2022-09-09T08:16:25Z</time>
      </trkpt>
      <trkpt lat="45.34071" lon="3.50798">
        <ele>870.13</ele>
        <time>2022-09-09T08:16:39Z</time>
      </trkpt>
      <trkpt lat="45.34071" lon="3.50797">
        <ele>870.13</ele>
        <time>2022-09-09T08:16:58Z</time>
      </trkpt>
      <trkpt lat="45.34072" lon="3.50797">
        <ele>870.61</ele>
        <time>2022-09-09T08:17:11Z</time>
      </trkpt>
      <trkpt lat="45.34074" lon="3.50798">
        <ele>871.09</ele>
        <time>2022-09-09T08:17:18Z</time>
      </trkpt>
      <trkpt lat="45.34075" lon="3.50797">
        <ele>871.09</ele>
        <time>2022-09-09T08:17:31Z</time>
      </trkpt>
      <trkpt lat="45.34074" lon="3.50797">
        <ele>870.61</ele>
        <time>2022-09-09T08:17:43Z</time>
      </trkpt>
      <trkpt lat="45.34075" lon="3.50797">
        <ele>870.61</ele>
        <time>2022-09-09T08:17:51Z</time>
      </trkpt>
      <trkpt lat="45.34074" lon="3.50798">
        <ele>871.09</ele>
        <time>2022-09-09T08:18:03Z</time>
      </trkpt>
      <trkpt lat="45.34074" lon="3.50797">
        <ele>870.61</ele>
        <time>2022-09-09T08:18:04Z</time>
      </trkpt>
      <trkpt lat="45.34075" lon="3.50796">
        <ele>870.61</ele>
        <time>2022-09-09T08:18:06Z</time>
      </trkpt>
      <trkpt lat="45.34076" lon="3.50796">
        <ele>870.61</ele>
        <time>2022-09-09T08:18:12Z</time>
      </trkpt>
      <trkpt lat="45.34077" lon="3.50797">
        <ele>870.61</ele>
        <time>2022-09-09T08:18:23Z</time>
      </trkpt>
      <trkpt lat="45.34078" lon="3.50799">
        <ele>870.61</ele>
        <time>2022-09-09T08:18:25Z</time>
      </trkpt>
      <trkpt lat="45.34078" lon="3.50801">
        <ele>870.61</ele>
        <time>2022-09-09T08:18:26Z</time>
      </trkpt>
      <trkpt lat="45.34078" lon="3.50802">
        <ele>870.61</ele>
        <time>2022-09-09T08:18:27Z</time>
      </trkpt>
      <trkpt lat="45.34077" lon="3.50805">
        <ele>870.61</ele>
        <time>2022-09-09T08:18:28Z</time>
      </trkpt>
      <trkpt lat="45.34076" lon="3.50807">
        <ele>870.61</ele>
        <time>2022-09-09T08:18:29Z</time>
      </trkpt>
      <trkpt lat="45.34074" lon="3.50808">
        <ele>870.13</ele>
        <time>2022-09-09T08:18:30Z</time>
      </trkpt>
      <trkpt lat="45.34071" lon="3.50809">
        <ele>870.13</ele>
        <time>2022-09-09T08:18:31Z</time>
      </trkpt>
      <trkpt lat="45.34069" lon="3.50809">
        <ele>869.65</ele>
        <time>2022-09-09T08:18:32Z</time>
      </trkpt>
      <trkpt lat="45.34067" lon="3.50808">
        <ele>868.69</ele>
        <time>2022-09-09T08:18:33Z</time>
      </trkpt>
      <trkpt lat="45.34064" lon="3.50807">
        <ele>867.25</ele>
        <time>2022-09-09T08:18:34Z</time>
      </trkpt>
      <trkpt lat="45.34062" lon="3.50806">
        <ele>866.77</ele>
        <time>2022-09-09T08:18:35Z</time>
      </trkpt>
      <trkpt lat="45.34059" lon="3.50803">
        <ele>865.8</ele>
        <time>2022-09-09T08:18:36Z</time>
      </trkpt>
      <trkpt lat="45.34056" lon="3.508">
        <ele>864.84</ele>
        <time>2022-09-09T08:18:37Z</time>
      </trkpt>
      <trkpt lat="45.34054" lon="3.50796">
        <ele>863.88</ele>
        <time>2022-09-09T08:18:38Z</time>
      </trkpt>
      <trkpt lat="45.34045" lon="3.50784">
        <ele>860.52</ele>
        <time>2022-09-09T08:18:41Z</time>
      </trkpt>
      <trkpt lat="45.34036" lon="3.5077">
        <ele>857.15</ele>
        <time>2022-09-09T08:18:44Z</time>
      </trkpt>
      <trkpt lat="45.34017" lon="3.50752">
        <ele>853.79</ele>
        <time>2022-09-09T08:18:50Z</time>
      </trkpt>
      <trkpt lat="45.34012" lon="3.5075">
        <ele>852.83</ele>
        <time>2022-09-09T08:18:51Z</time>
      </trkpt>
      <trkpt lat="45.34006" lon="3.50747">
        <ele>853.31</ele>
        <time>2022-09-09T08:18:52Z</time>
      </trkpt>
      <trkpt lat="45.33976" lon="3.50733">
        <ele>851.87</ele>
        <time>2022-09-09T08:18:57Z</time>
      </trkpt>
      <trkpt lat="45.33965" lon="3.5073">
        <ele>852.35</ele>
        <time>2022-09-09T08:19:01Z</time>
      </trkpt>
      <trkpt lat="45.33951" lon="3.50725">
        <ele>854.27</ele>
        <time>2022-09-09T08:19:07Z</time>
      </trkpt>
      <trkpt lat="45.33936" lon="3.50719">
        <ele>857.63</ele>
        <time>2022-09-09T08:19:13Z</time>
      </trkpt>
      <trkpt lat="45.33923" lon="3.50708">
        <ele>861</ele>
        <time>2022-09-09T08:19:18Z</time>
      </trkpt>
      <trkpt lat="45.33913" lon="3.50699">
        <ele>862.44</ele>
        <time>2022-09-09T08:19:21Z</time>
      </trkpt>
      <trkpt lat="45.3389" lon="3.50682">
        <ele>865.32</ele>
        <time>2022-09-09T08:19:28Z</time>
      </trkpt>
      <trkpt lat="45.33875" lon="3.50675">
        <ele>866.29</ele>
        <time>2022-09-09T08:19:34Z</time>
      </trkpt>
      <trkpt lat="45.33846" lon="3.50679">
        <ele>865.8</ele>
        <time>2022-09-09T08:19:42Z</time>
      </trkpt>
      <trkpt lat="45.33801" lon="3.50694">
        <ele>864.36</ele>
        <time>2022-09-09T08:19:52Z</time>
      </trkpt>
      <trkpt lat="45.33797" lon="3.50694">
        <ele>864.36</ele>
        <time>2022-09-09T08:19:53Z</time>
      </trkpt>
      <trkpt lat="45.33793" lon="3.50693">
        <ele>864.84</ele>
        <time>2022-09-09T08:19:54Z</time>
      </trkpt>
      <trkpt lat="45.33791" lon="3.5069">
        <ele>864.36</ele>
        <time>2022-09-09T08:19:55Z</time>
      </trkpt>
      <trkpt lat="45.33789" lon="3.50685">
        <ele>864.84</ele>
        <time>2022-09-09T08:19:56Z</time>
      </trkpt>
      <trkpt lat="45.33789" lon="3.5068">
        <ele>864.84</ele>
        <time>2022-09-09T08:19:57Z</time>
      </trkpt>
      <trkpt lat="45.33789" lon="3.50674">
        <ele>864.84</ele>
        <time>2022-09-09T08:19:58Z</time>
      </trkpt>
      <trkpt lat="45.3379" lon="3.50668">
        <ele>865.32</ele>
        <time>2022-09-09T08:19:59Z</time>
      </trkpt>
      <trkpt lat="45.33791" lon="3.50661">
        <ele>865.32</ele>
        <time>2022-09-09T08:20:00Z</time>
      </trkpt>
      <trkpt lat="45.33791" lon="3.50655">
        <ele>865.32</ele>
        <time>2022-09-09T08:20:01Z</time>
      </trkpt>
      <trkpt lat="45.33792" lon="3.50643">
        <ele>866.29</ele>
        <time>2022-09-09T08:20:03Z</time>
      </trkpt>
      <trkpt lat="45.33793" lon="3.50616">
        <ele>868.21</ele>
        <time>2022-09-09T08:20:07Z</time>
      </trkpt>
      <trkpt lat="45.33793" lon="3.50608">
        <ele>868.69</ele>
        <time>2022-09-09T08:20:08Z</time>
      </trkpt>
      <trkpt lat="45.33793" lon="3.50602">
        <ele>869.65</ele>
        <time>2022-09-09T08:20:09Z</time>
      </trkpt>
      <trkpt lat="45.33792" lon="3.5059">
        <ele>870.61</ele>
        <time>2022-09-09T08:20:11Z</time>
      </trkpt>
      <trkpt lat="45.33791" lon="3.50561">
        <ele>872.53</ele>
        <time>2022-09-09T08:20:16Z</time>
      </trkpt>
      <trkpt lat="45.3379" lon="3.50547">
        <ele>872.53</ele>
        <time>2022-09-09T08:20:18Z</time>
      </trkpt>
      <trkpt lat="45.33792" lon="3.50499">
        <ele>871.57</ele>
        <time>2022-09-09T08:20:24Z</time>
      </trkpt>
      <trkpt lat="45.33797" lon="3.50452">
        <ele>870.61</ele>
        <time>2022-09-09T08:20:30Z</time>
      </trkpt>
      <trkpt lat="45.33796" lon="3.50444">
        <ele>870.61</ele>
        <time>2022-09-09T08:20:31Z</time>
      </trkpt>
      <trkpt lat="45.33795" lon="3.50437">
        <ele>870.61</ele>
        <time>2022-09-09T08:20:32Z</time>
      </trkpt>
      <trkpt lat="45.33793" lon="3.50429">
        <ele>870.13</ele>
        <time>2022-09-09T08:20:33Z</time>
      </trkpt>
      <trkpt lat="45.3379" lon="3.50421">
        <ele>869.65</ele>
        <time>2022-09-09T08:20:34Z</time>
      </trkpt>
      <trkpt lat="45.33787" lon="3.50412">
        <ele>870.13</ele>
        <time>2022-09-09T08:20:35Z</time>
      </trkpt>
      <trkpt lat="45.33755" lon="3.50335">
        <ele>867.73</ele>
        <time>2022-09-09T08:20:44Z</time>
      </trkpt>
      <trkpt lat="45.33725" lon="3.50277">
        <ele>864.84</ele>
        <time>2022-09-09T08:20:51Z</time>
      </trkpt>
      <trkpt lat="45.33698" lon="3.50228">
        <ele>862.44</ele>
        <time>2022-09-09T08:20:57Z</time>
      </trkpt>
      <trkpt lat="45.33695" lon="3.5022">
        <ele>861.96</ele>
        <time>2022-09-09T08:20:58Z</time>
      </trkpt>
      <trkpt lat="45.33694" lon="3.50212">
        <ele>861</ele>
        <time>2022-09-09T08:20:59Z</time>
      </trkpt>
      <trkpt lat="45.33695" lon="3.50205">
        <ele>861</ele>
        <time>2022-09-09T08:21:00Z</time>
      </trkpt>
      <trkpt lat="45.33696" lon="3.50198">
        <ele>861.48</ele>
        <time>2022-09-09T08:21:01Z</time>
      </trkpt>
      <trkpt lat="45.33699" lon="3.5019">
        <ele>861.96</ele>
        <time>2022-09-09T08:21:02Z</time>
      </trkpt>
      <trkpt lat="45.33708" lon="3.50158">
        <ele>862.44</ele>
        <time>2022-09-09T08:21:06Z</time>
      </trkpt>
      <trkpt lat="45.33708" lon="3.5015">
        <ele>861.96</ele>
        <time>2022-09-09T08:21:07Z</time>
      </trkpt>
      <trkpt lat="45.33706" lon="3.50142">
        <ele>862.44</ele>
        <time>2022-09-09T08:21:08Z</time>
      </trkpt>
      <trkpt lat="45.33702" lon="3.50136">
        <ele>861.96</ele>
        <time>2022-09-09T08:21:09Z</time>
      </trkpt>
      <trkpt lat="45.33697" lon="3.50131">
        <ele>861.96</ele>
        <time>2022-09-09T08:21:10Z</time>
      </trkpt>
      <trkpt lat="45.33692" lon="3.50127">
        <ele>861.96</ele>
        <time>2022-09-09T08:21:11Z</time>
      </trkpt>
      <trkpt lat="45.33665" lon="3.50112">
        <ele>862.44</ele>
        <time>2022-09-09T08:21:16Z</time>
      </trkpt>
      <trkpt lat="45.3366" lon="3.50111">
        <ele>862.92</ele>
        <time>2022-09-09T08:21:17Z</time>
      </trkpt>
      <trkpt lat="45.33654" lon="3.50112">
        <ele>863.4</ele>
        <time>2022-09-09T08:21:18Z</time>
      </trkpt>
      <trkpt lat="45.336" lon="3.50129">
        <ele>864.36</ele>
        <time>2022-09-09T08:21:28Z</time>
      </trkpt>
      <trkpt lat="45.33573" lon="3.50136">
        <ele>864.36</ele>
        <time>2022-09-09T08:21:33Z</time>
      </trkpt>
      <trkpt lat="45.33567" lon="3.50136">
        <ele>864.36</ele>
        <time>2022-09-09T08:21:34Z</time>
      </trkpt>
      <trkpt lat="45.3355" lon="3.50132">
        <ele>864.84</ele>
        <time>2022-09-09T08:21:37Z</time>
      </trkpt>
      <trkpt lat="45.33545" lon="3.50129">
        <ele>864.84</ele>
        <time>2022-09-09T08:21:38Z</time>
      </trkpt>
      <trkpt lat="45.3354" lon="3.50125">
        <ele>865.32</ele>
        <time>2022-09-09T08:21:39Z</time>
      </trkpt>
      <trkpt lat="45.33535" lon="3.5012">
        <ele>865.32</ele>
        <time>2022-09-09T08:21:40Z</time>
      </trkpt>
      <trkpt lat="45.3353" lon="3.50115">
        <ele>865.8</ele>
        <time>2022-09-09T08:21:41Z</time>
      </trkpt>
      <trkpt lat="45.33494" lon="3.50067">
        <ele>864.84</ele>
        <time>2022-09-09T08:21:49Z</time>
      </trkpt>
      <trkpt lat="45.33463" lon="3.50013">
        <ele>864.84</ele>
        <time>2022-09-09T08:21:57Z</time>
      </trkpt>
      <trkpt lat="45.33451" lon="3.49995">
        <ele>864.36</ele>
        <time>2022-09-09T08:22:00Z</time>
      </trkpt>
      <trkpt lat="45.33404" lon="3.49954">
        <ele>864.84</ele>
        <time>2022-09-09T08:22:09Z</time>
      </trkpt>
      <trkpt lat="45.33351" lon="3.49927">
        <ele>863.88</ele>
        <time>2022-09-09T08:22:18Z</time>
      </trkpt>
      <trkpt lat="45.33345" lon="3.49925">
        <ele>863.88</ele>
        <time>2022-09-09T08:22:19Z</time>
      </trkpt>
      <trkpt lat="45.33339" lon="3.49925">
        <ele>862.92</ele>
        <time>2022-09-09T08:22:20Z</time>
      </trkpt>
      <trkpt lat="45.33334" lon="3.49928">
        <ele>862.92</ele>
        <time>2022-09-09T08:22:21Z</time>
      </trkpt>
      <trkpt lat="45.33332" lon="3.49934">
        <ele>862.44</ele>
        <time>2022-09-09T08:22:22Z</time>
      </trkpt>
      <trkpt lat="45.33332" lon="3.49941">
        <ele>862.44</ele>
        <time>2022-09-09T08:22:23Z</time>
      </trkpt>
      <trkpt lat="45.33334" lon="3.49949">
        <ele>862.44</ele>
        <time>2022-09-09T08:22:24Z</time>
      </trkpt>
      <trkpt lat="45.33336" lon="3.49957">
        <ele>862.92</ele>
        <time>2022-09-09T08:22:25Z</time>
      </trkpt>
      <trkpt lat="45.33338" lon="3.49965">
        <ele>862.44</ele>
        <time>2022-09-09T08:22:26Z</time>
      </trkpt>
      <trkpt lat="45.33346" lon="3.5">
        <ele>861</ele>
        <time>2022-09-09T08:22:30Z</time>
      </trkpt>
      <trkpt lat="45.33351" lon="3.5003">
        <ele>859.08</ele>
        <time>2022-09-09T08:22:33Z</time>
      </trkpt>
      <trkpt lat="45.33351" lon="3.5004">
        <ele>859.08</ele>
        <time>2022-09-09T08:22:34Z</time>
      </trkpt>
      <trkpt lat="45.33348" lon="3.50048">
        <ele>858.11</ele>
        <time>2022-09-09T08:22:35Z</time>
      </trkpt>
      <trkpt lat="45.33343" lon="3.50054">
        <ele>857.63</ele>
        <time>2022-09-09T08:22:36Z</time>
      </trkpt>
      <trkpt lat="45.33337" lon="3.50058">
        <ele>857.15</ele>
        <time>2022-09-09T08:22:37Z</time>
      </trkpt>
      <trkpt lat="45.3333" lon="3.50058">
        <ele>856.67</ele>
        <time>2022-09-09T08:22:38Z</time>
      </trkpt>
      <trkpt lat="45.33323" lon="3.50056">
        <ele>856.67</ele>
        <time>2022-09-09T08:22:39Z</time>
      </trkpt>
      <trkpt lat="45.33316" lon="3.50051">
        <ele>855.71</ele>
        <time>2022-09-09T08:22:40Z</time>
      </trkpt>
      <trkpt lat="45.33309" lon="3.50044">
        <ele>854.75</ele>
        <time>2022-09-09T08:22:41Z</time>
      </trkpt>
      <trkpt lat="45.33279" lon="3.50016">
        <ele>852.35</ele>
        <time>2022-09-09T08:22:45Z</time>
      </trkpt>
      <trkpt lat="45.33241" lon="3.49989">
        <ele>848.5</ele>
        <time>2022-09-09T08:22:50Z</time>
      </trkpt>
      <trkpt lat="45.3322" lon="3.49972">
        <ele>846.58</ele>
        <time>2022-09-09T08:22:54Z</time>
      </trkpt>
      <trkpt lat="45.33204" lon="3.49959">
        <ele>845.62</ele>
        <time>2022-09-09T08:22:57Z</time>
      </trkpt>
      <trkpt lat="45.33167" lon="3.49923">
        <ele>844.18</ele>
        <time>2022-09-09T08:23:04Z</time>
      </trkpt>
      <trkpt lat="45.33137" lon="3.49903">
        <ele>845.14</ele>
        <time>2022-09-09T08:23:10Z</time>
      </trkpt>
      <trkpt lat="45.33133" lon="3.49899">
        <ele>845.62</ele>
        <time>2022-09-09T08:23:11Z</time>
      </trkpt>
      <trkpt lat="45.3313" lon="3.49894">
        <ele>845.62</ele>
        <time>2022-09-09T08:23:12Z</time>
      </trkpt>
      <trkpt lat="45.33128" lon="3.49888">
        <ele>845.14</ele>
        <time>2022-09-09T08:23:13Z</time>
      </trkpt>
      <trkpt lat="45.33125" lon="3.49882">
        <ele>845.14</ele>
        <time>2022-09-09T08:23:14Z</time>
      </trkpt>
      <trkpt lat="45.33123" lon="3.49875">
        <ele>845.14</ele>
        <time>2022-09-09T08:23:15Z</time>
      </trkpt>
      <trkpt lat="45.33122" lon="3.49869">
        <ele>844.66</ele>
        <time>2022-09-09T08:23:16Z</time>
      </trkpt>
      <trkpt lat="45.33121" lon="3.49862">
        <ele>845.14</ele>
        <time>2022-09-09T08:23:17Z</time>
      </trkpt>
      <trkpt lat="45.3312" lon="3.49855">
        <ele>845.14</ele>
        <time>2022-09-09T08:23:18Z</time>
      </trkpt>
      <trkpt lat="45.3312" lon="3.49848">
        <ele>844.66</ele>
        <time>2022-09-09T08:23:19Z</time>
      </trkpt>
      <trkpt lat="45.3312" lon="3.49795">
        <ele>842.73</ele>
        <time>2022-09-09T08:23:25Z</time>
      </trkpt>
      <trkpt lat="45.33119" lon="3.49774">
        <ele>842.73</ele>
        <time>2022-09-09T08:23:27Z</time>
      </trkpt>
      <trkpt lat="45.33117" lon="3.49764">
        <ele>842.25</ele>
        <time>2022-09-09T08:23:28Z</time>
      </trkpt>
      <trkpt lat="45.33114" lon="3.49755">
        <ele>842.25</ele>
        <time>2022-09-09T08:23:29Z</time>
      </trkpt>
      <trkpt lat="45.3311" lon="3.49747">
        <ele>842.25</ele>
        <time>2022-09-09T08:23:30Z</time>
      </trkpt>
      <trkpt lat="45.33105" lon="3.4974">
        <ele>841.77</ele>
        <time>2022-09-09T08:23:31Z</time>
      </trkpt>
      <trkpt lat="45.33099" lon="3.49734">
        <ele>841.77</ele>
        <time>2022-09-09T08:23:32Z</time>
      </trkpt>
      <trkpt lat="45.33093" lon="3.49729">
        <ele>841.77</ele>
        <time>2022-09-09T08:23:33Z</time>
      </trkpt>
      <trkpt lat="45.33087" lon="3.49724">
        <ele>841.77</ele>
        <time>2022-09-09T08:23:34Z</time>
      </trkpt>
      <trkpt lat="45.3308" lon="3.49719">
        <ele>841.77</ele>
        <time>2022-09-09T08:23:35Z</time>
      </trkpt>
      <trkpt lat="45.33073" lon="3.49715">
        <ele>842.25</ele>
        <time>2022-09-09T08:23:36Z</time>
      </trkpt>
      <trkpt lat="45.33037" lon="3.49705">
        <ele>839.85</ele>
        <time>2022-09-09T08:23:41Z</time>
      </trkpt>
      <trkpt lat="45.32994" lon="3.49702">
        <ele>836.48</ele>
        <time>2022-09-09T08:23:46Z</time>
      </trkpt>
      <trkpt lat="45.32954" lon="3.49704">
        <ele>832.64</ele>
        <time>2022-09-09T08:23:51Z</time>
      </trkpt>
      <trkpt lat="45.32936" lon="3.49705">
        <ele>830.24</ele>
        <time>2022-09-09T08:23:55Z</time>
      </trkpt>
      <trkpt lat="45.32923" lon="3.49706">
        <ele>828.79</ele>
        <time>2022-09-09T08:24:01Z</time>
      </trkpt>
      <trkpt lat="45.3291" lon="3.49706">
        <ele>827.83</ele>
        <time>2022-09-09T08:24:07Z</time>
      </trkpt>
      <trkpt lat="45.32909" lon="3.49706">
        <ele>827.35</ele>
        <time>2022-09-09T08:24:08Z</time>
      </trkpt>
      <trkpt lat="45.32909" lon="3.49709">
        <ele>826.87</ele>
        <time>2022-09-09T08:24:11Z</time>
      </trkpt>
      <trkpt lat="45.32911" lon="3.49708">
        <ele>827.35</ele>
        <time>2022-09-09T08:24:12Z</time>
      </trkpt>
      <trkpt lat="45.32913" lon="3.49707">
        <ele>827.83</ele>
        <time>2022-09-09T08:24:13Z</time>
      </trkpt>
      <trkpt lat="45.32916" lon="3.49707">
        <ele>827.83</ele>
        <time>2022-09-09T08:24:14Z</time>
      </trkpt>
      <trkpt lat="45.32918" lon="3.49707">
        <ele>827.83</ele>
        <time>2022-09-09T08:24:15Z</time>
      </trkpt>
      <trkpt lat="45.32938" lon="3.49705">
        <ele>829.76</ele>
        <time>2022-09-09T08:24:24Z</time>
      </trkpt>
      <trkpt lat="45.32941" lon="3.49708">
        <ele>829.76</ele>
        <time>2022-09-09T08:24:29Z</time>
      </trkpt>
      <trkpt lat="45.3294" lon="3.4971">
        <ele>830.24</ele>
        <time>2022-09-09T08:24:30Z</time>
      </trkpt>
      <trkpt lat="45.32936" lon="3.4972">
        <ele>829.76</ele>
        <time>2022-09-09T08:24:37Z</time>
      </trkpt>
      <trkpt lat="45.32936" lon="3.49721">
        <ele>829.27</ele>
        <time>2022-09-09T08:24:43Z</time>
      </trkpt>
      <trkpt lat="45.32936" lon="3.49722">
        <ele>829.27</ele>
        <time>2022-09-09T08:24:49Z</time>
      </trkpt>
      <trkpt lat="45.32937" lon="3.4972">
        <ele>829.76</ele>
        <time>2022-09-09T08:24:54Z</time>
      </trkpt>
      <trkpt lat="45.32938" lon="3.49715">
        <ele>829.76</ele>
        <time>2022-09-09T08:25:01Z</time>
      </trkpt>
      <trkpt lat="45.32939" lon="3.49714">
        <ele>829.76</ele>
        <time>2022-09-09T08:25:03Z</time>
      </trkpt>
      <trkpt lat="45.3294" lon="3.49713">
        <ele>829.76</ele>
        <time>2022-09-09T08:25:04Z</time>
      </trkpt>
      <trkpt lat="45.32941" lon="3.49711">
        <ele>829.76</ele>
        <time>2022-09-09T08:25:05Z</time>
      </trkpt>
      <trkpt lat="45.32942" lon="3.4971">
        <ele>830.24</ele>
        <time>2022-09-09T08:25:06Z</time>
      </trkpt>
      <trkpt lat="45.32942" lon="3.49708">
        <ele>829.76</ele>
        <time>2022-09-09T08:25:07Z</time>
      </trkpt>
      <trkpt lat="45.32941" lon="3.49705">
        <ele>830.24</ele>
        <time>2022-09-09T08:25:08Z</time>
      </trkpt>
      <trkpt lat="45.32938" lon="3.49704">
        <ele>829.76</ele>
        <time>2022-09-09T08:25:09Z</time>
      </trkpt>
      <trkpt lat="45.32935" lon="3.49704">
        <ele>829.76</ele>
        <time>2022-09-09T08:25:10Z</time>
      </trkpt>
      <trkpt lat="45.32931" lon="3.49704">
        <ele>830.24</ele>
        <time>2022-09-09T08:25:11Z</time>
      </trkpt>
      <trkpt lat="45.32926" lon="3.49705">
        <ele>829.76</ele>
        <time>2022-09-09T08:25:12Z</time>
      </trkpt>
      <trkpt lat="45.32904" lon="3.49708">
        <ele>828.31</ele>
        <time>2022-09-09T08:25:16Z</time>
      </trkpt>
      <trkpt lat="45.32851" lon="3.49713">
        <ele>825.43</ele>
        <time>2022-09-09T08:25:23Z</time>
      </trkpt>
      <trkpt lat="45.32817" lon="3.49716">
        <ele>822.55</ele>
        <time>2022-09-09T08:25:27Z</time>
      </trkpt>
      <trkpt lat="45.32771" lon="3.49717">
        <ele>819.18</ele>
        <time>2022-09-09T08:25:32Z</time>
      </trkpt>
      <trkpt lat="45.32752" lon="3.49716">
        <ele>818.22</ele>
        <time>2022-09-09T08:25:34Z</time>
      </trkpt>
      <trkpt lat="45.32705" lon="3.49713">
        <ele>814.85</ele>
        <time>2022-09-09T08:25:39Z</time>
      </trkpt>
      <trkpt lat="45.32697" lon="3.49709">
        <ele>813.41</ele>
        <time>2022-09-09T08:25:40Z</time>
      </trkpt>
      <trkpt lat="45.3269" lon="3.49702">
        <ele>812.93</ele>
        <time>2022-09-09T08:25:41Z</time>
      </trkpt>
      <trkpt lat="45.32685" lon="3.49692">
        <ele>812.45</ele>
        <time>2022-09-09T08:25:42Z</time>
      </trkpt>
      <trkpt lat="45.32682" lon="3.4968">
        <ele>811.49</ele>
        <time>2022-09-09T08:25:43Z</time>
      </trkpt>
      <trkpt lat="45.3268" lon="3.49668">
        <ele>811.49</ele>
        <time>2022-09-09T08:25:44Z</time>
      </trkpt>
      <trkpt lat="45.32677" lon="3.49656">
        <ele>810.53</ele>
        <time>2022-09-09T08:25:45Z</time>
      </trkpt>
      <trkpt lat="45.32672" lon="3.49645">
        <ele>809.57</ele>
        <time>2022-09-09T08:25:46Z</time>
      </trkpt>
      <trkpt lat="45.32665" lon="3.49637">
        <ele>809.09</ele>
        <time>2022-09-09T08:25:47Z</time>
      </trkpt>
      <trkpt lat="45.32656" lon="3.49632">
        <ele>808.61</ele>
        <time>2022-09-09T08:25:48Z</time>
      </trkpt>
      <trkpt lat="45.32647" lon="3.4963">
        <ele>807.64</ele>
        <time>2022-09-09T08:25:49Z</time>
      </trkpt>
      <trkpt lat="45.32637" lon="3.49628">
        <ele>807.16</ele>
        <time>2022-09-09T08:25:50Z</time>
      </trkpt>
      <trkpt lat="45.32607" lon="3.49621">
        <ele>804.28</ele>
        <time>2022-09-09T08:25:53Z</time>
      </trkpt>
      <trkpt lat="45.32599" lon="3.49616">
        <ele>802.84</ele>
        <time>2022-09-09T08:25:54Z</time>
      </trkpt>
      <trkpt lat="45.32593" lon="3.49607">
        <ele>802.36</ele>
        <time>2022-09-09T08:25:55Z</time>
      </trkpt>
      <trkpt lat="45.3259" lon="3.49596">
        <ele>801.4</ele>
        <time>2022-09-09T08:25:56Z</time>
      </trkpt>
      <trkpt lat="45.3259" lon="3.49584">
        <ele>800.92</ele>
        <time>2022-09-09T08:25:57Z</time>
      </trkpt>
      <trkpt lat="45.32591" lon="3.49572">
        <ele>800.92</ele>
        <time>2022-09-09T08:25:58Z</time>
      </trkpt>
      <trkpt lat="45.32591" lon="3.49559">
        <ele>800.44</ele>
        <time>2022-09-09T08:25:59Z</time>
      </trkpt>
      <trkpt lat="45.32588" lon="3.49548">
        <ele>799.95</ele>
        <time>2022-09-09T08:26:00Z</time>
      </trkpt>
      <trkpt lat="45.32582" lon="3.49539">
        <ele>798.99</ele>
        <time>2022-09-09T08:26:01Z</time>
      </trkpt>
      <trkpt lat="45.32574" lon="3.49531">
        <ele>798.99</ele>
        <time>2022-09-09T08:26:02Z</time>
      </trkpt>
      <trkpt lat="45.32566" lon="3.49526">
        <ele>798.51</ele>
        <time>2022-09-09T08:26:03Z</time>
      </trkpt>
      <trkpt lat="45.32557" lon="3.4952">
        <ele>798.51</ele>
        <time>2022-09-09T08:26:04Z</time>
      </trkpt>
      <trkpt lat="45.32519" lon="3.49496">
        <ele>795.15</ele>
        <time>2022-09-09T08:26:08Z</time>
      </trkpt>
      <trkpt lat="45.32498" lon="3.49489">
        <ele>793.22</ele>
        <time>2022-09-09T08:26:10Z</time>
      </trkpt>
      <trkpt lat="45.32487" lon="3.49486">
        <ele>792.26</ele>
        <time>2022-09-09T08:26:11Z</time>
      </trkpt>
      <trkpt lat="45.32478" lon="3.49481">
        <ele>790.82</ele>
        <time>2022-09-09T08:26:12Z</time>
      </trkpt>
      <trkpt lat="45.32471" lon="3.49472">
        <ele>790.34</ele>
        <time>2022-09-09T08:26:13Z</time>
      </trkpt>
      <trkpt lat="45.32467" lon="3.49461">
        <ele>789.38</ele>
        <time>2022-09-09T08:26:14Z</time>
      </trkpt>
      <trkpt lat="45.32466" lon="3.49447">
        <ele>788.9</ele>
        <time>2022-09-09T08:26:15Z</time>
      </trkpt>
      <trkpt lat="45.32467" lon="3.49434">
        <ele>788.42</ele>
        <time>2022-09-09T08:26:16Z</time>
      </trkpt>
      <trkpt lat="45.32468" lon="3.4942">
        <ele>787.46</ele>
        <time>2022-09-09T08:26:17Z</time>
      </trkpt>
      <trkpt lat="45.32471" lon="3.49407">
        <ele>786.98</ele>
        <time>2022-09-09T08:26:18Z</time>
      </trkpt>
      <trkpt lat="45.32482" lon="3.49354">
        <ele>783.13</ele>
        <time>2022-09-09T08:26:22Z</time>
      </trkpt>
      <trkpt lat="45.32491" lon="3.49298">
        <ele>780.25</ele>
        <time>2022-09-09T08:26:26Z</time>
      </trkpt>
      <trkpt lat="45.32493" lon="3.49283">
        <ele>779.77</ele>
        <time>2022-09-09T08:26:27Z</time>
      </trkpt>
      <trkpt lat="45.32501" lon="3.49224">
        <ele>777.84</ele>
        <time>2022-09-09T08:26:31Z</time>
      </trkpt>
      <trkpt lat="45.32508" lon="3.49173">
        <ele>774</ele>
        <time>2022-09-09T08:26:35Z</time>
      </trkpt>
      <trkpt lat="45.32508" lon="3.49164">
        <ele>773.04</ele>
        <time>2022-09-09T08:26:36Z</time>
      </trkpt>
      <trkpt lat="45.32508" lon="3.49156">
        <ele>772.08</ele>
        <time>2022-09-09T08:26:37Z</time>
      </trkpt>
      <trkpt lat="45.32506" lon="3.49149">
        <ele>771.11</ele>
        <time>2022-09-09T08:26:38Z</time>
      </trkpt>
      <trkpt lat="45.32504" lon="3.49144">
        <ele>770.63</ele>
        <time>2022-09-09T08:26:39Z</time>
      </trkpt>
      <trkpt lat="45.32503" lon="3.4914">
        <ele>769.67</ele>
        <time>2022-09-09T08:26:40Z</time>
      </trkpt>
      <trkpt lat="45.32501" lon="3.49138">
        <ele>769.19</ele>
        <time>2022-09-09T08:26:41Z</time>
      </trkpt>
      <trkpt lat="45.325" lon="3.49136">
        <ele>769.19</ele>
        <time>2022-09-09T08:26:42Z</time>
      </trkpt>
      <trkpt lat="45.32485" lon="3.49132">
        <ele>767.75</ele>
        <time>2022-09-09T08:26:47Z</time>
      </trkpt>
      <trkpt lat="45.32481" lon="3.49133">
        <ele>767.75</ele>
        <time>2022-09-09T08:26:48Z</time>
      </trkpt>
      <trkpt lat="45.32476" lon="3.49135">
        <ele>767.27</ele>
        <time>2022-09-09T08:26:49Z</time>
      </trkpt>
      <trkpt lat="45.32467" lon="3.4914">
        <ele>766.31</ele>
        <time>2022-09-09T08:26:53Z</time>
      </trkpt>
      <trkpt lat="45.32466" lon="3.49142">
        <ele>766.31</ele>
        <time>2022-09-09T08:26:54Z</time>
      </trkpt>
      <trkpt lat="45.32465" lon="3.49143">
        <ele>766.31</ele>
        <time>2022-09-09T08:26:55Z</time>
      </trkpt>
      <trkpt lat="45.32465" lon="3.49146">
        <ele>765.83</ele>
        <time>2022-09-09T08:26:56Z</time>
      </trkpt>
      <trkpt lat="45.32463" lon="3.4915">
        <ele>765.83</ele>
        <time>2022-09-09T08:26:57Z</time>
      </trkpt>
      <trkpt lat="45.32462" lon="3.49155">
        <ele>765.83</ele>
        <time>2022-09-09T08:26:58Z</time>
      </trkpt>
      <trkpt lat="45.32461" lon="3.4916">
        <ele>765.83</ele>
        <time>2022-09-09T08:26:59Z</time>
      </trkpt>
      <trkpt lat="45.3246" lon="3.49166">
        <ele>765.83</ele>
        <time>2022-09-09T08:27:00Z</time>
      </trkpt>
      <trkpt lat="45.32457" lon="3.49214">
        <ele>763.9</ele>
        <time>2022-09-09T08:27:07Z</time>
      </trkpt>
      <trkpt lat="45.32452" lon="3.49251">
        <ele>763.9</ele>
        <time>2022-09-09T08:27:14Z</time>
      </trkpt>
      <trkpt lat="45.32449" lon="3.49257">
        <ele>763.9</ele>
        <time>2022-09-09T08:27:15Z</time>
      </trkpt>
      <trkpt lat="45.32445" lon="3.49262">
        <ele>763.42</ele>
        <time>2022-09-09T08:27:16Z</time>
      </trkpt>
      <trkpt lat="45.3244" lon="3.49265">
        <ele>762.94</ele>
        <time>2022-09-09T08:27:17Z</time>
      </trkpt>
      <trkpt lat="45.32434" lon="3.49265">
        <ele>762.46</ele>
        <time>2022-09-09T08:27:18Z</time>
      </trkpt>
      <trkpt lat="45.32429" lon="3.49261">
        <ele>761.98</ele>
        <time>2022-09-09T08:27:19Z</time>
      </trkpt>
      <trkpt lat="45.32424" lon="3.49256">
        <ele>760.54</ele>
        <time>2022-09-09T08:27:20Z</time>
      </trkpt>
      <trkpt lat="45.3242" lon="3.49248">
        <ele>760.06</ele>
        <time>2022-09-09T08:27:21Z</time>
      </trkpt>
      <trkpt lat="45.32416" lon="3.49239">
        <ele>759.58</ele>
        <time>2022-09-09T08:27:22Z</time>
      </trkpt>
      <trkpt lat="45.3239" lon="3.49179">
        <ele>755.73</ele>
        <time>2022-09-09T08:27:28Z</time>
      </trkpt>
      <trkpt lat="45.32378" lon="3.49157">
        <ele>752.85</ele>
        <time>2022-09-09T08:27:32Z</time>
      </trkpt>
      <trkpt lat="45.3237" lon="3.49149">
        <ele>751.89</ele>
        <time>2022-09-09T08:27:34Z</time>
      </trkpt>
      <trkpt lat="45.32351" lon="3.49135">
        <ele>749</ele>
        <time>2022-09-09T08:27:38Z</time>
      </trkpt>
      <trkpt lat="45.32347" lon="3.49131">
        <ele>748.52</ele>
        <time>2022-09-09T08:27:39Z</time>
      </trkpt>
      <trkpt lat="45.32344" lon="3.49126">
        <ele>748.04</ele>
        <time>2022-09-09T08:27:40Z</time>
      </trkpt>
      <trkpt lat="45.32329" lon="3.49101">
        <ele>744.2</ele>
        <time>2022-09-09T08:27:44Z</time>
      </trkpt>
      <trkpt lat="45.32313" lon="3.49068">
        <ele>742.28</ele>
        <time>2022-09-09T08:27:48Z</time>
      </trkpt>
      <trkpt lat="45.32306" lon="3.49049">
        <ele>741.31</ele>
        <time>2022-09-09T08:27:50Z</time>
      </trkpt>
      <trkpt lat="45.32301" lon="3.4903">
        <ele>740.83</ele>
        <time>2022-09-09T08:27:52Z</time>
      </trkpt>
      <trkpt lat="45.32299" lon="3.49021">
        <ele>740.83</ele>
        <time>2022-09-09T08:27:53Z</time>
      </trkpt>
      <trkpt lat="45.32298" lon="3.49011">
        <ele>740.35</ele>
        <time>2022-09-09T08:27:54Z</time>
      </trkpt>
      <trkpt lat="45.32294" lon="3.48989">
        <ele>738.91</ele>
        <time>2022-09-09T08:27:57Z</time>
      </trkpt>
      <trkpt lat="45.32292" lon="3.48982">
        <ele>738.43</ele>
        <time>2022-09-09T08:27:58Z</time>
      </trkpt>
      <trkpt lat="45.32265" lon="3.48928">
        <ele>735.07</ele>
        <time>2022-09-09T08:28:05Z</time>
      </trkpt>
      <trkpt lat="45.32261" lon="3.48919">
        <ele>734.58</ele>
        <time>2022-09-09T08:28:06Z</time>
      </trkpt>
      <trkpt lat="45.32247" lon="3.48884">
        <ele>732.18</ele>
        <time>2022-09-09T08:28:10Z</time>
      </trkpt>
      <trkpt lat="45.32244" lon="3.48875">
        <ele>731.22</ele>
        <time>2022-09-09T08:28:11Z</time>
      </trkpt>
      <trkpt lat="45.32239" lon="3.48868">
        <ele>730.74</ele>
        <time>2022-09-09T08:28:12Z</time>
      </trkpt>
      <trkpt lat="45.32235" lon="3.48861">
        <ele>729.78</ele>
        <time>2022-09-09T08:28:13Z</time>
      </trkpt>
      <trkpt lat="45.3223" lon="3.48855">
        <ele>728.82</ele>
        <time>2022-09-09T08:28:14Z</time>
      </trkpt>
      <trkpt lat="45.32225" lon="3.48849">
        <ele>728.34</ele>
        <time>2022-09-09T08:28:15Z</time>
      </trkpt>
      <trkpt lat="45.32221" lon="3.48845">
        <ele>727.37</ele>
        <time>2022-09-09T08:28:16Z</time>
      </trkpt>
      <trkpt lat="45.32216" lon="3.48842">
        <ele>726.41</ele>
        <time>2022-09-09T08:28:17Z</time>
      </trkpt>
      <trkpt lat="45.32211" lon="3.48839">
        <ele>725.93</ele>
        <time>2022-09-09T08:28:18Z</time>
      </trkpt>
      <trkpt lat="45.32205" lon="3.48836">
        <ele>725.45</ele>
        <time>2022-09-09T08:28:19Z</time>
      </trkpt>
      <trkpt lat="45.32198" lon="3.48835">
        <ele>724.97</ele>
        <time>2022-09-09T08:28:20Z</time>
      </trkpt>
      <trkpt lat="45.32191" lon="3.48834">
        <ele>724.49</ele>
        <time>2022-09-09T08:28:21Z</time>
      </trkpt>
      <trkpt lat="45.32183" lon="3.48833">
        <ele>723.53</ele>
        <time>2022-09-09T08:28:22Z</time>
      </trkpt>
      <trkpt lat="45.32175" lon="3.48832">
        <ele>722.57</ele>
        <time>2022-09-09T08:28:23Z</time>
      </trkpt>
      <trkpt lat="45.32148" lon="3.48826">
        <ele>718.72</ele>
        <time>2022-09-09T08:28:27Z</time>
      </trkpt>
      <trkpt lat="45.32127" lon="3.48817">
        <ele>715.36</ele>
        <time>2022-09-09T08:28:30Z</time>
      </trkpt>
      <trkpt lat="45.32114" lon="3.48809">
        <ele>711.99</ele>
        <time>2022-09-09T08:28:33Z</time>
      </trkpt>
      <trkpt lat="45.3211" lon="3.48807">
        <ele>711.51</ele>
        <time>2022-09-09T08:28:34Z</time>
      </trkpt>
      <trkpt lat="45.32105" lon="3.48806">
        <ele>711.03</ele>
        <time>2022-09-09T08:28:35Z</time>
      </trkpt>
      <trkpt lat="45.32095" lon="3.48801">
        <ele>709.11</ele>
        <time>2022-09-09T08:28:39Z</time>
      </trkpt>
      <trkpt lat="45.32089" lon="3.48797">
        <ele>709.11</ele>
        <time>2022-09-09T08:28:45Z</time>
      </trkpt>
      <trkpt lat="45.32087" lon="3.48798">
        <ele>708.63</ele>
        <time>2022-09-09T08:28:49Z</time>
      </trkpt>
      <trkpt lat="45.32087" lon="3.488">
        <ele>708.63</ele>
        <time>2022-09-09T08:28:50Z</time>
      </trkpt>
      <trkpt lat="45.32087" lon="3.48801">
        <ele>709.11</ele>
        <time>2022-09-09T08:28:52Z</time>
      </trkpt>
      <trkpt lat="45.32089" lon="3.48801">
        <ele>709.59</ele>
        <time>2022-09-09T08:28:53Z</time>
      </trkpt>
      <trkpt lat="45.32091" lon="3.48799">
        <ele>709.11</ele>
        <time>2022-09-09T08:28:54Z</time>
      </trkpt>
      <trkpt lat="45.32111" lon="3.48791">
        <ele>708.15</ele>
        <time>2022-09-09T08:29:01Z</time>
      </trkpt>
      <trkpt lat="45.32144" lon="3.48786">
        <ele>707.19</ele>
        <time>2022-09-09T08:29:08Z</time>
      </trkpt>
      <trkpt lat="45.32156" lon="3.4878">
        <ele>706.71</ele>
        <time>2022-09-09T08:29:10Z</time>
      </trkpt>
      <trkpt lat="45.32161" lon="3.48775">
        <ele>706.23</ele>
        <time>2022-09-09T08:29:11Z</time>
      </trkpt>
      <trkpt lat="45.32163" lon="3.48767">
        <ele>705.26</ele>
        <time>2022-09-09T08:29:12Z</time>
      </trkpt>
      <trkpt lat="45.32163" lon="3.48759">
        <ele>704.78</ele>
        <time>2022-09-09T08:29:13Z</time>
      </trkpt>
      <trkpt lat="45.3216" lon="3.48751">
        <ele>704.3</ele>
        <time>2022-09-09T08:29:14Z</time>
      </trkpt>
      <trkpt lat="45.32154" lon="3.48745">
        <ele>703.34</ele>
        <time>2022-09-09T08:29:15Z</time>
      </trkpt>
      <trkpt lat="45.32147" lon="3.48742">
        <ele>702.86</ele>
        <time>2022-09-09T08:29:16Z</time>
      </trkpt>
      <trkpt lat="45.32139" lon="3.4874">
        <ele>702.38</ele>
        <time>2022-09-09T08:29:17Z</time>
      </trkpt>
      <trkpt lat="45.32085" lon="3.48728">
        <ele>699.02</ele>
        <time>2022-09-09T08:29:23Z</time>
      </trkpt>
      <trkpt lat="45.32035" lon="3.4872">
        <ele>695.17</ele>
        <time>2022-09-09T08:29:28Z</time>
      </trkpt>
      <trkpt lat="45.31982" lon="3.48716">
        <ele>691.81</ele>
        <time>2022-09-09T08:29:33Z</time>
      </trkpt>
      <trkpt lat="45.31951" lon="3.48713">
        <ele>688.44</ele>
        <time>2022-09-09T08:29:36Z</time>
      </trkpt>
      <trkpt lat="45.31918" lon="3.48709">
        <ele>684.6</ele>
        <time>2022-09-09T08:29:40Z</time>
      </trkpt>
      <trkpt lat="45.31911" lon="3.48708">
        <ele>682.19</ele>
        <time>2022-09-09T08:29:43Z</time>
      </trkpt>
      <trkpt lat="45.31909" lon="3.48705">
        <ele>682.67</ele>
        <time>2022-09-09T08:29:44Z</time>
      </trkpt>
      <trkpt lat="45.31908" lon="3.48701">
        <ele>682.67</ele>
        <time>2022-09-09T08:29:45Z</time>
      </trkpt>
      <trkpt lat="45.31906" lon="3.48696">
        <ele>682.19</ele>
        <time>2022-09-09T08:29:46Z</time>
      </trkpt>
      <trkpt lat="45.31902" lon="3.48691">
        <ele>682.19</ele>
        <time>2022-09-09T08:29:47Z</time>
      </trkpt>
      <trkpt lat="45.3189" lon="3.48675">
        <ele>678.83</ele>
        <time>2022-09-09T08:29:50Z</time>
      </trkpt>
      <trkpt lat="45.31874" lon="3.48658">
        <ele>674.98</ele>
        <time>2022-09-09T08:29:53Z</time>
      </trkpt>
      <trkpt lat="45.31851" lon="3.48629">
        <ele>670.66</ele>
        <time>2022-09-09T08:29:57Z</time>
      </trkpt>
      <trkpt lat="45.31848" lon="3.48622">
        <ele>670.66</ele>
        <time>2022-09-09T08:29:58Z</time>
      </trkpt>
      <trkpt lat="45.31846" lon="3.48614">
        <ele>670.66</ele>
        <time>2022-09-09T08:29:59Z</time>
      </trkpt>
      <trkpt lat="45.31845" lon="3.48606">
        <ele>671.14</ele>
        <time>2022-09-09T08:30:00Z</time>
      </trkpt>
      <trkpt lat="45.31844" lon="3.48598">
        <ele>670.18</ele>
        <time>2022-09-09T08:30:01Z</time>
      </trkpt>
      <trkpt lat="45.3183" lon="3.48536">
        <ele>667.77</ele>
        <time>2022-09-09T08:30:08Z</time>
      </trkpt>
      <trkpt lat="45.31822" lon="3.485">
        <ele>667.29</ele>
        <time>2022-09-09T08:30:12Z</time>
      </trkpt>
      <trkpt lat="45.31819" lon="3.48492">
        <ele>667.29</ele>
        <time>2022-09-09T08:30:13Z</time>
      </trkpt>
      <trkpt lat="45.31815" lon="3.48485">
        <ele>666.81</ele>
        <time>2022-09-09T08:30:14Z</time>
      </trkpt>
      <trkpt lat="45.31811" lon="3.48479">
        <ele>667.29</ele>
        <time>2022-09-09T08:30:15Z</time>
      </trkpt>
      <trkpt lat="45.31806" lon="3.48474">
        <ele>666.81</ele>
        <time>2022-09-09T08:30:16Z</time>
      </trkpt>
      <trkpt lat="45.31802" lon="3.4847">
        <ele>665.85</ele>
        <time>2022-09-09T08:30:17Z</time>
      </trkpt>
      <trkpt lat="45.31797" lon="3.48468">
        <ele>665.85</ele>
        <time>2022-09-09T08:30:18Z</time>
      </trkpt>
      <trkpt lat="45.31792" lon="3.48468">
        <ele>665.37</ele>
        <time>2022-09-09T08:30:19Z</time>
      </trkpt>
      <trkpt lat="45.31787" lon="3.4847">
        <ele>665.37</ele>
        <time>2022-09-09T08:30:20Z</time>
      </trkpt>
      <trkpt lat="45.31783" lon="3.48474">
        <ele>665.37</ele>
        <time>2022-09-09T08:30:21Z</time>
      </trkpt>
      <trkpt lat="45.3178" lon="3.48479">
        <ele>665.37</ele>
        <time>2022-09-09T08:30:22Z</time>
      </trkpt>
      <trkpt lat="45.31777" lon="3.48484">
        <ele>665.37</ele>
        <time>2022-09-09T08:30:23Z</time>
      </trkpt>
      <trkpt lat="45.31773" lon="3.48488">
        <ele>664.89</ele>
        <time>2022-09-09T08:30:24Z</time>
      </trkpt>
      <trkpt lat="45.31769" lon="3.48492">
        <ele>665.37</ele>
        <time>2022-09-09T08:30:25Z</time>
      </trkpt>
      <trkpt lat="45.31755" lon="3.48503">
        <ele>665.37</ele>
        <time>2022-09-09T08:30:29Z</time>
      </trkpt>
      <trkpt lat="45.31751" lon="3.48504">
        <ele>665.37</ele>
        <time>2022-09-09T08:30:30Z</time>
      </trkpt>
      <trkpt lat="45.31747" lon="3.48504">
        <ele>665.85</ele>
        <time>2022-09-09T08:30:31Z</time>
      </trkpt>
      <trkpt lat="45.31724" lon="3.48496">
        <ele>666.81</ele>
        <time>2022-09-09T08:30:38Z</time>
      </trkpt>
      <trkpt lat="45.31706" lon="3.48485">
        <ele>666.33</ele>
        <time>2022-09-09T08:30:44Z</time>
      </trkpt>
      <trkpt lat="45.31689" lon="3.48466">
        <ele>666.33</ele>
        <time>2022-09-09T08:30:50Z</time>
      </trkpt>
      <trkpt lat="45.31669" lon="3.48448">
        <ele>667.29</ele>
        <time>2022-09-09T08:30:57Z</time>
      </trkpt>
      <trkpt lat="45.31668" lon="3.48448">
        <ele>666.81</ele>
        <time>2022-09-09T08:31:01Z</time>
      </trkpt>
      <trkpt lat="45.31664" lon="3.48447">
        <ele>667.29</ele>
        <time>2022-09-09T08:31:06Z</time>
      </trkpt>
      <trkpt lat="45.31639" lon="3.48445">
        <ele>666.33</ele>
        <time>2022-09-09T08:31:14Z</time>
      </trkpt>
      <trkpt lat="45.31619" lon="3.48441">
        <ele>665.85</ele>
        <time>2022-09-09T08:31:18Z</time>
      </trkpt>
      <trkpt lat="45.31612" lon="3.48439">
        <ele>664.89</ele>
        <time>2022-09-09T08:31:19Z</time>
      </trkpt>
      <trkpt lat="45.31561" lon="3.48426">
        <ele>661.52</ele>
        <time>2022-09-09T08:31:26Z</time>
      </trkpt>
      <trkpt lat="45.31494" lon="3.48407">
        <ele>659.6</ele>
        <time>2022-09-09T08:31:34Z</time>
      </trkpt>
      <trkpt lat="45.31444" lon="3.48389">
        <ele>658.64</ele>
        <time>2022-09-09T08:31:41Z</time>
      </trkpt>
      <trkpt lat="45.31438" lon="3.48386">
        <ele>658.16</ele>
        <time>2022-09-09T08:31:42Z</time>
      </trkpt>
      <trkpt lat="45.31394" lon="3.48349">
        <ele>657.68</ele>
        <time>2022-09-09T08:31:50Z</time>
      </trkpt>
      <trkpt lat="45.3137" lon="3.48325">
        <ele>658.64</ele>
        <time>2022-09-09T08:31:55Z</time>
      </trkpt>
      <trkpt lat="45.31365" lon="3.4832">
        <ele>658.64</ele>
        <time>2022-09-09T08:31:56Z</time>
      </trkpt>
      <trkpt lat="45.31337" lon="3.48278">
        <ele>660.56</ele>
        <time>2022-09-09T08:32:04Z</time>
      </trkpt>
      <trkpt lat="45.31325" lon="3.48248">
        <ele>662.01</ele>
        <time>2022-09-09T08:32:10Z</time>
      </trkpt>
      <trkpt lat="45.31324" lon="3.48242">
        <ele>662.01</ele>
        <time>2022-09-09T08:32:11Z</time>
      </trkpt>
      <trkpt lat="45.31323" lon="3.48224">
        <ele>662.49</ele>
        <time>2022-09-09T08:32:14Z</time>
      </trkpt>
      <trkpt lat="45.31324" lon="3.48217">
        <ele>662.97</ele>
        <time>2022-09-09T08:32:15Z</time>
      </trkpt>
      <trkpt lat="45.31325" lon="3.48211">
        <ele>663.45</ele>
        <time>2022-09-09T08:32:16Z</time>
      </trkpt>
      <trkpt lat="45.3134" lon="3.48144">
        <ele>663.45</ele>
        <time>2022-09-09T08:32:26Z</time>
      </trkpt>
      <trkpt lat="45.31343" lon="3.48114">
        <ele>661.04</ele>
        <time>2022-09-09T08:32:29Z</time>
      </trkpt>
      <trkpt lat="45.31343" lon="3.48102">
        <ele>660.08</ele>
        <time>2022-09-09T08:32:30Z</time>
      </trkpt>
      <trkpt lat="45.3134" lon="3.48062">
        <ele>656.24</ele>
        <time>2022-09-09T08:32:33Z</time>
      </trkpt>
      <trkpt lat="45.31338" lon="3.48048">
        <ele>654.8</ele>
        <time>2022-09-09T08:32:34Z</time>
      </trkpt>
      <trkpt lat="45.31334" lon="3.48033">
        <ele>652.87</ele>
        <time>2022-09-09T08:32:35Z</time>
      </trkpt>
      <trkpt lat="45.31319" lon="3.47988">
        <ele>649.51</ele>
        <time>2022-09-09T08:32:38Z</time>
      </trkpt>
      <trkpt lat="45.31308" lon="3.47956">
        <ele>647.59</ele>
        <time>2022-09-09T08:32:40Z</time>
      </trkpt>
      <trkpt lat="45.31293" lon="3.47908">
        <ele>643.26</ele>
        <time>2022-09-09T08:32:43Z</time>
      </trkpt>
      <trkpt lat="45.31279" lon="3.47865">
        <ele>639.89</ele>
        <time>2022-09-09T08:32:46Z</time>
      </trkpt>
      <trkpt lat="45.31263" lon="3.47818">
        <ele>637.49</ele>
        <time>2022-09-09T08:32:50Z</time>
      </trkpt>
      <trkpt lat="45.31251" lon="3.47769">
        <ele>635.09</ele>
        <time>2022-09-09T08:32:55Z</time>
      </trkpt>
      <trkpt lat="45.3125" lon="3.47761">
        <ele>635.09</ele>
        <time>2022-09-09T08:32:56Z</time>
      </trkpt>
      <trkpt lat="45.31234" lon="3.47712">
        <ele>631.24</ele>
        <time>2022-09-09T08:33:02Z</time>
      </trkpt>
      <trkpt lat="45.31212" lon="3.47663">
        <ele>628.36</ele>
        <time>2022-09-09T08:33:09Z</time>
      </trkpt>
      <trkpt lat="45.31203" lon="3.47648">
        <ele>625.47</ele>
        <time>2022-09-09T08:33:12Z</time>
      </trkpt>
      <trkpt lat="45.312" lon="3.47645">
        <ele>624.99</ele>
        <time>2022-09-09T08:33:13Z</time>
      </trkpt>
      <trkpt lat="45.31195" lon="3.47642">
        <ele>624.03</ele>
        <time>2022-09-09T08:33:14Z</time>
      </trkpt>
      <trkpt lat="45.31188" lon="3.47641">
        <ele>623.55</ele>
        <time>2022-09-09T08:33:15Z</time>
      </trkpt>
      <trkpt lat="45.31158" lon="3.47635">
        <ele>621.15</ele>
        <time>2022-09-09T08:33:19Z</time>
      </trkpt>
      <trkpt lat="45.31149" lon="3.4763">
        <ele>620.19</ele>
        <time>2022-09-09T08:33:20Z</time>
      </trkpt>
      <trkpt lat="45.31141" lon="3.47625">
        <ele>619.23</ele>
        <time>2022-09-09T08:33:21Z</time>
      </trkpt>
      <trkpt lat="45.31133" lon="3.47618">
        <ele>618.26</ele>
        <time>2022-09-09T08:33:22Z</time>
      </trkpt>
      <trkpt lat="45.31125" lon="3.47611">
        <ele>617.3</ele>
        <time>2022-09-09T08:33:23Z</time>
      </trkpt>
      <trkpt lat="45.31092" lon="3.47581">
        <ele>613.94</ele>
        <time>2022-09-09T08:33:27Z</time>
      </trkpt>
      <trkpt lat="45.31082" lon="3.47576">
        <ele>612.98</ele>
        <time>2022-09-09T08:33:28Z</time>
      </trkpt>
      <trkpt lat="45.31072" lon="3.47573">
        <ele>611.54</ele>
        <time>2022-09-09T08:33:29Z</time>
      </trkpt>
      <trkpt lat="45.31061" lon="3.47571">
        <ele>612.02</ele>
        <time>2022-09-09T08:33:30Z</time>
      </trkpt>
      <trkpt lat="45.3105" lon="3.47569">
        <ele>610.57</ele>
        <time>2022-09-09T08:33:31Z</time>
      </trkpt>
      <trkpt lat="45.31009" lon="3.47561">
        <ele>606.25</ele>
        <time>2022-09-09T08:33:35Z</time>
      </trkpt>
      <trkpt lat="45.31001" lon="3.47556">
        <ele>605.77</ele>
        <time>2022-09-09T08:33:36Z</time>
      </trkpt>
      <trkpt lat="45.30993" lon="3.47548">
        <ele>604.81</ele>
        <time>2022-09-09T08:33:37Z</time>
      </trkpt>
      <trkpt lat="45.30986" lon="3.47538">
        <ele>603.85</ele>
        <time>2022-09-09T08:33:38Z</time>
      </trkpt>
      <trkpt lat="45.3098" lon="3.47527">
        <ele>602.88</ele>
        <time>2022-09-09T08:33:39Z</time>
      </trkpt>
      <trkpt lat="45.30973" lon="3.47516">
        <ele>601.92</ele>
        <time>2022-09-09T08:33:40Z</time>
      </trkpt>
      <trkpt lat="45.30947" lon="3.47479">
        <ele>597.6</ele>
        <time>2022-09-09T08:33:44Z</time>
      </trkpt>
      <trkpt lat="45.30939" lon="3.47469">
        <ele>596.64</ele>
        <time>2022-09-09T08:33:46Z</time>
      </trkpt>
      <trkpt lat="45.30913" lon="3.47426">
        <ele>593.75</ele>
        <time>2022-09-09T08:33:52Z</time>
      </trkpt>
      <trkpt lat="45.30909" lon="3.47415">
        <ele>593.27</ele>
        <time>2022-09-09T08:33:53Z</time>
      </trkpt>
      <trkpt lat="45.30905" lon="3.47402">
        <ele>592.31</ele>
        <time>2022-09-09T08:33:54Z</time>
      </trkpt>
      <trkpt lat="45.30902" lon="3.47389">
        <ele>590.87</ele>
        <time>2022-09-09T08:33:55Z</time>
      </trkpt>
      <trkpt lat="45.309" lon="3.47375">
        <ele>590.87</ele>
        <time>2022-09-09T08:33:56Z</time>
      </trkpt>
      <trkpt lat="45.30895" lon="3.47333">
        <ele>588.95</ele>
        <time>2022-09-09T08:33:59Z</time>
      </trkpt>
      <trkpt lat="45.30895" lon="3.47308">
        <ele>589.43</ele>
        <time>2022-09-09T08:34:01Z</time>
      </trkpt>
      <trkpt lat="45.30896" lon="3.47296">
        <ele>587.98</ele>
        <time>2022-09-09T08:34:02Z</time>
      </trkpt>
      <trkpt lat="45.30898" lon="3.47286">
        <ele>586.54</ele>
        <time>2022-09-09T08:34:03Z</time>
      </trkpt>
      <trkpt lat="45.30901" lon="3.47276">
        <ele>586.54</ele>
        <time>2022-09-09T08:34:04Z</time>
      </trkpt>
      <trkpt lat="45.30904" lon="3.47267">
        <ele>585.58</ele>
        <time>2022-09-09T08:34:05Z</time>
      </trkpt>
      <trkpt lat="45.30907" lon="3.47258">
        <ele>585.1</ele>
        <time>2022-09-09T08:34:06Z</time>
      </trkpt>
      <trkpt lat="45.30918" lon="3.47223">
        <ele>585.1</ele>
        <time>2022-09-09T08:34:10Z</time>
      </trkpt>
      <trkpt lat="45.3093" lon="3.47168">
        <ele>582.22</ele>
        <time>2022-09-09T08:34:16Z</time>
      </trkpt>
      <trkpt lat="45.30936" lon="3.47148">
        <ele>580.77</ele>
        <time>2022-09-09T08:34:18Z</time>
      </trkpt>
      <trkpt lat="45.30937" lon="3.47139">
        <ele>579.81</ele>
        <time>2022-09-09T08:34:19Z</time>
      </trkpt>
      <trkpt lat="45.30938" lon="3.47129">
        <ele>578.85</ele>
        <time>2022-09-09T08:34:20Z</time>
      </trkpt>
      <trkpt lat="45.30938" lon="3.4712">
        <ele>578.37</ele>
        <time>2022-09-09T08:34:21Z</time>
      </trkpt>
      <trkpt lat="45.30938" lon="3.4711">
        <ele>577.89</ele>
        <time>2022-09-09T08:34:22Z</time>
      </trkpt>
      <trkpt lat="45.30938" lon="3.47091">
        <ele>576.93</ele>
        <time>2022-09-09T08:34:24Z</time>
      </trkpt>
      <trkpt lat="45.30936" lon="3.47054">
        <ele>573.08</ele>
        <time>2022-09-09T08:34:28Z</time>
      </trkpt>
      <trkpt lat="45.30936" lon="3.47038">
        <ele>572.6</ele>
        <time>2022-09-09T08:34:31Z</time>
      </trkpt>
      <trkpt lat="45.30932" lon="3.47017">
        <ele>570.68</ele>
        <time>2022-09-09T08:34:34Z</time>
      </trkpt>
      <trkpt lat="45.30929" lon="3.47009">
        <ele>570.2</ele>
        <time>2022-09-09T08:34:35Z</time>
      </trkpt>
      <trkpt lat="45.30913" lon="3.46964">
        <ele>566.35</ele>
        <time>2022-09-09T08:34:40Z</time>
      </trkpt>
      <trkpt lat="45.30905" lon="3.46944">
        <ele>564.91</ele>
        <time>2022-09-09T08:34:42Z</time>
      </trkpt>
      <trkpt lat="45.30891" lon="3.46912">
        <ele>562.99</ele>
        <time>2022-09-09T08:34:45Z</time>
      </trkpt>
      <trkpt lat="45.30881" lon="3.46887">
        <ele>560.59</ele>
        <time>2022-09-09T08:34:47Z</time>
      </trkpt>
      <trkpt lat="45.3087" lon="3.46863">
        <ele>557.22</ele>
        <time>2022-09-09T08:34:49Z</time>
      </trkpt>
      <trkpt lat="45.30864" lon="3.46852">
        <ele>557.22</ele>
        <time>2022-09-09T08:34:50Z</time>
      </trkpt>
      <trkpt lat="45.30847" lon="3.4682">
        <ele>554.82</ele>
        <time>2022-09-09T08:34:53Z</time>
      </trkpt>
      <trkpt lat="45.30843" lon="3.4681">
        <ele>553.38</ele>
        <time>2022-09-09T08:34:54Z</time>
      </trkpt>
      <trkpt lat="45.3084" lon="3.468">
        <ele>552.9</ele>
        <time>2022-09-09T08:34:55Z</time>
      </trkpt>
      <trkpt lat="45.30838" lon="3.4679">
        <ele>552.41</ele>
        <time>2022-09-09T08:34:56Z</time>
      </trkpt>
      <trkpt lat="45.30836" lon="3.4678">
        <ele>551.93</ele>
        <time>2022-09-09T08:34:57Z</time>
      </trkpt>
      <trkpt lat="45.30833" lon="3.46759">
        <ele>550.49</ele>
        <time>2022-09-09T08:34:59Z</time>
      </trkpt>
      <trkpt lat="45.30826" lon="3.46706">
        <ele>548.09</ele>
        <time>2022-09-09T08:35:04Z</time>
      </trkpt>
      <trkpt lat="45.30823" lon="3.46697">
        <ele>547.13</ele>
        <time>2022-09-09T08:35:05Z</time>
      </trkpt>
      <trkpt lat="45.30804" lon="3.46655">
        <ele>546.17</ele>
        <time>2022-09-09T08:35:11Z</time>
      </trkpt>
      <trkpt lat="45.30785" lon="3.46601">
        <ele>544.24</ele>
        <time>2022-09-09T08:35:18Z</time>
      </trkpt>
      <trkpt lat="45.30774" lon="3.4657">
        <ele>541.36</ele>
        <time>2022-09-09T08:35:23Z</time>
      </trkpt>
      <trkpt lat="45.30765" lon="3.46549">
        <ele>540.88</ele>
        <time>2022-09-09T08:35:28Z</time>
      </trkpt>
      <trkpt lat="45.30765" lon="3.46537">
        <ele>540.88</ele>
        <time>2022-09-09T08:35:30Z</time>
      </trkpt>
      <trkpt lat="45.30767" lon="3.4648">
        <ele>538.96</ele>
        <time>2022-09-09T08:35:37Z</time>
      </trkpt>
      <trkpt lat="45.30769" lon="3.46415">
        <ele>536.07</ele>
        <time>2022-09-09T08:35:43Z</time>
      </trkpt>
      <trkpt lat="45.30782" lon="3.46339">
        <ele>533.67</ele>
        <time>2022-09-09T08:35:50Z</time>
      </trkpt>
      <trkpt lat="45.30786" lon="3.46305">
        <ele>530.3</ele>
        <time>2022-09-09T08:35:54Z</time>
      </trkpt>
      <trkpt lat="45.3079" lon="3.46294">
        <ele>528.86</ele>
        <time>2022-09-09T08:35:57Z</time>
      </trkpt>
      <trkpt lat="45.30793" lon="3.46293">
        <ele>528.86</ele>
        <time>2022-09-09T08:35:58Z</time>
      </trkpt>
      <trkpt lat="45.30809" lon="3.46284">
        <ele>527.9</ele>
        <time>2022-09-09T08:36:03Z</time>
      </trkpt>
      <trkpt lat="45.30811" lon="3.46277">
        <ele>527.42</ele>
        <time>2022-09-09T08:36:04Z</time>
      </trkpt>
      <trkpt lat="45.30811" lon="3.4627">
        <ele>527.42</ele>
        <time>2022-09-09T08:36:05Z</time>
      </trkpt>
      <trkpt lat="45.3081" lon="3.46248">
        <ele>526.46</ele>
        <time>2022-09-09T08:36:08Z</time>
      </trkpt>
      <trkpt lat="45.30809" lon="3.46242">
        <ele>526.46</ele>
        <time>2022-09-09T08:36:09Z</time>
      </trkpt>
      <trkpt lat="45.30807" lon="3.46239">
        <ele>525.5</ele>
        <time>2022-09-09T08:36:10Z</time>
      </trkpt>
      <trkpt lat="45.30805" lon="3.46237">
        <ele>525.5</ele>
        <time>2022-09-09T08:36:11Z</time>
      </trkpt>
      <trkpt lat="45.30804" lon="3.46236">
        <ele>525.5</ele>
        <time>2022-09-09T08:36:12Z</time>
      </trkpt>
      <trkpt lat="45.30803" lon="3.46234">
        <ele>525.5</ele>
        <time>2022-09-09T08:36:13Z</time>
      </trkpt>
      <trkpt lat="45.30803" lon="3.46231">
        <ele>525.5</ele>
        <time>2022-09-09T08:36:14Z</time>
      </trkpt>
      <trkpt lat="45.30805" lon="3.46229">
        <ele>525.5</ele>
        <time>2022-09-09T08:36:15Z</time>
      </trkpt>
      <trkpt lat="45.30808" lon="3.46229">
        <ele>525.5</ele>
        <time>2022-09-09T08:36:16Z</time>
      </trkpt>
      <trkpt lat="45.30811" lon="3.46228">
        <ele>525.02</ele>
        <time>2022-09-09T08:36:17Z</time>
      </trkpt>
      <trkpt lat="45.30814" lon="3.46226">
        <ele>525.5</ele>
        <time>2022-09-09T08:36:18Z</time>
      </trkpt>
      <trkpt lat="45.30817" lon="3.46223">
        <ele>525.5</ele>
        <time>2022-09-09T08:36:19Z</time>
      </trkpt>
      <trkpt lat="45.30822" lon="3.46213">
        <ele>525.02</ele>
        <time>2022-09-09T08:36:22Z</time>
      </trkpt>
      <trkpt lat="45.30823" lon="3.46208">
        <ele>525.02</ele>
        <time>2022-09-09T08:36:23Z</time>
      </trkpt>
      <trkpt lat="45.30822" lon="3.46203">
        <ele>525.02</ele>
        <time>2022-09-09T08:36:24Z</time>
      </trkpt>
      <trkpt lat="45.3082" lon="3.4617">
        <ele>525.5</ele>
        <time>2022-09-09T08:36:30Z</time>
      </trkpt>
      <trkpt lat="45.30819" lon="3.46164">
        <ele>525.5</ele>
        <time>2022-09-09T08:36:31Z</time>
      </trkpt>
      <trkpt lat="45.30817" lon="3.46158">
        <ele>525.5</ele>
        <time>2022-09-09T08:36:32Z</time>
      </trkpt>
      <trkpt lat="45.30808" lon="3.46135">
        <ele>525.02</ele>
        <time>2022-09-09T08:36:36Z</time>
      </trkpt>
      <trkpt lat="45.30805" lon="3.4613">
        <ele>525.02</ele>
        <time>2022-09-09T08:36:37Z</time>
      </trkpt>
      <trkpt lat="45.30771" lon="3.46082">
        <ele>522.13</ele>
        <time>2022-09-09T08:36:45Z</time>
      </trkpt>
      <trkpt lat="45.30767" lon="3.46076">
        <ele>521.65</ele>
        <time>2022-09-09T08:36:46Z</time>
      </trkpt>
      <trkpt lat="45.30761" lon="3.46071">
        <ele>521.65</ele>
        <time>2022-09-09T08:36:47Z</time>
      </trkpt>
      <trkpt lat="45.30755" lon="3.46068">
        <ele>521.65</ele>
        <time>2022-09-09T08:36:48Z</time>
      </trkpt>
      <trkpt lat="45.30749" lon="3.46066">
        <ele>521.17</ele>
        <time>2022-09-09T08:36:49Z</time>
      </trkpt>
      <trkpt lat="45.30743" lon="3.46065">
        <ele>521.17</ele>
        <time>2022-09-09T08:36:50Z</time>
      </trkpt>
      <trkpt lat="45.30737" lon="3.46062">
        <ele>520.69</ele>
        <time>2022-09-09T08:36:51Z</time>
      </trkpt>
      <trkpt lat="45.30731" lon="3.46059">
        <ele>520.21</ele>
        <time>2022-09-09T08:36:52Z</time>
      </trkpt>
      <trkpt lat="45.30725" lon="3.46054">
        <ele>520.69</ele>
        <time>2022-09-09T08:36:53Z</time>
      </trkpt>
      <trkpt lat="45.3072" lon="3.46049">
        <ele>520.69</ele>
        <time>2022-09-09T08:36:54Z</time>
      </trkpt>
      <trkpt lat="45.30715" lon="3.46042">
        <ele>520.21</ele>
        <time>2022-09-09T08:36:55Z</time>
      </trkpt>
      <trkpt lat="45.30701" lon="3.46023">
        <ele>519.73</ele>
        <time>2022-09-09T08:36:58Z</time>
      </trkpt>
      <trkpt lat="45.30696" lon="3.46018">
        <ele>519.25</ele>
        <time>2022-09-09T08:36:59Z</time>
      </trkpt>
      <trkpt lat="45.3069" lon="3.46016">
        <ele>518.77</ele>
        <time>2022-09-09T08:37:00Z</time>
      </trkpt>
      <trkpt lat="45.30684" lon="3.46015">
        <ele>518.77</ele>
        <time>2022-09-09T08:37:01Z</time>
      </trkpt>
      <trkpt lat="45.30677" lon="3.46017">
        <ele>518.77</ele>
        <time>2022-09-09T08:37:02Z</time>
      </trkpt>
      <trkpt lat="45.30671" lon="3.4602">
        <ele>518.29</ele>
        <time>2022-09-09T08:37:03Z</time>
      </trkpt>
      <trkpt lat="45.30665" lon="3.46023">
        <ele>518.29</ele>
        <time>2022-09-09T08:37:04Z</time>
      </trkpt>
      <trkpt lat="45.30659" lon="3.46028">
        <ele>518.29</ele>
        <time>2022-09-09T08:37:05Z</time>
      </trkpt>
      <trkpt lat="45.30622" lon="3.46046">
        <ele>517.33</ele>
        <time>2022-09-09T08:37:11Z</time>
      </trkpt>
      <trkpt lat="45.30586" lon="3.46051">
        <ele>516.37</ele>
        <time>2022-09-09T08:37:17Z</time>
      </trkpt>
      <trkpt lat="45.30582" lon="3.46048">
        <ele>516.37</ele>
        <time>2022-09-09T08:37:18Z</time>
      </trkpt>
      <trkpt lat="45.30579" lon="3.46043">
        <ele>516.37</ele>
        <time>2022-09-09T08:37:19Z</time>
      </trkpt>
      <trkpt lat="45.30578" lon="3.46038">
        <ele>516.37</ele>
        <time>2022-09-09T08:37:20Z</time>
      </trkpt>
      <trkpt lat="45.30577" lon="3.46031">
        <ele>516.37</ele>
        <time>2022-09-09T08:37:21Z</time>
      </trkpt>
      <trkpt lat="45.30576" lon="3.46023">
        <ele>516.85</ele>
        <time>2022-09-09T08:37:22Z</time>
      </trkpt>
      <trkpt lat="45.30573" lon="3.46001">
        <ele>516.37</ele>
        <time>2022-09-09T08:37:25Z</time>
      </trkpt>
      <trkpt lat="45.30571" lon="3.45993">
        <ele>516.37</ele>
        <time>2022-09-09T08:37:26Z</time>
      </trkpt>
      <trkpt lat="45.30569" lon="3.45986">
        <ele>516.37</ele>
        <time>2022-09-09T08:37:27Z</time>
      </trkpt>
      <trkpt lat="45.30545" lon="3.45933">
        <ele>516.85</ele>
        <time>2022-09-09T08:37:35Z</time>
      </trkpt>
      <trkpt lat="45.30515" lon="3.4588">
        <ele>517.33</ele>
        <time>2022-09-09T08:37:44Z</time>
      </trkpt>
      <trkpt lat="45.30488" lon="3.45846">
        <ele>516.37</ele>
        <time>2022-09-09T08:37:51Z</time>
      </trkpt>
      <trkpt lat="45.30457" lon="3.45813">
        <ele>516.37</ele>
        <time>2022-09-09T08:37:59Z</time>
      </trkpt>
      <trkpt lat="45.3045" lon="3.45804">
        <ele>516.37</ele>
        <time>2022-09-09T08:38:01Z</time>
      </trkpt>
      <trkpt lat="45.30447" lon="3.45799">
        <ele>516.37</ele>
        <time>2022-09-09T08:38:02Z</time>
      </trkpt>
      <trkpt lat="45.30445" lon="3.45793">
        <ele>516.85</ele>
        <time>2022-09-09T08:38:03Z</time>
      </trkpt>
      <trkpt lat="45.30442" lon="3.45787">
        <ele>516.85</ele>
        <time>2022-09-09T08:38:04Z</time>
      </trkpt>
      <trkpt lat="45.30439" lon="3.45782">
        <ele>517.33</ele>
        <time>2022-09-09T08:38:05Z</time>
      </trkpt>
      <trkpt lat="45.30437" lon="3.45776">
        <ele>516.85</ele>
        <time>2022-09-09T08:38:06Z</time>
      </trkpt>
      <trkpt lat="45.30423" lon="3.45737">
        <ele>517.33</ele>
        <time>2022-09-09T08:38:13Z</time>
      </trkpt>
      <trkpt lat="45.30408" lon="3.45691">
        <ele>517.81</ele>
        <time>2022-09-09T08:38:21Z</time>
      </trkpt>
      <trkpt lat="45.304" lon="3.45669">
        <ele>517.33</ele>
        <time>2022-09-09T08:38:25Z</time>
      </trkpt>
      <trkpt lat="45.3038" lon="3.45624">
        <ele>518.29</ele>
        <time>2022-09-09T08:38:33Z</time>
      </trkpt>
      <trkpt lat="45.30356" lon="3.45567">
        <ele>517.81</ele>
        <time>2022-09-09T08:38:42Z</time>
      </trkpt>
      <trkpt lat="45.3034" lon="3.4553">
        <ele>516.37</ele>
        <time>2022-09-09T08:38:48Z</time>
      </trkpt>
      <trkpt lat="45.30338" lon="3.45523">
        <ele>515.88</ele>
        <time>2022-09-09T08:38:49Z</time>
      </trkpt>
      <trkpt lat="45.30332" lon="3.45494">
        <ele>514.92</ele>
        <time>2022-09-09T08:38:53Z</time>
      </trkpt>
      <trkpt lat="45.30331" lon="3.45486">
        <ele>514.92</ele>
        <time>2022-09-09T08:38:54Z</time>
      </trkpt>
      <trkpt lat="45.30325" lon="3.45415">
        <ele>513</ele>
        <time>2022-09-09T08:39:03Z</time>
      </trkpt>
      <trkpt lat="45.30323" lon="3.45395">
        <ele>512.52</ele>
        <time>2022-09-09T08:39:08Z</time>
      </trkpt>
      <trkpt lat="45.3032" lon="3.45351">
        <ele>511.08</ele>
        <time>2022-09-09T08:39:14Z</time>
      </trkpt>
      <trkpt lat="45.30315" lon="3.45313">
        <ele>509.64</ele>
        <time>2022-09-09T08:39:20Z</time>
      </trkpt>
      <trkpt lat="45.30311" lon="3.45296">
        <ele>508.19</ele>
        <time>2022-09-09T08:39:24Z</time>
      </trkpt>
      <trkpt lat="45.30309" lon="3.45291">
        <ele>507.71</ele>
        <time>2022-09-09T08:39:27Z</time>
      </trkpt>
      <trkpt lat="45.30311" lon="3.45289">
        <ele>507.71</ele>
        <time>2022-09-09T08:39:33Z</time>
      </trkpt>
      <trkpt lat="45.30311" lon="3.45291">
        <ele>507.71</ele>
        <time>2022-09-09T08:39:39Z</time>
      </trkpt>
      <trkpt lat="45.30316" lon="3.45315">
        <ele>509.16</ele>
        <time>2022-09-09T08:39:45Z</time>
      </trkpt>
      <trkpt lat="45.30319" lon="3.45353">
        <ele>510.6</ele>
        <time>2022-09-09T08:39:52Z</time>
      </trkpt>
      <trkpt lat="45.30321" lon="3.45395">
        <ele>511.56</ele>
        <time>2022-09-09T08:40:01Z</time>
      </trkpt>
      <trkpt lat="45.30322" lon="3.45401">
        <ele>512.04</ele>
        <time>2022-09-09T08:40:03Z</time>
      </trkpt>
      <trkpt lat="45.30324" lon="3.45402">
        <ele>512.04</ele>
        <time>2022-09-09T08:40:04Z</time>
      </trkpt>
      <trkpt lat="45.30326" lon="3.45402">
        <ele>513</ele>
        <time>2022-09-09T08:40:05Z</time>
      </trkpt>
      <trkpt lat="45.30329" lon="3.45402">
        <ele>512.04</ele>
        <time>2022-09-09T08:40:06Z</time>
      </trkpt>
      <trkpt lat="45.30332" lon="3.454">
        <ele>512.52</ele>
        <time>2022-09-09T08:40:07Z</time>
      </trkpt>
      <trkpt lat="45.30355" lon="3.45383">
        <ele>513</ele>
        <time>2022-09-09T08:40:14Z</time>
      </trkpt>
      <trkpt lat="45.30371" lon="3.45364">
        <ele>513</ele>
        <time>2022-09-09T08:40:19Z</time>
      </trkpt>
      <trkpt lat="45.30375" lon="3.4536">
        <ele>512.52</ele>
        <time>2022-09-09T08:40:20Z</time>
      </trkpt>
      <trkpt lat="45.30407" lon="3.45317">
        <ele>512.04</ele>
        <time>2022-09-09T08:40:28Z</time>
      </trkpt>
      <trkpt lat="45.30442" lon="3.45268">
        <ele>511.08</ele>
        <time>2022-09-09T08:40:36Z</time>
      </trkpt>
      <trkpt lat="45.30452" lon="3.45255">
        <ele>510.6</ele>
        <time>2022-09-09T08:40:38Z</time>
      </trkpt>
      <trkpt lat="45.30458" lon="3.4525">
        <ele>510.12</ele>
        <time>2022-09-09T08:40:39Z</time>
      </trkpt>
      <trkpt lat="45.30464" lon="3.45246">
        <ele>510.12</ele>
        <time>2022-09-09T08:40:40Z</time>
      </trkpt>
      <trkpt lat="45.30494" lon="3.45229">
        <ele>506.75</ele>
        <time>2022-09-09T08:40:46Z</time>
      </trkpt>
      <trkpt lat="45.30496" lon="3.45225">
        <ele>506.27</ele>
        <time>2022-09-09T08:40:47Z</time>
      </trkpt>
      <trkpt lat="45.30496" lon="3.45221">
        <ele>506.27</ele>
        <time>2022-09-09T08:40:48Z</time>
      </trkpt>
      <trkpt lat="45.30496" lon="3.45216">
        <ele>506.27</ele>
        <time>2022-09-09T08:40:49Z</time>
      </trkpt>
      <trkpt lat="45.30495" lon="3.45212">
        <ele>506.75</ele>
        <time>2022-09-09T08:40:50Z</time>
      </trkpt>
      <trkpt lat="45.30494" lon="3.45208">
        <ele>506.75</ele>
        <time>2022-09-09T08:40:51Z</time>
      </trkpt>
      <trkpt lat="45.30491" lon="3.45202">
        <ele>506.75</ele>
        <time>2022-09-09T08:40:52Z</time>
      </trkpt>
      <trkpt lat="45.30489" lon="3.45196">
        <ele>506.75</ele>
        <time>2022-09-09T08:40:53Z</time>
      </trkpt>
      <trkpt lat="45.30481" lon="3.45176">
        <ele>507.23</ele>
        <time>2022-09-09T08:40:56Z</time>
      </trkpt>
      <trkpt lat="45.30479" lon="3.45169">
        <ele>507.23</ele>
        <time>2022-09-09T08:40:57Z</time>
      </trkpt>
      <trkpt lat="45.30452" lon="3.4511">
        <ele>507.23</ele>
        <time>2022-09-09T08:41:06Z</time>
      </trkpt>
      <trkpt lat="45.30433" lon="3.45065">
        <ele>508.19</ele>
        <time>2022-09-09T08:41:13Z</time>
      </trkpt>
      <trkpt lat="45.3041" lon="3.44997">
        <ele>506.75</ele>
        <time>2022-09-09T08:41:21Z</time>
      </trkpt>
      <trkpt lat="45.30381" lon="3.44917">
        <ele>504.35</ele>
        <time>2022-09-09T08:41:29Z</time>
      </trkpt>
      <trkpt lat="45.30356" lon="3.44848">
        <ele>500.98</ele>
        <time>2022-09-09T08:41:35Z</time>
      </trkpt>
      <trkpt lat="45.30344" lon="3.44816">
        <ele>499.54</ele>
        <time>2022-09-09T08:41:38Z</time>
      </trkpt>
      <trkpt lat="45.30318" lon="3.44739">
        <ele>498.1</ele>
        <time>2022-09-09T08:41:46Z</time>
      </trkpt>
      <trkpt lat="45.30291" lon="3.44662">
        <ele>498.1</ele>
        <time>2022-09-09T08:41:55Z</time>
      </trkpt>
      <trkpt lat="45.30288" lon="3.44654">
        <ele>497.62</ele>
        <time>2022-09-09T08:41:56Z</time>
      </trkpt>
      <trkpt lat="45.30284" lon="3.44647">
        <ele>498.1</ele>
        <time>2022-09-09T08:41:57Z</time>
      </trkpt>
      <trkpt lat="45.30255" lon="3.44591">
        <ele>499.54</ele>
        <time>2022-09-09T08:42:05Z</time>
      </trkpt>
      <trkpt lat="45.30233" lon="3.44526">
        <ele>499.54</ele>
        <time>2022-09-09T08:42:13Z</time>
      </trkpt>
      <trkpt lat="45.30221" lon="3.44467">
        <ele>497.14</ele>
        <time>2022-09-09T08:42:19Z</time>
      </trkpt>
      <trkpt lat="45.30214" lon="3.44448">
        <ele>496.18</ele>
        <time>2022-09-09T08:42:21Z</time>
      </trkpt>
      <trkpt lat="45.30209" lon="3.44439">
        <ele>496.18</ele>
        <time>2022-09-09T08:42:22Z</time>
      </trkpt>
      <trkpt lat="45.30179" lon="3.44379">
        <ele>493.29</ele>
        <time>2022-09-09T08:42:29Z</time>
      </trkpt>
      <trkpt lat="45.30149" lon="3.443">
        <ele>490.89</ele>
        <time>2022-09-09T08:42:38Z</time>
      </trkpt>
      <trkpt lat="45.30126" lon="3.4424">
        <ele>490.41</ele>
        <time>2022-09-09T08:42:45Z</time>
      </trkpt>
      <trkpt lat="45.30106" lon="3.44176">
        <ele>488.01</ele>
        <time>2022-09-09T08:42:52Z</time>
      </trkpt>
      <trkpt lat="45.30096" lon="3.44133">
        <ele>484.64</ele>
        <time>2022-09-09T08:42:56Z</time>
      </trkpt>
      <trkpt lat="45.30091" lon="3.4411">
        <ele>483.68</ele>
        <time>2022-09-09T08:42:58Z</time>
      </trkpt>
      <trkpt lat="45.30071" lon="3.44026">
        <ele>480.32</ele>
        <time>2022-09-09T08:43:06Z</time>
      </trkpt>
      <trkpt lat="45.30048" lon="3.43919">
        <ele>478.39</ele>
        <time>2022-09-09T08:43:17Z</time>
      </trkpt>
      <trkpt lat="45.30034" lon="3.43853">
        <ele>476.95</ele>
        <time>2022-09-09T08:43:25Z</time>
      </trkpt>
      <trkpt lat="45.30018" lon="3.43783">
        <ele>476.95</ele>
        <time>2022-09-09T08:43:34Z</time>
      </trkpt>
      <trkpt lat="45.30014" lon="3.43766">
        <ele>476.47</ele>
        <time>2022-09-09T08:43:36Z</time>
      </trkpt>
      <trkpt lat="45.30001" lon="3.43696">
        <ele>477.43</ele>
        <time>2022-09-09T08:43:44Z</time>
      </trkpt>
      <trkpt lat="45.29988" lon="3.43615">
        <ele>476.47</ele>
        <time>2022-09-09T08:43:54Z</time>
      </trkpt>
      <trkpt lat="45.29979" lon="3.43545">
        <ele>476.47</ele>
        <time>2022-09-09T08:44:03Z</time>
      </trkpt>
      <trkpt lat="45.29973" lon="3.43466">
        <ele>476.47</ele>
        <time>2022-09-09T08:44:13Z</time>
      </trkpt>
      <trkpt lat="45.29963" lon="3.43398">
        <ele>475.99</ele>
        <time>2022-09-09T08:44:21Z</time>
      </trkpt>
      <trkpt lat="45.29952" lon="3.4335">
        <ele>474.55</ele>
        <time>2022-09-09T08:44:26Z</time>
      </trkpt>
      <trkpt lat="45.29942" lon="3.4331">
        <ele>470.7</ele>
        <time>2022-09-09T08:44:29Z</time>
      </trkpt>
      <trkpt lat="45.29933" lon="3.43276">
        <ele>466.38</ele>
        <time>2022-09-09T08:44:31Z</time>
      </trkpt>
      <trkpt lat="45.29923" lon="3.43242">
        <ele>463.01</ele>
        <time>2022-09-09T08:44:33Z</time>
      </trkpt>
      <trkpt lat="45.29905" lon="3.43192">
        <ele>459.65</ele>
        <time>2022-09-09T08:44:36Z</time>
      </trkpt>
      <trkpt lat="45.29895" lon="3.43161">
        <ele>458.21</ele>
        <time>2022-09-09T08:44:38Z</time>
      </trkpt>
      <trkpt lat="45.29876" lon="3.43105">
        <ele>455.32</ele>
        <time>2022-09-09T08:44:42Z</time>
      </trkpt>
      <trkpt lat="45.29867" lon="3.43077">
        <ele>452.44</ele>
        <time>2022-09-09T08:44:45Z</time>
      </trkpt>
      <trkpt lat="45.29864" lon="3.4307">
        <ele>451.96</ele>
        <time>2022-09-09T08:44:46Z</time>
      </trkpt>
      <trkpt lat="45.29848" lon="3.43027">
        <ele>451.96</ele>
        <time>2022-09-09T08:44:53Z</time>
      </trkpt>
      <trkpt lat="45.29833" lon="3.42983">
        <ele>451.96</ele>
        <time>2022-09-09T08:45:01Z</time>
      </trkpt>
      <trkpt lat="45.29829" lon="3.4297">
        <ele>451.96</ele>
        <time>2022-09-09T08:45:03Z</time>
      </trkpt>
      <trkpt lat="45.29827" lon="3.42963">
        <ele>452.44</ele>
        <time>2022-09-09T08:45:04Z</time>
      </trkpt>
      <trkpt lat="45.29824" lon="3.42957">
        <ele>451.48</ele>
        <time>2022-09-09T08:45:05Z</time>
      </trkpt>
      <trkpt lat="45.29823" lon="3.42951">
        <ele>451.48</ele>
        <time>2022-09-09T08:45:06Z</time>
      </trkpt>
      <trkpt lat="45.29822" lon="3.42945">
        <ele>451.48</ele>
        <time>2022-09-09T08:45:07Z</time>
      </trkpt>
      <trkpt lat="45.29821" lon="3.4294">
        <ele>451</ele>
        <time>2022-09-09T08:45:08Z</time>
      </trkpt>
      <trkpt lat="45.29819" lon="3.42926">
        <ele>450.52</ele>
        <time>2022-09-09T08:45:12Z</time>
      </trkpt>
      <trkpt lat="45.29819" lon="3.42921">
        <ele>451</ele>
        <time>2022-09-09T08:45:13Z</time>
      </trkpt>
      <trkpt lat="45.29818" lon="3.42915">
        <ele>451</ele>
        <time>2022-09-09T08:45:14Z</time>
      </trkpt>
      <trkpt lat="45.29816" lon="3.42907">
        <ele>450.52</ele>
        <time>2022-09-09T08:45:15Z</time>
      </trkpt>
      <trkpt lat="45.29813" lon="3.42899">
        <ele>450.03</ele>
        <time>2022-09-09T08:45:16Z</time>
      </trkpt>
      <trkpt lat="45.29809" lon="3.4289">
        <ele>449.55</ele>
        <time>2022-09-09T08:45:17Z</time>
      </trkpt>
      <trkpt lat="45.29806" lon="3.42882">
        <ele>449.07</ele>
        <time>2022-09-09T08:45:18Z</time>
      </trkpt>
      <trkpt lat="45.29804" lon="3.42874">
        <ele>449.55</ele>
        <time>2022-09-09T08:45:19Z</time>
      </trkpt>
      <trkpt lat="45.29794" lon="3.42849">
        <ele>450.03</ele>
        <time>2022-09-09T08:45:23Z</time>
      </trkpt>
      <trkpt lat="45.29792" lon="3.42842">
        <ele>450.03</ele>
        <time>2022-09-09T08:45:24Z</time>
      </trkpt>
      <trkpt lat="45.29791" lon="3.42835">
        <ele>450.52</ele>
        <time>2022-09-09T08:45:25Z</time>
      </trkpt>
      <trkpt lat="45.2979" lon="3.42828">
        <ele>450.52</ele>
        <time>2022-09-09T08:45:26Z</time>
      </trkpt>
      <trkpt lat="45.29788" lon="3.42821">
        <ele>450.52</ele>
        <time>2022-09-09T08:45:27Z</time>
      </trkpt>
      <trkpt lat="45.29784" lon="3.42799">
        <ele>450.52</ele>
        <time>2022-09-09T08:45:30Z</time>
      </trkpt>
      <trkpt lat="45.29773" lon="3.42773">
        <ele>450.52</ele>
        <time>2022-09-09T08:45:34Z</time>
      </trkpt>
      <trkpt lat="45.29758" lon="3.4275">
        <ele>450.03</ele>
        <time>2022-09-09T08:45:38Z</time>
      </trkpt>
      <trkpt lat="45.29721" lon="3.42701">
        <ele>449.07</ele>
        <time>2022-09-09T08:45:46Z</time>
      </trkpt>
      <trkpt lat="45.29694" lon="3.42649">
        <ele>448.11</ele>
        <time>2022-09-09T08:45:53Z</time>
      </trkpt>
      <trkpt lat="45.29671" lon="3.42595">
        <ele>447.63</ele>
        <time>2022-09-09T08:46:00Z</time>
      </trkpt>
      <trkpt lat="45.29648" lon="3.42522">
        <ele>447.15</ele>
        <time>2022-09-09T08:46:09Z</time>
      </trkpt>
      <trkpt lat="45.29647" lon="3.42514">
        <ele>447.15</ele>
        <time>2022-09-09T08:46:10Z</time>
      </trkpt>
      <trkpt lat="45.29648" lon="3.42469">
        <ele>447.15</ele>
        <time>2022-09-09T08:46:15Z</time>
      </trkpt>
      <trkpt lat="45.29658" lon="3.42417">
        <ele>446.19</ele>
        <time>2022-09-09T08:46:22Z</time>
      </trkpt>
      <trkpt lat="45.29663" lon="3.42393">
        <ele>446.19</ele>
        <time>2022-09-09T08:46:28Z</time>
      </trkpt>
      <trkpt lat="45.29669" lon="3.4237">
        <ele>446.19</ele>
        <time>2022-09-09T08:46:35Z</time>
      </trkpt>
      <trkpt lat="45.2967" lon="3.42364">
        <ele>446.19</ele>
        <time>2022-09-09T08:46:36Z</time>
      </trkpt>
      <trkpt lat="45.2967" lon="3.42356">
        <ele>446.19</ele>
        <time>2022-09-09T08:46:37Z</time>
      </trkpt>
      <trkpt lat="45.29669" lon="3.4234">
        <ele>446.19</ele>
        <time>2022-09-09T08:46:39Z</time>
      </trkpt>
      <trkpt lat="45.29664" lon="3.42292">
        <ele>445.23</ele>
        <time>2022-09-09T08:46:45Z</time>
      </trkpt>
      <trkpt lat="45.29663" lon="3.42234">
        <ele>445.23</ele>
        <time>2022-09-09T08:46:52Z</time>
      </trkpt>
      <trkpt lat="45.29667" lon="3.42195">
        <ele>445.23</ele>
        <time>2022-09-09T08:46:57Z</time>
      </trkpt>
      <trkpt lat="45.2967" lon="3.42186">
        <ele>445.23</ele>
        <time>2022-09-09T08:46:58Z</time>
      </trkpt>
      <trkpt lat="45.29673" lon="3.42179">
        <ele>445.23</ele>
        <time>2022-09-09T08:46:59Z</time>
      </trkpt>
      <trkpt lat="45.29682" lon="3.42163">
        <ele>443.79</ele>
        <time>2022-09-09T08:47:02Z</time>
      </trkpt>
      <trkpt lat="45.29685" lon="3.4216">
        <ele>444.27</ele>
        <time>2022-09-09T08:47:03Z</time>
      </trkpt>
      <trkpt lat="45.29719" lon="3.42135">
        <ele>443.79</ele>
        <time>2022-09-09T08:47:11Z</time>
      </trkpt>
      <trkpt lat="45.29766" lon="3.42101">
        <ele>443.79</ele>
        <time>2022-09-09T08:47:21Z</time>
      </trkpt>
      <trkpt lat="45.2977" lon="3.42097">
        <ele>443.79</ele>
        <time>2022-09-09T08:47:22Z</time>
      </trkpt>
      <trkpt lat="45.29776" lon="3.42095">
        <ele>443.31</ele>
        <time>2022-09-09T08:47:23Z</time>
      </trkpt>
      <trkpt lat="45.29819" lon="3.42071">
        <ele>442.82</ele>
        <time>2022-09-09T08:47:32Z</time>
      </trkpt>
      <trkpt lat="45.29864" lon="3.42045">
        <ele>442.34</ele>
        <time>2022-09-09T08:47:41Z</time>
      </trkpt>
      <trkpt lat="45.29901" lon="3.42024">
        <ele>442.82</ele>
        <time>2022-09-09T08:47:49Z</time>
      </trkpt>
      <trkpt lat="45.29947" lon="3.41994">
        <ele>441.86</ele>
        <time>2022-09-09T08:47:58Z</time>
      </trkpt>
      <trkpt lat="45.29998" lon="3.41963">
        <ele>440.9</ele>
        <time>2022-09-09T08:48:08Z</time>
      </trkpt>
      <trkpt lat="45.30046" lon="3.41947">
        <ele>440.9</ele>
        <time>2022-09-09T08:48:16Z</time>
      </trkpt>
      <trkpt lat="45.30103" lon="3.41934">
        <ele>439.94</ele>
        <time>2022-09-09T08:48:25Z</time>
      </trkpt>
      <trkpt lat="45.30137" lon="3.41921">
        <ele>439.46</ele>
        <time>2022-09-09T08:48:31Z</time>
      </trkpt>
      <trkpt lat="45.30154" lon="3.41909">
        <ele>438.5</ele>
        <time>2022-09-09T08:48:35Z</time>
      </trkpt>
      <trkpt lat="45.30158" lon="3.41907">
        <ele>438.98</ele>
        <time>2022-09-09T08:48:36Z</time>
      </trkpt>
      <trkpt lat="45.30163" lon="3.41906">
        <ele>438.98</ele>
        <time>2022-09-09T08:48:37Z</time>
      </trkpt>
      <trkpt lat="45.30167" lon="3.41904">
        <ele>438.98</ele>
        <time>2022-09-09T08:48:38Z</time>
      </trkpt>
      <trkpt lat="45.30173" lon="3.41902">
        <ele>438.98</ele>
        <time>2022-09-09T08:48:39Z</time>
      </trkpt>
      <trkpt lat="45.30178" lon="3.41901">
        <ele>438.5</ele>
        <time>2022-09-09T08:48:40Z</time>
      </trkpt>
      <trkpt lat="45.30224" lon="3.41892">
        <ele>438.98</ele>
        <time>2022-09-09T08:48:48Z</time>
      </trkpt>
      <trkpt lat="45.30247" lon="3.41886">
        <ele>438.98</ele>
        <time>2022-09-09T08:48:52Z</time>
      </trkpt>
      <trkpt lat="45.30303" lon="3.41874">
        <ele>438.5</ele>
        <time>2022-09-09T08:49:02Z</time>
      </trkpt>
      <trkpt lat="45.30326" lon="3.41869">
        <ele>438.02</ele>
        <time>2022-09-09T08:49:06Z</time>
      </trkpt>
      <trkpt lat="45.30332" lon="3.41867">
        <ele>438.02</ele>
        <time>2022-09-09T08:49:07Z</time>
      </trkpt>
      <trkpt lat="45.3039" lon="3.41854">
        <ele>437.54</ele>
        <time>2022-09-09T08:49:17Z</time>
      </trkpt>
      <trkpt lat="45.30438" lon="3.41841">
        <ele>437.06</ele>
        <time>2022-09-09T08:49:25Z</time>
      </trkpt>
      <trkpt lat="45.30463" lon="3.41835">
        <ele>437.06</ele>
        <time>2022-09-09T08:49:29Z</time>
      </trkpt>
      <trkpt lat="45.30512" lon="3.41823">
        <ele>436.58</ele>
        <time>2022-09-09T08:49:37Z</time>
      </trkpt>
      <trkpt lat="45.30557" lon="3.41814">
        <ele>436.1</ele>
        <time>2022-09-09T08:49:44Z</time>
      </trkpt>
      <trkpt lat="45.30594" lon="3.41811">
        <ele>436.58</ele>
        <time>2022-09-09T08:49:50Z</time>
      </trkpt>
      <trkpt lat="45.30651" lon="3.41806">
        <ele>435.61</ele>
        <time>2022-09-09T08:49:59Z</time>
      </trkpt>
      <trkpt lat="45.30694" lon="3.41799">
        <ele>436.58</ele>
        <time>2022-09-09T08:50:06Z</time>
      </trkpt>
      <trkpt lat="45.30767" lon="3.41802">
        <ele>435.61</ele>
        <time>2022-09-09T08:50:18Z</time>
      </trkpt>
      <trkpt lat="45.3081" lon="3.41812">
        <ele>435.61</ele>
        <time>2022-09-09T08:50:25Z</time>
      </trkpt>
      <trkpt lat="45.3084" lon="3.41823">
        <ele>435.13</ele>
        <time>2022-09-09T08:50:30Z</time>
      </trkpt>
      <trkpt lat="45.30857" lon="3.41831">
        <ele>435.13</ele>
        <time>2022-09-09T08:50:33Z</time>
      </trkpt>
      <trkpt lat="45.30899" lon="3.41848">
        <ele>434.65</ele>
        <time>2022-09-09T08:50:41Z</time>
      </trkpt>
      <trkpt lat="45.30934" lon="3.4186">
        <ele>434.65</ele>
        <time>2022-09-09T08:50:48Z</time>
      </trkpt>
      <trkpt lat="45.30967" lon="3.41873">
        <ele>434.17</ele>
        <time>2022-09-09T08:50:56Z</time>
      </trkpt>
      <trkpt lat="45.30992" lon="3.41882">
        <ele>434.17</ele>
        <time>2022-09-09T08:51:03Z</time>
      </trkpt>
      <trkpt lat="45.31016" lon="3.4189">
        <ele>433.69</ele>
        <time>2022-09-09T08:51:11Z</time>
      </trkpt>
      <trkpt lat="45.31017" lon="3.41891">
        <ele>434.17</ele>
        <time>2022-09-09T08:51:25Z</time>
      </trkpt>
      <trkpt lat="45.31025" lon="3.41887">
        <ele>434.65</ele>
        <time>2022-09-09T08:51:28Z</time>
      </trkpt>
      <trkpt lat="45.31027" lon="3.41882">
        <ele>435.13</ele>
        <time>2022-09-09T08:51:29Z</time>
      </trkpt>
      <trkpt lat="45.31026" lon="3.41875">
        <ele>435.13</ele>
        <time>2022-09-09T08:51:30Z</time>
      </trkpt>
      <trkpt lat="45.31024" lon="3.4187">
        <ele>435.13</ele>
        <time>2022-09-09T08:51:31Z</time>
      </trkpt>
      <trkpt lat="45.31021" lon="3.41865">
        <ele>435.13</ele>
        <time>2022-09-09T08:51:32Z</time>
      </trkpt>
      <trkpt lat="45.31009" lon="3.41843">
        <ele>435.13</ele>
        <time>2022-09-09T08:51:37Z</time>
      </trkpt>
      <trkpt lat="45.30985" lon="3.41795">
        <ele>435.13</ele>
        <time>2022-09-09T08:51:45Z</time>
      </trkpt>
      <trkpt lat="45.30951" lon="3.41729">
        <ele>435.13</ele>
        <time>2022-09-09T08:51:54Z</time>
      </trkpt>
      <trkpt lat="45.30909" lon="3.41648">
        <ele>435.13</ele>
        <time>2022-09-09T08:52:05Z</time>
      </trkpt>
      <trkpt lat="45.30876" lon="3.41582">
        <ele>435.61</ele>
        <time>2022-09-09T08:52:14Z</time>
      </trkpt>
      <trkpt lat="45.30834" lon="3.41501">
        <ele>436.1</ele>
        <time>2022-09-09T08:52:25Z</time>
      </trkpt>
      <trkpt lat="45.308" lon="3.41437">
        <ele>436.58</ele>
        <time>2022-09-09T08:52:34Z</time>
      </trkpt>
      <trkpt lat="45.30767" lon="3.41371">
        <ele>436.58</ele>
        <time>2022-09-09T08:52:43Z</time>
      </trkpt>
      <trkpt lat="45.30731" lon="3.41301">
        <ele>436.1</ele>
        <time>2022-09-09T08:52:53Z</time>
      </trkpt>
      <trkpt lat="45.30726" lon="3.41287">
        <ele>435.61</ele>
        <time>2022-09-09T08:52:57Z</time>
      </trkpt>
      <trkpt lat="45.30712" lon="3.41263">
        <ele>436.1</ele>
        <time>2022-09-09T08:53:01Z</time>
      </trkpt>
      <trkpt lat="45.30678" lon="3.41198">
        <ele>436.58</ele>
        <time>2022-09-09T08:53:10Z</time>
      </trkpt>
      <trkpt lat="45.30644" lon="3.41132">
        <ele>436.1</ele>
        <time>2022-09-09T08:53:19Z</time>
      </trkpt>
      <trkpt lat="45.30604" lon="3.41052">
        <ele>437.06</ele>
        <time>2022-09-09T08:53:30Z</time>
      </trkpt>
      <trkpt lat="45.3057" lon="3.40987">
        <ele>437.06</ele>
        <time>2022-09-09T08:53:39Z</time>
      </trkpt>
      <trkpt lat="45.30536" lon="3.40921">
        <ele>436.58</ele>
        <time>2022-09-09T08:53:48Z</time>
      </trkpt>
      <trkpt lat="45.30499" lon="3.40847">
        <ele>437.06</ele>
        <time>2022-09-09T08:53:58Z</time>
      </trkpt>
      <trkpt lat="45.30462" lon="3.40776">
        <ele>437.54</ele>
        <time>2022-09-09T08:54:08Z</time>
      </trkpt>
      <trkpt lat="45.30451" lon="3.40756">
        <ele>436.1</ele>
        <time>2022-09-09T08:54:11Z</time>
      </trkpt>
      <trkpt lat="45.30437" lon="3.40738">
        <ele>436.58</ele>
        <time>2022-09-09T08:54:14Z</time>
      </trkpt>
      <trkpt lat="45.30432" lon="3.40734">
        <ele>437.06</ele>
        <time>2022-09-09T08:54:15Z</time>
      </trkpt>
      <trkpt lat="45.30426" lon="3.4073">
        <ele>437.54</ele>
        <time>2022-09-09T08:54:16Z</time>
      </trkpt>
      <trkpt lat="45.30421" lon="3.40728">
        <ele>437.54</ele>
        <time>2022-09-09T08:54:17Z</time>
      </trkpt>
      <trkpt lat="45.30415" lon="3.40726">
        <ele>437.06</ele>
        <time>2022-09-09T08:54:18Z</time>
      </trkpt>
      <trkpt lat="45.30409" lon="3.40725">
        <ele>437.06</ele>
        <time>2022-09-09T08:54:19Z</time>
      </trkpt>
      <trkpt lat="45.3038" lon="3.40722">
        <ele>438.5</ele>
        <time>2022-09-09T08:54:24Z</time>
      </trkpt>
      <trkpt lat="45.30374" lon="3.4072">
        <ele>438.5</ele>
        <time>2022-09-09T08:54:25Z</time>
      </trkpt>
      <trkpt lat="45.30369" lon="3.40716">
        <ele>438.98</ele>
        <time>2022-09-09T08:54:26Z</time>
      </trkpt>
      <trkpt lat="45.3036" lon="3.40706">
        <ele>439.46</ele>
        <time>2022-09-09T08:54:28Z</time>
      </trkpt>
      <trkpt lat="45.30355" lon="3.40701">
        <ele>440.42</ele>
        <time>2022-09-09T08:54:29Z</time>
      </trkpt>
      <trkpt lat="45.3035" lon="3.40695">
        <ele>439.94</ele>
        <time>2022-09-09T08:54:30Z</time>
      </trkpt>
      <trkpt lat="45.30348" lon="3.40688">
        <ele>440.9</ele>
        <time>2022-09-09T08:54:31Z</time>
      </trkpt>
      <trkpt lat="45.30345" lon="3.40681">
        <ele>441.38</ele>
        <time>2022-09-09T08:54:32Z</time>
      </trkpt>
      <trkpt lat="45.30343" lon="3.40672">
        <ele>441.38</ele>
        <time>2022-09-09T08:54:33Z</time>
      </trkpt>
      <trkpt lat="45.30317" lon="3.40569">
        <ele>441.38</ele>
        <time>2022-09-09T08:54:45Z</time>
      </trkpt>
      <trkpt lat="45.30294" lon="3.40474">
        <ele>439.94</ele>
        <time>2022-09-09T08:54:55Z</time>
      </trkpt>
      <trkpt lat="45.30263" lon="3.40391">
        <ele>438.5</ele>
        <time>2022-09-09T08:55:04Z</time>
      </trkpt>
      <trkpt lat="45.30231" lon="3.4032">
        <ele>438.02</ele>
        <time>2022-09-09T08:55:13Z</time>
      </trkpt>
      <trkpt lat="45.30202" lon="3.40249">
        <ele>438.02</ele>
        <time>2022-09-09T08:55:22Z</time>
      </trkpt>
      <trkpt lat="45.30199" lon="3.40243">
        <ele>437.54</ele>
        <time>2022-09-09T08:55:23Z</time>
      </trkpt>
      <trkpt lat="45.30195" lon="3.40228">
        <ele>436.58</ele>
        <time>2022-09-09T08:55:27Z</time>
      </trkpt>
      <trkpt lat="45.30193" lon="3.40227">
        <ele>436.58</ele>
        <time>2022-09-09T08:55:28Z</time>
      </trkpt>
      <trkpt lat="45.30191" lon="3.40226">
        <ele>436.58</ele>
        <time>2022-09-09T08:55:29Z</time>
      </trkpt>
      <trkpt lat="45.30189" lon="3.40224">
        <ele>437.06</ele>
        <time>2022-09-09T08:55:30Z</time>
      </trkpt>
      <trkpt lat="45.30186" lon="3.4022">
        <ele>437.06</ele>
        <time>2022-09-09T08:55:31Z</time>
      </trkpt>
      <trkpt lat="45.30183" lon="3.40216">
        <ele>437.06</ele>
        <time>2022-09-09T08:55:32Z</time>
      </trkpt>
      <trkpt lat="45.3018" lon="3.40212">
        <ele>437.06</ele>
        <time>2022-09-09T08:55:33Z</time>
      </trkpt>
      <trkpt lat="45.30177" lon="3.40208">
        <ele>437.06</ele>
        <time>2022-09-09T08:55:34Z</time>
      </trkpt>
      <trkpt lat="45.30171" lon="3.40199">
        <ele>437.06</ele>
        <time>2022-09-09T08:55:36Z</time>
      </trkpt>
      <trkpt lat="45.30169" lon="3.40194">
        <ele>437.06</ele>
        <time>2022-09-09T08:55:37Z</time>
      </trkpt>
      <trkpt lat="45.30168" lon="3.40188">
        <ele>437.06</ele>
        <time>2022-09-09T08:55:38Z</time>
      </trkpt>
      <trkpt lat="45.3016" lon="3.40153">
        <ele>436.58</ele>
        <time>2022-09-09T08:55:44Z</time>
      </trkpt>
      <trkpt lat="45.30143" lon="3.4009">
        <ele>436.58</ele>
        <time>2022-09-09T08:55:53Z</time>
      </trkpt>
      <trkpt lat="45.30128" lon="3.40026">
        <ele>436.1</ele>
        <time>2022-09-09T08:56:01Z</time>
      </trkpt>
      <trkpt lat="45.30108" lon="3.39945">
        <ele>436.58</ele>
        <time>2022-09-09T08:56:11Z</time>
      </trkpt>
      <trkpt lat="45.30107" lon="3.39937">
        <ele>436.1</ele>
        <time>2022-09-09T08:56:12Z</time>
      </trkpt>
      <trkpt lat="45.30106" lon="3.3993">
        <ele>436.58</ele>
        <time>2022-09-09T08:56:13Z</time>
      </trkpt>
      <trkpt lat="45.30108" lon="3.39923">
        <ele>436.58</ele>
        <time>2022-09-09T08:56:14Z</time>
      </trkpt>
      <trkpt lat="45.30111" lon="3.39917">
        <ele>436.58</ele>
        <time>2022-09-09T08:56:15Z</time>
      </trkpt>
      <trkpt lat="45.30115" lon="3.39913">
        <ele>436.58</ele>
        <time>2022-09-09T08:56:16Z</time>
      </trkpt>
      <trkpt lat="45.30119" lon="3.3991">
        <ele>436.1</ele>
        <time>2022-09-09T08:56:17Z</time>
      </trkpt>
      <trkpt lat="45.30124" lon="3.39907">
        <ele>436.58</ele>
        <time>2022-09-09T08:56:18Z</time>
      </trkpt>
      <trkpt lat="45.3013" lon="3.39905">
        <ele>436.58</ele>
        <time>2022-09-09T08:56:19Z</time>
      </trkpt>
      <trkpt lat="45.30167" lon="3.39884">
        <ele>436.58</ele>
        <time>2022-09-09T08:56:26Z</time>
      </trkpt>
      <trkpt lat="45.30171" lon="3.39879">
        <ele>436.1</ele>
        <time>2022-09-09T08:56:27Z</time>
      </trkpt>
      <trkpt lat="45.30199" lon="3.39856">
        <ele>436.1</ele>
        <time>2022-09-09T08:56:34Z</time>
      </trkpt>
      <trkpt lat="45.30207" lon="3.39852">
        <ele>436.1</ele>
        <time>2022-09-09T08:56:36Z</time>
      </trkpt>
      <trkpt lat="45.30212" lon="3.39851">
        <ele>436.1</ele>
        <time>2022-09-09T08:56:37Z</time>
      </trkpt>
      <trkpt lat="45.30217" lon="3.39851">
        <ele>436.1</ele>
        <time>2022-09-09T08:56:38Z</time>
      </trkpt>
      <trkpt lat="45.30222" lon="3.39852">
        <ele>436.1</ele>
        <time>2022-09-09T08:56:39Z</time>
      </trkpt>
      <trkpt lat="45.30227" lon="3.39854">
        <ele>435.61</ele>
        <time>2022-09-09T08:56:40Z</time>
      </trkpt>
      <trkpt lat="45.30232" lon="3.39857">
        <ele>435.61</ele>
        <time>2022-09-09T08:56:41Z</time>
      </trkpt>
      <trkpt lat="45.30237" lon="3.39859">
        <ele>436.1</ele>
        <time>2022-09-09T08:56:42Z</time>
      </trkpt>
      <trkpt lat="45.30242" lon="3.3986">
        <ele>436.1</ele>
        <time>2022-09-09T08:56:43Z</time>
      </trkpt>
      <trkpt lat="45.30248" lon="3.39862">
        <ele>435.61</ele>
        <time>2022-09-09T08:56:44Z</time>
      </trkpt>
      <trkpt lat="45.30264" lon="3.39869">
        <ele>435.61</ele>
        <time>2022-09-09T08:56:47Z</time>
      </trkpt>
      <trkpt lat="45.3028" lon="3.39883">
        <ele>435.61</ele>
        <time>2022-09-09T08:56:50Z</time>
      </trkpt>
      <trkpt lat="45.30303" lon="3.3991">
        <ele>435.61</ele>
        <time>2022-09-09T08:56:55Z</time>
      </trkpt>
      <trkpt lat="45.30306" lon="3.39917">
        <ele>435.61</ele>
        <time>2022-09-09T08:56:56Z</time>
      </trkpt>
      <trkpt lat="45.3031" lon="3.39924">
        <ele>435.13</ele>
        <time>2022-09-09T08:56:57Z</time>
      </trkpt>
      <trkpt lat="45.30353" lon="3.39986">
        <ele>435.61</ele>
        <time>2022-09-09T08:57:07Z</time>
      </trkpt>
      <trkpt lat="45.30359" lon="3.39989">
        <ele>435.61</ele>
        <time>2022-09-09T08:57:08Z</time>
      </trkpt>
      <trkpt lat="45.30365" lon="3.39989">
        <ele>435.61</ele>
        <time>2022-09-09T08:57:09Z</time>
      </trkpt>
      <trkpt lat="45.30371" lon="3.39987">
        <ele>435.61</ele>
        <time>2022-09-09T08:57:10Z</time>
      </trkpt>
      <trkpt lat="45.30376" lon="3.39984">
        <ele>435.61</ele>
        <time>2022-09-09T08:57:11Z</time>
      </trkpt>
      <trkpt lat="45.30381" lon="3.3998">
        <ele>436.1</ele>
        <time>2022-09-09T08:57:12Z</time>
      </trkpt>
      <trkpt lat="45.30387" lon="3.39975">
        <ele>436.1</ele>
        <time>2022-09-09T08:57:13Z</time>
      </trkpt>
      <trkpt lat="45.30424" lon="3.39948">
        <ele>434.65</ele>
        <time>2022-09-09T08:57:20Z</time>
      </trkpt>
      <trkpt lat="45.30433" lon="3.39939">
        <ele>434.65</ele>
        <time>2022-09-09T08:57:22Z</time>
      </trkpt>
      <trkpt lat="45.30438" lon="3.39934">
        <ele>434.65</ele>
        <time>2022-09-09T08:57:23Z</time>
      </trkpt>
      <trkpt lat="45.30477" lon="3.3991">
        <ele>434.65</ele>
        <time>2022-09-09T08:57:30Z</time>
      </trkpt>
      <trkpt lat="45.30482" lon="3.39906">
        <ele>435.13</ele>
        <time>2022-09-09T08:57:31Z</time>
      </trkpt>
      <trkpt lat="45.30487" lon="3.39901">
        <ele>435.13</ele>
        <time>2022-09-09T08:57:32Z</time>
      </trkpt>
      <trkpt lat="45.30492" lon="3.39896">
        <ele>435.13</ele>
        <time>2022-09-09T08:57:33Z</time>
      </trkpt>
      <trkpt lat="45.30498" lon="3.39892">
        <ele>434.65</ele>
        <time>2022-09-09T08:57:34Z</time>
      </trkpt>
      <trkpt lat="45.30503" lon="3.39889">
        <ele>434.17</ele>
        <time>2022-09-09T08:57:35Z</time>
      </trkpt>
      <trkpt lat="45.30509" lon="3.39884">
        <ele>434.65</ele>
        <time>2022-09-09T08:57:36Z</time>
      </trkpt>
      <trkpt lat="45.30513" lon="3.39879">
        <ele>435.13</ele>
        <time>2022-09-09T08:57:37Z</time>
      </trkpt>
      <trkpt lat="45.30518" lon="3.39874">
        <ele>435.61</ele>
        <time>2022-09-09T08:57:38Z</time>
      </trkpt>
      <trkpt lat="45.30523" lon="3.39869">
        <ele>435.61</ele>
        <time>2022-09-09T08:57:39Z</time>
      </trkpt>
      <trkpt lat="45.30528" lon="3.39865">
        <ele>435.61</ele>
        <time>2022-09-09T08:57:40Z</time>
      </trkpt>
      <trkpt lat="45.30569" lon="3.3983">
        <ele>434.65</ele>
        <time>2022-09-09T08:57:48Z</time>
      </trkpt>
      <trkpt lat="45.3061" lon="3.39808">
        <ele>434.17</ele>
        <time>2022-09-09T08:57:56Z</time>
      </trkpt>
      <trkpt lat="45.30626" lon="3.39798">
        <ele>434.17</ele>
        <time>2022-09-09T08:57:59Z</time>
      </trkpt>
      <trkpt lat="45.30632" lon="3.39797">
        <ele>434.17</ele>
        <time>2022-09-09T08:58:00Z</time>
      </trkpt>
      <trkpt lat="45.30677" lon="3.39786">
        <ele>433.69</ele>
        <time>2022-09-09T08:58:08Z</time>
      </trkpt>
      <trkpt lat="45.30725" lon="3.39782">
        <ele>434.17</ele>
        <time>2022-09-09T08:58:16Z</time>
      </trkpt>
      <trkpt lat="45.30769" lon="3.39782">
        <ele>433.69</ele>
        <time>2022-09-09T08:58:23Z</time>
      </trkpt>
      <trkpt lat="45.30826" lon="3.39791">
        <ele>433.21</ele>
        <time>2022-09-09T08:58:32Z</time>
      </trkpt>
      <trkpt lat="45.30832" lon="3.3979">
        <ele>433.69</ele>
        <time>2022-09-09T08:58:33Z</time>
      </trkpt>
      <trkpt lat="45.30838" lon="3.39787">
        <ele>433.69</ele>
        <time>2022-09-09T08:58:34Z</time>
      </trkpt>
      <trkpt lat="45.30878" lon="3.39761">
        <ele>433.69</ele>
        <time>2022-09-09T08:58:41Z</time>
      </trkpt>
      <trkpt lat="45.30925" lon="3.39718">
        <ele>433.69</ele>
        <time>2022-09-09T08:58:50Z</time>
      </trkpt>
      <trkpt lat="45.30952" lon="3.39694">
        <ele>433.21</ele>
        <time>2022-09-09T08:58:55Z</time>
      </trkpt>
      <trkpt lat="45.30981" lon="3.39675">
        <ele>433.21</ele>
        <time>2022-09-09T08:59:00Z</time>
      </trkpt>
      <trkpt lat="45.31035" lon="3.3963">
        <ele>432.73</ele>
        <time>2022-09-09T08:59:10Z</time>
      </trkpt>
      <trkpt lat="45.3104" lon="3.39625">
        <ele>433.21</ele>
        <time>2022-09-09T08:59:11Z</time>
      </trkpt>
      <trkpt lat="45.31045" lon="3.39619">
        <ele>432.73</ele>
        <time>2022-09-09T08:59:12Z</time>
      </trkpt>
      <trkpt lat="45.31054" lon="3.39608">
        <ele>432.73</ele>
        <time>2022-09-09T08:59:14Z</time>
      </trkpt>
      <trkpt lat="45.3106" lon="3.39604">
        <ele>433.21</ele>
        <time>2022-09-09T08:59:15Z</time>
      </trkpt>
      <trkpt lat="45.31065" lon="3.396">
        <ele>432.73</ele>
        <time>2022-09-09T08:59:16Z</time>
      </trkpt>
      <trkpt lat="45.31071" lon="3.39596">
        <ele>432.73</ele>
        <time>2022-09-09T08:59:17Z</time>
      </trkpt>
      <trkpt lat="45.31077" lon="3.39592">
        <ele>432.73</ele>
        <time>2022-09-09T08:59:18Z</time>
      </trkpt>
      <trkpt lat="45.31133" lon="3.39552">
        <ele>432.25</ele>
        <time>2022-09-09T08:59:28Z</time>
      </trkpt>
      <trkpt lat="45.31145" lon="3.39544">
        <ele>432.25</ele>
        <time>2022-09-09T08:59:30Z</time>
      </trkpt>
      <trkpt lat="45.31191" lon="3.39516">
        <ele>431.77</ele>
        <time>2022-09-09T08:59:38Z</time>
      </trkpt>
      <trkpt lat="45.31234" lon="3.39487">
        <ele>431.77</ele>
        <time>2022-09-09T08:59:46Z</time>
      </trkpt>
      <trkpt lat="45.31272" lon="3.39461">
        <ele>431.29</ele>
        <time>2022-09-09T08:59:53Z</time>
      </trkpt>
      <trkpt lat="45.31309" lon="3.39437">
        <ele>431.29</ele>
        <time>2022-09-09T09:00:01Z</time>
      </trkpt>
      <trkpt lat="45.31359" lon="3.39407">
        <ele>431.29</ele>
        <time>2022-09-09T09:00:10Z</time>
      </trkpt>
      <trkpt lat="45.31399" lon="3.39383">
        <ele>431.29</ele>
        <time>2022-09-09T09:00:17Z</time>
      </trkpt>
      <trkpt lat="45.31464" lon="3.39348">
        <ele>431.77</ele>
        <time>2022-09-09T09:00:28Z</time>
      </trkpt>
      <trkpt lat="45.3151" lon="3.39323">
        <ele>431.77</ele>
        <time>2022-09-09T09:00:36Z</time>
      </trkpt>
      <trkpt lat="45.31516" lon="3.39319">
        <ele>431.77</ele>
        <time>2022-09-09T09:00:37Z</time>
      </trkpt>
      <trkpt lat="45.31549" lon="3.39298">
        <ele>431.29</ele>
        <time>2022-09-09T09:00:43Z</time>
      </trkpt>
      <trkpt lat="45.31595" lon="3.39285">
        <ele>430.33</ele>
        <time>2022-09-09T09:00:51Z</time>
      </trkpt>
      <trkpt lat="45.31622" lon="3.39277">
        <ele>430.33</ele>
        <time>2022-09-09T09:00:56Z</time>
      </trkpt>
      <trkpt lat="45.31627" lon="3.39275">
        <ele>430.81</ele>
        <time>2022-09-09T09:00:57Z</time>
      </trkpt>
      <trkpt lat="45.31633" lon="3.39274">
        <ele>430.33</ele>
        <time>2022-09-09T09:00:58Z</time>
      </trkpt>
      <trkpt lat="45.31645" lon="3.39271">
        <ele>430.81</ele>
        <time>2022-09-09T09:01:00Z</time>
      </trkpt>
      <trkpt lat="45.31695" lon="3.3926">
        <ele>430.33</ele>
        <time>2022-09-09T09:01:08Z</time>
      </trkpt>
      <trkpt lat="45.31721" lon="3.39253">
        <ele>430.33</ele>
        <time>2022-09-09T09:01:12Z</time>
      </trkpt>
      <trkpt lat="45.31771" lon="3.39243">
        <ele>430.81</ele>
        <time>2022-09-09T09:01:20Z</time>
      </trkpt>
      <trkpt lat="45.31803" lon="3.39236">
        <ele>430.33</ele>
        <time>2022-09-09T09:01:25Z</time>
      </trkpt>
      <trkpt lat="45.31815" lon="3.39231">
        <ele>429.85</ele>
        <time>2022-09-09T09:01:27Z</time>
      </trkpt>
      <trkpt lat="45.31821" lon="3.3923">
        <ele>429.85</ele>
        <time>2022-09-09T09:01:28Z</time>
      </trkpt>
      <trkpt lat="45.3186" lon="3.39222">
        <ele>430.33</ele>
        <time>2022-09-09T09:01:35Z</time>
      </trkpt>
      <trkpt lat="45.31908" lon="3.39211">
        <ele>430.81</ele>
        <time>2022-09-09T09:01:43Z</time>
      </trkpt>
      <trkpt lat="45.31969" lon="3.39199">
        <ele>429.85</ele>
        <time>2022-09-09T09:01:53Z</time>
      </trkpt>
      <trkpt lat="45.3205" lon="3.39182">
        <ele>429.85</ele>
        <time>2022-09-09T09:02:06Z</time>
      </trkpt>
      <trkpt lat="45.32088" lon="3.39174">
        <ele>429.85</ele>
        <time>2022-09-09T09:02:12Z</time>
      </trkpt>
      <trkpt lat="45.32094" lon="3.3917">
        <ele>430.33</ele>
        <time>2022-09-09T09:02:13Z</time>
      </trkpt>
      <trkpt lat="45.32099" lon="3.39166">
        <ele>429.85</ele>
        <time>2022-09-09T09:02:14Z</time>
      </trkpt>
      <trkpt lat="45.32104" lon="3.39161">
        <ele>429.85</ele>
        <time>2022-09-09T09:02:15Z</time>
      </trkpt>
      <trkpt lat="45.32109" lon="3.39157">
        <ele>429.85</ele>
        <time>2022-09-09T09:02:16Z</time>
      </trkpt>
      <trkpt lat="45.32163" lon="3.39111">
        <ele>429.37</ele>
        <time>2022-09-09T09:02:26Z</time>
      </trkpt>
      <trkpt lat="45.32207" lon="3.39076">
        <ele>429.37</ele>
        <time>2022-09-09T09:02:34Z</time>
      </trkpt>
      <trkpt lat="45.32255" lon="3.39036">
        <ele>429.37</ele>
        <time>2022-09-09T09:02:43Z</time>
      </trkpt>
      <trkpt lat="45.32305" lon="3.38996">
        <ele>429.37</ele>
        <time>2022-09-09T09:02:52Z</time>
      </trkpt>
      <trkpt lat="45.32352" lon="3.38957">
        <ele>429.37</ele>
        <time>2022-09-09T09:03:01Z</time>
      </trkpt>
      <trkpt lat="45.32358" lon="3.3895">
        <ele>428.4</ele>
        <time>2022-09-09T09:03:03Z</time>
      </trkpt>
      <trkpt lat="45.32359" lon="3.38946">
        <ele>428.4</ele>
        <time>2022-09-09T09:03:04Z</time>
      </trkpt>
      <trkpt lat="45.32359" lon="3.38942">
        <ele>428.4</ele>
        <time>2022-09-09T09:03:05Z</time>
      </trkpt>
      <trkpt lat="45.32356" lon="3.38939">
        <ele>428.4</ele>
        <time>2022-09-09T09:03:06Z</time>
      </trkpt>
      <trkpt lat="45.32353" lon="3.38937">
        <ele>428.89</ele>
        <time>2022-09-09T09:03:07Z</time>
      </trkpt>
      <trkpt lat="45.32349" lon="3.38938">
        <ele>428.89</ele>
        <time>2022-09-09T09:03:08Z</time>
      </trkpt>
      <trkpt lat="45.32344" lon="3.38939">
        <ele>428.89</ele>
        <time>2022-09-09T09:03:09Z</time>
      </trkpt>
      <trkpt lat="45.32303" lon="3.38944">
        <ele>429.37</ele>
        <time>2022-09-09T09:03:17Z</time>
      </trkpt>
      <trkpt lat="45.32256" lon="3.3895">
        <ele>429.37</ele>
        <time>2022-09-09T09:03:25Z</time>
      </trkpt>
      <trkpt lat="45.32201" lon="3.38954">
        <ele>429.37</ele>
        <time>2022-09-09T09:03:34Z</time>
      </trkpt>
      <trkpt lat="45.32148" lon="3.38956">
        <ele>429.37</ele>
        <time>2022-09-09T09:03:43Z</time>
      </trkpt>
      <trkpt lat="45.321" lon="3.38957">
        <ele>429.37</ele>
        <time>2022-09-09T09:03:51Z</time>
      </trkpt>
      <trkpt lat="45.32051" lon="3.38956">
        <ele>429.85</ele>
        <time>2022-09-09T09:03:59Z</time>
      </trkpt>
      <trkpt lat="45.31976" lon="3.38956">
        <ele>429.85</ele>
        <time>2022-09-09T09:04:11Z</time>
      </trkpt>
      <trkpt lat="45.31912" lon="3.38957">
        <ele>429.85</ele>
        <time>2022-09-09T09:04:21Z</time>
      </trkpt>
      <trkpt lat="45.31893" lon="3.38958">
        <ele>429.85</ele>
        <time>2022-09-09T09:04:24Z</time>
      </trkpt>
      <trkpt lat="45.31889" lon="3.38956">
        <ele>429.37</ele>
        <time>2022-09-09T09:04:25Z</time>
      </trkpt>
      <trkpt lat="45.31886" lon="3.38952">
        <ele>429.37</ele>
        <time>2022-09-09T09:04:26Z</time>
      </trkpt>
      <trkpt lat="45.31885" lon="3.38948">
        <ele>429.37</ele>
        <time>2022-09-09T09:04:27Z</time>
      </trkpt>
      <trkpt lat="45.31885" lon="3.38944">
        <ele>428.89</ele>
        <time>2022-09-09T09:04:28Z</time>
      </trkpt>
      <trkpt lat="45.31886" lon="3.38939">
        <ele>429.37</ele>
        <time>2022-09-09T09:04:29Z</time>
      </trkpt>
      <trkpt lat="45.31888" lon="3.38934">
        <ele>429.85</ele>
        <time>2022-09-09T09:04:30Z</time>
      </trkpt>
      <trkpt lat="45.3189" lon="3.38927">
        <ele>430.33</ele>
        <time>2022-09-09T09:04:31Z</time>
      </trkpt>
      <trkpt lat="45.31893" lon="3.3892">
        <ele>430.33</ele>
        <time>2022-09-09T09:04:32Z</time>
      </trkpt>
      <trkpt lat="45.31895" lon="3.38913">
        <ele>430.33</ele>
        <time>2022-09-09T09:04:33Z</time>
      </trkpt>
      <trkpt lat="45.31897" lon="3.38905">
        <ele>430.33</ele>
        <time>2022-09-09T09:04:34Z</time>
      </trkpt>
      <trkpt lat="45.31915" lon="3.38831">
        <ele>430.33</ele>
        <time>2022-09-09T09:04:43Z</time>
      </trkpt>
      <trkpt lat="45.31933" lon="3.38764">
        <ele>430.33</ele>
        <time>2022-09-09T09:04:51Z</time>
      </trkpt>
      <trkpt lat="45.31955" lon="3.38681">
        <ele>430.33</ele>
        <time>2022-09-09T09:05:01Z</time>
      </trkpt>
      <trkpt lat="45.31967" lon="3.38639">
        <ele>429.85</ele>
        <time>2022-09-09T09:05:06Z</time>
      </trkpt>
      <trkpt lat="45.31982" lon="3.38575">
        <ele>429.37</ele>
        <time>2022-09-09T09:05:14Z</time>
      </trkpt>
      <trkpt lat="45.32001" lon="3.38523">
        <ele>428.89</ele>
        <time>2022-09-09T09:05:21Z</time>
      </trkpt>
      <trkpt lat="45.3201" lon="3.38503">
        <ele>429.37</ele>
        <time>2022-09-09T09:05:24Z</time>
      </trkpt>
      <trkpt lat="45.32021" lon="3.38478">
        <ele>427.92</ele>
        <time>2022-09-09T09:05:29Z</time>
      </trkpt>
      <trkpt lat="45.32022" lon="3.38472">
        <ele>428.4</ele>
        <time>2022-09-09T09:05:50Z</time>
      </trkpt>
      <trkpt lat="45.32034" lon="3.38454">
        <ele>428.89</ele>
        <time>2022-09-09T09:05:55Z</time>
      </trkpt>
      <trkpt lat="45.32063" lon="3.38417">
        <ele>428.89</ele>
        <time>2022-09-09T09:06:02Z</time>
      </trkpt>
      <trkpt lat="45.32068" lon="3.38412">
        <ele>428.89</ele>
        <time>2022-09-09T09:06:03Z</time>
      </trkpt>
      <trkpt lat="45.32081" lon="3.38397">
        <ele>429.37</ele>
        <time>2022-09-09T09:06:06Z</time>
      </trkpt>
      <trkpt lat="45.32084" lon="3.38391">
        <ele>429.37</ele>
        <time>2022-09-09T09:06:07Z</time>
      </trkpt>
      <trkpt lat="45.32087" lon="3.38384">
        <ele>429.85</ele>
        <time>2022-09-09T09:06:08Z</time>
      </trkpt>
      <trkpt lat="45.32109" lon="3.38316">
        <ele>428.89</ele>
        <time>2022-09-09T09:06:17Z</time>
      </trkpt>
      <trkpt lat="45.32134" lon="3.38235">
        <ele>429.37</ele>
        <time>2022-09-09T09:06:27Z</time>
      </trkpt>
      <trkpt lat="45.32145" lon="3.38164">
        <ele>428.89</ele>
        <time>2022-09-09T09:06:35Z</time>
      </trkpt>
      <trkpt lat="45.32153" lon="3.38066">
        <ele>428.89</ele>
        <time>2022-09-09T09:06:46Z</time>
      </trkpt>
      <trkpt lat="45.32161" lon="3.37957">
        <ele>428.4</ele>
        <time>2022-09-09T09:06:58Z</time>
      </trkpt>
      <trkpt lat="45.32169" lon="3.37889">
        <ele>428.89</ele>
        <time>2022-09-09T09:07:06Z</time>
      </trkpt>
      <trkpt lat="45.32171" lon="3.37884">
        <ele>428.89</ele>
        <time>2022-09-09T09:07:07Z</time>
      </trkpt>
      <trkpt lat="45.32183" lon="3.37846">
        <ele>429.37</ele>
        <time>2022-09-09T09:07:12Z</time>
      </trkpt>
      <trkpt lat="45.322" lon="3.37778">
        <ele>428.89</ele>
        <time>2022-09-09T09:07:20Z</time>
      </trkpt>
      <trkpt lat="45.32203" lon="3.37771">
        <ele>428.4</ele>
        <time>2022-09-09T09:07:21Z</time>
      </trkpt>
      <trkpt lat="45.32207" lon="3.37763">
        <ele>428.4</ele>
        <time>2022-09-09T09:07:22Z</time>
      </trkpt>
      <trkpt lat="45.32211" lon="3.37756">
        <ele>428.4</ele>
        <time>2022-09-09T09:07:23Z</time>
      </trkpt>
      <trkpt lat="45.32215" lon="3.3775">
        <ele>428.4</ele>
        <time>2022-09-09T09:07:24Z</time>
      </trkpt>
      <trkpt lat="45.3222" lon="3.37744">
        <ele>428.4</ele>
        <time>2022-09-09T09:07:25Z</time>
      </trkpt>
      <trkpt lat="45.32264" lon="3.37695">
        <ele>429.37</ele>
        <time>2022-09-09T09:07:34Z</time>
      </trkpt>
      <trkpt lat="45.32269" lon="3.37691">
        <ele>429.37</ele>
        <time>2022-09-09T09:07:35Z</time>
      </trkpt>
      <trkpt lat="45.32272" lon="3.37685">
        <ele>428.89</ele>
        <time>2022-09-09T09:07:36Z</time>
      </trkpt>
      <trkpt lat="45.32273" lon="3.37679">
        <ele>429.37</ele>
        <time>2022-09-09T09:07:37Z</time>
      </trkpt>
      <trkpt lat="45.32273" lon="3.37671">
        <ele>429.85</ele>
        <time>2022-09-09T09:07:38Z</time>
      </trkpt>
      <trkpt lat="45.32273" lon="3.37665">
        <ele>430.33</ele>
        <time>2022-09-09T09:07:39Z</time>
      </trkpt>
      <trkpt lat="45.32271" lon="3.37628">
        <ele>431.77</ele>
        <time>2022-09-09T09:07:44Z</time>
      </trkpt>
      <trkpt lat="45.32262" lon="3.37585">
        <ele>435.13</ele>
        <time>2022-09-09T09:07:50Z</time>
      </trkpt>
      <trkpt lat="45.32256" lon="3.3756">
        <ele>438.5</ele>
        <time>2022-09-09T09:07:54Z</time>
      </trkpt>
      <trkpt lat="45.32244" lon="3.37503">
        <ele>439.46</ele>
        <time>2022-09-09T09:08:02Z</time>
      </trkpt>
      <trkpt lat="45.32226" lon="3.37431">
        <ele>439.94</ele>
        <time>2022-09-09T09:08:11Z</time>
      </trkpt>
      <trkpt lat="45.32206" lon="3.37348">
        <ele>439.94</ele>
        <time>2022-09-09T09:08:21Z</time>
      </trkpt>
      <trkpt lat="45.32196" lon="3.37301">
        <ele>439.46</ele>
        <time>2022-09-09T09:08:27Z</time>
      </trkpt>
      <trkpt lat="45.32195" lon="3.37294">
        <ele>439.46</ele>
        <time>2022-09-09T09:08:28Z</time>
      </trkpt>
      <trkpt lat="45.32193" lon="3.37279">
        <ele>440.42</ele>
        <time>2022-09-09T09:08:30Z</time>
      </trkpt>
      <trkpt lat="45.3219" lon="3.37272">
        <ele>441.38</ele>
        <time>2022-09-09T09:08:31Z</time>
      </trkpt>
      <trkpt lat="45.32184" lon="3.37258">
        <ele>440.9</ele>
        <time>2022-09-09T09:08:33Z</time>
      </trkpt>
      <trkpt lat="45.32171" lon="3.37194">
        <ele>439.94</ele>
        <time>2022-09-09T09:08:41Z</time>
      </trkpt>
      <trkpt lat="45.3216" lon="3.37142">
        <ele>439.94</ele>
        <time>2022-09-09T09:08:48Z</time>
      </trkpt>
      <trkpt lat="45.32157" lon="3.37136">
        <ele>439.46</ele>
        <time>2022-09-09T09:08:49Z</time>
      </trkpt>
      <trkpt lat="45.32154" lon="3.37131">
        <ele>439.46</ele>
        <time>2022-09-09T09:08:50Z</time>
      </trkpt>
      <trkpt lat="45.32153" lon="3.37128">
        <ele>438.5</ele>
        <time>2022-09-09T09:08:51Z</time>
      </trkpt>
      <trkpt lat="45.32152" lon="3.37127">
        <ele>438.5</ele>
        <time>2022-09-09T09:08:52Z</time>
      </trkpt>
      <trkpt lat="45.32143" lon="3.37115">
        <ele>438.98</ele>
        <time>2022-09-09T09:09:01Z</time>
      </trkpt>
      <trkpt lat="45.32143" lon="3.37113">
        <ele>438.98</ele>
        <time>2022-09-09T09:09:02Z</time>
      </trkpt>
      <trkpt lat="45.32142" lon="3.37109">
        <ele>439.46</ele>
        <time>2022-09-09T09:09:03Z</time>
      </trkpt>
      <trkpt lat="45.32142" lon="3.37104">
        <ele>439.46</ele>
        <time>2022-09-09T09:09:04Z</time>
      </trkpt>
      <trkpt lat="45.32144" lon="3.37098">
        <ele>439.94</ele>
        <time>2022-09-09T09:09:05Z</time>
      </trkpt>
      <trkpt lat="45.32147" lon="3.37091">
        <ele>439.94</ele>
        <time>2022-09-09T09:09:06Z</time>
      </trkpt>
      <trkpt lat="45.32151" lon="3.37086">
        <ele>439.94</ele>
        <time>2022-09-09T09:09:07Z</time>
      </trkpt>
      <trkpt lat="45.32156" lon="3.37081">
        <ele>439.94</ele>
        <time>2022-09-09T09:09:08Z</time>
      </trkpt>
      <trkpt lat="45.32161" lon="3.37077">
        <ele>440.42</ele>
        <time>2022-09-09T09:09:09Z</time>
      </trkpt>
      <trkpt lat="45.32188" lon="3.37058">
        <ele>439.94</ele>
        <time>2022-09-09T09:09:14Z</time>
      </trkpt>
      <trkpt lat="45.32222" lon="3.37044">
        <ele>441.86</ele>
        <time>2022-09-09T09:09:20Z</time>
      </trkpt>
      <trkpt lat="45.32227" lon="3.37039">
        <ele>440.9</ele>
        <time>2022-09-09T09:09:21Z</time>
      </trkpt>
      <trkpt lat="45.32232" lon="3.37034">
        <ele>440.9</ele>
        <time>2022-09-09T09:09:22Z</time>
      </trkpt>
      <trkpt lat="45.32236" lon="3.37027">
        <ele>439.94</ele>
        <time>2022-09-09T09:09:23Z</time>
      </trkpt>
      <trkpt lat="45.3224" lon="3.37019">
        <ele>439.94</ele>
        <time>2022-09-09T09:09:24Z</time>
      </trkpt>
      <trkpt lat="45.32241" lon="3.3701">
        <ele>439.94</ele>
        <time>2022-09-09T09:09:25Z</time>
      </trkpt>
      <trkpt lat="45.32241" lon="3.37">
        <ele>439.46</ele>
        <time>2022-09-09T09:09:26Z</time>
      </trkpt>
      <trkpt lat="45.32239" lon="3.36991">
        <ele>439.94</ele>
        <time>2022-09-09T09:09:27Z</time>
      </trkpt>
      <trkpt lat="45.32238" lon="3.36982">
        <ele>439.46</ele>
        <time>2022-09-09T09:09:28Z</time>
      </trkpt>
      <trkpt lat="45.32221" lon="3.36906">
        <ele>439.46</ele>
        <time>2022-09-09T09:09:37Z</time>
      </trkpt>
      <trkpt lat="45.3222" lon="3.36897">
        <ele>439.46</ele>
        <time>2022-09-09T09:09:38Z</time>
      </trkpt>
      <trkpt lat="45.32221" lon="3.36889">
        <ele>439.94</ele>
        <time>2022-09-09T09:09:39Z</time>
      </trkpt>
      <trkpt lat="45.32222" lon="3.36881">
        <ele>440.42</ele>
        <time>2022-09-09T09:09:40Z</time>
      </trkpt>
      <trkpt lat="45.32224" lon="3.36873">
        <ele>440.42</ele>
        <time>2022-09-09T09:09:41Z</time>
      </trkpt>
      <trkpt lat="45.32228" lon="3.36866">
        <ele>440.42</ele>
        <time>2022-09-09T09:09:42Z</time>
      </trkpt>
      <trkpt lat="45.32232" lon="3.36859">
        <ele>440.42</ele>
        <time>2022-09-09T09:09:43Z</time>
      </trkpt>
      <trkpt lat="45.32237" lon="3.36855">
        <ele>439.94</ele>
        <time>2022-09-09T09:09:44Z</time>
      </trkpt>
      <trkpt lat="45.32242" lon="3.36852">
        <ele>439.94</ele>
        <time>2022-09-09T09:09:45Z</time>
      </trkpt>
      <trkpt lat="45.32248" lon="3.36849">
        <ele>439.94</ele>
        <time>2022-09-09T09:09:46Z</time>
      </trkpt>
      <trkpt lat="45.32301" lon="3.36826">
        <ele>438.98</ele>
        <time>2022-09-09T09:09:55Z</time>
      </trkpt>
      <trkpt lat="45.3232" lon="3.36818">
        <ele>439.46</ele>
        <time>2022-09-09T09:09:59Z</time>
      </trkpt>
      <trkpt lat="45.32324" lon="3.36818">
        <ele>438.98</ele>
        <time>2022-09-09T09:10:00Z</time>
      </trkpt>
      <trkpt lat="45.32328" lon="3.36821">
        <ele>438.5</ele>
        <time>2022-09-09T09:10:01Z</time>
      </trkpt>
      <trkpt lat="45.32331" lon="3.36825">
        <ele>438.5</ele>
        <time>2022-09-09T09:10:02Z</time>
      </trkpt>
      <trkpt lat="45.32353" lon="3.36842">
        <ele>438.02</ele>
        <time>2022-09-09T09:10:13Z</time>
      </trkpt>
      <trkpt lat="45.32352" lon="3.36843">
        <ele>437.54</ele>
        <time>2022-09-09T09:10:18Z</time>
      </trkpt>
      <trkpt lat="45.32353" lon="3.36843">
        <ele>437.54</ele>
        <time>2022-09-09T09:10:27Z</time>
      </trkpt>
      <trkpt lat="45.32355" lon="3.36842">
        <ele>437.54</ele>
        <time>2022-09-09T09:10:38Z</time>
      </trkpt>
      <trkpt lat="45.32354" lon="3.36841">
        <ele>437.54</ele>
        <time>2022-09-09T09:10:50Z</time>
      </trkpt>
      <trkpt lat="45.32355" lon="3.3684">
        <ele>437.54</ele>
        <time>2022-09-09T09:11:00Z</time>
      </trkpt>
      <trkpt lat="45.32353" lon="3.36838">
        <ele>436.1</ele>
        <time>2022-09-09T09:11:21Z</time>
      </trkpt>
      <trkpt lat="45.32353" lon="3.36837">
        <ele>436.1</ele>
        <time>2022-09-09T09:11:37Z</time>
      </trkpt>
      <trkpt lat="45.32351" lon="3.36837">
        <ele>436.1</ele>
        <time>2022-09-09T09:11:50Z</time>
      </trkpt>
      <trkpt lat="45.32352" lon="3.36838">
        <ele>436.1</ele>
        <time>2022-09-09T09:12:07Z</time>
      </trkpt>
      <trkpt lat="45.32352" lon="3.3684">
        <ele>436.1</ele>
        <time>2022-09-09T09:12:24Z</time>
      </trkpt>
      <trkpt lat="45.32351" lon="3.36842">
        <ele>436.1</ele>
        <time>2022-09-09T09:12:37Z</time>
      </trkpt>
      <trkpt lat="45.32351" lon="3.36843">
        <ele>435.61</ele>
        <time>2022-09-09T09:12:54Z</time>
      </trkpt>
      <trkpt lat="45.32354" lon="3.36836">
        <ele>436.1</ele>
        <time>2022-09-09T09:13:03Z</time>
      </trkpt>
      <trkpt lat="45.32354" lon="3.36838">
        <ele>436.58</ele>
        <time>2022-09-09T09:13:21Z</time>
      </trkpt>
      <trkpt lat="45.32354" lon="3.36835">
        <ele>436.58</ele>
        <time>2022-09-09T09:13:35Z</time>
        <extensions>
          <visugpx:TrkExtension xmlns:visugpx="https://www.visugpx.com/editgpx/">
            <visugpx:node>1</visugpx:node>
            </visugpx:TrkExtension>
        </extensions>
      </trkpt>
    </trkseg>
  </trk>
</gpx>